<?xml version="1.0" encoding="UTF-8" standalone="no" ?>
<gpx xmlns="http://www.topografix.com/GPX/1/1" xmlns:xsi="http://www.w3.org/2001/XMLSchema-instance" xsi:schemaLocation="http://www.topografix.com/GPX/1/1 http://www.topografix.com/GPX/1/1/gpx.xsd" version="1.1" creator="VisuGPX - https://www.visugpx.com">
  <metadata>
    <name>Hivernale de Larchant 2010</name>
    <desc><![CDATA[Rando très technique à proximité du massif de fontainebleau]]></desc>
  </metadata>
  <trk>
    <name><![CDATA[2009_02_01 Hivernale Larchant on GPSies.com]]></name>
    <trkseg>
      <trkpt lat="48.28297" lon="2.5981">
        <ele>78.965454</ele>
        <time>2009-02-01T07:23:20Z</time>
      </trkpt>
      <trkpt lat="48.28288" lon="2.59816">
        <ele>78.965454</ele>
        <time>2009-02-01T07:23:23Z</time>
      </trkpt>
      <trkpt lat="48.28285" lon="2.59818">
        <ele>79.446044</ele>
        <time>2009-02-01T07:23:24Z</time>
      </trkpt>
      <trkpt lat="48.28279" lon="2.59823">
        <ele>80.40747</ele>
        <time>2009-02-01T07:23:26Z</time>
      </trkpt>
      <trkpt lat="48.28275" lon="2.59825">
        <ele>80.40747</ele>
        <time>2009-02-01T07:23:27Z</time>
      </trkpt>
      <trkpt lat="48.28255" lon="2.59838">
        <ele>81.368774</ele>
        <time>2009-02-01T07:23:33Z</time>
      </trkpt>
      <trkpt lat="48.28231" lon="2.59853">
        <ele>81.849365</ele>
        <time>2009-02-01T07:23:40Z</time>
      </trkpt>
      <trkpt lat="48.28209" lon="2.59866">
        <ele>82.330078</ele>
        <time>2009-02-01T07:23:46Z</time>
      </trkpt>
      <trkpt lat="48.28184" lon="2.59884">
        <ele>83.291381</ele>
        <time>2009-02-01T07:23:53Z</time>
      </trkpt>
      <trkpt lat="48.28177" lon="2.59889">
        <ele>83.291381</ele>
        <time>2009-02-01T07:23:55Z</time>
      </trkpt>
      <trkpt lat="48.28162" lon="2.59899">
        <ele>84.733398</ele>
        <time>2009-02-01T07:23:59Z</time>
      </trkpt>
      <trkpt lat="48.28139" lon="2.59914">
        <ele>85.213989</ele>
        <time>2009-02-01T07:24:05Z</time>
      </trkpt>
      <trkpt lat="48.28129" lon="2.59923">
        <ele>85.69458</ele>
        <time>2009-02-01T07:24:08Z</time>
      </trkpt>
      <trkpt lat="48.28125" lon="2.59926">
        <ele>84.733398</ele>
        <time>2009-02-01T07:24:09Z</time>
      </trkpt>
      <trkpt lat="48.28106" lon="2.59951">
        <ele>85.69458</ele>
        <time>2009-02-01T07:24:15Z</time>
      </trkpt>
      <trkpt lat="48.28072" lon="2.59996">
        <ele>87.136596</ele>
        <time>2009-02-01T07:24:26Z</time>
      </trkpt>
      <trkpt lat="48.28048" lon="2.60024">
        <ele>87.617187</ele>
        <time>2009-02-01T07:24:34Z</time>
      </trkpt>
      <trkpt lat="48.28038" lon="2.60037">
        <ele>88.578735</ele>
        <time>2009-02-01T07:24:38Z</time>
      </trkpt>
      <trkpt lat="48.28036" lon="2.6004">
        <ele>88.098022</ele>
        <time>2009-02-01T07:24:39Z</time>
      </trkpt>
      <trkpt lat="48.28033" lon="2.60043">
        <ele>89.059326</ele>
        <time>2009-02-01T07:24:40Z</time>
      </trkpt>
      <trkpt lat="48.28031" lon="2.60046">
        <ele>89.059326</ele>
        <time>2009-02-01T07:24:41Z</time>
      </trkpt>
      <trkpt lat="48.28026" lon="2.60052">
        <ele>89.059326</ele>
        <time>2009-02-01T07:24:43Z</time>
      </trkpt>
      <trkpt lat="48.28023" lon="2.60055">
        <ele>89.059326</ele>
        <time>2009-02-01T07:24:44Z</time>
      </trkpt>
      <trkpt lat="48.27998" lon="2.60084">
        <ele>90.981933</ele>
        <time>2009-02-01T07:24:54Z</time>
      </trkpt>
      <trkpt lat="48.27986" lon="2.60097">
        <ele>91.462524</ele>
        <time>2009-02-01T07:24:59Z</time>
      </trkpt>
      <trkpt lat="48.27978" lon="2.60106">
        <ele>91.943237</ele>
        <time>2009-02-01T07:25:02Z</time>
      </trkpt>
      <trkpt lat="48.27976" lon="2.60109">
        <ele>92.42395</ele>
        <time>2009-02-01T07:25:03Z</time>
      </trkpt>
      <trkpt lat="48.27956" lon="2.60131">
        <ele>93.385131</ele>
        <time>2009-02-01T07:25:12Z</time>
      </trkpt>
      <trkpt lat="48.27946" lon="2.60143">
        <ele>93.385131</ele>
        <time>2009-02-01T07:25:17Z</time>
      </trkpt>
      <trkpt lat="48.27937" lon="2.60154">
        <ele>94.827148</ele>
        <time>2009-02-01T07:25:22Z</time>
      </trkpt>
      <trkpt lat="48.27926" lon="2.60162">
        <ele>95.788452</ele>
        <time>2009-02-01T07:25:28Z</time>
      </trkpt>
      <trkpt lat="48.27924" lon="2.60163">
        <ele>96.269287</ele>
        <time>2009-02-01T07:25:29Z</time>
      </trkpt>
      <trkpt lat="48.27911" lon="2.60165">
        <ele>97.711181</ele>
        <time>2009-02-01T07:25:35Z</time>
      </trkpt>
      <trkpt lat="48.27897" lon="2.60168">
        <ele>98.191894</ele>
        <time>2009-02-01T07:25:41Z</time>
      </trkpt>
      <trkpt lat="48.27886" lon="2.60171">
        <ele>98.672485</ele>
        <time>2009-02-01T07:25:46Z</time>
      </trkpt>
      <trkpt lat="48.27873" lon="2.60174">
        <ele>99.153076</ele>
        <time>2009-02-01T07:25:52Z</time>
      </trkpt>
      <trkpt lat="48.2786" lon="2.60177">
        <ele>100.1145</ele>
        <time>2009-02-01T07:25:58Z</time>
      </trkpt>
      <trkpt lat="48.27847" lon="2.6018">
        <ele>101.55639</ele>
        <time>2009-02-01T07:26:04Z</time>
      </trkpt>
      <trkpt lat="48.27835" lon="2.60185">
        <ele>102.99829</ele>
        <time>2009-02-01T07:26:10Z</time>
      </trkpt>
      <trkpt lat="48.27822" lon="2.60189">
        <ele>103.95971</ele>
        <time>2009-02-01T07:26:16Z</time>
      </trkpt>
      <trkpt lat="48.27811" lon="2.60193">
        <ele>104.92102</ele>
        <time>2009-02-01T07:26:21Z</time>
      </trkpt>
      <trkpt lat="48.27796" lon="2.60198">
        <ele>107.32434</ele>
        <time>2009-02-01T07:26:29Z</time>
      </trkpt>
      <trkpt lat="48.27788" lon="2.602">
        <ele>108.76623</ele>
        <time>2009-02-01T07:26:33Z</time>
      </trkpt>
      <trkpt lat="48.27778" lon="2.60201">
        <ele>110.20825</ele>
        <time>2009-02-01T07:26:38Z</time>
      </trkpt>
      <trkpt lat="48.27767" lon="2.60203">
        <ele>112.13098</ele>
        <time>2009-02-01T07:26:44Z</time>
      </trkpt>
      <trkpt lat="48.27754" lon="2.60203">
        <ele>115.01489</ele>
        <time>2009-02-01T07:26:51Z</time>
      </trkpt>
      <trkpt lat="48.27741" lon="2.60204">
        <ele>116.45678</ele>
        <time>2009-02-01T07:26:57Z</time>
      </trkpt>
      <trkpt lat="48.27725" lon="2.60207">
        <ele>119.34082</ele>
        <time>2009-02-01T07:27:05Z</time>
      </trkpt>
      <trkpt lat="48.2771" lon="2.60211">
        <ele>121.26354</ele>
        <time>2009-02-01T07:27:12Z</time>
      </trkpt>
      <trkpt lat="48.27706" lon="2.60213">
        <ele>122.22473</ele>
        <time>2009-02-01T07:27:14Z</time>
      </trkpt>
      <trkpt lat="48.27693" lon="2.60217">
        <ele>122.22473</ele>
        <time>2009-02-01T07:27:20Z</time>
      </trkpt>
      <trkpt lat="48.27677" lon="2.6022">
        <ele>123.18615</ele>
        <time>2009-02-01T07:27:26Z</time>
      </trkpt>
      <trkpt lat="48.27658" lon="2.60229">
        <ele>123.18615</ele>
        <time>2009-02-01T07:27:34Z</time>
      </trkpt>
      <trkpt lat="48.27643" lon="2.60243">
        <ele>124.62805</ele>
        <time>2009-02-01T07:27:41Z</time>
      </trkpt>
      <trkpt lat="48.27628" lon="2.60255">
        <ele>125.10876</ele>
        <time>2009-02-01T07:27:48Z</time>
      </trkpt>
      <trkpt lat="48.27611" lon="2.60266">
        <ele>124.62805</ele>
        <time>2009-02-01T07:27:55Z</time>
      </trkpt>
      <trkpt lat="48.27591" lon="2.60283">
        <ele>124.62805</ele>
        <time>2009-02-01T07:28:02Z</time>
      </trkpt>
      <trkpt lat="48.27566" lon="2.603">
        <ele>124.14733</ele>
        <time>2009-02-01T07:28:10Z</time>
      </trkpt>
      <trkpt lat="48.27545" lon="2.60316">
        <ele>124.62805</ele>
        <time>2009-02-01T07:28:17Z</time>
      </trkpt>
      <trkpt lat="48.27527" lon="2.60329">
        <ele>125.10876</ele>
        <time>2009-02-01T07:28:24Z</time>
      </trkpt>
      <trkpt lat="48.27526" lon="2.60329">
        <ele>124.62805</ele>
        <time>2009-02-01T07:28:26Z</time>
      </trkpt>
      <trkpt lat="48.27526" lon="2.60329">
        <ele>124.62805</ele>
        <time>2009-02-01T07:29:28Z</time>
      </trkpt>
      <trkpt lat="48.27525" lon="2.6033">
        <ele>124.14733</ele>
        <time>2009-02-01T07:29:29Z</time>
      </trkpt>
      <trkpt lat="48.2752" lon="2.60334">
        <ele>124.62805</ele>
        <time>2009-02-01T07:29:31Z</time>
      </trkpt>
      <trkpt lat="48.27518" lon="2.60335">
        <ele>124.14733</ele>
        <time>2009-02-01T07:29:32Z</time>
      </trkpt>
      <trkpt lat="48.27503" lon="2.60346">
        <ele>124.14733</ele>
        <time>2009-02-01T07:29:38Z</time>
      </trkpt>
      <trkpt lat="48.27493" lon="2.60353">
        <ele>123.18615</ele>
        <time>2009-02-01T07:29:43Z</time>
      </trkpt>
      <trkpt lat="48.27481" lon="2.60362">
        <ele>123.66674</ele>
        <time>2009-02-01T07:29:48Z</time>
      </trkpt>
      <trkpt lat="48.27464" lon="2.60374">
        <ele>123.18615</ele>
        <time>2009-02-01T07:29:54Z</time>
      </trkpt>
      <trkpt lat="48.27435" lon="2.60395">
        <ele>122.70544</ele>
        <time>2009-02-01T07:30:04Z</time>
      </trkpt>
      <trkpt lat="48.2741" lon="2.60414">
        <ele>123.18615</ele>
        <time>2009-02-01T07:30:12Z</time>
      </trkpt>
      <trkpt lat="48.27389" lon="2.60429">
        <ele>122.22473</ele>
        <time>2009-02-01T07:30:19Z</time>
      </trkpt>
      <trkpt lat="48.27373" lon="2.60442">
        <ele>122.70544</ele>
        <time>2009-02-01T07:30:25Z</time>
      </trkpt>
      <trkpt lat="48.27353" lon="2.60457">
        <ele>122.22473</ele>
        <time>2009-02-01T07:30:31Z</time>
      </trkpt>
      <trkpt lat="48.27326" lon="2.60477">
        <ele>121.26354</ele>
        <time>2009-02-01T07:30:38Z</time>
      </trkpt>
      <trkpt lat="48.27285" lon="2.60507">
        <ele>120.30212</ele>
        <time>2009-02-01T07:30:48Z</time>
      </trkpt>
      <trkpt lat="48.27251" lon="2.60528">
        <ele>119.82141</ele>
        <time>2009-02-01T07:30:56Z</time>
      </trkpt>
      <trkpt lat="48.27235" lon="2.6054">
        <ele>118.8601</ele>
        <time>2009-02-01T07:31:00Z</time>
      </trkpt>
      <trkpt lat="48.27209" lon="2.60575">
        <ele>117.8988</ele>
        <time>2009-02-01T07:31:06Z</time>
      </trkpt>
      <trkpt lat="48.27194" lon="2.6059">
        <ele>115.4956</ele>
        <time>2009-02-01T07:31:09Z</time>
      </trkpt>
      <trkpt lat="48.27164" lon="2.60606">
        <ele>110.20825</ele>
        <time>2009-02-01T07:31:13Z</time>
      </trkpt>
      <trkpt lat="48.27155" lon="2.60609">
        <ele>108.28564</ele>
        <time>2009-02-01T07:31:14Z</time>
      </trkpt>
      <trkpt lat="48.27119" lon="2.60646">
        <ele>103.95971</ele>
        <time>2009-02-01T07:31:18Z</time>
      </trkpt>
      <trkpt lat="48.27114" lon="2.60657">
        <ele>102.0371</ele>
        <time>2009-02-01T07:31:19Z</time>
      </trkpt>
      <trkpt lat="48.27088" lon="2.60699">
        <ele>98.672485</ele>
        <time>2009-02-01T07:31:23Z</time>
      </trkpt>
      <trkpt lat="48.27073" lon="2.60719">
        <ele>97.230468</ele>
        <time>2009-02-01T07:31:25Z</time>
      </trkpt>
      <trkpt lat="48.27034" lon="2.60765">
        <ele>92.42395</ele>
        <time>2009-02-01T07:31:30Z</time>
      </trkpt>
      <trkpt lat="48.27025" lon="2.60773">
        <ele>90.981933</ele>
        <time>2009-02-01T07:31:31Z</time>
      </trkpt>
      <trkpt lat="48.26983" lon="2.60796">
        <ele>88.098022</ele>
        <time>2009-02-01T07:31:36Z</time>
      </trkpt>
      <trkpt lat="48.26964" lon="2.60804">
        <ele>87.136596</ele>
        <time>2009-02-01T07:31:38Z</time>
      </trkpt>
      <trkpt lat="48.26946" lon="2.60815">
        <ele>86.175293</ele>
        <time>2009-02-01T07:31:40Z</time>
      </trkpt>
      <trkpt lat="48.26914" lon="2.60843">
        <ele>84.733398</ele>
        <time>2009-02-01T07:31:44Z</time>
      </trkpt>
      <trkpt lat="48.26893" lon="2.60868">
        <ele>82.330078</ele>
        <time>2009-02-01T07:31:48Z</time>
      </trkpt>
      <trkpt lat="48.26886" lon="2.6088">
        <ele>82.330078</ele>
        <time>2009-02-01T07:31:51Z</time>
      </trkpt>
      <trkpt lat="48.26881" lon="2.60913">
        <ele>81.849365</ele>
        <time>2009-02-01T07:31:56Z</time>
      </trkpt>
      <trkpt lat="48.26877" lon="2.6092">
        <ele>81.849365</ele>
        <time>2009-02-01T07:31:58Z</time>
      </trkpt>
      <trkpt lat="48.2687" lon="2.60918">
        <ele>80.40747</ele>
        <time>2009-02-01T07:32:01Z</time>
      </trkpt>
      <trkpt lat="48.26869" lon="2.60914">
        <ele>80.40747</ele>
        <time>2009-02-01T07:32:02Z</time>
      </trkpt>
      <trkpt lat="48.26857" lon="2.60875">
        <ele>80.888183</ele>
        <time>2009-02-01T07:32:09Z</time>
      </trkpt>
      <trkpt lat="48.26853" lon="2.60862">
        <ele>81.849365</ele>
        <time>2009-02-01T07:32:15Z</time>
      </trkpt>
      <trkpt lat="48.26849" lon="2.60853">
        <ele>81.368774</ele>
        <time>2009-02-01T07:32:21Z</time>
      </trkpt>
      <trkpt lat="48.26844" lon="2.60837">
        <ele>81.849365</ele>
        <time>2009-02-01T07:32:26Z</time>
      </trkpt>
      <trkpt lat="48.26836" lon="2.60814">
        <ele>82.330078</ele>
        <time>2009-02-01T07:32:31Z</time>
      </trkpt>
      <trkpt lat="48.26825" lon="2.60781">
        <ele>82.330078</ele>
        <time>2009-02-01T07:32:38Z</time>
      </trkpt>
      <trkpt lat="48.26813" lon="2.60748">
        <ele>83.291381</ele>
        <time>2009-02-01T07:32:44Z</time>
      </trkpt>
      <trkpt lat="48.268" lon="2.60712">
        <ele>83.291381</ele>
        <time>2009-02-01T07:32:50Z</time>
      </trkpt>
      <trkpt lat="48.26783" lon="2.60663">
        <ele>83.771972</ele>
        <time>2009-02-01T07:32:57Z</time>
      </trkpt>
      <trkpt lat="48.26772" lon="2.6061">
        <ele>83.291381</ele>
        <time>2009-02-01T07:33:04Z</time>
      </trkpt>
      <trkpt lat="48.26763" lon="2.60555">
        <ele>84.252685</ele>
        <time>2009-02-01T07:33:12Z</time>
      </trkpt>
      <trkpt lat="48.2676" lon="2.60544">
        <ele>84.733398</ele>
        <time>2009-02-01T07:33:14Z</time>
      </trkpt>
      <trkpt lat="48.26748" lon="2.60542">
        <ele>84.733398</ele>
        <time>2009-02-01T07:33:18Z</time>
      </trkpt>
      <trkpt lat="48.26744" lon="2.60545">
        <ele>85.213989</ele>
        <time>2009-02-01T07:33:19Z</time>
      </trkpt>
      <trkpt lat="48.26734" lon="2.60554">
        <ele>85.213989</ele>
        <time>2009-02-01T07:33:22Z</time>
      </trkpt>
      <trkpt lat="48.26711" lon="2.60563">
        <ele>85.69458</ele>
        <time>2009-02-01T07:33:28Z</time>
      </trkpt>
      <trkpt lat="48.26684" lon="2.60565">
        <ele>86.175293</ele>
        <time>2009-02-01T07:33:35Z</time>
      </trkpt>
      <trkpt lat="48.26657" lon="2.60564">
        <ele>87.617187</ele>
        <time>2009-02-01T07:33:42Z</time>
      </trkpt>
      <trkpt lat="48.26637" lon="2.60565">
        <ele>89.539917</ele>
        <time>2009-02-01T07:33:48Z</time>
      </trkpt>
      <trkpt lat="48.26613" lon="2.60569">
        <ele>91.462524</ele>
        <time>2009-02-01T07:33:55Z</time>
      </trkpt>
      <trkpt lat="48.26595" lon="2.60575">
        <ele>93.865844</ele>
        <time>2009-02-01T07:34:01Z</time>
      </trkpt>
      <trkpt lat="48.2658" lon="2.60582">
        <ele>95.788452</ele>
        <time>2009-02-01T07:34:06Z</time>
      </trkpt>
      <trkpt lat="48.26568" lon="2.60596">
        <ele>97.230468</ele>
        <time>2009-02-01T07:34:11Z</time>
      </trkpt>
      <trkpt lat="48.26563" lon="2.60619">
        <ele>99.153076</ele>
        <time>2009-02-01T07:34:17Z</time>
      </trkpt>
      <trkpt lat="48.26555" lon="2.60648">
        <ele>101.07568</ele>
        <time>2009-02-01T07:34:26Z</time>
      </trkpt>
      <trkpt lat="48.26542" lon="2.60654">
        <ele>102.0371</ele>
        <time>2009-02-01T07:34:31Z</time>
      </trkpt>
      <trkpt lat="48.26524" lon="2.60658">
        <ele>103.479</ele>
        <time>2009-02-01T07:34:37Z</time>
      </trkpt>
      <trkpt lat="48.26504" lon="2.60658">
        <ele>104.44042</ele>
        <time>2009-02-01T07:34:43Z</time>
      </trkpt>
      <trkpt lat="48.26485" lon="2.60643">
        <ele>104.92102</ele>
        <time>2009-02-01T07:34:50Z</time>
      </trkpt>
      <trkpt lat="48.26469" lon="2.60621">
        <ele>105.40173</ele>
        <time>2009-02-01T07:34:57Z</time>
      </trkpt>
      <trkpt lat="48.26467" lon="2.60618">
        <ele>105.88244</ele>
        <time>2009-02-01T07:34:58Z</time>
      </trkpt>
      <trkpt lat="48.26457" lon="2.60618">
        <ele>106.36303</ele>
        <time>2009-02-01T07:35:02Z</time>
      </trkpt>
      <trkpt lat="48.26456" lon="2.60624">
        <ele>106.36303</ele>
        <time>2009-02-01T07:35:04Z</time>
      </trkpt>
      <trkpt lat="48.26455" lon="2.60655">
        <ele>106.84362</ele>
        <time>2009-02-01T07:35:10Z</time>
      </trkpt>
      <trkpt lat="48.26454" lon="2.60677">
        <ele>106.84362</ele>
        <time>2009-02-01T07:35:14Z</time>
      </trkpt>
      <trkpt lat="48.26453" lon="2.60713">
        <ele>106.84362</ele>
        <time>2009-02-01T07:35:20Z</time>
      </trkpt>
      <trkpt lat="48.2645" lon="2.60749">
        <ele>108.28564</ele>
        <time>2009-02-01T07:35:27Z</time>
      </trkpt>
      <trkpt lat="48.26456" lon="2.60776">
        <ele>109.24694</ele>
        <time>2009-02-01T07:35:33Z</time>
      </trkpt>
      <trkpt lat="48.26463" lon="2.60798">
        <ele>110.68884</ele>
        <time>2009-02-01T07:35:39Z</time>
      </trkpt>
      <trkpt lat="48.26471" lon="2.60823">
        <ele>112.61157</ele>
        <time>2009-02-01T07:35:46Z</time>
      </trkpt>
      <trkpt lat="48.26481" lon="2.60863">
        <ele>113.57299</ele>
        <time>2009-02-01T07:35:55Z</time>
      </trkpt>
      <trkpt lat="48.26485" lon="2.60889">
        <ele>115.01489</ele>
        <time>2009-02-01T07:36:00Z</time>
      </trkpt>
      <trkpt lat="48.26496" lon="2.60929">
        <ele>115.4956</ele>
        <time>2009-02-01T07:36:08Z</time>
      </trkpt>
      <trkpt lat="48.26506" lon="2.60957">
        <ele>115.97619</ele>
        <time>2009-02-01T07:36:14Z</time>
      </trkpt>
      <trkpt lat="48.26515" lon="2.60988">
        <ele>115.4956</ele>
        <time>2009-02-01T07:36:21Z</time>
      </trkpt>
      <trkpt lat="48.26523" lon="2.61024">
        <ele>114.53417</ele>
        <time>2009-02-01T07:36:28Z</time>
      </trkpt>
      <trkpt lat="48.26531" lon="2.61066">
        <ele>114.05358</ele>
        <time>2009-02-01T07:36:36Z</time>
      </trkpt>
      <trkpt lat="48.26542" lon="2.61114">
        <ele>113.57299</ele>
        <time>2009-02-01T07:36:44Z</time>
      </trkpt>
      <trkpt lat="48.26559" lon="2.61133">
        <ele>110.68884</ele>
        <time>2009-02-01T07:36:48Z</time>
      </trkpt>
      <trkpt lat="48.2658" lon="2.61128">
        <ele>107.80505</ele>
        <time>2009-02-01T07:36:51Z</time>
      </trkpt>
      <trkpt lat="48.26596" lon="2.61121">
        <ele>106.36303</ele>
        <time>2009-02-01T07:36:53Z</time>
      </trkpt>
      <trkpt lat="48.26617" lon="2.61116">
        <ele>103.479</ele>
        <time>2009-02-01T07:36:56Z</time>
      </trkpt>
      <trkpt lat="48.26625" lon="2.61131">
        <ele>104.92102</ele>
        <time>2009-02-01T07:37:00Z</time>
      </trkpt>
      <trkpt lat="48.26626" lon="2.6114">
        <ele>103.479</ele>
        <time>2009-02-01T07:37:02Z</time>
      </trkpt>
      <trkpt lat="48.26618" lon="2.61154">
        <ele>103.95971</ele>
        <time>2009-02-01T07:37:07Z</time>
      </trkpt>
      <trkpt lat="48.26607" lon="2.612">
        <ele>105.40173</ele>
        <time>2009-02-01T07:37:15Z</time>
      </trkpt>
      <trkpt lat="48.26604" lon="2.61233">
        <ele>106.36303</ele>
        <time>2009-02-01T07:37:21Z</time>
      </trkpt>
      <trkpt lat="48.26606" lon="2.61265">
        <ele>107.32434</ele>
        <time>2009-02-01T07:37:28Z</time>
      </trkpt>
      <trkpt lat="48.26608" lon="2.61292">
        <ele>107.80505</ele>
        <time>2009-02-01T07:37:34Z</time>
      </trkpt>
      <trkpt lat="48.26614" lon="2.61322">
        <ele>109.24694</ele>
        <time>2009-02-01T07:37:41Z</time>
      </trkpt>
      <trkpt lat="48.26622" lon="2.61343">
        <ele>109.72766</ele>
        <time>2009-02-01T07:37:47Z</time>
      </trkpt>
      <trkpt lat="48.2664" lon="2.61364">
        <ele>109.72766</ele>
        <time>2009-02-01T07:37:54Z</time>
      </trkpt>
      <trkpt lat="48.26663" lon="2.61388">
        <ele>109.24694</ele>
        <time>2009-02-01T07:38:01Z</time>
      </trkpt>
      <trkpt lat="48.26678" lon="2.61405">
        <ele>108.28564</ele>
        <time>2009-02-01T07:38:06Z</time>
      </trkpt>
      <trkpt lat="48.26682" lon="2.61417">
        <ele>107.80505</ele>
        <time>2009-02-01T07:38:08Z</time>
      </trkpt>
      <trkpt lat="48.26699" lon="2.61478">
        <ele>105.88244</ele>
        <time>2009-02-01T07:38:15Z</time>
      </trkpt>
      <trkpt lat="48.26702" lon="2.61497">
        <ele>104.44042</ele>
        <time>2009-02-01T07:38:17Z</time>
      </trkpt>
      <trkpt lat="48.26696" lon="2.61549">
        <ele>102.5177</ele>
        <time>2009-02-01T07:38:22Z</time>
      </trkpt>
      <trkpt lat="48.26687" lon="2.61589">
        <ele>102.99829</ele>
        <time>2009-02-01T07:38:26Z</time>
      </trkpt>
      <trkpt lat="48.26686" lon="2.61596">
        <ele>102.5177</ele>
        <time>2009-02-01T07:38:27Z</time>
      </trkpt>
      <trkpt lat="48.26682" lon="2.61614">
        <ele>103.95971</ele>
        <time>2009-02-01T07:38:30Z</time>
      </trkpt>
      <trkpt lat="48.26673" lon="2.61646">
        <ele>107.32434</ele>
        <time>2009-02-01T07:38:37Z</time>
      </trkpt>
      <trkpt lat="48.26669" lon="2.61652">
        <ele>108.76623</ele>
        <time>2009-02-01T07:38:39Z</time>
      </trkpt>
      <trkpt lat="48.26664" lon="2.61671">
        <ele>108.76623</ele>
        <time>2009-02-01T07:38:44Z</time>
      </trkpt>
      <trkpt lat="48.26658" lon="2.61706">
        <ele>109.72766</ele>
        <time>2009-02-01T07:38:51Z</time>
      </trkpt>
      <trkpt lat="48.26654" lon="2.61746">
        <ele>110.20825</ele>
        <time>2009-02-01T07:38:58Z</time>
      </trkpt>
      <trkpt lat="48.26649" lon="2.61774">
        <ele>109.72766</ele>
        <time>2009-02-01T07:39:03Z</time>
      </trkpt>
      <trkpt lat="48.26648" lon="2.61818">
        <ele>110.20825</ele>
        <time>2009-02-01T07:39:10Z</time>
      </trkpt>
      <trkpt lat="48.26655" lon="2.61835">
        <ele>110.20825</ele>
        <time>2009-02-01T07:39:14Z</time>
      </trkpt>
      <trkpt lat="48.26679" lon="2.61856">
        <ele>110.20825</ele>
        <time>2009-02-01T07:39:20Z</time>
      </trkpt>
      <trkpt lat="48.26703" lon="2.61877">
        <ele>109.72766</ele>
        <time>2009-02-01T07:39:26Z</time>
      </trkpt>
      <trkpt lat="48.26721" lon="2.61898">
        <ele>108.28564</ele>
        <time>2009-02-01T07:39:33Z</time>
      </trkpt>
      <trkpt lat="48.26727" lon="2.61909">
        <ele>107.32434</ele>
        <time>2009-02-01T07:39:35Z</time>
      </trkpt>
      <trkpt lat="48.26739" lon="2.61924">
        <ele>104.92102</ele>
        <time>2009-02-01T07:39:38Z</time>
      </trkpt>
      <trkpt lat="48.26757" lon="2.61941">
        <ele>102.0371</ele>
        <time>2009-02-01T07:39:42Z</time>
      </trkpt>
      <trkpt lat="48.26759" lon="2.61944">
        <ele>101.55639</ele>
        <time>2009-02-01T07:39:43Z</time>
      </trkpt>
      <trkpt lat="48.26761" lon="2.61948">
        <ele>102.0371</ele>
        <time>2009-02-01T07:39:44Z</time>
      </trkpt>
      <trkpt lat="48.26774" lon="2.61955">
        <ele>102.0371</ele>
        <time>2009-02-01T07:39:50Z</time>
      </trkpt>
      <trkpt lat="48.26784" lon="2.61961">
        <ele>103.479</ele>
        <time>2009-02-01T07:39:55Z</time>
      </trkpt>
      <trkpt lat="48.26794" lon="2.61968">
        <ele>104.44042</ele>
        <time>2009-02-01T07:40:00Z</time>
      </trkpt>
      <trkpt lat="48.26797" lon="2.6197">
        <ele>104.44042</ele>
        <time>2009-02-01T07:40:02Z</time>
      </trkpt>
      <trkpt lat="48.26804" lon="2.61985">
        <ele>104.44042</ele>
        <time>2009-02-01T07:40:08Z</time>
      </trkpt>
      <trkpt lat="48.26806" lon="2.61989">
        <ele>104.44042</ele>
        <time>2009-02-01T07:40:10Z</time>
      </trkpt>
      <trkpt lat="48.26811" lon="2.61993">
        <ele>104.92102</ele>
        <time>2009-02-01T07:40:13Z</time>
      </trkpt>
      <trkpt lat="48.26816" lon="2.62003">
        <ele>105.88244</ele>
        <time>2009-02-01T07:40:18Z</time>
      </trkpt>
      <trkpt lat="48.26817" lon="2.62012">
        <ele>105.40173</ele>
        <time>2009-02-01T07:40:25Z</time>
      </trkpt>
      <trkpt lat="48.26822" lon="2.62021">
        <ele>105.88244</ele>
        <time>2009-02-01T07:40:34Z</time>
      </trkpt>
      <trkpt lat="48.26823" lon="2.62022">
        <ele>105.88244</ele>
        <time>2009-02-01T07:40:35Z</time>
      </trkpt>
      <trkpt lat="48.26829" lon="2.62033">
        <ele>106.84362</ele>
        <time>2009-02-01T07:40:41Z</time>
      </trkpt>
      <trkpt lat="48.26834" lon="2.62042">
        <ele>109.24694</ele>
        <time>2009-02-01T07:40:45Z</time>
      </trkpt>
      <trkpt lat="48.26838" lon="2.62049">
        <ele>109.24694</ele>
        <time>2009-02-01T07:40:51Z</time>
      </trkpt>
      <trkpt lat="48.26841" lon="2.62058">
        <ele>109.24694</ele>
        <time>2009-02-01T07:40:58Z</time>
      </trkpt>
      <trkpt lat="48.26845" lon="2.6207">
        <ele>108.28564</ele>
        <time>2009-02-01T07:41:05Z</time>
      </trkpt>
      <trkpt lat="48.26849" lon="2.62083">
        <ele>109.24694</ele>
        <time>2009-02-01T07:41:10Z</time>
      </trkpt>
      <trkpt lat="48.26852" lon="2.62093">
        <ele>109.24694</ele>
        <time>2009-02-01T07:41:13Z</time>
      </trkpt>
      <trkpt lat="48.26857" lon="2.62096">
        <ele>109.24694</ele>
        <time>2009-02-01T07:41:16Z</time>
      </trkpt>
      <trkpt lat="48.26862" lon="2.621">
        <ele>109.24694</ele>
        <time>2009-02-01T07:41:20Z</time>
      </trkpt>
      <trkpt lat="48.26864" lon="2.62111">
        <ele>108.76623</ele>
        <time>2009-02-01T07:41:24Z</time>
      </trkpt>
      <trkpt lat="48.26868" lon="2.62128">
        <ele>109.24694</ele>
        <time>2009-02-01T07:41:29Z</time>
      </trkpt>
      <trkpt lat="48.26873" lon="2.62142">
        <ele>109.24694</ele>
        <time>2009-02-01T07:41:34Z</time>
      </trkpt>
      <trkpt lat="48.26876" lon="2.62152">
        <ele>109.72766</ele>
        <time>2009-02-01T07:41:37Z</time>
      </trkpt>
      <trkpt lat="48.26885" lon="2.62163">
        <ele>109.24694</ele>
        <time>2009-02-01T07:41:41Z</time>
      </trkpt>
      <trkpt lat="48.26888" lon="2.62174">
        <ele>109.72766</ele>
        <time>2009-02-01T07:41:44Z</time>
      </trkpt>
      <trkpt lat="48.26889" lon="2.62179">
        <ele>109.72766</ele>
        <time>2009-02-01T07:41:46Z</time>
      </trkpt>
      <trkpt lat="48.26888" lon="2.6219">
        <ele>109.24694</ele>
        <time>2009-02-01T07:41:50Z</time>
      </trkpt>
      <trkpt lat="48.26884" lon="2.62199">
        <ele>109.72766</ele>
        <time>2009-02-01T07:41:55Z</time>
      </trkpt>
      <trkpt lat="48.26879" lon="2.62208">
        <ele>110.20825</ele>
        <time>2009-02-01T07:41:59Z</time>
      </trkpt>
      <trkpt lat="48.26877" lon="2.62218">
        <ele>109.24694</ele>
        <time>2009-02-01T07:42:02Z</time>
      </trkpt>
      <trkpt lat="48.26877" lon="2.62223">
        <ele>109.24694</ele>
        <time>2009-02-01T07:42:04Z</time>
      </trkpt>
      <trkpt lat="48.26882" lon="2.62235">
        <ele>110.20825</ele>
        <time>2009-02-01T07:42:10Z</time>
      </trkpt>
      <trkpt lat="48.26883" lon="2.62246">
        <ele>110.20825</ele>
        <time>2009-02-01T07:42:14Z</time>
      </trkpt>
      <trkpt lat="48.26884" lon="2.6225">
        <ele>109.72766</ele>
        <time>2009-02-01T07:42:16Z</time>
      </trkpt>
      <trkpt lat="48.26893" lon="2.62252">
        <ele>110.20825</ele>
        <time>2009-02-01T07:42:22Z</time>
      </trkpt>
      <trkpt lat="48.26895" lon="2.62252">
        <ele>110.20825</ele>
        <time>2009-02-01T07:42:24Z</time>
      </trkpt>
      <trkpt lat="48.26899" lon="2.62262">
        <ele>110.68884</ele>
        <time>2009-02-01T07:42:29Z</time>
      </trkpt>
      <trkpt lat="48.26899" lon="2.62263">
        <ele>110.20825</ele>
        <time>2009-02-01T07:42:30Z</time>
      </trkpt>
      <trkpt lat="48.26899" lon="2.62276">
        <ele>109.24694</ele>
        <time>2009-02-01T07:42:34Z</time>
      </trkpt>
      <trkpt lat="48.26903" lon="2.62291">
        <ele>108.76623</ele>
        <time>2009-02-01T07:42:39Z</time>
      </trkpt>
      <trkpt lat="48.26904" lon="2.62301">
        <ele>109.72766</ele>
        <time>2009-02-01T07:42:42Z</time>
      </trkpt>
      <trkpt lat="48.26904" lon="2.62314">
        <ele>110.20825</ele>
        <time>2009-02-01T07:42:45Z</time>
      </trkpt>
      <trkpt lat="48.26906" lon="2.62335">
        <ele>109.24694</ele>
        <time>2009-02-01T07:42:50Z</time>
      </trkpt>
      <trkpt lat="48.26915" lon="2.62344">
        <ele>108.76623</ele>
        <time>2009-02-01T07:42:54Z</time>
      </trkpt>
      <trkpt lat="48.26922" lon="2.62347">
        <ele>107.32434</ele>
        <time>2009-02-01T07:42:58Z</time>
      </trkpt>
      <trkpt lat="48.26926" lon="2.62337">
        <ele>107.32434</ele>
        <time>2009-02-01T07:43:01Z</time>
      </trkpt>
      <trkpt lat="48.26926" lon="2.62333">
        <ele>107.32434</ele>
        <time>2009-02-01T07:43:02Z</time>
      </trkpt>
      <trkpt lat="48.26927" lon="2.62327">
        <ele>107.80505</ele>
        <time>2009-02-01T07:43:06Z</time>
      </trkpt>
      <trkpt lat="48.26928" lon="2.62325">
        <ele>108.28564</ele>
        <time>2009-02-01T07:43:18Z</time>
      </trkpt>
      <trkpt lat="48.26928" lon="2.62324">
        <ele>107.80505</ele>
        <time>2009-02-01T07:43:19Z</time>
      </trkpt>
      <trkpt lat="48.26928" lon="2.62322">
        <ele>107.80505</ele>
        <time>2009-02-01T07:43:34Z</time>
      </trkpt>
      <trkpt lat="48.26928" lon="2.62319">
        <ele>108.28564</ele>
        <time>2009-02-01T07:43:35Z</time>
      </trkpt>
      <trkpt lat="48.26924" lon="2.62307">
        <ele>108.28564</ele>
        <time>2009-02-01T07:43:39Z</time>
      </trkpt>
      <trkpt lat="48.26924" lon="2.62305">
        <ele>109.72766</ele>
        <time>2009-02-01T07:43:40Z</time>
      </trkpt>
      <trkpt lat="48.26923" lon="2.62294">
        <ele>109.72766</ele>
        <time>2009-02-01T07:43:45Z</time>
      </trkpt>
      <trkpt lat="48.26924" lon="2.6229">
        <ele>109.72766</ele>
        <time>2009-02-01T07:43:49Z</time>
      </trkpt>
      <trkpt lat="48.26928" lon="2.62281">
        <ele>109.72766</ele>
        <time>2009-02-01T07:43:54Z</time>
      </trkpt>
      <trkpt lat="48.2693" lon="2.62278">
        <ele>109.72766</ele>
        <time>2009-02-01T07:43:56Z</time>
      </trkpt>
      <trkpt lat="48.26937" lon="2.62271">
        <ele>109.24694</ele>
        <time>2009-02-01T07:44:00Z</time>
      </trkpt>
      <trkpt lat="48.26939" lon="2.62258">
        <ele>108.76623</ele>
        <time>2009-02-01T07:44:05Z</time>
      </trkpt>
      <trkpt lat="48.26937" lon="2.62247">
        <ele>108.76623</ele>
        <time>2009-02-01T07:44:08Z</time>
      </trkpt>
      <trkpt lat="48.26936" lon="2.6224">
        <ele>108.28564</ele>
        <time>2009-02-01T07:44:10Z</time>
      </trkpt>
      <trkpt lat="48.26933" lon="2.62224">
        <ele>108.28564</ele>
        <time>2009-02-01T07:44:14Z</time>
      </trkpt>
      <trkpt lat="48.26929" lon="2.62201">
        <ele>107.80505</ele>
        <time>2009-02-01T07:44:19Z</time>
      </trkpt>
      <trkpt lat="48.26927" lon="2.62185">
        <ele>108.76623</ele>
        <time>2009-02-01T07:44:23Z</time>
      </trkpt>
      <trkpt lat="48.26926" lon="2.62182">
        <ele>108.28564</ele>
        <time>2009-02-01T07:44:24Z</time>
      </trkpt>
      <trkpt lat="48.26917" lon="2.62169">
        <ele>108.76623</ele>
        <time>2009-02-01T07:44:29Z</time>
      </trkpt>
      <trkpt lat="48.26915" lon="2.62167">
        <ele>108.28564</ele>
        <time>2009-02-01T07:44:30Z</time>
      </trkpt>
      <trkpt lat="48.26907" lon="2.62158">
        <ele>109.24694</ele>
        <time>2009-02-01T07:44:33Z</time>
      </trkpt>
      <trkpt lat="48.26904" lon="2.62137">
        <ele>108.28564</ele>
        <time>2009-02-01T07:44:38Z</time>
      </trkpt>
      <trkpt lat="48.26914" lon="2.62127">
        <ele>104.92102</ele>
        <time>2009-02-01T07:44:43Z</time>
      </trkpt>
      <trkpt lat="48.26916" lon="2.62123">
        <ele>105.40173</ele>
        <time>2009-02-01T07:44:44Z</time>
      </trkpt>
      <trkpt lat="48.26917" lon="2.62114">
        <ele>104.92102</ele>
        <time>2009-02-01T07:44:47Z</time>
      </trkpt>
      <trkpt lat="48.26912" lon="2.62102">
        <ele>104.92102</ele>
        <time>2009-02-01T07:44:52Z</time>
      </trkpt>
      <trkpt lat="48.2691" lon="2.6209">
        <ele>105.40173</ele>
        <time>2009-02-01T07:44:56Z</time>
      </trkpt>
      <trkpt lat="48.2691" lon="2.62087">
        <ele>105.88244</ele>
        <time>2009-02-01T07:44:57Z</time>
      </trkpt>
      <trkpt lat="48.26909" lon="2.62079">
        <ele>104.44042</ele>
        <time>2009-02-01T07:45:00Z</time>
      </trkpt>
      <trkpt lat="48.26909" lon="2.62067">
        <ele>104.44042</ele>
        <time>2009-02-01T07:45:05Z</time>
      </trkpt>
      <trkpt lat="48.26908" lon="2.62061">
        <ele>104.92102</ele>
        <time>2009-02-01T07:45:10Z</time>
      </trkpt>
      <trkpt lat="48.26912" lon="2.62061">
        <ele>104.92102</ele>
        <time>2009-02-01T07:45:26Z</time>
      </trkpt>
      <trkpt lat="48.26912" lon="2.6206">
        <ele>105.40173</ele>
        <time>2009-02-01T07:45:27Z</time>
      </trkpt>
      <trkpt lat="48.26912" lon="2.6206">
        <ele>104.44042</ele>
        <time>2009-02-01T07:45:28Z</time>
      </trkpt>
      <trkpt lat="48.26912" lon="2.62058">
        <ele>104.92102</ele>
        <time>2009-02-01T07:45:35Z</time>
      </trkpt>
      <trkpt lat="48.26911" lon="2.62049">
        <ele>105.88244</ele>
        <time>2009-02-01T07:45:39Z</time>
      </trkpt>
      <trkpt lat="48.2691" lon="2.62046">
        <ele>105.88244</ele>
        <time>2009-02-01T07:45:42Z</time>
      </trkpt>
      <trkpt lat="48.26901" lon="2.62043">
        <ele>108.28564</ele>
        <time>2009-02-01T07:45:47Z</time>
      </trkpt>
      <trkpt lat="48.26898" lon="2.62041">
        <ele>108.76623</ele>
        <time>2009-02-01T07:45:49Z</time>
      </trkpt>
      <trkpt lat="48.26897" lon="2.62037">
        <ele>107.32434</ele>
        <time>2009-02-01T07:45:51Z</time>
      </trkpt>
      <trkpt lat="48.26892" lon="2.62034">
        <ele>106.36303</ele>
        <time>2009-02-01T07:45:54Z</time>
      </trkpt>
      <trkpt lat="48.26885" lon="2.62029">
        <ele>106.36303</ele>
        <time>2009-02-01T07:45:58Z</time>
      </trkpt>
      <trkpt lat="48.26878" lon="2.62024">
        <ele>107.32434</ele>
        <time>2009-02-01T07:46:04Z</time>
      </trkpt>
      <trkpt lat="48.26873" lon="2.62017">
        <ele>107.80505</ele>
        <time>2009-02-01T07:46:09Z</time>
      </trkpt>
      <trkpt lat="48.26873" lon="2.6201">
        <ele>108.28564</ele>
        <time>2009-02-01T07:46:13Z</time>
      </trkpt>
      <trkpt lat="48.26881" lon="2.62011">
        <ele>108.28564</ele>
        <time>2009-02-01T07:46:18Z</time>
      </trkpt>
      <trkpt lat="48.26888" lon="2.62023">
        <ele>109.24694</ele>
        <time>2009-02-01T07:46:22Z</time>
      </trkpt>
      <trkpt lat="48.26892" lon="2.62025">
        <ele>109.24694</ele>
        <time>2009-02-01T07:46:25Z</time>
      </trkpt>
      <trkpt lat="48.269" lon="2.62021">
        <ele>105.88244</ele>
        <time>2009-02-01T07:46:30Z</time>
      </trkpt>
      <trkpt lat="48.26901" lon="2.6202">
        <ele>105.88244</ele>
        <time>2009-02-01T07:46:31Z</time>
      </trkpt>
      <trkpt lat="48.26901" lon="2.62017">
        <ele>105.88244</ele>
        <time>2009-02-01T07:46:34Z</time>
      </trkpt>
      <trkpt lat="48.26901" lon="2.62015">
        <ele>106.36303</ele>
        <time>2009-02-01T07:46:38Z</time>
      </trkpt>
      <trkpt lat="48.26901" lon="2.6201">
        <ele>106.36303</ele>
        <time>2009-02-01T07:46:42Z</time>
      </trkpt>
      <trkpt lat="48.26897" lon="2.62004">
        <ele>105.88244</ele>
        <time>2009-02-01T07:47:07Z</time>
      </trkpt>
      <trkpt lat="48.26898" lon="2.62003">
        <ele>105.88244</ele>
        <time>2009-02-01T07:47:08Z</time>
      </trkpt>
      <trkpt lat="48.269" lon="2.61999">
        <ele>105.88244</ele>
        <time>2009-02-01T07:47:13Z</time>
      </trkpt>
      <trkpt lat="48.269" lon="2.61998">
        <ele>105.88244</ele>
        <time>2009-02-01T07:47:18Z</time>
      </trkpt>
      <trkpt lat="48.26896" lon="2.61999">
        <ele>109.24694</ele>
        <time>2009-02-01T07:47:22Z</time>
      </trkpt>
      <trkpt lat="48.26896" lon="2.61997">
        <ele>109.24694</ele>
        <time>2009-02-01T07:47:24Z</time>
      </trkpt>
      <trkpt lat="48.269" lon="2.61991">
        <ele>105.40173</ele>
        <time>2009-02-01T07:47:30Z</time>
      </trkpt>
      <trkpt lat="48.26902" lon="2.61987">
        <ele>106.36303</ele>
        <time>2009-02-01T07:47:34Z</time>
      </trkpt>
      <trkpt lat="48.26902" lon="2.61987">
        <ele>106.36303</ele>
        <time>2009-02-01T07:47:37Z</time>
      </trkpt>
      <trkpt lat="48.26902" lon="2.61985">
        <ele>105.88244</ele>
        <time>2009-02-01T07:47:38Z</time>
      </trkpt>
      <trkpt lat="48.26902" lon="2.61984">
        <ele>105.88244</ele>
        <time>2009-02-01T07:47:39Z</time>
      </trkpt>
      <trkpt lat="48.269" lon="2.61978">
        <ele>107.32434</ele>
        <time>2009-02-01T07:47:42Z</time>
      </trkpt>
      <trkpt lat="48.269" lon="2.61976">
        <ele>108.76623</ele>
        <time>2009-02-01T07:47:46Z</time>
      </trkpt>
      <trkpt lat="48.26899" lon="2.61975">
        <ele>109.24694</ele>
        <time>2009-02-01T07:47:47Z</time>
      </trkpt>
      <trkpt lat="48.26898" lon="2.61968">
        <ele>109.24694</ele>
        <time>2009-02-01T07:47:50Z</time>
      </trkpt>
      <trkpt lat="48.26892" lon="2.61962">
        <ele>109.72766</ele>
        <time>2009-02-01T07:47:55Z</time>
      </trkpt>
      <trkpt lat="48.26887" lon="2.61951">
        <ele>109.24694</ele>
        <time>2009-02-01T07:47:59Z</time>
      </trkpt>
      <trkpt lat="48.26885" lon="2.61929">
        <ele>110.20825</ele>
        <time>2009-02-01T07:48:05Z</time>
      </trkpt>
      <trkpt lat="48.26885" lon="2.61925">
        <ele>110.20825</ele>
        <time>2009-02-01T07:48:06Z</time>
      </trkpt>
      <trkpt lat="48.26876" lon="2.619">
        <ele>110.68884</ele>
        <time>2009-02-01T07:48:13Z</time>
      </trkpt>
      <trkpt lat="48.26871" lon="2.61883">
        <ele>112.13098</ele>
        <time>2009-02-01T07:48:18Z</time>
      </trkpt>
      <trkpt lat="48.26871" lon="2.61879">
        <ele>112.61157</ele>
        <time>2009-02-01T07:48:19Z</time>
      </trkpt>
      <trkpt lat="48.26863" lon="2.6186">
        <ele>113.57299</ele>
        <time>2009-02-01T07:48:25Z</time>
      </trkpt>
      <trkpt lat="48.26861" lon="2.61825">
        <ele>115.01489</ele>
        <time>2009-02-01T07:48:34Z</time>
      </trkpt>
      <trkpt lat="48.26859" lon="2.61801">
        <ele>116.45678</ele>
        <time>2009-02-01T07:48:41Z</time>
      </trkpt>
      <trkpt lat="48.26858" lon="2.61784">
        <ele>118.37939</ele>
        <time>2009-02-01T07:48:46Z</time>
      </trkpt>
      <trkpt lat="48.26858" lon="2.61763">
        <ele>120.30212</ele>
        <time>2009-02-01T07:48:52Z</time>
      </trkpt>
      <trkpt lat="48.26854" lon="2.61736">
        <ele>120.78283</ele>
        <time>2009-02-01T07:48:58Z</time>
      </trkpt>
      <trkpt lat="48.26844" lon="2.61702">
        <ele>120.78283</ele>
        <time>2009-02-01T07:49:06Z</time>
      </trkpt>
      <trkpt lat="48.26831" lon="2.61661">
        <ele>121.74414</ele>
        <time>2009-02-01T07:49:15Z</time>
      </trkpt>
      <trkpt lat="48.26816" lon="2.61621">
        <ele>121.26354</ele>
        <time>2009-02-01T07:49:23Z</time>
      </trkpt>
      <trkpt lat="48.26809" lon="2.616">
        <ele>120.78283</ele>
        <time>2009-02-01T07:49:26Z</time>
      </trkpt>
      <trkpt lat="48.26803" lon="2.61574">
        <ele>119.82141</ele>
        <time>2009-02-01T07:49:30Z</time>
      </trkpt>
      <trkpt lat="48.26801" lon="2.6156">
        <ele>119.82141</ele>
        <time>2009-02-01T07:49:32Z</time>
      </trkpt>
      <trkpt lat="48.26796" lon="2.61513">
        <ele>119.82141</ele>
        <time>2009-02-01T07:49:39Z</time>
      </trkpt>
      <trkpt lat="48.26795" lon="2.61507">
        <ele>120.30212</ele>
        <time>2009-02-01T07:49:40Z</time>
      </trkpt>
      <trkpt lat="48.2679" lon="2.6145">
        <ele>119.82141</ele>
        <time>2009-02-01T07:49:49Z</time>
      </trkpt>
      <trkpt lat="48.26782" lon="2.614">
        <ele>119.34082</ele>
        <time>2009-02-01T07:49:58Z</time>
      </trkpt>
      <trkpt lat="48.2678" lon="2.61345">
        <ele>120.78283</ele>
        <time>2009-02-01T07:50:07Z</time>
      </trkpt>
      <trkpt lat="48.26773" lon="2.61295">
        <ele>120.78283</ele>
        <time>2009-02-01T07:50:15Z</time>
      </trkpt>
      <trkpt lat="48.26777" lon="2.61266">
        <ele>121.74414</ele>
        <time>2009-02-01T07:50:20Z</time>
      </trkpt>
      <trkpt lat="48.26783" lon="2.61255">
        <ele>121.74414</ele>
        <time>2009-02-01T07:50:22Z</time>
      </trkpt>
      <trkpt lat="48.26797" lon="2.61232">
        <ele>121.74414</ele>
        <time>2009-02-01T07:50:27Z</time>
      </trkpt>
      <trkpt lat="48.26818" lon="2.61204">
        <ele>121.26354</ele>
        <time>2009-02-01T07:50:34Z</time>
      </trkpt>
      <trkpt lat="48.26832" lon="2.61183">
        <ele>120.78283</ele>
        <time>2009-02-01T07:50:40Z</time>
      </trkpt>
      <trkpt lat="48.26834" lon="2.61174">
        <ele>120.78283</ele>
        <time>2009-02-01T07:50:44Z</time>
      </trkpt>
      <trkpt lat="48.26836" lon="2.61171">
        <ele>120.78283</ele>
        <time>2009-02-01T07:50:48Z</time>
      </trkpt>
      <trkpt lat="48.26836" lon="2.61171">
        <ele>120.78283</ele>
        <time>2009-02-01T07:50:51Z</time>
      </trkpt>
      <trkpt lat="48.2684" lon="2.61168">
        <ele>121.26354</ele>
        <time>2009-02-01T07:50:57Z</time>
      </trkpt>
      <trkpt lat="48.26841" lon="2.61169">
        <ele>120.30212</ele>
        <time>2009-02-01T07:51:04Z</time>
      </trkpt>
      <trkpt lat="48.26843" lon="2.61171">
        <ele>119.82141</ele>
        <time>2009-02-01T07:51:07Z</time>
      </trkpt>
      <trkpt lat="48.26845" lon="2.61174">
        <ele>120.30212</ele>
        <time>2009-02-01T07:51:29Z</time>
      </trkpt>
      <trkpt lat="48.26845" lon="2.61174">
        <ele>120.30212</ele>
        <time>2009-02-01T07:51:30Z</time>
      </trkpt>
      <trkpt lat="48.26847" lon="2.61181">
        <ele>118.8601</ele>
        <time>2009-02-01T07:51:33Z</time>
      </trkpt>
      <trkpt lat="48.26848" lon="2.61186">
        <ele>117.41821</ele>
        <time>2009-02-01T07:51:37Z</time>
      </trkpt>
      <trkpt lat="48.26848" lon="2.61191">
        <ele>115.4956</ele>
        <time>2009-02-01T07:51:39Z</time>
      </trkpt>
      <trkpt lat="48.26848" lon="2.61196">
        <ele>115.4956</ele>
        <time>2009-02-01T07:51:41Z</time>
      </trkpt>
      <trkpt lat="48.26845" lon="2.61204">
        <ele>114.53417</ele>
        <time>2009-02-01T07:51:47Z</time>
      </trkpt>
      <trkpt lat="48.26845" lon="2.61205">
        <ele>114.05358</ele>
        <time>2009-02-01T07:51:50Z</time>
      </trkpt>
      <trkpt lat="48.26844" lon="2.61208">
        <ele>114.05358</ele>
        <time>2009-02-01T07:51:52Z</time>
      </trkpt>
      <trkpt lat="48.26844" lon="2.61209">
        <ele>113.57299</ele>
        <time>2009-02-01T07:51:55Z</time>
      </trkpt>
      <trkpt lat="48.26841" lon="2.61219">
        <ele>112.13098</ele>
        <time>2009-02-01T07:51:58Z</time>
      </trkpt>
      <trkpt lat="48.26835" lon="2.61229">
        <ele>110.68884</ele>
        <time>2009-02-01T07:52:05Z</time>
      </trkpt>
      <trkpt lat="48.2683" lon="2.61238">
        <ele>110.20825</ele>
        <time>2009-02-01T07:52:11Z</time>
      </trkpt>
      <trkpt lat="48.26826" lon="2.61244">
        <ele>108.28564</ele>
        <time>2009-02-01T07:52:16Z</time>
      </trkpt>
      <trkpt lat="48.26823" lon="2.61249">
        <ele>107.80505</ele>
        <time>2009-02-01T07:52:19Z</time>
      </trkpt>
      <trkpt lat="48.2682" lon="2.61258">
        <ele>105.40173</ele>
        <time>2009-02-01T07:52:26Z</time>
      </trkpt>
      <trkpt lat="48.26819" lon="2.61265">
        <ele>103.479</ele>
        <time>2009-02-01T07:52:30Z</time>
      </trkpt>
      <trkpt lat="48.26819" lon="2.61267">
        <ele>102.99829</ele>
        <time>2009-02-01T07:52:31Z</time>
      </trkpt>
      <trkpt lat="48.26822" lon="2.61283">
        <ele>99.153076</ele>
        <time>2009-02-01T07:52:37Z</time>
      </trkpt>
      <trkpt lat="48.26822" lon="2.61284">
        <ele>99.633789</ele>
        <time>2009-02-01T07:52:40Z</time>
      </trkpt>
      <trkpt lat="48.26821" lon="2.61287">
        <ele>99.633789</ele>
        <time>2009-02-01T07:52:42Z</time>
      </trkpt>
      <trkpt lat="48.26821" lon="2.61288">
        <ele>99.153076</ele>
        <time>2009-02-01T07:52:45Z</time>
      </trkpt>
      <trkpt lat="48.26821" lon="2.61289">
        <ele>99.153076</ele>
        <time>2009-02-01T07:52:46Z</time>
      </trkpt>
      <trkpt lat="48.26822" lon="2.61289">
        <ele>99.153076</ele>
        <time>2009-02-01T07:52:47Z</time>
      </trkpt>
      <trkpt lat="48.26822" lon="2.6129">
        <ele>99.153076</ele>
        <time>2009-02-01T07:52:50Z</time>
      </trkpt>
      <trkpt lat="48.26826" lon="2.61296">
        <ele>97.711181</ele>
        <time>2009-02-01T07:52:52Z</time>
      </trkpt>
      <trkpt lat="48.26826" lon="2.61297">
        <ele>96.749877</ele>
        <time>2009-02-01T07:52:54Z</time>
      </trkpt>
      <trkpt lat="48.26828" lon="2.61299">
        <ele>95.788452</ele>
        <time>2009-02-01T07:53:01Z</time>
      </trkpt>
      <trkpt lat="48.26829" lon="2.613">
        <ele>95.307739</ele>
        <time>2009-02-01T07:53:02Z</time>
      </trkpt>
      <trkpt lat="48.2683" lon="2.61302">
        <ele>94.346557</ele>
        <time>2009-02-01T07:53:05Z</time>
      </trkpt>
      <trkpt lat="48.2683" lon="2.61302">
        <ele>94.827148</ele>
        <time>2009-02-01T07:53:08Z</time>
      </trkpt>
      <trkpt lat="48.2683" lon="2.61303">
        <ele>94.346557</ele>
        <time>2009-02-01T07:53:09Z</time>
      </trkpt>
      <trkpt lat="48.26831" lon="2.61304">
        <ele>93.385131</ele>
        <time>2009-02-01T07:53:12Z</time>
      </trkpt>
      <trkpt lat="48.26833" lon="2.61306">
        <ele>91.943237</ele>
        <time>2009-02-01T07:53:13Z</time>
      </trkpt>
      <trkpt lat="48.26833" lon="2.61307">
        <ele>92.42395</ele>
        <time>2009-02-01T07:53:14Z</time>
      </trkpt>
      <trkpt lat="48.26833" lon="2.61307">
        <ele>91.943237</ele>
        <time>2009-02-01T07:53:17Z</time>
      </trkpt>
      <trkpt lat="48.26837" lon="2.61295">
        <ele>90.981933</ele>
        <time>2009-02-01T07:53:21Z</time>
      </trkpt>
      <trkpt lat="48.26837" lon="2.61296">
        <ele>90.501342</ele>
        <time>2009-02-01T07:53:24Z</time>
      </trkpt>
      <trkpt lat="48.26837" lon="2.61297">
        <ele>90.020629</ele>
        <time>2009-02-01T07:53:27Z</time>
      </trkpt>
      <trkpt lat="48.26837" lon="2.61298">
        <ele>90.020629</ele>
        <time>2009-02-01T07:53:28Z</time>
      </trkpt>
      <trkpt lat="48.26842" lon="2.61307">
        <ele>87.136596</ele>
        <time>2009-02-01T07:53:34Z</time>
      </trkpt>
      <trkpt lat="48.26845" lon="2.61317">
        <ele>86.656005</ele>
        <time>2009-02-01T07:53:39Z</time>
      </trkpt>
      <trkpt lat="48.26849" lon="2.61329">
        <ele>85.69458</ele>
        <time>2009-02-01T07:53:44Z</time>
      </trkpt>
      <trkpt lat="48.26852" lon="2.61334">
        <ele>86.175293</ele>
        <time>2009-02-01T07:53:48Z</time>
      </trkpt>
      <trkpt lat="48.26856" lon="2.61347">
        <ele>87.617187</ele>
        <time>2009-02-01T07:53:55Z</time>
      </trkpt>
      <trkpt lat="48.26856" lon="2.61351">
        <ele>88.098022</ele>
        <time>2009-02-01T07:53:57Z</time>
      </trkpt>
      <trkpt lat="48.26853" lon="2.61358">
        <ele>89.059326</ele>
        <time>2009-02-01T07:54:01Z</time>
      </trkpt>
      <trkpt lat="48.26854" lon="2.61369">
        <ele>88.578735</ele>
        <time>2009-02-01T07:54:05Z</time>
      </trkpt>
      <trkpt lat="48.26854" lon="2.61384">
        <ele>90.981933</ele>
        <time>2009-02-01T07:54:11Z</time>
      </trkpt>
      <trkpt lat="48.26856" lon="2.61397">
        <ele>91.943237</ele>
        <time>2009-02-01T07:54:15Z</time>
      </trkpt>
      <trkpt lat="48.26863" lon="2.61414">
        <ele>92.904541</ele>
        <time>2009-02-01T07:54:21Z</time>
      </trkpt>
      <trkpt lat="48.26871" lon="2.61425">
        <ele>92.904541</ele>
        <time>2009-02-01T07:54:25Z</time>
      </trkpt>
      <trkpt lat="48.26883" lon="2.61437">
        <ele>88.578735</ele>
        <time>2009-02-01T07:54:30Z</time>
      </trkpt>
      <trkpt lat="48.26899" lon="2.61454">
        <ele>87.617187</ele>
        <time>2009-02-01T07:54:35Z</time>
      </trkpt>
      <trkpt lat="48.26906" lon="2.61467">
        <ele>88.098022</ele>
        <time>2009-02-01T07:54:39Z</time>
      </trkpt>
      <trkpt lat="48.2691" lon="2.61481">
        <ele>87.617187</ele>
        <time>2009-02-01T07:54:44Z</time>
      </trkpt>
      <trkpt lat="48.2691" lon="2.61484">
        <ele>88.578735</ele>
        <time>2009-02-01T07:54:45Z</time>
      </trkpt>
      <trkpt lat="48.26921" lon="2.61499">
        <ele>88.098022</ele>
        <time>2009-02-01T07:54:50Z</time>
      </trkpt>
      <trkpt lat="48.26926" lon="2.61517">
        <ele>87.617187</ele>
        <time>2009-02-01T07:54:54Z</time>
      </trkpt>
      <trkpt lat="48.26928" lon="2.61521">
        <ele>87.617187</ele>
        <time>2009-02-01T07:54:56Z</time>
      </trkpt>
      <trkpt lat="48.26934" lon="2.61542">
        <ele>88.098022</ele>
        <time>2009-02-01T07:55:02Z</time>
      </trkpt>
      <trkpt lat="48.26932" lon="2.61551">
        <ele>89.059326</ele>
        <time>2009-02-01T07:55:05Z</time>
      </trkpt>
      <trkpt lat="48.26925" lon="2.61556">
        <ele>89.059326</ele>
        <time>2009-02-01T07:55:09Z</time>
      </trkpt>
      <trkpt lat="48.26911" lon="2.61563">
        <ele>90.501342</ele>
        <time>2009-02-01T07:55:15Z</time>
      </trkpt>
      <trkpt lat="48.26902" lon="2.61569">
        <ele>91.943237</ele>
        <time>2009-02-01T07:55:20Z</time>
      </trkpt>
      <trkpt lat="48.26901" lon="2.6157">
        <ele>92.42395</ele>
        <time>2009-02-01T07:55:22Z</time>
      </trkpt>
      <trkpt lat="48.269" lon="2.6157">
        <ele>91.943237</ele>
        <time>2009-02-01T07:55:25Z</time>
      </trkpt>
      <trkpt lat="48.26896" lon="2.61575">
        <ele>94.346557</ele>
        <time>2009-02-01T07:55:28Z</time>
      </trkpt>
      <trkpt lat="48.26895" lon="2.61585">
        <ele>94.827148</ele>
        <time>2009-02-01T07:55:32Z</time>
      </trkpt>
      <trkpt lat="48.26898" lon="2.61603">
        <ele>95.788452</ele>
        <time>2009-02-01T07:55:37Z</time>
      </trkpt>
      <trkpt lat="48.26899" lon="2.61608">
        <ele>96.749877</ele>
        <time>2009-02-01T07:55:39Z</time>
      </trkpt>
      <trkpt lat="48.269" lon="2.61616">
        <ele>96.749877</ele>
        <time>2009-02-01T07:55:42Z</time>
      </trkpt>
      <trkpt lat="48.26904" lon="2.6163">
        <ele>97.230468</ele>
        <time>2009-02-01T07:55:47Z</time>
      </trkpt>
      <trkpt lat="48.26905" lon="2.61633">
        <ele>97.711181</ele>
        <time>2009-02-01T07:55:48Z</time>
      </trkpt>
      <trkpt lat="48.26913" lon="2.61652">
        <ele>98.191894</ele>
        <time>2009-02-01T07:55:55Z</time>
      </trkpt>
      <trkpt lat="48.26922" lon="2.61664">
        <ele>98.191894</ele>
        <time>2009-02-01T07:55:59Z</time>
      </trkpt>
      <trkpt lat="48.26923" lon="2.61666">
        <ele>98.672485</ele>
        <time>2009-02-01T07:56:00Z</time>
      </trkpt>
      <trkpt lat="48.26926" lon="2.6168">
        <ele>100.59509</ele>
        <time>2009-02-01T07:56:05Z</time>
      </trkpt>
      <trkpt lat="48.26927" lon="2.61685">
        <ele>99.633789</ele>
        <time>2009-02-01T07:56:07Z</time>
      </trkpt>
      <trkpt lat="48.26931" lon="2.61689">
        <ele>100.1145</ele>
        <time>2009-02-01T07:56:09Z</time>
      </trkpt>
      <trkpt lat="48.26942" lon="2.61709">
        <ele>99.153076</ele>
        <time>2009-02-01T07:56:15Z</time>
      </trkpt>
      <trkpt lat="48.2695" lon="2.61722">
        <ele>98.672485</ele>
        <time>2009-02-01T07:56:19Z</time>
      </trkpt>
      <trkpt lat="48.26961" lon="2.61745">
        <ele>98.672485</ele>
        <time>2009-02-01T07:56:24Z</time>
      </trkpt>
      <trkpt lat="48.26956" lon="2.6176">
        <ele>100.1145</ele>
        <time>2009-02-01T07:56:28Z</time>
      </trkpt>
      <trkpt lat="48.26951" lon="2.61766">
        <ele>101.55639</ele>
        <time>2009-02-01T07:56:31Z</time>
      </trkpt>
      <trkpt lat="48.26948" lon="2.61771">
        <ele>102.0371</ele>
        <time>2009-02-01T07:56:33Z</time>
      </trkpt>
      <trkpt lat="48.26945" lon="2.61784">
        <ele>103.479</ele>
        <time>2009-02-01T07:56:38Z</time>
      </trkpt>
      <trkpt lat="48.26944" lon="2.61794">
        <ele>104.92102</ele>
        <time>2009-02-01T07:56:42Z</time>
      </trkpt>
      <trkpt lat="48.26936" lon="2.61809">
        <ele>105.88244</ele>
        <time>2009-02-01T07:56:49Z</time>
      </trkpt>
      <trkpt lat="48.26933" lon="2.61811">
        <ele>105.40173</ele>
        <time>2009-02-01T07:56:51Z</time>
      </trkpt>
      <trkpt lat="48.26937" lon="2.61806">
        <ele>105.88244</ele>
        <time>2009-02-01T07:56:56Z</time>
      </trkpt>
      <trkpt lat="48.2693" lon="2.61809">
        <ele>106.36303</ele>
        <time>2009-02-01T07:57:00Z</time>
      </trkpt>
      <trkpt lat="48.26924" lon="2.6182">
        <ele>108.76623</ele>
        <time>2009-02-01T07:57:05Z</time>
      </trkpt>
      <trkpt lat="48.26922" lon="2.61823">
        <ele>108.76623</ele>
        <time>2009-02-01T07:57:07Z</time>
      </trkpt>
      <trkpt lat="48.26922" lon="2.61839">
        <ele>108.76623</ele>
        <time>2009-02-01T07:57:12Z</time>
      </trkpt>
      <trkpt lat="48.2692" lon="2.61863">
        <ele>107.80505</ele>
        <time>2009-02-01T07:57:15Z</time>
      </trkpt>
      <trkpt lat="48.2692" lon="2.61867">
        <ele>108.76623</ele>
        <time>2009-02-01T07:57:16Z</time>
      </trkpt>
      <trkpt lat="48.26916" lon="2.61886">
        <ele>108.28564</ele>
        <time>2009-02-01T07:57:21Z</time>
      </trkpt>
      <trkpt lat="48.26912" lon="2.61888">
        <ele>109.24694</ele>
        <time>2009-02-01T07:57:25Z</time>
      </trkpt>
      <trkpt lat="48.26909" lon="2.61888">
        <ele>109.24694</ele>
        <time>2009-02-01T07:57:27Z</time>
      </trkpt>
      <trkpt lat="48.26904" lon="2.6189">
        <ele>110.68884</ele>
        <time>2009-02-01T07:57:30Z</time>
      </trkpt>
      <trkpt lat="48.26908" lon="2.61897">
        <ele>111.16955</ele>
        <time>2009-02-01T07:57:35Z</time>
      </trkpt>
      <trkpt lat="48.26914" lon="2.619">
        <ele>111.16955</ele>
        <time>2009-02-01T07:57:40Z</time>
      </trkpt>
      <trkpt lat="48.26921" lon="2.61897">
        <ele>110.68884</ele>
        <time>2009-02-01T07:57:45Z</time>
      </trkpt>
      <trkpt lat="48.2693" lon="2.61889">
        <ele>111.16955</ele>
        <time>2009-02-01T07:57:50Z</time>
      </trkpt>
      <trkpt lat="48.2694" lon="2.6188">
        <ele>111.16955</ele>
        <time>2009-02-01T07:57:56Z</time>
      </trkpt>
      <trkpt lat="48.26949" lon="2.61876">
        <ele>111.16955</ele>
        <time>2009-02-01T07:58:01Z</time>
      </trkpt>
      <trkpt lat="48.26958" lon="2.61875">
        <ele>110.68884</ele>
        <time>2009-02-01T07:58:06Z</time>
      </trkpt>
      <trkpt lat="48.26964" lon="2.61871">
        <ele>110.68884</ele>
        <time>2009-02-01T07:58:08Z</time>
      </trkpt>
      <trkpt lat="48.26976" lon="2.6186">
        <ele>110.68884</ele>
        <time>2009-02-01T07:58:14Z</time>
      </trkpt>
      <trkpt lat="48.26992" lon="2.61857">
        <ele>110.68884</ele>
        <time>2009-02-01T07:58:19Z</time>
      </trkpt>
      <trkpt lat="48.27001" lon="2.61849">
        <ele>110.68884</ele>
        <time>2009-02-01T07:58:23Z</time>
      </trkpt>
      <trkpt lat="48.27009" lon="2.61855">
        <ele>111.16955</ele>
        <time>2009-02-01T07:58:27Z</time>
      </trkpt>
      <trkpt lat="48.27016" lon="2.61869">
        <ele>110.68884</ele>
        <time>2009-02-01T07:58:31Z</time>
      </trkpt>
      <trkpt lat="48.27024" lon="2.61882">
        <ele>111.16955</ele>
        <time>2009-02-01T07:58:36Z</time>
      </trkpt>
      <trkpt lat="48.27032" lon="2.61905">
        <ele>111.16955</ele>
        <time>2009-02-01T07:58:42Z</time>
      </trkpt>
      <trkpt lat="48.27032" lon="2.61916">
        <ele>111.16955</ele>
        <time>2009-02-01T07:58:44Z</time>
      </trkpt>
      <trkpt lat="48.27033" lon="2.61934">
        <ele>110.68884</ele>
        <time>2009-02-01T07:58:49Z</time>
      </trkpt>
      <trkpt lat="48.27033" lon="2.61935">
        <ele>110.20825</ele>
        <time>2009-02-01T07:58:50Z</time>
      </trkpt>
      <trkpt lat="48.27031" lon="2.61941">
        <ele>108.28564</ele>
        <time>2009-02-01T07:58:54Z</time>
      </trkpt>
      <trkpt lat="48.27037" lon="2.61953">
        <ele>106.36303</ele>
        <time>2009-02-01T07:58:58Z</time>
      </trkpt>
      <trkpt lat="48.27041" lon="2.61954">
        <ele>106.36303</ele>
        <time>2009-02-01T07:59:01Z</time>
      </trkpt>
      <trkpt lat="48.27047" lon="2.61965">
        <ele>107.32434</ele>
        <time>2009-02-01T07:59:06Z</time>
      </trkpt>
      <trkpt lat="48.27042" lon="2.61972">
        <ele>106.36303</ele>
        <time>2009-02-01T07:59:09Z</time>
      </trkpt>
      <trkpt lat="48.27042" lon="2.61978">
        <ele>106.84362</ele>
        <time>2009-02-01T07:59:11Z</time>
      </trkpt>
      <trkpt lat="48.27036" lon="2.61992">
        <ele>106.84362</ele>
        <time>2009-02-01T07:59:17Z</time>
      </trkpt>
      <trkpt lat="48.27031" lon="2.61979">
        <ele>107.80505</ele>
        <time>2009-02-01T07:59:21Z</time>
      </trkpt>
      <trkpt lat="48.27023" lon="2.61966">
        <ele>106.84362</ele>
        <time>2009-02-01T07:59:25Z</time>
      </trkpt>
      <trkpt lat="48.27016" lon="2.61963">
        <ele>106.84362</ele>
        <time>2009-02-01T07:59:28Z</time>
      </trkpt>
      <trkpt lat="48.27009" lon="2.61957">
        <ele>106.36303</ele>
        <time>2009-02-01T07:59:32Z</time>
      </trkpt>
      <trkpt lat="48.27004" lon="2.61952">
        <ele>106.36303</ele>
        <time>2009-02-01T07:59:35Z</time>
      </trkpt>
      <trkpt lat="48.26994" lon="2.61945">
        <ele>108.76623</ele>
        <time>2009-02-01T07:59:42Z</time>
      </trkpt>
      <trkpt lat="48.26985" lon="2.61939">
        <ele>110.68884</ele>
        <time>2009-02-01T07:59:47Z</time>
      </trkpt>
      <trkpt lat="48.26974" lon="2.61935">
        <ele>110.68884</ele>
        <time>2009-02-01T07:59:53Z</time>
      </trkpt>
      <trkpt lat="48.26961" lon="2.61931">
        <ele>110.68884</ele>
        <time>2009-02-01T07:59:58Z</time>
      </trkpt>
      <trkpt lat="48.26953" lon="2.6194">
        <ele>110.20825</ele>
        <time>2009-02-01T08:00:03Z</time>
      </trkpt>
      <trkpt lat="48.26953" lon="2.61956">
        <ele>106.36303</ele>
        <time>2009-02-01T08:00:07Z</time>
      </trkpt>
      <trkpt lat="48.26954" lon="2.61962">
        <ele>106.84362</ele>
        <time>2009-02-01T08:00:08Z</time>
      </trkpt>
      <trkpt lat="48.2696" lon="2.6197">
        <ele>106.36303</ele>
        <time>2009-02-01T08:00:11Z</time>
      </trkpt>
      <trkpt lat="48.26963" lon="2.61975">
        <ele>107.32434</ele>
        <time>2009-02-01T08:00:13Z</time>
      </trkpt>
      <trkpt lat="48.2697" lon="2.61983">
        <ele>105.88244</ele>
        <time>2009-02-01T08:00:16Z</time>
      </trkpt>
      <trkpt lat="48.26982" lon="2.6199">
        <ele>106.84362</ele>
        <time>2009-02-01T08:00:22Z</time>
      </trkpt>
      <trkpt lat="48.26985" lon="2.6199">
        <ele>106.84362</ele>
        <time>2009-02-01T08:00:23Z</time>
      </trkpt>
      <trkpt lat="48.26999" lon="2.61998">
        <ele>106.84362</ele>
        <time>2009-02-01T08:00:29Z</time>
      </trkpt>
      <trkpt lat="48.27003" lon="2.62">
        <ele>106.36303</ele>
        <time>2009-02-01T08:00:31Z</time>
      </trkpt>
      <trkpt lat="48.27011" lon="2.62004">
        <ele>105.88244</ele>
        <time>2009-02-01T08:00:34Z</time>
      </trkpt>
      <trkpt lat="48.27019" lon="2.6202">
        <ele>106.36303</ele>
        <time>2009-02-01T08:00:39Z</time>
      </trkpt>
      <trkpt lat="48.27024" lon="2.62041">
        <ele>106.36303</ele>
        <time>2009-02-01T08:00:45Z</time>
      </trkpt>
      <trkpt lat="48.27029" lon="2.62062">
        <ele>106.36303</ele>
        <time>2009-02-01T08:00:50Z</time>
      </trkpt>
      <trkpt lat="48.27031" lon="2.62065">
        <ele>106.36303</ele>
        <time>2009-02-01T08:00:51Z</time>
      </trkpt>
      <trkpt lat="48.27037" lon="2.62073">
        <ele>106.36303</ele>
        <time>2009-02-01T08:00:56Z</time>
      </trkpt>
      <trkpt lat="48.27047" lon="2.62074">
        <ele>106.36303</ele>
        <time>2009-02-01T08:01:00Z</time>
      </trkpt>
      <trkpt lat="48.27048" lon="2.62071">
        <ele>106.36303</ele>
        <time>2009-02-01T08:01:01Z</time>
      </trkpt>
      <trkpt lat="48.27053" lon="2.62055">
        <ele>106.36303</ele>
        <time>2009-02-01T08:01:07Z</time>
      </trkpt>
      <trkpt lat="48.27054" lon="2.62053">
        <ele>105.88244</ele>
        <time>2009-02-01T08:01:08Z</time>
      </trkpt>
      <trkpt lat="48.27064" lon="2.62054">
        <ele>106.36303</ele>
        <time>2009-02-01T08:01:14Z</time>
      </trkpt>
      <trkpt lat="48.27078" lon="2.62059">
        <ele>105.88244</ele>
        <time>2009-02-01T08:01:18Z</time>
      </trkpt>
      <trkpt lat="48.27087" lon="2.62064">
        <ele>106.84362</ele>
        <time>2009-02-01T08:01:21Z</time>
      </trkpt>
      <trkpt lat="48.27091" lon="2.62067">
        <ele>106.36303</ele>
        <time>2009-02-01T08:01:23Z</time>
      </trkpt>
      <trkpt lat="48.27102" lon="2.62085">
        <ele>107.32434</ele>
        <time>2009-02-01T08:01:29Z</time>
      </trkpt>
      <trkpt lat="48.27107" lon="2.62109">
        <ele>107.32434</ele>
        <time>2009-02-01T08:01:33Z</time>
      </trkpt>
      <trkpt lat="48.27107" lon="2.62117">
        <ele>106.84362</ele>
        <time>2009-02-01T08:01:34Z</time>
      </trkpt>
      <trkpt lat="48.27115" lon="2.62175">
        <ele>107.80505</ele>
        <time>2009-02-01T08:01:43Z</time>
      </trkpt>
      <trkpt lat="48.27113" lon="2.62202">
        <ele>107.32434</ele>
        <time>2009-02-01T08:01:49Z</time>
      </trkpt>
      <trkpt lat="48.2711" lon="2.62216">
        <ele>106.84362</ele>
        <time>2009-02-01T08:01:53Z</time>
      </trkpt>
      <trkpt lat="48.27108" lon="2.62228">
        <ele>106.84362</ele>
        <time>2009-02-01T08:01:58Z</time>
      </trkpt>
      <trkpt lat="48.27104" lon="2.6223">
        <ele>106.84362</ele>
        <time>2009-02-01T08:02:00Z</time>
      </trkpt>
      <trkpt lat="48.27092" lon="2.62223">
        <ele>106.36303</ele>
        <time>2009-02-01T08:02:05Z</time>
      </trkpt>
      <trkpt lat="48.27088" lon="2.62212">
        <ele>106.84362</ele>
        <time>2009-02-01T08:02:08Z</time>
      </trkpt>
      <trkpt lat="48.27078" lon="2.62189">
        <ele>106.84362</ele>
        <time>2009-02-01T08:02:14Z</time>
      </trkpt>
      <trkpt lat="48.27076" lon="2.62182">
        <ele>106.36303</ele>
        <time>2009-02-01T08:02:17Z</time>
      </trkpt>
      <trkpt lat="48.27068" lon="2.62167">
        <ele>106.36303</ele>
        <time>2009-02-01T08:02:22Z</time>
      </trkpt>
      <trkpt lat="48.27059" lon="2.62151">
        <ele>106.36303</ele>
        <time>2009-02-01T08:02:28Z</time>
      </trkpt>
      <trkpt lat="48.27058" lon="2.62149">
        <ele>106.36303</ele>
        <time>2009-02-01T08:02:29Z</time>
      </trkpt>
      <trkpt lat="48.27049" lon="2.62136">
        <ele>106.84362</ele>
        <time>2009-02-01T08:02:34Z</time>
      </trkpt>
      <trkpt lat="48.27043" lon="2.62126">
        <ele>107.32434</ele>
        <time>2009-02-01T08:02:38Z</time>
      </trkpt>
      <trkpt lat="48.2704" lon="2.62122">
        <ele>107.32434</ele>
        <time>2009-02-01T08:02:40Z</time>
      </trkpt>
      <trkpt lat="48.27034" lon="2.62122">
        <ele>107.32434</ele>
        <time>2009-02-01T08:02:43Z</time>
      </trkpt>
      <trkpt lat="48.27034" lon="2.62124">
        <ele>107.80505</ele>
        <time>2009-02-01T08:02:45Z</time>
      </trkpt>
      <trkpt lat="48.27028" lon="2.62126">
        <ele>107.80505</ele>
        <time>2009-02-01T08:02:50Z</time>
      </trkpt>
      <trkpt lat="48.27019" lon="2.62128">
        <ele>107.80505</ele>
        <time>2009-02-01T08:02:54Z</time>
      </trkpt>
      <trkpt lat="48.27017" lon="2.62129">
        <ele>107.80505</ele>
        <time>2009-02-01T08:02:55Z</time>
      </trkpt>
      <trkpt lat="48.27007" lon="2.62144">
        <ele>107.80505</ele>
        <time>2009-02-01T08:03:00Z</time>
      </trkpt>
      <trkpt lat="48.27009" lon="2.62165">
        <ele>107.32434</ele>
        <time>2009-02-01T08:03:05Z</time>
      </trkpt>
      <trkpt lat="48.2701" lon="2.62171">
        <ele>107.80505</ele>
        <time>2009-02-01T08:03:07Z</time>
      </trkpt>
      <trkpt lat="48.27009" lon="2.62185">
        <ele>106.84362</ele>
        <time>2009-02-01T08:03:13Z</time>
      </trkpt>
      <trkpt lat="48.27006" lon="2.62187">
        <ele>106.84362</ele>
        <time>2009-02-01T08:03:15Z</time>
      </trkpt>
      <trkpt lat="48.27001" lon="2.62191">
        <ele>107.32434</ele>
        <time>2009-02-01T08:03:18Z</time>
      </trkpt>
      <trkpt lat="48.26994" lon="2.622">
        <ele>106.36303</ele>
        <time>2009-02-01T08:03:23Z</time>
      </trkpt>
      <trkpt lat="48.26993" lon="2.62207">
        <ele>106.84362</ele>
        <time>2009-02-01T08:03:26Z</time>
      </trkpt>
      <trkpt lat="48.26996" lon="2.62221">
        <ele>106.84362</ele>
        <time>2009-02-01T08:03:32Z</time>
      </trkpt>
      <trkpt lat="48.27001" lon="2.62238">
        <ele>107.80505</ele>
        <time>2009-02-01T08:03:37Z</time>
      </trkpt>
      <trkpt lat="48.27003" lon="2.62253">
        <ele>107.32434</ele>
        <time>2009-02-01T08:03:42Z</time>
      </trkpt>
      <trkpt lat="48.27005" lon="2.62262">
        <ele>107.80505</ele>
        <time>2009-02-01T08:03:45Z</time>
      </trkpt>
      <trkpt lat="48.27007" lon="2.62285">
        <ele>107.32434</ele>
        <time>2009-02-01T08:03:51Z</time>
      </trkpt>
      <trkpt lat="48.2701" lon="2.623">
        <ele>108.28564</ele>
        <time>2009-02-01T08:03:56Z</time>
      </trkpt>
      <trkpt lat="48.27011" lon="2.62318">
        <ele>106.36303</ele>
        <time>2009-02-01T08:04:03Z</time>
      </trkpt>
      <trkpt lat="48.27011" lon="2.62319">
        <ele>107.32434</ele>
        <time>2009-02-01T08:04:04Z</time>
      </trkpt>
      <trkpt lat="48.27011" lon="2.62321">
        <ele>106.84362</ele>
        <time>2009-02-01T08:04:07Z</time>
      </trkpt>
      <trkpt lat="48.2701" lon="2.62327">
        <ele>106.84362</ele>
        <time>2009-02-01T08:04:08Z</time>
      </trkpt>
      <trkpt lat="48.27003" lon="2.6234">
        <ele>107.32434</ele>
        <time>2009-02-01T08:04:13Z</time>
      </trkpt>
      <trkpt lat="48.26996" lon="2.62354">
        <ele>107.80505</ele>
        <time>2009-02-01T08:04:18Z</time>
      </trkpt>
      <trkpt lat="48.26995" lon="2.62363">
        <ele>108.28564</ele>
        <time>2009-02-01T08:04:22Z</time>
      </trkpt>
      <trkpt lat="48.27" lon="2.62362">
        <ele>108.28564</ele>
        <time>2009-02-01T08:04:25Z</time>
      </trkpt>
      <trkpt lat="48.27018" lon="2.6236">
        <ele>108.28564</ele>
        <time>2009-02-01T08:04:32Z</time>
      </trkpt>
      <trkpt lat="48.27035" lon="2.62359">
        <ele>108.28564</ele>
        <time>2009-02-01T08:04:37Z</time>
      </trkpt>
      <trkpt lat="48.27048" lon="2.62357">
        <ele>108.28564</ele>
        <time>2009-02-01T08:04:41Z</time>
      </trkpt>
      <trkpt lat="48.27078" lon="2.62349">
        <ele>107.32434</ele>
        <time>2009-02-01T08:04:47Z</time>
      </trkpt>
      <trkpt lat="48.27086" lon="2.62346">
        <ele>107.32434</ele>
        <time>2009-02-01T08:04:49Z</time>
      </trkpt>
      <trkpt lat="48.271" lon="2.62327">
        <ele>108.28564</ele>
        <time>2009-02-01T08:04:54Z</time>
      </trkpt>
      <trkpt lat="48.27102" lon="2.62305">
        <ele>108.28564</ele>
        <time>2009-02-01T08:04:58Z</time>
      </trkpt>
      <trkpt lat="48.27112" lon="2.62304">
        <ele>106.36303</ele>
        <time>2009-02-01T08:05:01Z</time>
      </trkpt>
      <trkpt lat="48.27127" lon="2.62307">
        <ele>104.44042</ele>
        <time>2009-02-01T08:05:05Z</time>
      </trkpt>
      <trkpt lat="48.27138" lon="2.62312">
        <ele>101.07568</ele>
        <time>2009-02-01T08:05:08Z</time>
      </trkpt>
      <trkpt lat="48.27141" lon="2.62315">
        <ele>100.1145</ele>
        <time>2009-02-01T08:05:09Z</time>
      </trkpt>
      <trkpt lat="48.27158" lon="2.62332">
        <ele>95.307739</ele>
        <time>2009-02-01T08:05:13Z</time>
      </trkpt>
      <trkpt lat="48.27165" lon="2.62357">
        <ele>90.020629</ele>
        <time>2009-02-01T08:05:17Z</time>
      </trkpt>
      <trkpt lat="48.27165" lon="2.62365">
        <ele>89.539917</ele>
        <time>2009-02-01T08:05:18Z</time>
      </trkpt>
      <trkpt lat="48.27165" lon="2.6238">
        <ele>87.136596</ele>
        <time>2009-02-01T08:05:20Z</time>
      </trkpt>
      <trkpt lat="48.27163" lon="2.62424">
        <ele>85.213989</ele>
        <time>2009-02-01T08:05:25Z</time>
      </trkpt>
      <trkpt lat="48.27165" lon="2.62475">
        <ele>84.252685</ele>
        <time>2009-02-01T08:05:31Z</time>
      </trkpt>
      <trkpt lat="48.27169" lon="2.62491">
        <ele>81.368774</ele>
        <time>2009-02-01T08:05:36Z</time>
      </trkpt>
      <trkpt lat="48.27172" lon="2.62504">
        <ele>78.484741</ele>
        <time>2009-02-01T08:05:39Z</time>
      </trkpt>
      <trkpt lat="48.27174" lon="2.6251">
        <ele>78.484741</ele>
        <time>2009-02-01T08:05:40Z</time>
      </trkpt>
      <trkpt lat="48.27175" lon="2.62517">
        <ele>78.004028</ele>
        <time>2009-02-01T08:05:41Z</time>
      </trkpt>
      <trkpt lat="48.2718" lon="2.62546">
        <ele>78.004028</ele>
        <time>2009-02-01T08:05:45Z</time>
      </trkpt>
      <trkpt lat="48.27179" lon="2.62572">
        <ele>78.484741</ele>
        <time>2009-02-01T08:05:50Z</time>
      </trkpt>
      <trkpt lat="48.27179" lon="2.62583">
        <ele>78.484741</ele>
        <time>2009-02-01T08:05:54Z</time>
      </trkpt>
      <trkpt lat="48.27183" lon="2.62601">
        <ele>78.965454</ele>
        <time>2009-02-01T08:05:58Z</time>
      </trkpt>
      <trkpt lat="48.27187" lon="2.62623">
        <ele>78.004028</ele>
        <time>2009-02-01T08:06:02Z</time>
      </trkpt>
      <trkpt lat="48.27191" lon="2.62643">
        <ele>78.004028</ele>
        <time>2009-02-01T08:06:06Z</time>
      </trkpt>
      <trkpt lat="48.27194" lon="2.62665">
        <ele>78.004028</ele>
        <time>2009-02-01T08:06:10Z</time>
      </trkpt>
      <trkpt lat="48.27199" lon="2.62688">
        <ele>78.004028</ele>
        <time>2009-02-01T08:06:14Z</time>
      </trkpt>
      <trkpt lat="48.27202" lon="2.62716">
        <ele>78.965454</ele>
        <time>2009-02-01T08:06:19Z</time>
      </trkpt>
      <trkpt lat="48.27198" lon="2.62734">
        <ele>79.446044</ele>
        <time>2009-02-01T08:06:23Z</time>
      </trkpt>
      <trkpt lat="48.27194" lon="2.62741">
        <ele>79.446044</ele>
        <time>2009-02-01T08:06:25Z</time>
      </trkpt>
      <trkpt lat="48.27187" lon="2.62749">
        <ele>79.446044</ele>
        <time>2009-02-01T08:06:28Z</time>
      </trkpt>
      <trkpt lat="48.27183" lon="2.62751">
        <ele>80.40747</ele>
        <time>2009-02-01T08:06:30Z</time>
      </trkpt>
      <trkpt lat="48.27173" lon="2.62755">
        <ele>79.926635</ele>
        <time>2009-02-01T08:06:33Z</time>
      </trkpt>
      <trkpt lat="48.27164" lon="2.62756">
        <ele>80.888183</ele>
        <time>2009-02-01T08:06:36Z</time>
      </trkpt>
      <trkpt lat="48.27154" lon="2.62759">
        <ele>82.330078</ele>
        <time>2009-02-01T08:06:41Z</time>
      </trkpt>
      <trkpt lat="48.27146" lon="2.62761">
        <ele>83.771972</ele>
        <time>2009-02-01T08:06:46Z</time>
      </trkpt>
      <trkpt lat="48.27138" lon="2.62765">
        <ele>84.252685</ele>
        <time>2009-02-01T08:06:51Z</time>
      </trkpt>
      <trkpt lat="48.27131" lon="2.62774">
        <ele>83.291381</ele>
        <time>2009-02-01T08:06:56Z</time>
      </trkpt>
      <trkpt lat="48.27122" lon="2.62775">
        <ele>84.252685</ele>
        <time>2009-02-01T08:06:59Z</time>
      </trkpt>
      <trkpt lat="48.27115" lon="2.62776">
        <ele>84.252685</ele>
        <time>2009-02-01T08:07:01Z</time>
      </trkpt>
      <trkpt lat="48.27111" lon="2.6279">
        <ele>83.771972</ele>
        <time>2009-02-01T08:07:05Z</time>
      </trkpt>
      <trkpt lat="48.27111" lon="2.62793">
        <ele>83.291381</ele>
        <time>2009-02-01T08:07:06Z</time>
      </trkpt>
      <trkpt lat="48.27103" lon="2.62812">
        <ele>83.291381</ele>
        <time>2009-02-01T08:07:12Z</time>
      </trkpt>
      <trkpt lat="48.27099" lon="2.62814">
        <ele>83.771972</ele>
        <time>2009-02-01T08:07:13Z</time>
      </trkpt>
      <trkpt lat="48.27055" lon="2.62835">
        <ele>84.733398</ele>
        <time>2009-02-01T08:07:22Z</time>
      </trkpt>
      <trkpt lat="48.27031" lon="2.62834">
        <ele>84.252685</ele>
        <time>2009-02-01T08:07:27Z</time>
      </trkpt>
      <trkpt lat="48.27017" lon="2.62829">
        <ele>84.252685</ele>
        <time>2009-02-01T08:07:30Z</time>
      </trkpt>
      <trkpt lat="48.27002" lon="2.62818">
        <ele>85.213989</ele>
        <time>2009-02-01T08:07:34Z</time>
      </trkpt>
      <trkpt lat="48.26988" lon="2.62804">
        <ele>86.656005</ele>
        <time>2009-02-01T08:07:38Z</time>
      </trkpt>
      <trkpt lat="48.26974" lon="2.62788">
        <ele>88.098022</ele>
        <time>2009-02-01T08:07:43Z</time>
      </trkpt>
      <trkpt lat="48.26971" lon="2.62785">
        <ele>88.098022</ele>
        <time>2009-02-01T08:07:44Z</time>
      </trkpt>
      <trkpt lat="48.2696" lon="2.62783">
        <ele>87.136596</ele>
        <time>2009-02-01T08:07:49Z</time>
      </trkpt>
      <trkpt lat="48.26959" lon="2.62781">
        <ele>87.136596</ele>
        <time>2009-02-01T08:07:50Z</time>
      </trkpt>
      <trkpt lat="48.26947" lon="2.62756">
        <ele>88.578735</ele>
        <time>2009-02-01T08:07:57Z</time>
      </trkpt>
      <trkpt lat="48.26939" lon="2.62738">
        <ele>89.059326</ele>
        <time>2009-02-01T08:08:02Z</time>
      </trkpt>
      <trkpt lat="48.26927" lon="2.62725">
        <ele>89.539917</ele>
        <time>2009-02-01T08:08:07Z</time>
      </trkpt>
      <trkpt lat="48.26915" lon="2.62728">
        <ele>91.462524</ele>
        <time>2009-02-01T08:08:11Z</time>
      </trkpt>
      <trkpt lat="48.26912" lon="2.6273">
        <ele>91.462524</ele>
        <time>2009-02-01T08:08:12Z</time>
      </trkpt>
      <trkpt lat="48.26891" lon="2.62746">
        <ele>93.385131</ele>
        <time>2009-02-01T08:08:19Z</time>
      </trkpt>
      <trkpt lat="48.26886" lon="2.62752">
        <ele>94.346557</ele>
        <time>2009-02-01T08:08:21Z</time>
      </trkpt>
      <trkpt lat="48.26864" lon="2.62774">
        <ele>94.346557</ele>
        <time>2009-02-01T08:08:28Z</time>
      </trkpt>
      <trkpt lat="48.26847" lon="2.62791">
        <ele>97.230468</ele>
        <time>2009-02-01T08:08:35Z</time>
      </trkpt>
      <trkpt lat="48.26843" lon="2.62797">
        <ele>99.153076</ele>
        <time>2009-02-01T08:08:39Z</time>
      </trkpt>
      <trkpt lat="48.26841" lon="2.62797">
        <ele>99.633789</ele>
        <time>2009-02-01T08:08:41Z</time>
      </trkpt>
      <trkpt lat="48.26834" lon="2.62812">
        <ele>101.55639</ele>
        <time>2009-02-01T08:08:49Z</time>
      </trkpt>
      <trkpt lat="48.2683" lon="2.6282">
        <ele>102.0371</ele>
        <time>2009-02-01T08:08:52Z</time>
      </trkpt>
      <trkpt lat="48.26816" lon="2.62819">
        <ele>102.99829</ele>
        <time>2009-02-01T08:09:00Z</time>
      </trkpt>
      <trkpt lat="48.26814" lon="2.62819">
        <ele>103.95971</ele>
        <time>2009-02-01T08:09:02Z</time>
      </trkpt>
      <trkpt lat="48.26811" lon="2.62829">
        <ele>106.36303</ele>
        <time>2009-02-01T08:09:08Z</time>
      </trkpt>
      <trkpt lat="48.26811" lon="2.62831">
        <ele>107.32434</ele>
        <time>2009-02-01T08:09:09Z</time>
      </trkpt>
      <trkpt lat="48.26806" lon="2.62845">
        <ele>108.76623</ele>
        <time>2009-02-01T08:09:16Z</time>
      </trkpt>
      <trkpt lat="48.26803" lon="2.62856">
        <ele>109.72766</ele>
        <time>2009-02-01T08:09:21Z</time>
      </trkpt>
      <trkpt lat="48.26803" lon="2.62865">
        <ele>110.20825</ele>
        <time>2009-02-01T08:09:25Z</time>
      </trkpt>
      <trkpt lat="48.26807" lon="2.62879">
        <ele>110.68884</ele>
        <time>2009-02-01T08:09:31Z</time>
      </trkpt>
      <trkpt lat="48.26807" lon="2.62879">
        <ele>110.68884</ele>
        <time>2009-02-01T08:09:32Z</time>
      </trkpt>
      <trkpt lat="48.26808" lon="2.62879">
        <ele>110.20825</ele>
        <time>2009-02-01T08:09:35Z</time>
      </trkpt>
      <trkpt lat="48.26815" lon="2.62888">
        <ele>110.20825</ele>
        <time>2009-02-01T08:09:39Z</time>
      </trkpt>
      <trkpt lat="48.26826" lon="2.62901">
        <ele>108.28564</ele>
        <time>2009-02-01T08:09:44Z</time>
      </trkpt>
      <trkpt lat="48.2683" lon="2.62907">
        <ele>107.32434</ele>
        <time>2009-02-01T08:09:47Z</time>
      </trkpt>
      <trkpt lat="48.26825" lon="2.62908">
        <ele>107.80505</ele>
        <time>2009-02-01T08:09:51Z</time>
      </trkpt>
      <trkpt lat="48.26818" lon="2.62902">
        <ele>108.28564</ele>
        <time>2009-02-01T08:09:54Z</time>
      </trkpt>
      <trkpt lat="48.26805" lon="2.62894">
        <ele>110.20825</ele>
        <time>2009-02-01T08:10:00Z</time>
      </trkpt>
      <trkpt lat="48.26786" lon="2.62884">
        <ele>108.76623</ele>
        <time>2009-02-01T08:10:05Z</time>
      </trkpt>
      <trkpt lat="48.26757" lon="2.62865">
        <ele>109.24694</ele>
        <time>2009-02-01T08:10:11Z</time>
      </trkpt>
      <trkpt lat="48.26751" lon="2.62863">
        <ele>109.72766</ele>
        <time>2009-02-01T08:10:13Z</time>
      </trkpt>
      <trkpt lat="48.26745" lon="2.62863">
        <ele>112.61157</ele>
        <time>2009-02-01T08:10:16Z</time>
      </trkpt>
      <trkpt lat="48.26732" lon="2.62865">
        <ele>113.09228</ele>
        <time>2009-02-01T08:10:22Z</time>
      </trkpt>
      <trkpt lat="48.26726" lon="2.62883">
        <ele>113.09228</ele>
        <time>2009-02-01T08:10:27Z</time>
      </trkpt>
      <trkpt lat="48.26726" lon="2.62889">
        <ele>111.65026</ele>
        <time>2009-02-01T08:10:28Z</time>
      </trkpt>
      <trkpt lat="48.26726" lon="2.62908">
        <ele>109.24694</ele>
        <time>2009-02-01T08:10:30Z</time>
      </trkpt>
      <trkpt lat="48.26722" lon="2.62934">
        <ele>111.65026</ele>
        <time>2009-02-01T08:10:34Z</time>
      </trkpt>
      <trkpt lat="48.26722" lon="2.62934">
        <ele>111.65026</ele>
        <time>2009-02-01T08:10:35Z</time>
      </trkpt>
      <trkpt lat="48.26722" lon="2.62934">
        <ele>111.16955</ele>
        <time>2009-02-01T08:10:37Z</time>
      </trkpt>
      <trkpt lat="48.26723" lon="2.62934">
        <ele>111.65026</ele>
        <time>2009-02-01T08:10:41Z</time>
      </trkpt>
      <trkpt lat="48.26724" lon="2.62934">
        <ele>111.16955</ele>
        <time>2009-02-01T08:10:42Z</time>
      </trkpt>
      <trkpt lat="48.26725" lon="2.62934">
        <ele>111.65026</ele>
        <time>2009-02-01T08:10:44Z</time>
      </trkpt>
      <trkpt lat="48.26726" lon="2.62933">
        <ele>111.16955</ele>
        <time>2009-02-01T08:10:47Z</time>
      </trkpt>
      <trkpt lat="48.26727" lon="2.62923">
        <ele>109.72766</ele>
        <time>2009-02-01T08:10:48Z</time>
      </trkpt>
      <trkpt lat="48.26731" lon="2.6291">
        <ele>108.76623</ele>
        <time>2009-02-01T08:10:50Z</time>
      </trkpt>
      <trkpt lat="48.26732" lon="2.62897">
        <ele>109.24694</ele>
        <time>2009-02-01T08:10:53Z</time>
      </trkpt>
      <trkpt lat="48.26732" lon="2.62891">
        <ele>110.20825</ele>
        <time>2009-02-01T08:10:55Z</time>
      </trkpt>
      <trkpt lat="48.26733" lon="2.62881">
        <ele>112.61157</ele>
        <time>2009-02-01T08:10:59Z</time>
      </trkpt>
      <trkpt lat="48.26743" lon="2.62876">
        <ele>112.13098</ele>
        <time>2009-02-01T08:11:03Z</time>
      </trkpt>
      <trkpt lat="48.26747" lon="2.62881">
        <ele>110.20825</ele>
        <time>2009-02-01T08:11:04Z</time>
      </trkpt>
      <trkpt lat="48.26758" lon="2.62896">
        <ele>107.80505</ele>
        <time>2009-02-01T08:11:06Z</time>
      </trkpt>
      <trkpt lat="48.26768" lon="2.62909">
        <ele>108.28564</ele>
        <time>2009-02-01T08:11:08Z</time>
      </trkpt>
      <trkpt lat="48.26795" lon="2.62954">
        <ele>108.28564</ele>
        <time>2009-02-01T08:11:16Z</time>
      </trkpt>
      <trkpt lat="48.26816" lon="2.62991">
        <ele>107.32434</ele>
        <time>2009-02-01T08:11:23Z</time>
      </trkpt>
      <trkpt lat="48.26827" lon="2.63005">
        <ele>107.32434</ele>
        <time>2009-02-01T08:11:26Z</time>
      </trkpt>
      <trkpt lat="48.26845" lon="2.63009">
        <ele>107.80505</ele>
        <time>2009-02-01T08:11:31Z</time>
      </trkpt>
      <trkpt lat="48.2685" lon="2.62995">
        <ele>106.84362</ele>
        <time>2009-02-01T08:11:34Z</time>
      </trkpt>
      <trkpt lat="48.26844" lon="2.62981">
        <ele>107.32434</ele>
        <time>2009-02-01T08:11:37Z</time>
      </trkpt>
      <trkpt lat="48.26841" lon="2.62977">
        <ele>107.80505</ele>
        <time>2009-02-01T08:11:38Z</time>
      </trkpt>
      <trkpt lat="48.26823" lon="2.6296">
        <ele>107.32434</ele>
        <time>2009-02-01T08:11:43Z</time>
      </trkpt>
      <trkpt lat="48.26806" lon="2.62952">
        <ele>107.80505</ele>
        <time>2009-02-01T08:11:47Z</time>
      </trkpt>
      <trkpt lat="48.2679" lon="2.62934">
        <ele>107.32434</ele>
        <time>2009-02-01T08:11:51Z</time>
      </trkpt>
      <trkpt lat="48.26767" lon="2.62895">
        <ele>108.76623</ele>
        <time>2009-02-01T08:11:59Z</time>
      </trkpt>
      <trkpt lat="48.26759" lon="2.62882">
        <ele>107.80505</ele>
        <time>2009-02-01T08:12:02Z</time>
      </trkpt>
      <trkpt lat="48.26766" lon="2.62876">
        <ele>108.28564</ele>
        <time>2009-02-01T08:12:06Z</time>
      </trkpt>
      <trkpt lat="48.26788" lon="2.62901">
        <ele>107.32434</ele>
        <time>2009-02-01T08:12:12Z</time>
      </trkpt>
      <trkpt lat="48.26807" lon="2.62918">
        <ele>109.72766</ele>
        <time>2009-02-01T08:12:17Z</time>
      </trkpt>
      <trkpt lat="48.26811" lon="2.6292">
        <ele>110.68884</ele>
        <time>2009-02-01T08:12:19Z</time>
      </trkpt>
      <trkpt lat="48.2682" lon="2.62929">
        <ele>110.68884</ele>
        <time>2009-02-01T08:12:23Z</time>
      </trkpt>
      <trkpt lat="48.26834" lon="2.62938">
        <ele>108.28564</ele>
        <time>2009-02-01T08:12:26Z</time>
      </trkpt>
      <trkpt lat="48.26844" lon="2.62944">
        <ele>107.80505</ele>
        <time>2009-02-01T08:12:28Z</time>
      </trkpt>
      <trkpt lat="48.26854" lon="2.62934">
        <ele>107.32434</ele>
        <time>2009-02-01T08:12:33Z</time>
      </trkpt>
      <trkpt lat="48.26865" lon="2.62934">
        <ele>106.84362</ele>
        <time>2009-02-01T08:12:36Z</time>
      </trkpt>
      <trkpt lat="48.26872" lon="2.62939">
        <ele>106.36303</ele>
        <time>2009-02-01T08:12:38Z</time>
      </trkpt>
      <trkpt lat="48.26887" lon="2.62966">
        <ele>106.84362</ele>
        <time>2009-02-01T08:12:44Z</time>
      </trkpt>
      <trkpt lat="48.26891" lon="2.62994">
        <ele>106.36303</ele>
        <time>2009-02-01T08:12:49Z</time>
      </trkpt>
      <trkpt lat="48.26892" lon="2.63023">
        <ele>106.84362</ele>
        <time>2009-02-01T08:12:54Z</time>
      </trkpt>
      <trkpt lat="48.26882" lon="2.63023">
        <ele>107.32434</ele>
        <time>2009-02-01T08:12:57Z</time>
      </trkpt>
      <trkpt lat="48.26872" lon="2.63011">
        <ele>107.32434</ele>
        <time>2009-02-01T08:13:00Z</time>
      </trkpt>
      <trkpt lat="48.26866" lon="2.63012">
        <ele>107.80505</ele>
        <time>2009-02-01T08:13:02Z</time>
      </trkpt>
      <trkpt lat="48.26861" lon="2.63018">
        <ele>106.84362</ele>
        <time>2009-02-01T08:13:04Z</time>
      </trkpt>
      <trkpt lat="48.26862" lon="2.63035">
        <ele>107.32434</ele>
        <time>2009-02-01T08:13:08Z</time>
      </trkpt>
      <trkpt lat="48.2687" lon="2.63053">
        <ele>108.28564</ele>
        <time>2009-02-01T08:13:12Z</time>
      </trkpt>
      <trkpt lat="48.26886" lon="2.63047">
        <ele>107.80505</ele>
        <time>2009-02-01T08:13:18Z</time>
      </trkpt>
      <trkpt lat="48.26895" lon="2.63045">
        <ele>104.92102</ele>
        <time>2009-02-01T08:13:21Z</time>
      </trkpt>
      <trkpt lat="48.26901" lon="2.6306">
        <ele>101.55639</ele>
        <time>2009-02-01T08:13:23Z</time>
      </trkpt>
      <trkpt lat="48.26899" lon="2.63086">
        <ele>97.230468</ele>
        <time>2009-02-01T08:13:26Z</time>
      </trkpt>
      <trkpt lat="48.26902" lon="2.63126">
        <ele>93.385131</ele>
        <time>2009-02-01T08:13:30Z</time>
      </trkpt>
      <trkpt lat="48.26903" lon="2.63134">
        <ele>92.904541</ele>
        <time>2009-02-01T08:13:31Z</time>
      </trkpt>
      <trkpt lat="48.26916" lon="2.63149">
        <ele>92.42395</ele>
        <time>2009-02-01T08:13:36Z</time>
      </trkpt>
      <trkpt lat="48.26916" lon="2.63153">
        <ele>91.943237</ele>
        <time>2009-02-01T08:13:37Z</time>
      </trkpt>
      <trkpt lat="48.26913" lon="2.63166">
        <ele>92.42395</ele>
        <time>2009-02-01T08:13:40Z</time>
      </trkpt>
      <trkpt lat="48.26914" lon="2.63191">
        <ele>92.42395</ele>
        <time>2009-02-01T08:13:45Z</time>
      </trkpt>
      <trkpt lat="48.2691" lon="2.63214">
        <ele>93.385131</ele>
        <time>2009-02-01T08:13:49Z</time>
      </trkpt>
      <trkpt lat="48.26894" lon="2.63233">
        <ele>94.346557</ele>
        <time>2009-02-01T08:13:55Z</time>
      </trkpt>
      <trkpt lat="48.26885" lon="2.63229">
        <ele>94.827148</ele>
        <time>2009-02-01T08:13:58Z</time>
      </trkpt>
      <trkpt lat="48.2687" lon="2.63218">
        <ele>96.749877</ele>
        <time>2009-02-01T08:14:05Z</time>
      </trkpt>
      <trkpt lat="48.26863" lon="2.63222">
        <ele>97.230468</ele>
        <time>2009-02-01T08:14:08Z</time>
      </trkpt>
      <trkpt lat="48.26859" lon="2.63234">
        <ele>97.711181</ele>
        <time>2009-02-01T08:14:12Z</time>
      </trkpt>
      <trkpt lat="48.26857" lon="2.63243">
        <ele>98.672485</ele>
        <time>2009-02-01T08:14:15Z</time>
      </trkpt>
      <trkpt lat="48.26857" lon="2.63246">
        <ele>99.633789</ele>
        <time>2009-02-01T08:14:17Z</time>
      </trkpt>
      <trkpt lat="48.2686" lon="2.6325">
        <ele>99.153076</ele>
        <time>2009-02-01T08:14:20Z</time>
      </trkpt>
      <trkpt lat="48.26862" lon="2.63262">
        <ele>100.59509</ele>
        <time>2009-02-01T08:14:25Z</time>
      </trkpt>
      <trkpt lat="48.26862" lon="2.63273">
        <ele>102.5177</ele>
        <time>2009-02-01T08:14:30Z</time>
      </trkpt>
      <trkpt lat="48.26863" lon="2.63285">
        <ele>104.44042</ele>
        <time>2009-02-01T08:14:35Z</time>
      </trkpt>
      <trkpt lat="48.26866" lon="2.63302">
        <ele>105.40173</ele>
        <time>2009-02-01T08:14:42Z</time>
      </trkpt>
      <trkpt lat="48.26871" lon="2.63318">
        <ele>105.40173</ele>
        <time>2009-02-01T08:14:46Z</time>
      </trkpt>
      <trkpt lat="48.26872" lon="2.63322">
        <ele>105.40173</ele>
        <time>2009-02-01T08:14:47Z</time>
      </trkpt>
      <trkpt lat="48.26861" lon="2.63333">
        <ele>105.88244</ele>
        <time>2009-02-01T08:14:52Z</time>
      </trkpt>
      <trkpt lat="48.26849" lon="2.63342">
        <ele>106.84362</ele>
        <time>2009-02-01T08:14:58Z</time>
      </trkpt>
      <trkpt lat="48.26841" lon="2.63353">
        <ele>106.36303</ele>
        <time>2009-02-01T08:15:02Z</time>
      </trkpt>
      <trkpt lat="48.26838" lon="2.63364">
        <ele>105.88244</ele>
        <time>2009-02-01T08:15:04Z</time>
      </trkpt>
      <trkpt lat="48.2684" lon="2.63373">
        <ele>102.5177</ele>
        <time>2009-02-01T08:15:07Z</time>
      </trkpt>
      <trkpt lat="48.26844" lon="2.63375">
        <ele>102.0371</ele>
        <time>2009-02-01T08:15:08Z</time>
      </trkpt>
      <trkpt lat="48.26862" lon="2.63384">
        <ele>99.633789</ele>
        <time>2009-02-01T08:15:12Z</time>
      </trkpt>
      <trkpt lat="48.26872" lon="2.63384">
        <ele>96.269287</ele>
        <time>2009-02-01T08:15:14Z</time>
      </trkpt>
      <trkpt lat="48.26883" lon="2.63388">
        <ele>94.827148</ele>
        <time>2009-02-01T08:15:17Z</time>
      </trkpt>
      <trkpt lat="48.26885" lon="2.63391">
        <ele>94.827148</ele>
        <time>2009-02-01T08:15:18Z</time>
      </trkpt>
      <trkpt lat="48.26894" lon="2.63409">
        <ele>92.904541</ele>
        <time>2009-02-01T08:15:21Z</time>
      </trkpt>
      <trkpt lat="48.26903" lon="2.63418">
        <ele>91.462524</ele>
        <time>2009-02-01T08:15:23Z</time>
      </trkpt>
      <trkpt lat="48.26915" lon="2.63423">
        <ele>90.020629</ele>
        <time>2009-02-01T08:15:26Z</time>
      </trkpt>
      <trkpt lat="48.26928" lon="2.63423">
        <ele>87.617187</ele>
        <time>2009-02-01T08:15:29Z</time>
      </trkpt>
      <trkpt lat="48.26943" lon="2.63424">
        <ele>86.656005</ele>
        <time>2009-02-01T08:15:32Z</time>
      </trkpt>
      <trkpt lat="48.26952" lon="2.63432">
        <ele>85.69458</ele>
        <time>2009-02-01T08:15:34Z</time>
      </trkpt>
      <trkpt lat="48.26977" lon="2.63454">
        <ele>81.368774</ele>
        <time>2009-02-01T08:15:38Z</time>
      </trkpt>
      <trkpt lat="48.26989" lon="2.63471">
        <ele>79.926635</ele>
        <time>2009-02-01T08:15:40Z</time>
      </trkpt>
      <trkpt lat="48.27002" lon="2.63493">
        <ele>78.965454</ele>
        <time>2009-02-01T08:15:44Z</time>
      </trkpt>
      <trkpt lat="48.27006" lon="2.63499">
        <ele>78.965454</ele>
        <time>2009-02-01T08:15:45Z</time>
      </trkpt>
      <trkpt lat="48.27012" lon="2.63511">
        <ele>78.965454</ele>
        <time>2009-02-01T08:15:47Z</time>
      </trkpt>
      <trkpt lat="48.27025" lon="2.63541">
        <ele>77.523437</ele>
        <time>2009-02-01T08:15:52Z</time>
      </trkpt>
      <trkpt lat="48.27027" lon="2.63553">
        <ele>77.042846</ele>
        <time>2009-02-01T08:15:54Z</time>
      </trkpt>
      <trkpt lat="48.27032" lon="2.6357">
        <ele>76.08142</ele>
        <time>2009-02-01T08:15:57Z</time>
      </trkpt>
      <trkpt lat="48.27041" lon="2.63601">
        <ele>75.60083</ele>
        <time>2009-02-01T08:16:02Z</time>
      </trkpt>
      <trkpt lat="48.27044" lon="2.63619">
        <ele>75.60083</ele>
        <time>2009-02-01T08:16:05Z</time>
      </trkpt>
      <trkpt lat="48.27055" lon="2.63627">
        <ele>75.120239</ele>
        <time>2009-02-01T08:16:09Z</time>
      </trkpt>
      <trkpt lat="48.27058" lon="2.6363">
        <ele>75.120239</ele>
        <time>2009-02-01T08:16:11Z</time>
      </trkpt>
      <trkpt lat="48.27061" lon="2.63656">
        <ele>74.639526</ele>
        <time>2009-02-01T08:16:16Z</time>
      </trkpt>
      <trkpt lat="48.27055" lon="2.63686">
        <ele>75.120239</ele>
        <time>2009-02-01T08:16:21Z</time>
      </trkpt>
      <trkpt lat="48.27054" lon="2.63708">
        <ele>75.120239</ele>
        <time>2009-02-01T08:16:25Z</time>
      </trkpt>
      <trkpt lat="48.27054" lon="2.63733">
        <ele>75.120239</ele>
        <time>2009-02-01T08:16:29Z</time>
      </trkpt>
      <trkpt lat="48.27051" lon="2.63769">
        <ele>75.120239</ele>
        <time>2009-02-01T08:16:34Z</time>
      </trkpt>
      <trkpt lat="48.27052" lon="2.63804">
        <ele>75.120239</ele>
        <time>2009-02-01T08:16:39Z</time>
      </trkpt>
      <trkpt lat="48.27053" lon="2.63834">
        <ele>75.120239</ele>
        <time>2009-02-01T08:16:43Z</time>
      </trkpt>
      <trkpt lat="48.27052" lon="2.63855">
        <ele>75.120239</ele>
        <time>2009-02-01T08:16:46Z</time>
      </trkpt>
      <trkpt lat="48.27046" lon="2.63875">
        <ele>74.158813</ele>
        <time>2009-02-01T08:16:50Z</time>
      </trkpt>
      <trkpt lat="48.27041" lon="2.63877">
        <ele>74.639526</ele>
        <time>2009-02-01T08:16:52Z</time>
      </trkpt>
      <trkpt lat="48.27024" lon="2.63876">
        <ele>74.639526</ele>
        <time>2009-02-01T08:16:57Z</time>
      </trkpt>
      <trkpt lat="48.27008" lon="2.63874">
        <ele>74.639526</ele>
        <time>2009-02-01T08:17:02Z</time>
      </trkpt>
      <trkpt lat="48.26997" lon="2.63871">
        <ele>75.120239</ele>
        <time>2009-02-01T08:17:06Z</time>
      </trkpt>
      <trkpt lat="48.26988" lon="2.63879">
        <ele>75.120239</ele>
        <time>2009-02-01T08:17:10Z</time>
      </trkpt>
      <trkpt lat="48.26973" lon="2.63899">
        <ele>75.120239</ele>
        <time>2009-02-01T08:17:17Z</time>
      </trkpt>
      <trkpt lat="48.26961" lon="2.63915">
        <ele>76.562133</ele>
        <time>2009-02-01T08:17:22Z</time>
      </trkpt>
      <trkpt lat="48.26944" lon="2.63919">
        <ele>78.004028</ele>
        <time>2009-02-01T08:17:28Z</time>
      </trkpt>
      <trkpt lat="48.26931" lon="2.63919">
        <ele>79.926635</ele>
        <time>2009-02-01T08:17:33Z</time>
      </trkpt>
      <trkpt lat="48.26918" lon="2.63924">
        <ele>80.888183</ele>
        <time>2009-02-01T08:17:38Z</time>
      </trkpt>
      <trkpt lat="48.26907" lon="2.63921">
        <ele>82.330078</ele>
        <time>2009-02-01T08:17:43Z</time>
      </trkpt>
      <trkpt lat="48.26895" lon="2.63914">
        <ele>84.252685</ele>
        <time>2009-02-01T08:17:50Z</time>
      </trkpt>
      <trkpt lat="48.26889" lon="2.63911">
        <ele>86.175293</ele>
        <time>2009-02-01T08:17:54Z</time>
      </trkpt>
      <trkpt lat="48.26885" lon="2.63908">
        <ele>86.656005</ele>
        <time>2009-02-01T08:17:57Z</time>
      </trkpt>
      <trkpt lat="48.26872" lon="2.63904">
        <ele>87.136596</ele>
        <time>2009-02-01T08:18:06Z</time>
      </trkpt>
      <trkpt lat="48.26865" lon="2.63901">
        <ele>87.617187</ele>
        <time>2009-02-01T08:18:11Z</time>
      </trkpt>
      <trkpt lat="48.2686" lon="2.63898">
        <ele>89.059326</ele>
        <time>2009-02-01T08:18:15Z</time>
      </trkpt>
      <trkpt lat="48.26855" lon="2.63895">
        <ele>91.462524</ele>
        <time>2009-02-01T08:18:20Z</time>
      </trkpt>
      <trkpt lat="48.26855" lon="2.63898">
        <ele>91.943237</ele>
        <time>2009-02-01T08:18:22Z</time>
      </trkpt>
      <trkpt lat="48.26844" lon="2.639">
        <ele>92.904541</ele>
        <time>2009-02-01T08:18:30Z</time>
      </trkpt>
      <trkpt lat="48.26841" lon="2.63897">
        <ele>94.346557</ele>
        <time>2009-02-01T08:18:33Z</time>
      </trkpt>
      <trkpt lat="48.26835" lon="2.63889">
        <ele>94.827148</ele>
        <time>2009-02-01T08:18:39Z</time>
      </trkpt>
      <trkpt lat="48.26834" lon="2.63888">
        <ele>95.307739</ele>
        <time>2009-02-01T08:18:42Z</time>
      </trkpt>
      <trkpt lat="48.26829" lon="2.63881">
        <ele>97.230468</ele>
        <time>2009-02-01T08:18:47Z</time>
      </trkpt>
      <trkpt lat="48.26829" lon="2.63881">
        <ele>98.191894</ele>
        <time>2009-02-01T08:18:48Z</time>
      </trkpt>
      <trkpt lat="48.26828" lon="2.63881">
        <ele>98.191894</ele>
        <time>2009-02-01T08:18:51Z</time>
      </trkpt>
      <trkpt lat="48.26825" lon="2.63875">
        <ele>99.633789</ele>
        <time>2009-02-01T08:18:55Z</time>
      </trkpt>
      <trkpt lat="48.26823" lon="2.6387">
        <ele>100.59509</ele>
        <time>2009-02-01T08:19:01Z</time>
      </trkpt>
      <trkpt lat="48.26821" lon="2.63867">
        <ele>101.55639</ele>
        <time>2009-02-01T08:19:04Z</time>
      </trkpt>
      <trkpt lat="48.2682" lon="2.63866">
        <ele>101.55639</ele>
        <time>2009-02-01T08:19:08Z</time>
      </trkpt>
      <trkpt lat="48.26817" lon="2.63862">
        <ele>102.99829</ele>
        <time>2009-02-01T08:19:12Z</time>
      </trkpt>
      <trkpt lat="48.26814" lon="2.63857">
        <ele>104.44042</ele>
        <time>2009-02-01T08:19:18Z</time>
      </trkpt>
      <trkpt lat="48.26809" lon="2.63848">
        <ele>106.84362</ele>
        <time>2009-02-01T08:19:28Z</time>
      </trkpt>
      <trkpt lat="48.26805" lon="2.63841">
        <ele>108.28564</ele>
        <time>2009-02-01T08:19:37Z</time>
      </trkpt>
      <trkpt lat="48.26805" lon="2.63841">
        <ele>108.28564</ele>
        <time>2009-02-01T08:19:40Z</time>
      </trkpt>
      <trkpt lat="48.26805" lon="2.63841">
        <ele>107.80505</ele>
        <time>2009-02-01T08:19:41Z</time>
      </trkpt>
      <trkpt lat="48.26805" lon="2.6384">
        <ele>109.24694</ele>
        <time>2009-02-01T08:19:44Z</time>
      </trkpt>
      <trkpt lat="48.26804" lon="2.63839">
        <ele>108.28564</ele>
        <time>2009-02-01T08:19:45Z</time>
      </trkpt>
      <trkpt lat="48.26798" lon="2.63831">
        <ele>110.20825</ele>
        <time>2009-02-01T08:19:53Z</time>
      </trkpt>
      <trkpt lat="48.26797" lon="2.6383">
        <ele>110.20825</ele>
        <time>2009-02-01T08:19:55Z</time>
      </trkpt>
      <trkpt lat="48.26797" lon="2.6383">
        <ele>110.20825</ele>
        <time>2009-02-01T08:19:58Z</time>
      </trkpt>
      <trkpt lat="48.26794" lon="2.63827">
        <ele>110.68884</ele>
        <time>2009-02-01T08:19:59Z</time>
      </trkpt>
      <trkpt lat="48.26788" lon="2.6382">
        <ele>111.16955</ele>
        <time>2009-02-01T08:20:07Z</time>
      </trkpt>
      <trkpt lat="48.26783" lon="2.63818">
        <ele>112.13098</ele>
        <time>2009-02-01T08:20:13Z</time>
      </trkpt>
      <trkpt lat="48.26782" lon="2.63818">
        <ele>112.13098</ele>
        <time>2009-02-01T08:20:14Z</time>
      </trkpt>
      <trkpt lat="48.26776" lon="2.63817">
        <ele>112.13098</ele>
        <time>2009-02-01T08:20:18Z</time>
      </trkpt>
      <trkpt lat="48.26772" lon="2.63817">
        <ele>112.61157</ele>
        <time>2009-02-01T08:20:21Z</time>
      </trkpt>
      <trkpt lat="48.26761" lon="2.63824">
        <ele>112.61157</ele>
        <time>2009-02-01T08:20:27Z</time>
      </trkpt>
      <trkpt lat="48.26752" lon="2.63838">
        <ele>113.09228</ele>
        <time>2009-02-01T08:20:32Z</time>
      </trkpt>
      <trkpt lat="48.26748" lon="2.63854">
        <ele>113.09228</ele>
        <time>2009-02-01T08:20:37Z</time>
      </trkpt>
      <trkpt lat="48.26747" lon="2.63884">
        <ele>113.09228</ele>
        <time>2009-02-01T08:20:43Z</time>
      </trkpt>
      <trkpt lat="48.26746" lon="2.63923">
        <ele>113.57299</ele>
        <time>2009-02-01T08:20:51Z</time>
      </trkpt>
      <trkpt lat="48.26746" lon="2.63959">
        <ele>113.09228</ele>
        <time>2009-02-01T08:20:58Z</time>
      </trkpt>
      <trkpt lat="48.26744" lon="2.63997">
        <ele>111.65026</ele>
        <time>2009-02-01T08:21:04Z</time>
      </trkpt>
      <trkpt lat="48.26743" lon="2.64018">
        <ele>114.05358</ele>
        <time>2009-02-01T08:21:09Z</time>
      </trkpt>
      <trkpt lat="48.2675" lon="2.64029">
        <ele>113.09228</ele>
        <time>2009-02-01T08:21:14Z</time>
      </trkpt>
      <trkpt lat="48.26761" lon="2.64028">
        <ele>113.09228</ele>
        <time>2009-02-01T08:21:18Z</time>
      </trkpt>
      <trkpt lat="48.26772" lon="2.64024">
        <ele>109.24694</ele>
        <time>2009-02-01T08:21:23Z</time>
      </trkpt>
      <trkpt lat="48.26773" lon="2.64013">
        <ele>106.36303</ele>
        <time>2009-02-01T08:21:29Z</time>
      </trkpt>
      <trkpt lat="48.26773" lon="2.64011">
        <ele>106.36303</ele>
        <time>2009-02-01T08:21:31Z</time>
      </trkpt>
      <trkpt lat="48.26773" lon="2.6401">
        <ele>106.36303</ele>
        <time>2009-02-01T08:21:34Z</time>
      </trkpt>
      <trkpt lat="48.26774" lon="2.64009">
        <ele>106.36303</ele>
        <time>2009-02-01T08:21:35Z</time>
      </trkpt>
      <trkpt lat="48.26775" lon="2.64007">
        <ele>105.88244</ele>
        <time>2009-02-01T08:21:36Z</time>
      </trkpt>
      <trkpt lat="48.26781" lon="2.64012">
        <ele>102.0371</ele>
        <time>2009-02-01T08:21:40Z</time>
      </trkpt>
      <trkpt lat="48.26785" lon="2.64012">
        <ele>101.07568</ele>
        <time>2009-02-01T08:21:41Z</time>
      </trkpt>
      <trkpt lat="48.26791" lon="2.6401">
        <ele>100.1145</ele>
        <time>2009-02-01T08:21:43Z</time>
      </trkpt>
      <trkpt lat="48.26798" lon="2.64005">
        <ele>97.230468</ele>
        <time>2009-02-01T08:21:47Z</time>
      </trkpt>
      <trkpt lat="48.26808" lon="2.64007">
        <ele>95.307739</ele>
        <time>2009-02-01T08:21:52Z</time>
      </trkpt>
      <trkpt lat="48.26811" lon="2.63999">
        <ele>96.269287</ele>
        <time>2009-02-01T08:21:55Z</time>
      </trkpt>
      <trkpt lat="48.26818" lon="2.64005">
        <ele>94.346557</ele>
        <time>2009-02-01T08:21:59Z</time>
      </trkpt>
      <trkpt lat="48.26819" lon="2.64008">
        <ele>93.865844</ele>
        <time>2009-02-01T08:22:00Z</time>
      </trkpt>
      <trkpt lat="48.26826" lon="2.64024">
        <ele>94.827148</ele>
        <time>2009-02-01T08:22:05Z</time>
      </trkpt>
      <trkpt lat="48.26837" lon="2.64037">
        <ele>92.904541</ele>
        <time>2009-02-01T08:22:11Z</time>
      </trkpt>
      <trkpt lat="48.2684" lon="2.6405">
        <ele>92.904541</ele>
        <time>2009-02-01T08:22:15Z</time>
      </trkpt>
      <trkpt lat="48.2685" lon="2.64055">
        <ele>92.42395</ele>
        <time>2009-02-01T08:22:19Z</time>
      </trkpt>
      <trkpt lat="48.26861" lon="2.64056">
        <ele>90.501342</ele>
        <time>2009-02-01T08:22:22Z</time>
      </trkpt>
      <trkpt lat="48.26871" lon="2.64064">
        <ele>89.059326</ele>
        <time>2009-02-01T08:22:27Z</time>
      </trkpt>
      <trkpt lat="48.26879" lon="2.64071">
        <ele>89.539917</ele>
        <time>2009-02-01T08:22:30Z</time>
      </trkpt>
      <trkpt lat="48.26879" lon="2.64074">
        <ele>89.539917</ele>
        <time>2009-02-01T08:22:31Z</time>
      </trkpt>
      <trkpt lat="48.26882" lon="2.64079">
        <ele>90.020629</ele>
        <time>2009-02-01T08:22:33Z</time>
      </trkpt>
      <trkpt lat="48.26888" lon="2.64079">
        <ele>89.539917</ele>
        <time>2009-02-01T08:22:37Z</time>
      </trkpt>
      <trkpt lat="48.26898" lon="2.64085">
        <ele>88.578735</ele>
        <time>2009-02-01T08:22:42Z</time>
      </trkpt>
      <trkpt lat="48.26899" lon="2.64095">
        <ele>91.943237</ele>
        <time>2009-02-01T08:22:47Z</time>
      </trkpt>
      <trkpt lat="48.26903" lon="2.64114">
        <ele>93.865844</ele>
        <time>2009-02-01T08:22:54Z</time>
      </trkpt>
      <trkpt lat="48.2691" lon="2.64129">
        <ele>93.865844</ele>
        <time>2009-02-01T08:23:00Z</time>
      </trkpt>
      <trkpt lat="48.2691" lon="2.64136">
        <ele>92.904541</ele>
        <time>2009-02-01T08:23:03Z</time>
      </trkpt>
      <trkpt lat="48.26914" lon="2.64136">
        <ele>90.501342</ele>
        <time>2009-02-01T08:23:07Z</time>
      </trkpt>
      <trkpt lat="48.2692" lon="2.64133">
        <ele>87.617187</ele>
        <time>2009-02-01T08:23:11Z</time>
      </trkpt>
      <trkpt lat="48.26923" lon="2.64135">
        <ele>86.656005</ele>
        <time>2009-02-01T08:23:12Z</time>
      </trkpt>
      <trkpt lat="48.26932" lon="2.64147">
        <ele>83.771972</ele>
        <time>2009-02-01T08:23:16Z</time>
      </trkpt>
      <trkpt lat="48.2694" lon="2.64159">
        <ele>80.40747</ele>
        <time>2009-02-01T08:23:22Z</time>
      </trkpt>
      <trkpt lat="48.26946" lon="2.64165">
        <ele>79.926635</ele>
        <time>2009-02-01T08:23:24Z</time>
      </trkpt>
      <trkpt lat="48.26954" lon="2.64177">
        <ele>76.08142</ele>
        <time>2009-02-01T08:23:27Z</time>
      </trkpt>
      <trkpt lat="48.26961" lon="2.64189">
        <ele>74.639526</ele>
        <time>2009-02-01T08:23:30Z</time>
      </trkpt>
      <trkpt lat="48.2696" lon="2.64196">
        <ele>74.639526</ele>
        <time>2009-02-01T08:23:35Z</time>
      </trkpt>
      <trkpt lat="48.26958" lon="2.64199">
        <ele>74.639526</ele>
        <time>2009-02-01T08:23:54Z</time>
      </trkpt>
      <trkpt lat="48.26958" lon="2.642">
        <ele>75.60083</ele>
        <time>2009-02-01T08:23:55Z</time>
      </trkpt>
      <trkpt lat="48.26954" lon="2.64202">
        <ele>75.120239</ele>
        <time>2009-02-01T08:24:30Z</time>
      </trkpt>
      <trkpt lat="48.26954" lon="2.64204">
        <ele>75.120239</ele>
        <time>2009-02-01T08:24:31Z</time>
      </trkpt>
      <trkpt lat="48.26952" lon="2.64213">
        <ele>76.08142</ele>
        <time>2009-02-01T08:24:34Z</time>
      </trkpt>
      <trkpt lat="48.26942" lon="2.64235">
        <ele>76.08142</ele>
        <time>2009-02-01T08:24:41Z</time>
      </trkpt>
      <trkpt lat="48.26933" lon="2.64259">
        <ele>76.562133</ele>
        <time>2009-02-01T08:24:47Z</time>
      </trkpt>
      <trkpt lat="48.26927" lon="2.64273">
        <ele>77.042846</ele>
        <time>2009-02-01T08:24:52Z</time>
      </trkpt>
      <trkpt lat="48.26921" lon="2.6429">
        <ele>77.042846</ele>
        <time>2009-02-01T08:24:57Z</time>
      </trkpt>
      <trkpt lat="48.26908" lon="2.64315">
        <ele>77.042846</ele>
        <time>2009-02-01T08:25:03Z</time>
      </trkpt>
      <trkpt lat="48.26893" lon="2.64338">
        <ele>77.523437</ele>
        <time>2009-02-01T08:25:09Z</time>
      </trkpt>
      <trkpt lat="48.26883" lon="2.64354">
        <ele>78.004028</ele>
        <time>2009-02-01T08:25:13Z</time>
      </trkpt>
      <trkpt lat="48.26868" lon="2.64377">
        <ele>77.523437</ele>
        <time>2009-02-01T08:25:18Z</time>
      </trkpt>
      <trkpt lat="48.26855" lon="2.64391">
        <ele>78.004028</ele>
        <time>2009-02-01T08:25:22Z</time>
      </trkpt>
      <trkpt lat="48.26846" lon="2.64386">
        <ele>79.926635</ele>
        <time>2009-02-01T08:25:27Z</time>
      </trkpt>
      <trkpt lat="48.26843" lon="2.64376">
        <ele>79.926635</ele>
        <time>2009-02-01T08:25:30Z</time>
      </trkpt>
      <trkpt lat="48.26834" lon="2.64362">
        <ele>80.888183</ele>
        <time>2009-02-01T08:25:36Z</time>
      </trkpt>
      <trkpt lat="48.26827" lon="2.64349">
        <ele>82.330078</ele>
        <time>2009-02-01T08:25:42Z</time>
      </trkpt>
      <trkpt lat="48.26824" lon="2.64343">
        <ele>83.291381</ele>
        <time>2009-02-01T08:25:46Z</time>
      </trkpt>
      <trkpt lat="48.26822" lon="2.64342">
        <ele>83.771972</ele>
        <time>2009-02-01T08:25:47Z</time>
      </trkpt>
      <trkpt lat="48.26815" lon="2.64329">
        <ele>86.175293</ele>
        <time>2009-02-01T08:25:54Z</time>
      </trkpt>
      <trkpt lat="48.2681" lon="2.64317">
        <ele>87.136596</ele>
        <time>2009-02-01T08:26:00Z</time>
      </trkpt>
      <trkpt lat="48.26806" lon="2.64307">
        <ele>88.098022</ele>
        <time>2009-02-01T08:26:06Z</time>
      </trkpt>
      <trkpt lat="48.268" lon="2.64289">
        <ele>90.981933</ele>
        <time>2009-02-01T08:26:15Z</time>
      </trkpt>
      <trkpt lat="48.26796" lon="2.64278">
        <ele>91.462524</ele>
        <time>2009-02-01T08:26:20Z</time>
      </trkpt>
      <trkpt lat="48.26793" lon="2.6427">
        <ele>92.42395</ele>
        <time>2009-02-01T08:26:24Z</time>
      </trkpt>
      <trkpt lat="48.26791" lon="2.64269">
        <ele>92.904541</ele>
        <time>2009-02-01T08:26:26Z</time>
      </trkpt>
      <trkpt lat="48.26786" lon="2.64273">
        <ele>93.865844</ele>
        <time>2009-02-01T08:26:32Z</time>
      </trkpt>
      <trkpt lat="48.26781" lon="2.64284">
        <ele>94.827148</ele>
        <time>2009-02-01T08:26:38Z</time>
      </trkpt>
      <trkpt lat="48.26772" lon="2.64295">
        <ele>96.749877</ele>
        <time>2009-02-01T08:26:44Z</time>
      </trkpt>
      <trkpt lat="48.2676" lon="2.64303">
        <ele>96.749877</ele>
        <time>2009-02-01T08:26:49Z</time>
      </trkpt>
      <trkpt lat="48.26748" lon="2.643">
        <ele>96.269287</ele>
        <time>2009-02-01T08:26:53Z</time>
      </trkpt>
      <trkpt lat="48.26735" lon="2.64304">
        <ele>96.749877</ele>
        <time>2009-02-01T08:26:57Z</time>
      </trkpt>
      <trkpt lat="48.26725" lon="2.64318">
        <ele>95.788452</ele>
        <time>2009-02-01T08:27:01Z</time>
      </trkpt>
      <trkpt lat="48.26721" lon="2.64321">
        <ele>95.788452</ele>
        <time>2009-02-01T08:27:02Z</time>
      </trkpt>
      <trkpt lat="48.26706" lon="2.64317">
        <ele>96.749877</ele>
        <time>2009-02-01T08:27:07Z</time>
      </trkpt>
      <trkpt lat="48.26692" lon="2.64316">
        <ele>97.711181</ele>
        <time>2009-02-01T08:27:13Z</time>
      </trkpt>
      <trkpt lat="48.26687" lon="2.64322">
        <ele>99.633789</ele>
        <time>2009-02-01T08:27:18Z</time>
      </trkpt>
      <trkpt lat="48.26687" lon="2.64324">
        <ele>99.633789</ele>
        <time>2009-02-01T08:27:19Z</time>
      </trkpt>
      <trkpt lat="48.26689" lon="2.64334">
        <ele>101.55639</ele>
        <time>2009-02-01T08:27:25Z</time>
      </trkpt>
      <trkpt lat="48.2669" lon="2.64346">
        <ele>103.479</ele>
        <time>2009-02-01T08:27:32Z</time>
      </trkpt>
      <trkpt lat="48.26693" lon="2.64351">
        <ele>103.479</ele>
        <time>2009-02-01T08:27:35Z</time>
      </trkpt>
      <trkpt lat="48.26693" lon="2.64363">
        <ele>104.44042</ele>
        <time>2009-02-01T08:27:42Z</time>
      </trkpt>
      <trkpt lat="48.26693" lon="2.64369">
        <ele>105.40173</ele>
        <time>2009-02-01T08:27:47Z</time>
      </trkpt>
      <trkpt lat="48.26693" lon="2.64369">
        <ele>104.92102</ele>
        <time>2009-02-01T08:27:48Z</time>
      </trkpt>
      <trkpt lat="48.26693" lon="2.6437">
        <ele>105.40173</ele>
        <time>2009-02-01T08:27:53Z</time>
      </trkpt>
      <trkpt lat="48.26697" lon="2.64379">
        <ele>102.0371</ele>
        <time>2009-02-01T08:27:57Z</time>
      </trkpt>
      <trkpt lat="48.26701" lon="2.6439">
        <ele>99.153076</ele>
        <time>2009-02-01T08:28:02Z</time>
      </trkpt>
      <trkpt lat="48.26703" lon="2.64397">
        <ele>96.269287</ele>
        <time>2009-02-01T08:28:04Z</time>
      </trkpt>
      <trkpt lat="48.26703" lon="2.64402">
        <ele>94.827148</ele>
        <time>2009-02-01T08:28:08Z</time>
      </trkpt>
      <trkpt lat="48.26704" lon="2.64406">
        <ele>92.904541</ele>
        <time>2009-02-01T08:28:22Z</time>
      </trkpt>
      <trkpt lat="48.26705" lon="2.64408">
        <ele>91.943237</ele>
        <time>2009-02-01T08:28:23Z</time>
      </trkpt>
      <trkpt lat="48.26706" lon="2.64412">
        <ele>89.539917</ele>
        <time>2009-02-01T08:28:27Z</time>
      </trkpt>
      <trkpt lat="48.26707" lon="2.64413">
        <ele>89.539917</ele>
        <time>2009-02-01T08:28:31Z</time>
      </trkpt>
      <trkpt lat="48.2671" lon="2.64418">
        <ele>88.098022</ele>
        <time>2009-02-01T08:28:36Z</time>
      </trkpt>
      <trkpt lat="48.2671" lon="2.64419">
        <ele>87.136596</ele>
        <time>2009-02-01T08:28:38Z</time>
      </trkpt>
      <trkpt lat="48.26711" lon="2.64421">
        <ele>86.175293</ele>
        <time>2009-02-01T08:28:41Z</time>
      </trkpt>
      <trkpt lat="48.26712" lon="2.64424">
        <ele>85.69458</ele>
        <time>2009-02-01T08:28:42Z</time>
      </trkpt>
      <trkpt lat="48.26715" lon="2.64435">
        <ele>84.733398</ele>
        <time>2009-02-01T08:28:43Z</time>
      </trkpt>
      <trkpt lat="48.26726" lon="2.64455">
        <ele>84.252685</ele>
        <time>2009-02-01T08:28:47Z</time>
      </trkpt>
      <trkpt lat="48.26727" lon="2.64456">
        <ele>84.733398</ele>
        <time>2009-02-01T08:28:49Z</time>
      </trkpt>
      <trkpt lat="48.26729" lon="2.64457">
        <ele>84.733398</ele>
        <time>2009-02-01T08:29:33Z</time>
      </trkpt>
      <trkpt lat="48.26729" lon="2.64457">
        <ele>84.252685</ele>
        <time>2009-02-01T08:29:34Z</time>
      </trkpt>
      <trkpt lat="48.26729" lon="2.64457">
        <ele>84.252685</ele>
        <time>2009-02-01T08:29:35Z</time>
      </trkpt>
      <trkpt lat="48.2673" lon="2.64458">
        <ele>84.252685</ele>
        <time>2009-02-01T08:29:46Z</time>
      </trkpt>
      <trkpt lat="48.26731" lon="2.64459">
        <ele>84.252685</ele>
        <time>2009-02-01T08:29:47Z</time>
      </trkpt>
      <trkpt lat="48.2674" lon="2.64468">
        <ele>83.771972</ele>
        <time>2009-02-01T08:29:53Z</time>
      </trkpt>
      <trkpt lat="48.26753" lon="2.64477">
        <ele>83.291381</ele>
        <time>2009-02-01T08:29:58Z</time>
      </trkpt>
      <trkpt lat="48.26767" lon="2.64488">
        <ele>82.330078</ele>
        <time>2009-02-01T08:30:02Z</time>
      </trkpt>
      <trkpt lat="48.26788" lon="2.64503">
        <ele>81.368774</ele>
        <time>2009-02-01T08:30:08Z</time>
      </trkpt>
      <trkpt lat="48.26802" lon="2.64516">
        <ele>80.888183</ele>
        <time>2009-02-01T08:30:14Z</time>
      </trkpt>
      <trkpt lat="48.26805" lon="2.64527">
        <ele>81.849365</ele>
        <time>2009-02-01T08:30:17Z</time>
      </trkpt>
      <trkpt lat="48.26814" lon="2.64546">
        <ele>84.252685</ele>
        <time>2009-02-01T08:30:23Z</time>
      </trkpt>
      <trkpt lat="48.26815" lon="2.64552">
        <ele>84.252685</ele>
        <time>2009-02-01T08:30:27Z</time>
      </trkpt>
      <trkpt lat="48.26817" lon="2.64556">
        <ele>84.733398</ele>
        <time>2009-02-01T08:30:41Z</time>
      </trkpt>
      <trkpt lat="48.26816" lon="2.64562">
        <ele>83.291381</ele>
        <time>2009-02-01T08:30:42Z</time>
      </trkpt>
      <trkpt lat="48.26812" lon="2.64588">
        <ele>82.810791</ele>
        <time>2009-02-01T08:30:47Z</time>
      </trkpt>
      <trkpt lat="48.26816" lon="2.64609">
        <ele>83.291381</ele>
        <time>2009-02-01T08:30:51Z</time>
      </trkpt>
      <trkpt lat="48.26822" lon="2.64625">
        <ele>83.291381</ele>
        <time>2009-02-01T08:30:55Z</time>
      </trkpt>
      <trkpt lat="48.26825" lon="2.64646">
        <ele>85.69458</ele>
        <time>2009-02-01T08:31:00Z</time>
      </trkpt>
      <trkpt lat="48.26837" lon="2.64657">
        <ele>86.175293</ele>
        <time>2009-02-01T08:31:05Z</time>
      </trkpt>
      <trkpt lat="48.2684" lon="2.64665">
        <ele>86.175293</ele>
        <time>2009-02-01T08:31:07Z</time>
      </trkpt>
      <trkpt lat="48.26849" lon="2.64692">
        <ele>86.656005</ele>
        <time>2009-02-01T08:31:15Z</time>
      </trkpt>
      <trkpt lat="48.26849" lon="2.64712">
        <ele>85.69458</ele>
        <time>2009-02-01T08:31:19Z</time>
      </trkpt>
      <trkpt lat="48.26848" lon="2.64751">
        <ele>84.252685</ele>
        <time>2009-02-01T08:31:24Z</time>
      </trkpt>
      <trkpt lat="48.26852" lon="2.64772">
        <ele>85.69458</ele>
        <time>2009-02-01T08:31:28Z</time>
      </trkpt>
      <trkpt lat="48.26852" lon="2.64777">
        <ele>85.69458</ele>
        <time>2009-02-01T08:31:29Z</time>
      </trkpt>
      <trkpt lat="48.26853" lon="2.64801">
        <ele>86.175293</ele>
        <time>2009-02-01T08:31:34Z</time>
      </trkpt>
      <trkpt lat="48.26856" lon="2.64816">
        <ele>87.136596</ele>
        <time>2009-02-01T08:31:38Z</time>
      </trkpt>
      <trkpt lat="48.26856" lon="2.64832">
        <ele>88.098022</ele>
        <time>2009-02-01T08:31:42Z</time>
      </trkpt>
      <trkpt lat="48.26858" lon="2.64852">
        <ele>88.578735</ele>
        <time>2009-02-01T08:31:47Z</time>
      </trkpt>
      <trkpt lat="48.26861" lon="2.64871">
        <ele>89.539917</ele>
        <time>2009-02-01T08:31:52Z</time>
      </trkpt>
      <trkpt lat="48.26864" lon="2.64911">
        <ele>89.059326</ele>
        <time>2009-02-01T08:32:00Z</time>
      </trkpt>
      <trkpt lat="48.26863" lon="2.64922">
        <ele>88.098022</ele>
        <time>2009-02-01T08:32:02Z</time>
      </trkpt>
      <trkpt lat="48.26867" lon="2.64967">
        <ele>84.252685</ele>
        <time>2009-02-01T08:32:07Z</time>
      </trkpt>
      <trkpt lat="48.26872" lon="2.65012">
        <ele>77.523437</ele>
        <time>2009-02-01T08:32:11Z</time>
      </trkpt>
      <trkpt lat="48.26873" lon="2.65021">
        <ele>77.042846</ele>
        <time>2009-02-01T08:32:12Z</time>
      </trkpt>
      <trkpt lat="48.26874" lon="2.65038">
        <ele>76.08142</ele>
        <time>2009-02-01T08:32:14Z</time>
      </trkpt>
      <trkpt lat="48.26874" lon="2.6505">
        <ele>75.60083</ele>
        <time>2009-02-01T08:32:16Z</time>
      </trkpt>
      <trkpt lat="48.26881" lon="2.65064">
        <ele>74.639526</ele>
        <time>2009-02-01T08:32:19Z</time>
      </trkpt>
      <trkpt lat="48.26897" lon="2.65074">
        <ele>72.716918</ele>
        <time>2009-02-01T08:32:23Z</time>
      </trkpt>
      <trkpt lat="48.26934" lon="2.65069">
        <ele>72.716918</ele>
        <time>2009-02-01T08:32:30Z</time>
      </trkpt>
      <trkpt lat="48.26944" lon="2.65069">
        <ele>72.236206</ele>
        <time>2009-02-01T08:32:32Z</time>
      </trkpt>
      <trkpt lat="48.26965" lon="2.65065">
        <ele>72.716918</ele>
        <time>2009-02-01T08:32:36Z</time>
      </trkpt>
      <trkpt lat="48.27013" lon="2.6507">
        <ele>72.236206</ele>
        <time>2009-02-01T08:32:46Z</time>
      </trkpt>
      <trkpt lat="48.27048" lon="2.6507">
        <ele>72.236206</ele>
        <time>2009-02-01T08:32:53Z</time>
      </trkpt>
      <trkpt lat="48.27082" lon="2.65079">
        <ele>72.236206</ele>
        <time>2009-02-01T08:33:00Z</time>
      </trkpt>
      <trkpt lat="48.2712" lon="2.65094">
        <ele>71.274902</ele>
        <time>2009-02-01T08:33:08Z</time>
      </trkpt>
      <trkpt lat="48.2715" lon="2.65108">
        <ele>72.236206</ele>
        <time>2009-02-01T08:33:15Z</time>
      </trkpt>
      <trkpt lat="48.27184" lon="2.65123">
        <ele>72.236206</ele>
        <time>2009-02-01T08:33:23Z</time>
      </trkpt>
      <trkpt lat="48.27212" lon="2.65137">
        <ele>72.236206</ele>
        <time>2009-02-01T08:33:29Z</time>
      </trkpt>
      <trkpt lat="48.27239" lon="2.65149">
        <ele>73.197631</ele>
        <time>2009-02-01T08:33:35Z</time>
      </trkpt>
      <trkpt lat="48.2726" lon="2.65159">
        <ele>72.236206</ele>
        <time>2009-02-01T08:33:40Z</time>
      </trkpt>
      <trkpt lat="48.2728" lon="2.65168">
        <ele>71.755493</ele>
        <time>2009-02-01T08:33:45Z</time>
      </trkpt>
      <trkpt lat="48.27296" lon="2.65174">
        <ele>72.236206</ele>
        <time>2009-02-01T08:33:49Z</time>
      </trkpt>
      <trkpt lat="48.27308" lon="2.65159">
        <ele>72.236206</ele>
        <time>2009-02-01T08:33:53Z</time>
      </trkpt>
      <trkpt lat="48.27309" lon="2.65153">
        <ele>72.716918</ele>
        <time>2009-02-01T08:33:54Z</time>
      </trkpt>
      <trkpt lat="48.27317" lon="2.65103">
        <ele>72.236206</ele>
        <time>2009-02-01T08:34:01Z</time>
      </trkpt>
      <trkpt lat="48.27321" lon="2.6506">
        <ele>73.197631</ele>
        <time>2009-02-01T08:34:07Z</time>
      </trkpt>
      <trkpt lat="48.27317" lon="2.65012">
        <ele>72.236206</ele>
        <time>2009-02-01T08:34:13Z</time>
      </trkpt>
      <trkpt lat="48.27315" lon="2.64993">
        <ele>71.755493</ele>
        <time>2009-02-01T08:34:15Z</time>
      </trkpt>
      <trkpt lat="48.27308" lon="2.64952">
        <ele>72.236206</ele>
        <time>2009-02-01T08:34:20Z</time>
      </trkpt>
      <trkpt lat="48.27305" lon="2.64906">
        <ele>72.236206</ele>
        <time>2009-02-01T08:34:26Z</time>
      </trkpt>
      <trkpt lat="48.27302" lon="2.6486">
        <ele>72.236206</ele>
        <time>2009-02-01T08:34:31Z</time>
      </trkpt>
      <trkpt lat="48.27298" lon="2.64809">
        <ele>72.236206</ele>
        <time>2009-02-01T08:34:37Z</time>
      </trkpt>
      <trkpt lat="48.27297" lon="2.64802">
        <ele>71.755493</ele>
        <time>2009-02-01T08:34:38Z</time>
      </trkpt>
      <trkpt lat="48.27296" lon="2.64765">
        <ele>71.755493</ele>
        <time>2009-02-01T08:34:43Z</time>
      </trkpt>
      <trkpt lat="48.27292" lon="2.64715">
        <ele>71.755493</ele>
        <time>2009-02-01T08:34:49Z</time>
      </trkpt>
      <trkpt lat="48.27291" lon="2.64673">
        <ele>71.755493</ele>
        <time>2009-02-01T08:34:54Z</time>
      </trkpt>
      <trkpt lat="48.27289" lon="2.64638">
        <ele>71.755493</ele>
        <time>2009-02-01T08:34:58Z</time>
      </trkpt>
      <trkpt lat="48.27286" lon="2.64596">
        <ele>72.236206</ele>
        <time>2009-02-01T08:35:03Z</time>
      </trkpt>
      <trkpt lat="48.27285" lon="2.64564">
        <ele>72.236206</ele>
        <time>2009-02-01T08:35:07Z</time>
      </trkpt>
      <trkpt lat="48.27284" lon="2.64508">
        <ele>72.236206</ele>
        <time>2009-02-01T08:35:14Z</time>
      </trkpt>
      <trkpt lat="48.27282" lon="2.64469">
        <ele>72.236206</ele>
        <time>2009-02-01T08:35:19Z</time>
      </trkpt>
      <trkpt lat="48.27281" lon="2.6442">
        <ele>72.716918</ele>
        <time>2009-02-01T08:35:25Z</time>
      </trkpt>
      <trkpt lat="48.27281" lon="2.64359">
        <ele>71.755493</ele>
        <time>2009-02-01T08:35:32Z</time>
      </trkpt>
      <trkpt lat="48.27286" lon="2.64287">
        <ele>72.236206</ele>
        <time>2009-02-01T08:35:41Z</time>
      </trkpt>
      <trkpt lat="48.2729" lon="2.64264">
        <ele>71.755493</ele>
        <time>2009-02-01T08:35:44Z</time>
      </trkpt>
      <trkpt lat="48.27296" lon="2.64201">
        <ele>71.755493</ele>
        <time>2009-02-01T08:35:52Z</time>
      </trkpt>
      <trkpt lat="48.27297" lon="2.64154">
        <ele>73.197631</ele>
        <time>2009-02-01T08:35:58Z</time>
      </trkpt>
      <trkpt lat="48.27301" lon="2.64116">
        <ele>73.197631</ele>
        <time>2009-02-01T08:36:03Z</time>
      </trkpt>
      <trkpt lat="48.27303" lon="2.64086">
        <ele>72.236206</ele>
        <time>2009-02-01T08:36:07Z</time>
      </trkpt>
      <trkpt lat="48.2731" lon="2.64037">
        <ele>72.236206</ele>
        <time>2009-02-01T08:36:13Z</time>
      </trkpt>
      <trkpt lat="48.27311" lon="2.64028">
        <ele>72.716918</ele>
        <time>2009-02-01T08:36:14Z</time>
      </trkpt>
      <trkpt lat="48.27315" lon="2.63997">
        <ele>72.716918</ele>
        <time>2009-02-01T08:36:18Z</time>
      </trkpt>
      <trkpt lat="48.27326" lon="2.63922">
        <ele>72.716918</ele>
        <time>2009-02-01T08:36:27Z</time>
      </trkpt>
      <trkpt lat="48.27335" lon="2.63878">
        <ele>73.197631</ele>
        <time>2009-02-01T08:36:33Z</time>
      </trkpt>
      <trkpt lat="48.27338" lon="2.63864">
        <ele>73.197631</ele>
        <time>2009-02-01T08:36:35Z</time>
      </trkpt>
      <trkpt lat="48.2734" lon="2.63842">
        <ele>72.716918</ele>
        <time>2009-02-01T08:36:38Z</time>
      </trkpt>
      <trkpt lat="48.27354" lon="2.63814">
        <ele>72.716918</ele>
        <time>2009-02-01T08:36:43Z</time>
      </trkpt>
      <trkpt lat="48.27365" lon="2.63815">
        <ele>72.716918</ele>
        <time>2009-02-01T08:36:45Z</time>
      </trkpt>
      <trkpt lat="48.27414" lon="2.63831">
        <ele>73.197631</ele>
        <time>2009-02-01T08:36:54Z</time>
      </trkpt>
      <trkpt lat="48.27444" lon="2.6384">
        <ele>72.716918</ele>
        <time>2009-02-01T08:37:00Z</time>
      </trkpt>
      <trkpt lat="48.27477" lon="2.63849">
        <ele>72.236206</ele>
        <time>2009-02-01T08:37:06Z</time>
      </trkpt>
      <trkpt lat="48.27493" lon="2.63854">
        <ele>72.236206</ele>
        <time>2009-02-01T08:37:09Z</time>
      </trkpt>
      <trkpt lat="48.27518" lon="2.63867">
        <ele>72.236206</ele>
        <time>2009-02-01T08:37:14Z</time>
      </trkpt>
      <trkpt lat="48.27558" lon="2.63894">
        <ele>72.236206</ele>
        <time>2009-02-01T08:37:22Z</time>
      </trkpt>
      <trkpt lat="48.27586" lon="2.63904">
        <ele>72.236206</ele>
        <time>2009-02-01T08:37:29Z</time>
      </trkpt>
      <trkpt lat="48.27607" lon="2.63909">
        <ele>72.236206</ele>
        <time>2009-02-01T08:37:35Z</time>
      </trkpt>
      <trkpt lat="48.27624" lon="2.63916">
        <ele>72.236206</ele>
        <time>2009-02-01T08:37:39Z</time>
      </trkpt>
      <trkpt lat="48.27658" lon="2.63929">
        <ele>71.755493</ele>
        <time>2009-02-01T08:37:47Z</time>
      </trkpt>
      <trkpt lat="48.27682" lon="2.63937">
        <ele>71.274902</ele>
        <time>2009-02-01T08:37:53Z</time>
      </trkpt>
      <trkpt lat="48.27699" lon="2.63941">
        <ele>70.794189</ele>
        <time>2009-02-01T08:37:57Z</time>
      </trkpt>
      <trkpt lat="48.27726" lon="2.63949">
        <ele>71.274902</ele>
        <time>2009-02-01T08:38:03Z</time>
      </trkpt>
      <trkpt lat="48.27755" lon="2.63953">
        <ele>70.794189</ele>
        <time>2009-02-01T08:38:09Z</time>
      </trkpt>
      <trkpt lat="48.27784" lon="2.63959">
        <ele>70.313476</ele>
        <time>2009-02-01T08:38:15Z</time>
      </trkpt>
      <trkpt lat="48.278" lon="2.63964">
        <ele>70.794189</ele>
        <time>2009-02-01T08:38:18Z</time>
      </trkpt>
      <trkpt lat="48.27814" lon="2.63966">
        <ele>70.313476</ele>
        <time>2009-02-01T08:38:21Z</time>
      </trkpt>
      <trkpt lat="48.27854" lon="2.63975">
        <ele>69.832885</ele>
        <time>2009-02-01T08:38:29Z</time>
      </trkpt>
      <trkpt lat="48.27873" lon="2.63979">
        <ele>69.832885</ele>
        <time>2009-02-01T08:38:33Z</time>
      </trkpt>
      <trkpt lat="48.27896" lon="2.63985">
        <ele>69.832885</ele>
        <time>2009-02-01T08:38:38Z</time>
      </trkpt>
      <trkpt lat="48.27918" lon="2.63999">
        <ele>69.832885</ele>
        <time>2009-02-01T08:38:44Z</time>
      </trkpt>
      <trkpt lat="48.27934" lon="2.6401">
        <ele>69.352294</ele>
        <time>2009-02-01T08:38:48Z</time>
      </trkpt>
      <trkpt lat="48.27938" lon="2.64013">
        <ele>69.352294</ele>
        <time>2009-02-01T08:38:49Z</time>
      </trkpt>
      <trkpt lat="48.27961" lon="2.64034">
        <ele>69.832885</ele>
        <time>2009-02-01T08:38:55Z</time>
      </trkpt>
      <trkpt lat="48.27974" lon="2.64043">
        <ele>70.313476</ele>
        <time>2009-02-01T08:38:58Z</time>
      </trkpt>
      <trkpt lat="48.27989" lon="2.64056">
        <ele>69.832885</ele>
        <time>2009-02-01T08:39:02Z</time>
      </trkpt>
      <trkpt lat="48.28003" lon="2.64067">
        <ele>69.832885</ele>
        <time>2009-02-01T08:39:05Z</time>
      </trkpt>
      <trkpt lat="48.28022" lon="2.64088">
        <ele>68.871582</ele>
        <time>2009-02-01T08:39:10Z</time>
      </trkpt>
      <trkpt lat="48.28039" lon="2.64108">
        <ele>69.352294</ele>
        <time>2009-02-01T08:39:15Z</time>
      </trkpt>
      <trkpt lat="48.2806" lon="2.64135">
        <ele>71.274902</ele>
        <time>2009-02-01T08:39:21Z</time>
      </trkpt>
      <trkpt lat="48.28075" lon="2.64153">
        <ele>70.313476</ele>
        <time>2009-02-01T08:39:26Z</time>
      </trkpt>
      <trkpt lat="48.28091" lon="2.64145">
        <ele>70.794189</ele>
        <time>2009-02-01T08:39:31Z</time>
      </trkpt>
      <trkpt lat="48.28095" lon="2.64137">
        <ele>70.794189</ele>
        <time>2009-02-01T08:39:33Z</time>
      </trkpt>
      <trkpt lat="48.28114" lon="2.64108">
        <ele>72.236206</ele>
        <time>2009-02-01T08:39:40Z</time>
      </trkpt>
      <trkpt lat="48.28137" lon="2.64079">
        <ele>72.716918</ele>
        <time>2009-02-01T08:39:47Z</time>
      </trkpt>
      <trkpt lat="48.28151" lon="2.64079">
        <ele>72.236206</ele>
        <time>2009-02-01T08:39:51Z</time>
      </trkpt>
      <trkpt lat="48.28166" lon="2.64092">
        <ele>73.197631</ele>
        <time>2009-02-01T08:39:56Z</time>
      </trkpt>
      <trkpt lat="48.28173" lon="2.641">
        <ele>73.197631</ele>
        <time>2009-02-01T08:39:58Z</time>
      </trkpt>
      <trkpt lat="48.28185" lon="2.64109">
        <ele>73.678222</ele>
        <time>2009-02-01T08:40:01Z</time>
      </trkpt>
      <trkpt lat="48.28214" lon="2.64134">
        <ele>73.197631</ele>
        <time>2009-02-01T08:40:08Z</time>
      </trkpt>
      <trkpt lat="48.28234" lon="2.6415">
        <ele>72.716918</ele>
        <time>2009-02-01T08:40:13Z</time>
      </trkpt>
      <trkpt lat="48.28242" lon="2.64156">
        <ele>73.197631</ele>
        <time>2009-02-01T08:40:15Z</time>
      </trkpt>
      <trkpt lat="48.28266" lon="2.64174">
        <ele>73.678222</ele>
        <time>2009-02-01T08:40:21Z</time>
      </trkpt>
      <trkpt lat="48.28284" lon="2.64185">
        <ele>74.158813</ele>
        <time>2009-02-01T08:40:26Z</time>
      </trkpt>
      <trkpt lat="48.28304" lon="2.64201">
        <ele>74.158813</ele>
        <time>2009-02-01T08:40:32Z</time>
      </trkpt>
      <trkpt lat="48.28328" lon="2.6422">
        <ele>75.120239</ele>
        <time>2009-02-01T08:40:38Z</time>
      </trkpt>
      <trkpt lat="48.28336" lon="2.64227">
        <ele>75.120239</ele>
        <time>2009-02-01T08:40:40Z</time>
      </trkpt>
      <trkpt lat="48.28353" lon="2.64245">
        <ele>74.639526</ele>
        <time>2009-02-01T08:40:45Z</time>
      </trkpt>
      <trkpt lat="48.28376" lon="2.6427">
        <ele>74.639526</ele>
        <time>2009-02-01T08:40:52Z</time>
      </trkpt>
      <trkpt lat="48.28383" lon="2.64277">
        <ele>75.120239</ele>
        <time>2009-02-01T08:40:54Z</time>
      </trkpt>
      <trkpt lat="48.28405" lon="2.64304">
        <ele>75.120239</ele>
        <time>2009-02-01T08:41:00Z</time>
      </trkpt>
      <trkpt lat="48.28418" lon="2.64328">
        <ele>75.60083</ele>
        <time>2009-02-01T08:41:05Z</time>
      </trkpt>
      <trkpt lat="48.28428" lon="2.64359">
        <ele>75.60083</ele>
        <time>2009-02-01T08:41:11Z</time>
      </trkpt>
      <trkpt lat="48.28435" lon="2.6438">
        <ele>75.60083</ele>
        <time>2009-02-01T08:41:15Z</time>
      </trkpt>
      <trkpt lat="48.28441" lon="2.64407">
        <ele>75.120239</ele>
        <time>2009-02-01T08:41:19Z</time>
      </trkpt>
      <trkpt lat="48.28448" lon="2.64445">
        <ele>74.639526</ele>
        <time>2009-02-01T08:41:24Z</time>
      </trkpt>
      <trkpt lat="48.28456" lon="2.64464">
        <ele>74.639526</ele>
        <time>2009-02-01T08:41:28Z</time>
      </trkpt>
      <trkpt lat="48.28474" lon="2.64489">
        <ele>74.639526</ele>
        <time>2009-02-01T08:41:33Z</time>
      </trkpt>
      <trkpt lat="48.28494" lon="2.64516">
        <ele>74.639526</ele>
        <time>2009-02-01T08:41:39Z</time>
      </trkpt>
      <trkpt lat="48.28516" lon="2.64545">
        <ele>75.120239</ele>
        <time>2009-02-01T08:41:46Z</time>
      </trkpt>
      <trkpt lat="48.28529" lon="2.64563">
        <ele>75.60083</ele>
        <time>2009-02-01T08:41:51Z</time>
      </trkpt>
      <trkpt lat="48.28545" lon="2.64586">
        <ele>75.120239</ele>
        <time>2009-02-01T08:41:57Z</time>
      </trkpt>
      <trkpt lat="48.28564" lon="2.64611">
        <ele>76.08142</ele>
        <time>2009-02-01T08:42:03Z</time>
      </trkpt>
      <trkpt lat="48.28584" lon="2.64637">
        <ele>76.08142</ele>
        <time>2009-02-01T08:42:09Z</time>
      </trkpt>
      <trkpt lat="48.28596" lon="2.64654">
        <ele>76.08142</ele>
        <time>2009-02-01T08:42:13Z</time>
      </trkpt>
      <trkpt lat="48.28618" lon="2.64684">
        <ele>77.042846</ele>
        <time>2009-02-01T08:42:20Z</time>
      </trkpt>
      <trkpt lat="48.28634" lon="2.64705">
        <ele>77.523437</ele>
        <time>2009-02-01T08:42:25Z</time>
      </trkpt>
      <trkpt lat="48.2865" lon="2.64725">
        <ele>77.042846</ele>
        <time>2009-02-01T08:42:30Z</time>
      </trkpt>
      <trkpt lat="48.28666" lon="2.64745">
        <ele>77.523437</ele>
        <time>2009-02-01T08:42:35Z</time>
      </trkpt>
      <trkpt lat="48.28677" lon="2.64759">
        <ele>77.523437</ele>
        <time>2009-02-01T08:42:39Z</time>
      </trkpt>
      <trkpt lat="48.2869" lon="2.64776">
        <ele>77.523437</ele>
        <time>2009-02-01T08:42:43Z</time>
      </trkpt>
      <trkpt lat="48.2871" lon="2.64799">
        <ele>77.523437</ele>
        <time>2009-02-01T08:42:49Z</time>
      </trkpt>
      <trkpt lat="48.28727" lon="2.64822">
        <ele>78.004028</ele>
        <time>2009-02-01T08:42:54Z</time>
      </trkpt>
      <trkpt lat="48.28745" lon="2.64846">
        <ele>78.004028</ele>
        <time>2009-02-01T08:42:59Z</time>
      </trkpt>
      <trkpt lat="48.28768" lon="2.64876">
        <ele>78.004028</ele>
        <time>2009-02-01T08:43:06Z</time>
      </trkpt>
      <trkpt lat="48.28791" lon="2.64908">
        <ele>78.484741</ele>
        <time>2009-02-01T08:43:13Z</time>
      </trkpt>
      <trkpt lat="48.28812" lon="2.64935">
        <ele>78.484741</ele>
        <time>2009-02-01T08:43:19Z</time>
      </trkpt>
      <trkpt lat="48.28827" lon="2.64955">
        <ele>78.965454</ele>
        <time>2009-02-01T08:43:24Z</time>
      </trkpt>
      <trkpt lat="48.28839" lon="2.64972">
        <ele>79.926635</ele>
        <time>2009-02-01T08:43:28Z</time>
      </trkpt>
      <trkpt lat="48.28857" lon="2.64995">
        <ele>80.40747</ele>
        <time>2009-02-01T08:43:34Z</time>
      </trkpt>
      <trkpt lat="48.2886" lon="2.64999">
        <ele>80.40747</ele>
        <time>2009-02-01T08:43:35Z</time>
      </trkpt>
      <trkpt lat="48.28885" lon="2.6503">
        <ele>81.368774</ele>
        <time>2009-02-01T08:43:43Z</time>
      </trkpt>
      <trkpt lat="48.28901" lon="2.65052">
        <ele>81.849365</ele>
        <time>2009-02-01T08:43:49Z</time>
      </trkpt>
      <trkpt lat="48.28922" lon="2.65078">
        <ele>82.810791</ele>
        <time>2009-02-01T08:43:56Z</time>
      </trkpt>
      <trkpt lat="48.2894" lon="2.65102">
        <ele>83.771972</ele>
        <time>2009-02-01T08:44:03Z</time>
      </trkpt>
      <trkpt lat="48.28953" lon="2.65119">
        <ele>85.69458</ele>
        <time>2009-02-01T08:44:08Z</time>
      </trkpt>
      <trkpt lat="48.28977" lon="2.65149">
        <ele>86.175293</ele>
        <time>2009-02-01T08:44:16Z</time>
      </trkpt>
      <trkpt lat="48.28997" lon="2.65174">
        <ele>86.656005</ele>
        <time>2009-02-01T08:44:23Z</time>
      </trkpt>
      <trkpt lat="48.29016" lon="2.65198">
        <ele>86.175293</ele>
        <time>2009-02-01T08:44:29Z</time>
      </trkpt>
      <trkpt lat="48.29039" lon="2.65229">
        <ele>86.175293</ele>
        <time>2009-02-01T08:44:36Z</time>
      </trkpt>
      <trkpt lat="48.29056" lon="2.65251">
        <ele>86.175293</ele>
        <time>2009-02-01T08:44:41Z</time>
      </trkpt>
      <trkpt lat="48.29076" lon="2.65279">
        <ele>86.175293</ele>
        <time>2009-02-01T08:44:47Z</time>
      </trkpt>
      <trkpt lat="48.29105" lon="2.65319">
        <ele>85.69458</ele>
        <time>2009-02-01T08:44:55Z</time>
      </trkpt>
      <trkpt lat="48.29128" lon="2.6535">
        <ele>85.213989</ele>
        <time>2009-02-01T08:45:01Z</time>
      </trkpt>
      <trkpt lat="48.29138" lon="2.65365">
        <ele>84.733398</ele>
        <time>2009-02-01T08:45:04Z</time>
      </trkpt>
      <trkpt lat="48.29169" lon="2.65407">
        <ele>84.252685</ele>
        <time>2009-02-01T08:45:12Z</time>
      </trkpt>
      <trkpt lat="48.2919" lon="2.65433">
        <ele>84.252685</ele>
        <time>2009-02-01T08:45:17Z</time>
      </trkpt>
      <trkpt lat="48.29217" lon="2.65471">
        <ele>83.771972</ele>
        <time>2009-02-01T08:45:24Z</time>
      </trkpt>
      <trkpt lat="48.2924" lon="2.65503">
        <ele>83.771972</ele>
        <time>2009-02-01T08:45:30Z</time>
      </trkpt>
      <trkpt lat="48.2926" lon="2.6553">
        <ele>81.849365</ele>
        <time>2009-02-01T08:45:35Z</time>
      </trkpt>
      <trkpt lat="48.29276" lon="2.65552">
        <ele>81.849365</ele>
        <time>2009-02-01T08:45:39Z</time>
      </trkpt>
      <trkpt lat="48.29284" lon="2.65564">
        <ele>81.368774</ele>
        <time>2009-02-01T08:45:41Z</time>
      </trkpt>
      <trkpt lat="48.29313" lon="2.65604">
        <ele>80.40747</ele>
        <time>2009-02-01T08:45:48Z</time>
      </trkpt>
      <trkpt lat="48.29333" lon="2.65632">
        <ele>79.446044</ele>
        <time>2009-02-01T08:45:53Z</time>
      </trkpt>
      <trkpt lat="48.29346" lon="2.65652">
        <ele>78.965454</ele>
        <time>2009-02-01T08:45:57Z</time>
      </trkpt>
      <trkpt lat="48.2937" lon="2.65683">
        <ele>78.004028</ele>
        <time>2009-02-01T08:46:02Z</time>
      </trkpt>
      <trkpt lat="48.294" lon="2.65722">
        <ele>78.004028</ele>
        <time>2009-02-01T08:46:09Z</time>
      </trkpt>
      <trkpt lat="48.29431" lon="2.65764">
        <ele>78.484741</ele>
        <time>2009-02-01T08:46:17Z</time>
      </trkpt>
      <trkpt lat="48.29451" lon="2.65792">
        <ele>78.484741</ele>
        <time>2009-02-01T08:46:23Z</time>
      </trkpt>
      <trkpt lat="48.29473" lon="2.65822">
        <ele>80.40747</ele>
        <time>2009-02-01T08:46:30Z</time>
      </trkpt>
      <trkpt lat="48.29493" lon="2.6585">
        <ele>80.888183</ele>
        <time>2009-02-01T08:46:37Z</time>
      </trkpt>
      <trkpt lat="48.2951" lon="2.65875">
        <ele>80.888183</ele>
        <time>2009-02-01T08:46:43Z</time>
      </trkpt>
      <trkpt lat="48.29536" lon="2.65909">
        <ele>81.849365</ele>
        <time>2009-02-01T08:46:51Z</time>
      </trkpt>
      <trkpt lat="48.29551" lon="2.65929">
        <ele>81.368774</ele>
        <time>2009-02-01T08:46:56Z</time>
      </trkpt>
      <trkpt lat="48.29569" lon="2.65955">
        <ele>81.849365</ele>
        <time>2009-02-01T08:47:02Z</time>
      </trkpt>
      <trkpt lat="48.29593" lon="2.65987">
        <ele>81.849365</ele>
        <time>2009-02-01T08:47:09Z</time>
      </trkpt>
      <trkpt lat="48.29608" lon="2.66009">
        <ele>82.810791</ele>
        <time>2009-02-01T08:47:14Z</time>
      </trkpt>
      <trkpt lat="48.29628" lon="2.66035">
        <ele>81.849365</ele>
        <time>2009-02-01T08:47:20Z</time>
      </trkpt>
      <trkpt lat="48.29639" lon="2.6605">
        <ele>81.849365</ele>
        <time>2009-02-01T08:47:24Z</time>
      </trkpt>
      <trkpt lat="48.29652" lon="2.66053">
        <ele>82.810791</ele>
        <time>2009-02-01T08:47:28Z</time>
      </trkpt>
      <trkpt lat="48.29664" lon="2.66039">
        <ele>83.291381</ele>
        <time>2009-02-01T08:47:32Z</time>
      </trkpt>
      <trkpt lat="48.29678" lon="2.66021">
        <ele>83.771972</ele>
        <time>2009-02-01T08:47:37Z</time>
      </trkpt>
      <trkpt lat="48.29696" lon="2.65997">
        <ele>84.252685</ele>
        <time>2009-02-01T08:47:43Z</time>
      </trkpt>
      <trkpt lat="48.29711" lon="2.65981">
        <ele>84.252685</ele>
        <time>2009-02-01T08:47:47Z</time>
      </trkpt>
      <trkpt lat="48.29722" lon="2.65966">
        <ele>83.771972</ele>
        <time>2009-02-01T08:47:50Z</time>
      </trkpt>
      <trkpt lat="48.29741" lon="2.65943">
        <ele>83.771972</ele>
        <time>2009-02-01T08:47:55Z</time>
      </trkpt>
      <trkpt lat="48.29767" lon="2.65909">
        <ele>81.849365</ele>
        <time>2009-02-01T08:48:02Z</time>
      </trkpt>
      <trkpt lat="48.29772" lon="2.65905">
        <ele>82.330078</ele>
        <time>2009-02-01T08:48:03Z</time>
      </trkpt>
      <trkpt lat="48.29785" lon="2.65887">
        <ele>81.849365</ele>
        <time>2009-02-01T08:48:07Z</time>
      </trkpt>
      <trkpt lat="48.29804" lon="2.65862">
        <ele>80.888183</ele>
        <time>2009-02-01T08:48:12Z</time>
      </trkpt>
      <trkpt lat="48.29821" lon="2.6584">
        <ele>79.926635</ele>
        <time>2009-02-01T08:48:16Z</time>
      </trkpt>
      <trkpt lat="48.29846" lon="2.65802">
        <ele>78.484741</ele>
        <time>2009-02-01T08:48:22Z</time>
      </trkpt>
      <trkpt lat="48.29859" lon="2.65782">
        <ele>77.523437</ele>
        <time>2009-02-01T08:48:25Z</time>
      </trkpt>
      <trkpt lat="48.29884" lon="2.65749">
        <ele>75.60083</ele>
        <time>2009-02-01T08:48:30Z</time>
      </trkpt>
      <trkpt lat="48.29906" lon="2.65718">
        <ele>74.158813</ele>
        <time>2009-02-01T08:48:35Z</time>
      </trkpt>
      <trkpt lat="48.29932" lon="2.65683">
        <ele>73.197631</ele>
        <time>2009-02-01T08:48:41Z</time>
      </trkpt>
      <trkpt lat="48.29948" lon="2.6566">
        <ele>72.716918</ele>
        <time>2009-02-01T08:48:46Z</time>
      </trkpt>
      <trkpt lat="48.29948" lon="2.65646">
        <ele>73.197631</ele>
        <time>2009-02-01T08:48:50Z</time>
      </trkpt>
      <trkpt lat="48.29939" lon="2.65629">
        <ele>72.236206</ele>
        <time>2009-02-01T08:48:54Z</time>
      </trkpt>
      <trkpt lat="48.29917" lon="2.65576">
        <ele>72.716918</ele>
        <time>2009-02-01T08:49:02Z</time>
      </trkpt>
      <trkpt lat="48.29914" lon="2.65569">
        <ele>72.716918</ele>
        <time>2009-02-01T08:49:03Z</time>
      </trkpt>
      <trkpt lat="48.29912" lon="2.6554">
        <ele>72.716918</ele>
        <time>2009-02-01T08:49:08Z</time>
      </trkpt>
      <trkpt lat="48.29922" lon="2.65527">
        <ele>72.716918</ele>
        <time>2009-02-01T08:49:11Z</time>
      </trkpt>
      <trkpt lat="48.29929" lon="2.65512">
        <ele>72.236206</ele>
        <time>2009-02-01T08:49:14Z</time>
      </trkpt>
      <trkpt lat="48.29951" lon="2.65503">
        <ele>72.716918</ele>
        <time>2009-02-01T08:49:19Z</time>
      </trkpt>
      <trkpt lat="48.29959" lon="2.65502">
        <ele>72.716918</ele>
        <time>2009-02-01T08:49:21Z</time>
      </trkpt>
      <trkpt lat="48.29971" lon="2.6549">
        <ele>72.236206</ele>
        <time>2009-02-01T08:49:25Z</time>
      </trkpt>
      <trkpt lat="48.29989" lon="2.65468">
        <ele>72.236206</ele>
        <time>2009-02-01T08:49:30Z</time>
      </trkpt>
      <trkpt lat="48.30005" lon="2.65459">
        <ele>71.755493</ele>
        <time>2009-02-01T08:49:34Z</time>
      </trkpt>
      <trkpt lat="48.30013" lon="2.65451">
        <ele>72.716918</ele>
        <time>2009-02-01T08:49:37Z</time>
      </trkpt>
      <trkpt lat="48.30026" lon="2.65442">
        <ele>72.716918</ele>
        <time>2009-02-01T08:49:42Z</time>
      </trkpt>
      <trkpt lat="48.30033" lon="2.65436">
        <ele>72.716918</ele>
        <time>2009-02-01T08:49:45Z</time>
      </trkpt>
      <trkpt lat="48.30047" lon="2.65423">
        <ele>72.716918</ele>
        <time>2009-02-01T08:49:50Z</time>
      </trkpt>
      <trkpt lat="48.30059" lon="2.65415">
        <ele>74.158813</ele>
        <time>2009-02-01T08:49:54Z</time>
      </trkpt>
      <trkpt lat="48.30071" lon="2.65405">
        <ele>72.716918</ele>
        <time>2009-02-01T08:49:58Z</time>
      </trkpt>
      <trkpt lat="48.30089" lon="2.65383">
        <ele>72.236206</ele>
        <time>2009-02-01T08:50:04Z</time>
      </trkpt>
      <trkpt lat="48.30101" lon="2.65371">
        <ele>73.197631</ele>
        <time>2009-02-01T08:50:08Z</time>
      </trkpt>
      <trkpt lat="48.30114" lon="2.65354">
        <ele>73.197631</ele>
        <time>2009-02-01T08:50:12Z</time>
      </trkpt>
      <trkpt lat="48.30125" lon="2.65342">
        <ele>72.716918</ele>
        <time>2009-02-01T08:50:15Z</time>
      </trkpt>
      <trkpt lat="48.30142" lon="2.65337">
        <ele>74.639526</ele>
        <time>2009-02-01T08:50:20Z</time>
      </trkpt>
      <trkpt lat="48.30147" lon="2.65323">
        <ele>74.158813</ele>
        <time>2009-02-01T08:50:24Z</time>
      </trkpt>
      <trkpt lat="48.30153" lon="2.65311">
        <ele>74.639526</ele>
        <time>2009-02-01T08:50:27Z</time>
      </trkpt>
      <trkpt lat="48.30164" lon="2.65283">
        <ele>75.120239</ele>
        <time>2009-02-01T08:50:34Z</time>
      </trkpt>
      <trkpt lat="48.30174" lon="2.65281">
        <ele>75.120239</ele>
        <time>2009-02-01T08:50:38Z</time>
      </trkpt>
      <trkpt lat="48.30183" lon="2.65276">
        <ele>73.678222</ele>
        <time>2009-02-01T08:50:41Z</time>
      </trkpt>
      <trkpt lat="48.30205" lon="2.65256">
        <ele>74.639526</ele>
        <time>2009-02-01T08:50:47Z</time>
      </trkpt>
      <trkpt lat="48.30217" lon="2.65236">
        <ele>73.678222</ele>
        <time>2009-02-01T08:50:52Z</time>
      </trkpt>
      <trkpt lat="48.30231" lon="2.6521">
        <ele>73.678222</ele>
        <time>2009-02-01T08:50:58Z</time>
      </trkpt>
      <trkpt lat="48.30254" lon="2.65179">
        <ele>74.158813</ele>
        <time>2009-02-01T08:51:05Z</time>
      </trkpt>
      <trkpt lat="48.30271" lon="2.6515">
        <ele>75.120239</ele>
        <time>2009-02-01T08:51:11Z</time>
      </trkpt>
      <trkpt lat="48.30282" lon="2.65131">
        <ele>75.60083</ele>
        <time>2009-02-01T08:51:16Z</time>
      </trkpt>
      <trkpt lat="48.30284" lon="2.65128">
        <ele>75.60083</ele>
        <time>2009-02-01T08:51:17Z</time>
      </trkpt>
      <trkpt lat="48.30298" lon="2.65102">
        <ele>76.08142</ele>
        <time>2009-02-01T08:51:23Z</time>
      </trkpt>
      <trkpt lat="48.30305" lon="2.65089">
        <ele>76.08142</ele>
        <time>2009-02-01T08:51:26Z</time>
      </trkpt>
      <trkpt lat="48.30322" lon="2.65055">
        <ele>77.042846</ele>
        <time>2009-02-01T08:51:33Z</time>
      </trkpt>
      <trkpt lat="48.3034" lon="2.65025">
        <ele>77.042846</ele>
        <time>2009-02-01T08:51:39Z</time>
      </trkpt>
      <trkpt lat="48.30355" lon="2.65">
        <ele>77.042846</ele>
        <time>2009-02-01T08:51:44Z</time>
      </trkpt>
      <trkpt lat="48.30366" lon="2.64979">
        <ele>76.08142</ele>
        <time>2009-02-01T08:51:48Z</time>
      </trkpt>
      <trkpt lat="48.30376" lon="2.64963">
        <ele>75.120239</ele>
        <time>2009-02-01T08:51:51Z</time>
      </trkpt>
      <trkpt lat="48.30393" lon="2.64934">
        <ele>73.678222</ele>
        <time>2009-02-01T08:51:56Z</time>
      </trkpt>
      <trkpt lat="48.30412" lon="2.649">
        <ele>73.197631</ele>
        <time>2009-02-01T08:52:01Z</time>
      </trkpt>
      <trkpt lat="48.30415" lon="2.64894">
        <ele>73.678222</ele>
        <time>2009-02-01T08:52:02Z</time>
      </trkpt>
      <trkpt lat="48.30434" lon="2.64874">
        <ele>72.716918</ele>
        <time>2009-02-01T08:52:07Z</time>
      </trkpt>
      <trkpt lat="48.30449" lon="2.64871">
        <ele>73.678222</ele>
        <time>2009-02-01T08:52:10Z</time>
      </trkpt>
      <trkpt lat="48.30471" lon="2.64857">
        <ele>74.158813</ele>
        <time>2009-02-01T08:52:15Z</time>
      </trkpt>
      <trkpt lat="48.30495" lon="2.64848">
        <ele>74.158813</ele>
        <time>2009-02-01T08:52:20Z</time>
      </trkpt>
      <trkpt lat="48.30504" lon="2.64844">
        <ele>74.158813</ele>
        <time>2009-02-01T08:52:22Z</time>
      </trkpt>
      <trkpt lat="48.30523" lon="2.64836">
        <ele>74.158813</ele>
        <time>2009-02-01T08:52:27Z</time>
      </trkpt>
      <trkpt lat="48.3054" lon="2.64831">
        <ele>74.639526</ele>
        <time>2009-02-01T08:52:31Z</time>
      </trkpt>
      <trkpt lat="48.30563" lon="2.64826">
        <ele>74.158813</ele>
        <time>2009-02-01T08:52:36Z</time>
      </trkpt>
      <trkpt lat="48.30591" lon="2.64818">
        <ele>75.120239</ele>
        <time>2009-02-01T08:52:42Z</time>
      </trkpt>
      <trkpt lat="48.30607" lon="2.6481">
        <ele>75.60083</ele>
        <time>2009-02-01T08:52:46Z</time>
      </trkpt>
      <trkpt lat="48.30626" lon="2.64794">
        <ele>74.639526</ele>
        <time>2009-02-01T08:52:51Z</time>
      </trkpt>
      <trkpt lat="48.30641" lon="2.64779">
        <ele>75.60083</ele>
        <time>2009-02-01T08:52:56Z</time>
      </trkpt>
      <trkpt lat="48.30645" lon="2.64758">
        <ele>75.60083</ele>
        <time>2009-02-01T08:53:00Z</time>
      </trkpt>
      <trkpt lat="48.30655" lon="2.6473">
        <ele>76.08142</ele>
        <time>2009-02-01T08:53:05Z</time>
      </trkpt>
      <trkpt lat="48.30668" lon="2.64712">
        <ele>76.562133</ele>
        <time>2009-02-01T08:53:10Z</time>
      </trkpt>
      <trkpt lat="48.30683" lon="2.64692">
        <ele>76.08142</ele>
        <time>2009-02-01T08:53:15Z</time>
      </trkpt>
      <trkpt lat="48.30699" lon="2.64674">
        <ele>77.042846</ele>
        <time>2009-02-01T08:53:20Z</time>
      </trkpt>
      <trkpt lat="48.30714" lon="2.64655">
        <ele>77.042846</ele>
        <time>2009-02-01T08:53:25Z</time>
      </trkpt>
      <trkpt lat="48.30725" lon="2.6464">
        <ele>77.523437</ele>
        <time>2009-02-01T08:53:29Z</time>
      </trkpt>
      <trkpt lat="48.30739" lon="2.64626">
        <ele>77.523437</ele>
        <time>2009-02-01T08:53:33Z</time>
      </trkpt>
      <trkpt lat="48.30763" lon="2.64608">
        <ele>78.484741</ele>
        <time>2009-02-01T08:53:39Z</time>
      </trkpt>
      <trkpt lat="48.30779" lon="2.64601">
        <ele>78.004028</ele>
        <time>2009-02-01T08:53:44Z</time>
      </trkpt>
      <trkpt lat="48.30798" lon="2.646">
        <ele>78.965454</ele>
        <time>2009-02-01T08:53:49Z</time>
      </trkpt>
      <trkpt lat="48.30818" lon="2.64596">
        <ele>78.965454</ele>
        <time>2009-02-01T08:53:55Z</time>
      </trkpt>
      <trkpt lat="48.30842" lon="2.64587">
        <ele>78.965454</ele>
        <time>2009-02-01T08:54:01Z</time>
      </trkpt>
      <trkpt lat="48.30855" lon="2.6458">
        <ele>79.446044</ele>
        <time>2009-02-01T08:54:05Z</time>
      </trkpt>
      <trkpt lat="48.30877" lon="2.64572">
        <ele>79.926635</ele>
        <time>2009-02-01T08:54:11Z</time>
      </trkpt>
      <trkpt lat="48.30894" lon="2.64564">
        <ele>79.926635</ele>
        <time>2009-02-01T08:54:16Z</time>
      </trkpt>
      <trkpt lat="48.30914" lon="2.64558">
        <ele>81.368774</ele>
        <time>2009-02-01T08:54:22Z</time>
      </trkpt>
      <trkpt lat="48.3093" lon="2.64552">
        <ele>82.330078</ele>
        <time>2009-02-01T08:54:27Z</time>
      </trkpt>
      <trkpt lat="48.3095" lon="2.64545">
        <ele>82.330078</ele>
        <time>2009-02-01T08:54:33Z</time>
      </trkpt>
      <trkpt lat="48.30976" lon="2.64535">
        <ele>82.810791</ele>
        <time>2009-02-01T08:54:40Z</time>
      </trkpt>
      <trkpt lat="48.31003" lon="2.64527">
        <ele>82.810791</ele>
        <time>2009-02-01T08:54:47Z</time>
      </trkpt>
      <trkpt lat="48.31034" lon="2.64523">
        <ele>83.291381</ele>
        <time>2009-02-01T08:54:55Z</time>
      </trkpt>
      <trkpt lat="48.31051" lon="2.6451">
        <ele>83.771972</ele>
        <time>2009-02-01T08:55:01Z</time>
      </trkpt>
      <trkpt lat="48.31059" lon="2.64487">
        <ele>84.733398</ele>
        <time>2009-02-01T08:55:06Z</time>
      </trkpt>
      <trkpt lat="48.31072" lon="2.64445">
        <ele>84.252685</ele>
        <time>2009-02-01T08:55:13Z</time>
      </trkpt>
      <trkpt lat="48.31083" lon="2.64412">
        <ele>86.175293</ele>
        <time>2009-02-01T08:55:19Z</time>
      </trkpt>
      <trkpt lat="48.31092" lon="2.64382">
        <ele>87.617187</ele>
        <time>2009-02-01T08:55:25Z</time>
      </trkpt>
      <trkpt lat="48.31104" lon="2.64347">
        <ele>88.578735</ele>
        <time>2009-02-01T08:55:33Z</time>
      </trkpt>
      <trkpt lat="48.31113" lon="2.64316">
        <ele>90.020629</ele>
        <time>2009-02-01T08:55:40Z</time>
      </trkpt>
      <trkpt lat="48.31123" lon="2.643">
        <ele>91.462524</ele>
        <time>2009-02-01T08:55:46Z</time>
      </trkpt>
      <trkpt lat="48.31136" lon="2.64302">
        <ele>91.462524</ele>
        <time>2009-02-01T08:55:51Z</time>
      </trkpt>
      <trkpt lat="48.31141" lon="2.64304">
        <ele>92.42395</ele>
        <time>2009-02-01T08:55:54Z</time>
      </trkpt>
      <trkpt lat="48.3117" lon="2.64334">
        <ele>93.385131</ele>
        <time>2009-02-01T08:56:02Z</time>
      </trkpt>
      <trkpt lat="48.31173" lon="2.64335">
        <ele>92.904541</ele>
        <time>2009-02-01T08:56:03Z</time>
      </trkpt>
      <trkpt lat="48.31194" lon="2.64342">
        <ele>94.827148</ele>
        <time>2009-02-01T08:56:08Z</time>
      </trkpt>
      <trkpt lat="48.3122" lon="2.6435">
        <ele>95.788452</ele>
        <time>2009-02-01T08:56:15Z</time>
      </trkpt>
      <trkpt lat="48.3125" lon="2.64359">
        <ele>96.749877</ele>
        <time>2009-02-01T08:56:23Z</time>
      </trkpt>
      <trkpt lat="48.31275" lon="2.64367">
        <ele>96.749877</ele>
        <time>2009-02-01T08:56:30Z</time>
      </trkpt>
      <trkpt lat="48.31305" lon="2.64377">
        <ele>96.269287</ele>
        <time>2009-02-01T08:56:38Z</time>
      </trkpt>
      <trkpt lat="48.31336" lon="2.64395">
        <ele>96.749877</ele>
        <time>2009-02-01T08:56:47Z</time>
      </trkpt>
      <trkpt lat="48.31347" lon="2.64412">
        <ele>97.711181</ele>
        <time>2009-02-01T08:56:53Z</time>
      </trkpt>
      <trkpt lat="48.31357" lon="2.64429">
        <ele>100.1145</ele>
        <time>2009-02-01T08:57:00Z</time>
      </trkpt>
      <trkpt lat="48.31364" lon="2.64445">
        <ele>102.5177</ele>
        <time>2009-02-01T08:57:06Z</time>
      </trkpt>
      <trkpt lat="48.31376" lon="2.64464">
        <ele>102.99829</ele>
        <time>2009-02-01T08:57:14Z</time>
      </trkpt>
      <trkpt lat="48.31382" lon="2.64479">
        <ele>103.95971</ele>
        <time>2009-02-01T08:57:19Z</time>
      </trkpt>
      <trkpt lat="48.31385" lon="2.64487">
        <ele>106.36303</ele>
        <time>2009-02-01T08:57:22Z</time>
      </trkpt>
      <trkpt lat="48.31385" lon="2.64503">
        <ele>107.32434</ele>
        <time>2009-02-01T08:57:28Z</time>
      </trkpt>
      <trkpt lat="48.31385" lon="2.64506">
        <ele>107.80505</ele>
        <time>2009-02-01T08:57:29Z</time>
      </trkpt>
      <trkpt lat="48.31385" lon="2.64533">
        <ele>108.28564</ele>
        <time>2009-02-01T08:57:38Z</time>
      </trkpt>
      <trkpt lat="48.31386" lon="2.64537">
        <ele>108.76623</ele>
        <time>2009-02-01T08:57:40Z</time>
      </trkpt>
      <trkpt lat="48.31384" lon="2.64553">
        <ele>110.20825</ele>
        <time>2009-02-01T08:57:46Z</time>
      </trkpt>
      <trkpt lat="48.31384" lon="2.64558">
        <ele>111.16955</ele>
        <time>2009-02-01T08:57:48Z</time>
      </trkpt>
      <trkpt lat="48.31389" lon="2.64571">
        <ele>112.13098</ele>
        <time>2009-02-01T08:57:54Z</time>
      </trkpt>
      <trkpt lat="48.31396" lon="2.64591">
        <ele>113.57299</ele>
        <time>2009-02-01T08:58:02Z</time>
      </trkpt>
      <trkpt lat="48.31395" lon="2.64609">
        <ele>114.53417</ele>
        <time>2009-02-01T08:58:08Z</time>
      </trkpt>
      <trkpt lat="48.31387" lon="2.64629">
        <ele>116.45678</ele>
        <time>2009-02-01T08:58:16Z</time>
      </trkpt>
      <trkpt lat="48.31378" lon="2.64642">
        <ele>117.41821</ele>
        <time>2009-02-01T08:58:23Z</time>
      </trkpt>
      <trkpt lat="48.31368" lon="2.64649">
        <ele>118.37939</ele>
        <time>2009-02-01T08:58:29Z</time>
      </trkpt>
      <trkpt lat="48.31366" lon="2.6466">
        <ele>120.30212</ele>
        <time>2009-02-01T08:58:34Z</time>
      </trkpt>
      <trkpt lat="48.31375" lon="2.64679">
        <ele>120.78283</ele>
        <time>2009-02-01T08:58:42Z</time>
      </trkpt>
      <trkpt lat="48.31379" lon="2.64695">
        <ele>121.26354</ele>
        <time>2009-02-01T08:58:48Z</time>
      </trkpt>
      <trkpt lat="48.31382" lon="2.64708">
        <ele>121.74414</ele>
        <time>2009-02-01T08:58:53Z</time>
      </trkpt>
      <trkpt lat="48.31383" lon="2.64726">
        <ele>123.18615</ele>
        <time>2009-02-01T08:58:59Z</time>
      </trkpt>
      <trkpt lat="48.31386" lon="2.64747">
        <ele>125.10876</ele>
        <time>2009-02-01T08:59:06Z</time>
      </trkpt>
      <trkpt lat="48.31388" lon="2.64775">
        <ele>124.14733</ele>
        <time>2009-02-01T08:59:13Z</time>
      </trkpt>
      <trkpt lat="48.31378" lon="2.64795">
        <ele>125.10876</ele>
        <time>2009-02-01T08:59:19Z</time>
      </trkpt>
      <trkpt lat="48.31363" lon="2.64805">
        <ele>124.62805</ele>
        <time>2009-02-01T08:59:25Z</time>
      </trkpt>
      <trkpt lat="48.31353" lon="2.64817">
        <ele>126.06994</ele>
        <time>2009-02-01T08:59:29Z</time>
      </trkpt>
      <trkpt lat="48.31342" lon="2.64835">
        <ele>126.55065</ele>
        <time>2009-02-01T08:59:35Z</time>
      </trkpt>
      <trkpt lat="48.31332" lon="2.64834">
        <ele>127.99255</ele>
        <time>2009-02-01T08:59:39Z</time>
      </trkpt>
      <trkpt lat="48.31323" lon="2.6485">
        <ele>127.03137</ele>
        <time>2009-02-01T08:59:44Z</time>
      </trkpt>
      <trkpt lat="48.31325" lon="2.64868">
        <ele>125.10876</ele>
        <time>2009-02-01T08:59:47Z</time>
      </trkpt>
      <trkpt lat="48.31327" lon="2.64876">
        <ele>124.14733</ele>
        <time>2009-02-01T08:59:48Z</time>
      </trkpt>
      <trkpt lat="48.31334" lon="2.64927">
        <ele>123.66674</ele>
        <time>2009-02-01T08:59:54Z</time>
      </trkpt>
      <trkpt lat="48.31335" lon="2.64934">
        <ele>124.14733</ele>
        <time>2009-02-01T08:59:55Z</time>
      </trkpt>
      <trkpt lat="48.3133" lon="2.64969">
        <ele>123.66674</ele>
        <time>2009-02-01T09:00:00Z</time>
      </trkpt>
      <trkpt lat="48.31321" lon="2.64986">
        <ele>124.62805</ele>
        <time>2009-02-01T09:00:04Z</time>
      </trkpt>
      <trkpt lat="48.3131" lon="2.64999">
        <ele>125.58935</ele>
        <time>2009-02-01T09:00:08Z</time>
      </trkpt>
      <trkpt lat="48.31307" lon="2.65014">
        <ele>122.22473</ele>
        <time>2009-02-01T09:00:10Z</time>
      </trkpt>
      <trkpt lat="48.31305" lon="2.65033">
        <ele>119.82141</ele>
        <time>2009-02-01T09:00:12Z</time>
      </trkpt>
      <trkpt lat="48.31303" lon="2.65055">
        <ele>118.8601</ele>
        <time>2009-02-01T09:00:14Z</time>
      </trkpt>
      <trkpt lat="48.31304" lon="2.65078">
        <ele>117.8988</ele>
        <time>2009-02-01T09:00:16Z</time>
      </trkpt>
      <trkpt lat="48.31307" lon="2.65113">
        <ele>114.53417</ele>
        <time>2009-02-01T09:00:19Z</time>
      </trkpt>
      <trkpt lat="48.31308" lon="2.65135">
        <ele>112.61157</ele>
        <time>2009-02-01T09:00:21Z</time>
      </trkpt>
      <trkpt lat="48.31323" lon="2.65159">
        <ele>108.28564</ele>
        <time>2009-02-01T09:00:24Z</time>
      </trkpt>
      <trkpt lat="48.31329" lon="2.65166">
        <ele>107.32434</ele>
        <time>2009-02-01T09:00:25Z</time>
      </trkpt>
      <trkpt lat="48.31349" lon="2.65184">
        <ele>104.44042</ele>
        <time>2009-02-01T09:00:28Z</time>
      </trkpt>
      <trkpt lat="48.31373" lon="2.65194">
        <ele>99.633789</ele>
        <time>2009-02-01T09:00:31Z</time>
      </trkpt>
      <trkpt lat="48.31381" lon="2.65198">
        <ele>97.711181</ele>
        <time>2009-02-01T09:00:32Z</time>
      </trkpt>
      <trkpt lat="48.3141" lon="2.65211">
        <ele>92.904541</ele>
        <time>2009-02-01T09:00:35Z</time>
      </trkpt>
      <trkpt lat="48.31435" lon="2.65213">
        <ele>89.059326</ele>
        <time>2009-02-01T09:00:38Z</time>
      </trkpt>
      <trkpt lat="48.31444" lon="2.65211">
        <ele>89.059326</ele>
        <time>2009-02-01T09:00:39Z</time>
      </trkpt>
      <trkpt lat="48.31463" lon="2.65193">
        <ele>87.617187</ele>
        <time>2009-02-01T09:00:43Z</time>
      </trkpt>
      <trkpt lat="48.31468" lon="2.65188">
        <ele>87.617187</ele>
        <time>2009-02-01T09:00:44Z</time>
      </trkpt>
      <trkpt lat="48.31492" lon="2.65166">
        <ele>86.175293</ele>
        <time>2009-02-01T09:00:49Z</time>
      </trkpt>
      <trkpt lat="48.31516" lon="2.65158">
        <ele>85.213989</ele>
        <time>2009-02-01T09:00:53Z</time>
      </trkpt>
      <trkpt lat="48.31542" lon="2.65142">
        <ele>84.252685</ele>
        <time>2009-02-01T09:00:58Z</time>
      </trkpt>
      <trkpt lat="48.31581" lon="2.65078">
        <ele>84.733398</ele>
        <time>2009-02-01T09:01:08Z</time>
      </trkpt>
      <trkpt lat="48.31619" lon="2.65019">
        <ele>83.771972</ele>
        <time>2009-02-01T09:01:18Z</time>
      </trkpt>
      <trkpt lat="48.31664" lon="2.64956">
        <ele>83.291381</ele>
        <time>2009-02-01T09:01:29Z</time>
      </trkpt>
      <trkpt lat="48.31687" lon="2.64918">
        <ele>82.330078</ele>
        <time>2009-02-01T09:01:35Z</time>
      </trkpt>
      <trkpt lat="48.31707" lon="2.64881">
        <ele>82.330078</ele>
        <time>2009-02-01T09:01:41Z</time>
      </trkpt>
      <trkpt lat="48.31721" lon="2.64847">
        <ele>82.810791</ele>
        <time>2009-02-01T09:01:46Z</time>
      </trkpt>
      <trkpt lat="48.31719" lon="2.64826">
        <ele>82.330078</ele>
        <time>2009-02-01T09:01:50Z</time>
      </trkpt>
      <trkpt lat="48.31716" lon="2.64824">
        <ele>82.810791</ele>
        <time>2009-02-01T09:01:51Z</time>
      </trkpt>
      <trkpt lat="48.31699" lon="2.64812">
        <ele>84.252685</ele>
        <time>2009-02-01T09:01:57Z</time>
      </trkpt>
      <trkpt lat="48.31693" lon="2.64811">
        <ele>84.252685</ele>
        <time>2009-02-01T09:01:59Z</time>
      </trkpt>
      <trkpt lat="48.31681" lon="2.64807">
        <ele>84.733398</ele>
        <time>2009-02-01T09:02:03Z</time>
      </trkpt>
      <trkpt lat="48.31668" lon="2.64821">
        <ele>83.291381</ele>
        <time>2009-02-01T09:02:07Z</time>
      </trkpt>
      <trkpt lat="48.31663" lon="2.64831">
        <ele>84.252685</ele>
        <time>2009-02-01T09:02:09Z</time>
      </trkpt>
      <trkpt lat="48.31659" lon="2.64834">
        <ele>85.213989</ele>
        <time>2009-02-01T09:02:11Z</time>
      </trkpt>
      <trkpt lat="48.31659" lon="2.64834">
        <ele>84.252685</ele>
        <time>2009-02-01T09:02:13Z</time>
      </trkpt>
      <trkpt lat="48.3166" lon="2.64833">
        <ele>85.213989</ele>
        <time>2009-02-01T09:02:35Z</time>
      </trkpt>
      <trkpt lat="48.31661" lon="2.64833">
        <ele>84.733398</ele>
        <time>2009-02-01T09:02:37Z</time>
      </trkpt>
      <trkpt lat="48.3166" lon="2.64837">
        <ele>83.771972</ele>
        <time>2009-02-01T09:07:59Z</time>
      </trkpt>
      <trkpt lat="48.3166" lon="2.64836">
        <ele>83.771972</ele>
        <time>2009-02-01T09:08:00Z</time>
      </trkpt>
      <trkpt lat="48.3166" lon="2.64835">
        <ele>84.252685</ele>
        <time>2009-02-01T09:08:01Z</time>
      </trkpt>
      <trkpt lat="48.31666" lon="2.64829">
        <ele>84.733398</ele>
        <time>2009-02-01T09:08:04Z</time>
      </trkpt>
      <trkpt lat="48.31681" lon="2.64813">
        <ele>84.733398</ele>
        <time>2009-02-01T09:08:10Z</time>
      </trkpt>
      <trkpt lat="48.31685" lon="2.64814">
        <ele>84.733398</ele>
        <time>2009-02-01T09:08:11Z</time>
      </trkpt>
      <trkpt lat="48.31713" lon="2.64832">
        <ele>82.810791</ele>
        <time>2009-02-01T09:08:18Z</time>
      </trkpt>
      <trkpt lat="48.3172" lon="2.64841">
        <ele>82.330078</ele>
        <time>2009-02-01T09:08:21Z</time>
      </trkpt>
      <trkpt lat="48.31721" lon="2.64851">
        <ele>81.849365</ele>
        <time>2009-02-01T09:08:26Z</time>
      </trkpt>
      <trkpt lat="48.31722" lon="2.64852">
        <ele>82.810791</ele>
        <time>2009-02-01T09:08:27Z</time>
      </trkpt>
      <trkpt lat="48.31723" lon="2.64853">
        <ele>82.330078</ele>
        <time>2009-02-01T09:08:30Z</time>
      </trkpt>
      <trkpt lat="48.31723" lon="2.64853">
        <ele>82.810791</ele>
        <time>2009-02-01T09:08:33Z</time>
      </trkpt>
      <trkpt lat="48.31726" lon="2.64855">
        <ele>82.330078</ele>
        <time>2009-02-01T09:08:34Z</time>
      </trkpt>
      <trkpt lat="48.3173" lon="2.64856">
        <ele>82.810791</ele>
        <time>2009-02-01T09:08:37Z</time>
      </trkpt>
      <trkpt lat="48.31744" lon="2.64864">
        <ele>82.330078</ele>
        <time>2009-02-01T09:08:41Z</time>
      </trkpt>
      <trkpt lat="48.31758" lon="2.64871">
        <ele>82.330078</ele>
        <time>2009-02-01T09:08:45Z</time>
      </trkpt>
      <trkpt lat="48.31767" lon="2.64879">
        <ele>81.849365</ele>
        <time>2009-02-01T09:08:47Z</time>
      </trkpt>
      <trkpt lat="48.31795" lon="2.649">
        <ele>80.888183</ele>
        <time>2009-02-01T09:08:52Z</time>
      </trkpt>
      <trkpt lat="48.31832" lon="2.64926">
        <ele>80.888183</ele>
        <time>2009-02-01T09:08:59Z</time>
      </trkpt>
      <trkpt lat="48.31854" lon="2.64939">
        <ele>79.926635</ele>
        <time>2009-02-01T09:09:04Z</time>
      </trkpt>
      <trkpt lat="48.31889" lon="2.64945">
        <ele>81.849365</ele>
        <time>2009-02-01T09:09:11Z</time>
      </trkpt>
      <trkpt lat="48.31895" lon="2.64946">
        <ele>81.849365</ele>
        <time>2009-02-01T09:09:12Z</time>
      </trkpt>
      <trkpt lat="48.31953" lon="2.64953">
        <ele>79.926635</ele>
        <time>2009-02-01T09:09:23Z</time>
      </trkpt>
      <trkpt lat="48.31983" lon="2.64957">
        <ele>80.40747</ele>
        <time>2009-02-01T09:09:29Z</time>
      </trkpt>
      <trkpt lat="48.31993" lon="2.64957">
        <ele>80.40747</ele>
        <time>2009-02-01T09:09:31Z</time>
      </trkpt>
      <trkpt lat="48.3203" lon="2.64967">
        <ele>80.888183</ele>
        <time>2009-02-01T09:09:39Z</time>
      </trkpt>
      <trkpt lat="48.32032" lon="2.64965">
        <ele>80.40747</ele>
        <time>2009-02-01T09:09:40Z</time>
      </trkpt>
      <trkpt lat="48.32035" lon="2.64953">
        <ele>79.926635</ele>
        <time>2009-02-01T09:09:44Z</time>
      </trkpt>
      <trkpt lat="48.32039" lon="2.64905">
        <ele>80.40747</ele>
        <time>2009-02-01T09:09:50Z</time>
      </trkpt>
      <trkpt lat="48.3205" lon="2.64823">
        <ele>79.926635</ele>
        <time>2009-02-01T09:10:00Z</time>
      </trkpt>
      <trkpt lat="48.32055" lon="2.64784">
        <ele>80.888183</ele>
        <time>2009-02-01T09:10:05Z</time>
      </trkpt>
      <trkpt lat="48.32069" lon="2.64777">
        <ele>80.40747</ele>
        <time>2009-02-01T09:10:09Z</time>
      </trkpt>
      <trkpt lat="48.32073" lon="2.64779">
        <ele>79.926635</ele>
        <time>2009-02-01T09:10:10Z</time>
      </trkpt>
      <trkpt lat="48.32082" lon="2.64784">
        <ele>81.368774</ele>
        <time>2009-02-01T09:10:12Z</time>
      </trkpt>
      <trkpt lat="48.32096" lon="2.64798">
        <ele>80.888183</ele>
        <time>2009-02-01T09:10:16Z</time>
      </trkpt>
      <trkpt lat="48.32116" lon="2.64835">
        <ele>80.40747</ele>
        <time>2009-02-01T09:10:22Z</time>
      </trkpt>
      <trkpt lat="48.32139" lon="2.64874">
        <ele>80.888183</ele>
        <time>2009-02-01T09:10:28Z</time>
      </trkpt>
      <trkpt lat="48.32161" lon="2.64911">
        <ele>80.40747</ele>
        <time>2009-02-01T09:10:34Z</time>
      </trkpt>
      <trkpt lat="48.32179" lon="2.64941">
        <ele>79.926635</ele>
        <time>2009-02-01T09:10:40Z</time>
      </trkpt>
      <trkpt lat="48.32198" lon="2.64973">
        <ele>80.888183</ele>
        <time>2009-02-01T09:10:47Z</time>
      </trkpt>
      <trkpt lat="48.32219" lon="2.65007">
        <ele>80.888183</ele>
        <time>2009-02-01T09:10:53Z</time>
      </trkpt>
      <trkpt lat="48.32247" lon="2.65042">
        <ele>80.888183</ele>
        <time>2009-02-01T09:11:00Z</time>
      </trkpt>
      <trkpt lat="48.32274" lon="2.6507">
        <ele>80.888183</ele>
        <time>2009-02-01T09:11:06Z</time>
      </trkpt>
      <trkpt lat="48.32307" lon="2.65113">
        <ele>80.888183</ele>
        <time>2009-02-01T09:11:15Z</time>
      </trkpt>
      <trkpt lat="48.32335" lon="2.6515">
        <ele>81.849365</ele>
        <time>2009-02-01T09:11:23Z</time>
      </trkpt>
      <trkpt lat="48.32365" lon="2.65187">
        <ele>80.40747</ele>
        <time>2009-02-01T09:11:31Z</time>
      </trkpt>
      <trkpt lat="48.32385" lon="2.65214">
        <ele>79.926635</ele>
        <time>2009-02-01T09:11:36Z</time>
      </trkpt>
      <trkpt lat="48.32414" lon="2.65253">
        <ele>78.484741</ele>
        <time>2009-02-01T09:11:43Z</time>
      </trkpt>
      <trkpt lat="48.32434" lon="2.65278">
        <ele>78.965454</ele>
        <time>2009-02-01T09:11:48Z</time>
      </trkpt>
      <trkpt lat="48.32467" lon="2.65321">
        <ele>77.523437</ele>
        <time>2009-02-01T09:11:56Z</time>
      </trkpt>
      <trkpt lat="48.32492" lon="2.6536">
        <ele>76.562133</ele>
        <time>2009-02-01T09:12:03Z</time>
      </trkpt>
      <trkpt lat="48.32524" lon="2.65414">
        <ele>77.523437</ele>
        <time>2009-02-01T09:12:12Z</time>
      </trkpt>
      <trkpt lat="48.32546" lon="2.65453">
        <ele>77.042846</ele>
        <time>2009-02-01T09:12:19Z</time>
      </trkpt>
      <trkpt lat="48.32555" lon="2.65468">
        <ele>77.042846</ele>
        <time>2009-02-01T09:12:22Z</time>
      </trkpt>
      <trkpt lat="48.32568" lon="2.65488">
        <ele>78.484741</ele>
        <time>2009-02-01T09:12:26Z</time>
      </trkpt>
      <trkpt lat="48.32589" lon="2.65514">
        <ele>78.965454</ele>
        <time>2009-02-01T09:12:32Z</time>
      </trkpt>
      <trkpt lat="48.32606" lon="2.65536">
        <ele>79.446044</ele>
        <time>2009-02-01T09:12:38Z</time>
      </trkpt>
      <trkpt lat="48.32617" lon="2.65553">
        <ele>79.926635</ele>
        <time>2009-02-01T09:12:43Z</time>
      </trkpt>
      <trkpt lat="48.32625" lon="2.65565">
        <ele>79.926635</ele>
        <time>2009-02-01T09:12:46Z</time>
      </trkpt>
      <trkpt lat="48.32639" lon="2.65586">
        <ele>81.368774</ele>
        <time>2009-02-01T09:12:51Z</time>
      </trkpt>
      <trkpt lat="48.32649" lon="2.656">
        <ele>81.849365</ele>
        <time>2009-02-01T09:12:55Z</time>
      </trkpt>
      <trkpt lat="48.32661" lon="2.65618">
        <ele>81.849365</ele>
        <time>2009-02-01T09:13:00Z</time>
      </trkpt>
      <trkpt lat="48.32678" lon="2.65642">
        <ele>83.291381</ele>
        <time>2009-02-01T09:13:07Z</time>
      </trkpt>
      <trkpt lat="48.3269" lon="2.65658">
        <ele>85.213989</ele>
        <time>2009-02-01T09:13:13Z</time>
      </trkpt>
      <trkpt lat="48.327" lon="2.6567">
        <ele>85.69458</ele>
        <time>2009-02-01T09:13:18Z</time>
      </trkpt>
      <trkpt lat="48.32712" lon="2.65684">
        <ele>87.136596</ele>
        <time>2009-02-01T09:13:24Z</time>
      </trkpt>
      <trkpt lat="48.32726" lon="2.65697">
        <ele>89.059326</ele>
        <time>2009-02-01T09:13:31Z</time>
      </trkpt>
      <trkpt lat="48.32729" lon="2.657">
        <ele>89.539917</ele>
        <time>2009-02-01T09:13:33Z</time>
      </trkpt>
      <trkpt lat="48.32738" lon="2.6571">
        <ele>91.462524</ele>
        <time>2009-02-01T09:13:39Z</time>
      </trkpt>
      <trkpt lat="48.32745" lon="2.65717">
        <ele>93.385131</ele>
        <time>2009-02-01T09:13:44Z</time>
      </trkpt>
      <trkpt lat="48.32752" lon="2.65726">
        <ele>94.827148</ele>
        <time>2009-02-01T09:13:50Z</time>
      </trkpt>
      <trkpt lat="48.32758" lon="2.65733">
        <ele>96.749877</ele>
        <time>2009-02-01T09:13:56Z</time>
      </trkpt>
      <trkpt lat="48.32764" lon="2.65741">
        <ele>98.191894</ele>
        <time>2009-02-01T09:14:03Z</time>
      </trkpt>
      <trkpt lat="48.32772" lon="2.65752">
        <ele>99.633789</ele>
        <time>2009-02-01T09:14:11Z</time>
      </trkpt>
      <trkpt lat="48.32781" lon="2.65762">
        <ele>102.0371</ele>
        <time>2009-02-01T09:14:19Z</time>
      </trkpt>
      <trkpt lat="48.32782" lon="2.65763">
        <ele>102.5177</ele>
        <time>2009-02-01T09:14:20Z</time>
      </trkpt>
      <trkpt lat="48.32785" lon="2.6577">
        <ele>103.95971</ele>
        <time>2009-02-01T09:14:24Z</time>
      </trkpt>
      <trkpt lat="48.32786" lon="2.65772">
        <ele>104.92102</ele>
        <time>2009-02-01T09:14:26Z</time>
      </trkpt>
      <trkpt lat="48.32795" lon="2.65778">
        <ele>104.92102</ele>
        <time>2009-02-01T09:14:33Z</time>
      </trkpt>
      <trkpt lat="48.32803" lon="2.65791">
        <ele>106.36303</ele>
        <time>2009-02-01T09:14:42Z</time>
      </trkpt>
      <trkpt lat="48.32807" lon="2.658">
        <ele>108.76623</ele>
        <time>2009-02-01T09:14:49Z</time>
      </trkpt>
      <trkpt lat="48.32814" lon="2.6581">
        <ele>109.72766</ele>
        <time>2009-02-01T09:14:55Z</time>
      </trkpt>
      <trkpt lat="48.32822" lon="2.65822">
        <ele>110.20825</ele>
        <time>2009-02-01T09:15:03Z</time>
      </trkpt>
      <trkpt lat="48.32827" lon="2.6583">
        <ele>112.61157</ele>
        <time>2009-02-01T09:15:09Z</time>
      </trkpt>
      <trkpt lat="48.32837" lon="2.65844">
        <ele>113.57299</ele>
        <time>2009-02-01T09:15:18Z</time>
      </trkpt>
      <trkpt lat="48.32846" lon="2.65861">
        <ele>113.09228</ele>
        <time>2009-02-01T09:15:23Z</time>
      </trkpt>
      <trkpt lat="48.32856" lon="2.6588">
        <ele>113.57299</ele>
        <time>2009-02-01T09:15:27Z</time>
      </trkpt>
      <trkpt lat="48.32872" lon="2.65905">
        <ele>113.09228</ele>
        <time>2009-02-01T09:15:33Z</time>
      </trkpt>
      <trkpt lat="48.32886" lon="2.65928">
        <ele>112.61157</ele>
        <time>2009-02-01T09:15:38Z</time>
      </trkpt>
      <trkpt lat="48.32899" lon="2.65949">
        <ele>112.13098</ele>
        <time>2009-02-01T09:15:42Z</time>
      </trkpt>
      <trkpt lat="48.32912" lon="2.65971">
        <ele>111.65026</ele>
        <time>2009-02-01T09:15:46Z</time>
      </trkpt>
      <trkpt lat="48.32937" lon="2.66003">
        <ele>110.68884</ele>
        <time>2009-02-01T09:15:52Z</time>
      </trkpt>
      <trkpt lat="48.32949" lon="2.66019">
        <ele>109.24694</ele>
        <time>2009-02-01T09:15:55Z</time>
      </trkpt>
      <trkpt lat="48.32961" lon="2.66039">
        <ele>108.76623</ele>
        <time>2009-02-01T09:15:58Z</time>
      </trkpt>
      <trkpt lat="48.32969" lon="2.66053">
        <ele>108.76623</ele>
        <time>2009-02-01T09:16:00Z</time>
      </trkpt>
      <trkpt lat="48.32979" lon="2.6607">
        <ele>107.32434</ele>
        <time>2009-02-01T09:16:03Z</time>
      </trkpt>
      <trkpt lat="48.32997" lon="2.66088">
        <ele>104.44042</ele>
        <time>2009-02-01T09:16:07Z</time>
      </trkpt>
      <trkpt lat="48.33014" lon="2.66103">
        <ele>100.59509</ele>
        <time>2009-02-01T09:16:10Z</time>
      </trkpt>
      <trkpt lat="48.33019" lon="2.66109">
        <ele>99.633789</ele>
        <time>2009-02-01T09:16:11Z</time>
      </trkpt>
      <trkpt lat="48.33037" lon="2.66152">
        <ele>95.788452</ele>
        <time>2009-02-01T09:16:16Z</time>
      </trkpt>
      <trkpt lat="48.33038" lon="2.66162">
        <ele>95.307739</ele>
        <time>2009-02-01T09:16:17Z</time>
      </trkpt>
      <trkpt lat="48.33039" lon="2.66181">
        <ele>95.307739</ele>
        <time>2009-02-01T09:16:19Z</time>
      </trkpt>
      <trkpt lat="48.33043" lon="2.6623">
        <ele>94.346557</ele>
        <time>2009-02-01T09:16:24Z</time>
      </trkpt>
      <trkpt lat="48.33045" lon="2.66251">
        <ele>92.904541</ele>
        <time>2009-02-01T09:16:26Z</time>
      </trkpt>
      <trkpt lat="48.33046" lon="2.6627">
        <ele>92.904541</ele>
        <time>2009-02-01T09:16:28Z</time>
      </trkpt>
      <trkpt lat="48.33049" lon="2.66295">
        <ele>92.42395</ele>
        <time>2009-02-01T09:16:31Z</time>
      </trkpt>
      <trkpt lat="48.33066" lon="2.66305">
        <ele>90.501342</ele>
        <time>2009-02-01T09:16:34Z</time>
      </trkpt>
      <trkpt lat="48.33085" lon="2.66308">
        <ele>89.059326</ele>
        <time>2009-02-01T09:16:37Z</time>
      </trkpt>
      <trkpt lat="48.33116" lon="2.66333">
        <ele>85.69458</ele>
        <time>2009-02-01T09:16:42Z</time>
      </trkpt>
      <trkpt lat="48.33119" lon="2.66361">
        <ele>84.733398</ele>
        <time>2009-02-01T09:16:45Z</time>
      </trkpt>
      <trkpt lat="48.33115" lon="2.66393">
        <ele>84.252685</ele>
        <time>2009-02-01T09:16:48Z</time>
      </trkpt>
      <trkpt lat="48.33113" lon="2.66443">
        <ele>83.771972</ele>
        <time>2009-02-01T09:16:53Z</time>
      </trkpt>
      <trkpt lat="48.33111" lon="2.66506">
        <ele>82.330078</ele>
        <time>2009-02-01T09:16:59Z</time>
      </trkpt>
      <trkpt lat="48.33102" lon="2.6656">
        <ele>81.368774</ele>
        <time>2009-02-01T09:17:04Z</time>
      </trkpt>
      <trkpt lat="48.33094" lon="2.66602">
        <ele>80.888183</ele>
        <time>2009-02-01T09:17:08Z</time>
      </trkpt>
      <trkpt lat="48.33098" lon="2.66635">
        <ele>80.40747</ele>
        <time>2009-02-01T09:17:12Z</time>
      </trkpt>
      <trkpt lat="48.33107" lon="2.66638">
        <ele>81.368774</ele>
        <time>2009-02-01T09:17:15Z</time>
      </trkpt>
      <trkpt lat="48.3311" lon="2.66633">
        <ele>81.368774</ele>
        <time>2009-02-01T09:17:17Z</time>
      </trkpt>
      <trkpt lat="48.33125" lon="2.66614">
        <ele>81.368774</ele>
        <time>2009-02-01T09:17:21Z</time>
      </trkpt>
      <trkpt lat="48.33146" lon="2.66586">
        <ele>80.40747</ele>
        <time>2009-02-01T09:17:26Z</time>
      </trkpt>
      <trkpt lat="48.33175" lon="2.66539">
        <ele>79.926635</ele>
        <time>2009-02-01T09:17:33Z</time>
      </trkpt>
      <trkpt lat="48.33187" lon="2.66509">
        <ele>79.446044</ele>
        <time>2009-02-01T09:17:37Z</time>
      </trkpt>
      <trkpt lat="48.33201" lon="2.66447">
        <ele>78.965454</ele>
        <time>2009-02-01T09:17:45Z</time>
      </trkpt>
      <trkpt lat="48.33219" lon="2.66393">
        <ele>79.446044</ele>
        <time>2009-02-01T09:17:52Z</time>
      </trkpt>
      <trkpt lat="48.33233" lon="2.66356">
        <ele>79.446044</ele>
        <time>2009-02-01T09:17:57Z</time>
      </trkpt>
      <trkpt lat="48.33235" lon="2.66349">
        <ele>80.40747</ele>
        <time>2009-02-01T09:17:58Z</time>
      </trkpt>
      <trkpt lat="48.33255" lon="2.66294">
        <ele>80.888183</ele>
        <time>2009-02-01T09:18:06Z</time>
      </trkpt>
      <trkpt lat="48.33267" lon="2.66263">
        <ele>81.849365</ele>
        <time>2009-02-01T09:18:12Z</time>
      </trkpt>
      <trkpt lat="48.33283" lon="2.66234">
        <ele>82.810791</ele>
        <time>2009-02-01T09:18:19Z</time>
      </trkpt>
      <trkpt lat="48.33289" lon="2.66213">
        <ele>82.810791</ele>
        <time>2009-02-01T09:18:24Z</time>
      </trkpt>
      <trkpt lat="48.33288" lon="2.66202">
        <ele>82.810791</ele>
        <time>2009-02-01T09:18:26Z</time>
      </trkpt>
      <trkpt lat="48.33291" lon="2.66165">
        <ele>82.810791</ele>
        <time>2009-02-01T09:18:32Z</time>
      </trkpt>
      <trkpt lat="48.33297" lon="2.66147">
        <ele>82.810791</ele>
        <time>2009-02-01T09:18:35Z</time>
      </trkpt>
      <trkpt lat="48.33299" lon="2.66129">
        <ele>82.810791</ele>
        <time>2009-02-01T09:18:38Z</time>
      </trkpt>
      <trkpt lat="48.33294" lon="2.66089">
        <ele>83.291381</ele>
        <time>2009-02-01T09:18:44Z</time>
      </trkpt>
      <trkpt lat="48.33293" lon="2.66075">
        <ele>83.771972</ele>
        <time>2009-02-01T09:18:46Z</time>
      </trkpt>
      <trkpt lat="48.33289" lon="2.66045">
        <ele>84.252685</ele>
        <time>2009-02-01T09:18:51Z</time>
      </trkpt>
      <trkpt lat="48.33283" lon="2.66006">
        <ele>84.733398</ele>
        <time>2009-02-01T09:18:57Z</time>
      </trkpt>
      <trkpt lat="48.33274" lon="2.65946">
        <ele>85.213989</ele>
        <time>2009-02-01T09:19:05Z</time>
      </trkpt>
      <trkpt lat="48.33267" lon="2.65873">
        <ele>85.213989</ele>
        <time>2009-02-01T09:19:14Z</time>
      </trkpt>
      <trkpt lat="48.33254" lon="2.65804">
        <ele>84.252685</ele>
        <time>2009-02-01T09:19:23Z</time>
      </trkpt>
      <trkpt lat="48.33247" lon="2.65756">
        <ele>84.733398</ele>
        <time>2009-02-01T09:19:29Z</time>
      </trkpt>
      <trkpt lat="48.33243" lon="2.65724">
        <ele>84.733398</ele>
        <time>2009-02-01T09:19:34Z</time>
      </trkpt>
      <trkpt lat="48.33235" lon="2.6571">
        <ele>84.252685</ele>
        <time>2009-02-01T09:19:39Z</time>
      </trkpt>
      <trkpt lat="48.33241" lon="2.65698">
        <ele>84.252685</ele>
        <time>2009-02-01T09:19:42Z</time>
      </trkpt>
      <trkpt lat="48.33245" lon="2.65674">
        <ele>84.252685</ele>
        <time>2009-02-01T09:19:47Z</time>
      </trkpt>
      <trkpt lat="48.33243" lon="2.65618">
        <ele>85.69458</ele>
        <time>2009-02-01T09:19:55Z</time>
      </trkpt>
      <trkpt lat="48.33242" lon="2.65574">
        <ele>86.656005</ele>
        <time>2009-02-01T09:20:02Z</time>
      </trkpt>
      <trkpt lat="48.33239" lon="2.65522">
        <ele>87.136596</ele>
        <time>2009-02-01T09:20:10Z</time>
      </trkpt>
      <trkpt lat="48.33235" lon="2.65466">
        <ele>87.136596</ele>
        <time>2009-02-01T09:20:18Z</time>
      </trkpt>
      <trkpt lat="48.33231" lon="2.65411">
        <ele>87.136596</ele>
        <time>2009-02-01T09:20:26Z</time>
      </trkpt>
      <trkpt lat="48.33228" lon="2.6536">
        <ele>88.578735</ele>
        <time>2009-02-01T09:20:34Z</time>
      </trkpt>
      <trkpt lat="48.33224" lon="2.65316">
        <ele>90.020629</ele>
        <time>2009-02-01T09:20:41Z</time>
      </trkpt>
      <trkpt lat="48.33215" lon="2.653">
        <ele>90.020629</ele>
        <time>2009-02-01T09:20:45Z</time>
      </trkpt>
      <trkpt lat="48.3321" lon="2.653">
        <ele>89.059326</ele>
        <time>2009-02-01T09:20:46Z</time>
      </trkpt>
      <trkpt lat="48.33201" lon="2.65302">
        <ele>89.059326</ele>
        <time>2009-02-01T09:20:48Z</time>
      </trkpt>
      <trkpt lat="48.33167" lon="2.65307">
        <ele>88.098022</ele>
        <time>2009-02-01T09:20:55Z</time>
      </trkpt>
      <trkpt lat="48.33144" lon="2.65309">
        <ele>86.175293</ele>
        <time>2009-02-01T09:20:59Z</time>
      </trkpt>
      <trkpt lat="48.33126" lon="2.65312">
        <ele>86.656005</ele>
        <time>2009-02-01T09:21:02Z</time>
      </trkpt>
      <trkpt lat="48.33087" lon="2.65315">
        <ele>88.578735</ele>
        <time>2009-02-01T09:21:10Z</time>
      </trkpt>
      <trkpt lat="48.33082" lon="2.65315">
        <ele>88.578735</ele>
        <time>2009-02-01T09:21:11Z</time>
      </trkpt>
      <trkpt lat="48.33067" lon="2.65314">
        <ele>90.020629</ele>
        <time>2009-02-01T09:21:15Z</time>
      </trkpt>
      <trkpt lat="48.33048" lon="2.65311">
        <ele>90.020629</ele>
        <time>2009-02-01T09:21:20Z</time>
      </trkpt>
      <trkpt lat="48.33041" lon="2.65317">
        <ele>90.020629</ele>
        <time>2009-02-01T09:21:25Z</time>
      </trkpt>
      <trkpt lat="48.33037" lon="2.65325">
        <ele>90.501342</ele>
        <time>2009-02-01T09:21:30Z</time>
      </trkpt>
      <trkpt lat="48.33027" lon="2.65331">
        <ele>91.462524</ele>
        <time>2009-02-01T09:21:34Z</time>
      </trkpt>
      <trkpt lat="48.33014" lon="2.65335">
        <ele>91.943237</ele>
        <time>2009-02-01T09:21:40Z</time>
      </trkpt>
      <trkpt lat="48.33001" lon="2.65337">
        <ele>91.943237</ele>
        <time>2009-02-01T09:21:46Z</time>
      </trkpt>
      <trkpt lat="48.32993" lon="2.65338">
        <ele>93.385131</ele>
        <time>2009-02-01T09:21:49Z</time>
      </trkpt>
      <trkpt lat="48.32975" lon="2.65339">
        <ele>95.307739</ele>
        <time>2009-02-01T09:21:56Z</time>
      </trkpt>
      <trkpt lat="48.32964" lon="2.65337">
        <ele>96.269287</ele>
        <time>2009-02-01T09:22:02Z</time>
      </trkpt>
      <trkpt lat="48.32955" lon="2.65335">
        <ele>96.749877</ele>
        <time>2009-02-01T09:22:07Z</time>
      </trkpt>
      <trkpt lat="48.32941" lon="2.65335">
        <ele>98.191894</ele>
        <time>2009-02-01T09:22:14Z</time>
      </trkpt>
      <trkpt lat="48.32931" lon="2.65332">
        <ele>98.672485</ele>
        <time>2009-02-01T09:22:19Z</time>
      </trkpt>
      <trkpt lat="48.3292" lon="2.65325">
        <ele>100.1145</ele>
        <time>2009-02-01T09:22:25Z</time>
      </trkpt>
      <trkpt lat="48.32905" lon="2.65313">
        <ele>100.59509</ele>
        <time>2009-02-01T09:22:32Z</time>
      </trkpt>
      <trkpt lat="48.32892" lon="2.65302">
        <ele>101.07568</ele>
        <time>2009-02-01T09:22:39Z</time>
      </trkpt>
      <trkpt lat="48.3288" lon="2.6529">
        <ele>103.479</ele>
        <time>2009-02-01T09:22:46Z</time>
      </trkpt>
      <trkpt lat="48.32869" lon="2.6528">
        <ele>105.40173</ele>
        <time>2009-02-01T09:22:54Z</time>
      </trkpt>
      <trkpt lat="48.32861" lon="2.65272">
        <ele>105.88244</ele>
        <time>2009-02-01T09:23:00Z</time>
      </trkpt>
      <trkpt lat="48.32853" lon="2.65263">
        <ele>106.84362</ele>
        <time>2009-02-01T09:23:06Z</time>
      </trkpt>
      <trkpt lat="48.32845" lon="2.65255">
        <ele>109.24694</ele>
        <time>2009-02-01T09:23:13Z</time>
      </trkpt>
      <trkpt lat="48.32835" lon="2.65244">
        <ele>110.20825</ele>
        <time>2009-02-01T09:23:21Z</time>
      </trkpt>
      <trkpt lat="48.32826" lon="2.65234">
        <ele>110.68884</ele>
        <time>2009-02-01T09:23:27Z</time>
      </trkpt>
      <trkpt lat="48.32818" lon="2.65223">
        <ele>112.13098</ele>
        <time>2009-02-01T09:23:34Z</time>
      </trkpt>
      <trkpt lat="48.32807" lon="2.65211">
        <ele>113.57299</ele>
        <time>2009-02-01T09:23:42Z</time>
      </trkpt>
      <trkpt lat="48.32802" lon="2.65205">
        <ele>115.01489</ele>
        <time>2009-02-01T09:23:46Z</time>
      </trkpt>
      <trkpt lat="48.32798" lon="2.65189">
        <ele>115.01489</ele>
        <time>2009-02-01T09:23:51Z</time>
      </trkpt>
      <trkpt lat="48.3279" lon="2.65153">
        <ele>116.45678</ele>
        <time>2009-02-01T09:23:59Z</time>
      </trkpt>
      <trkpt lat="48.32784" lon="2.65124">
        <ele>116.9375</ele>
        <time>2009-02-01T09:24:05Z</time>
      </trkpt>
      <trkpt lat="48.32779" lon="2.65096">
        <ele>118.37939</ele>
        <time>2009-02-01T09:24:11Z</time>
      </trkpt>
      <trkpt lat="48.32776" lon="2.6506">
        <ele>118.8601</ele>
        <time>2009-02-01T09:24:18Z</time>
      </trkpt>
      <trkpt lat="48.32776" lon="2.65032">
        <ele>118.8601</ele>
        <time>2009-02-01T09:24:23Z</time>
      </trkpt>
      <trkpt lat="48.32778" lon="2.65005">
        <ele>117.8988</ele>
        <time>2009-02-01T09:24:27Z</time>
      </trkpt>
      <trkpt lat="48.32782" lon="2.64972">
        <ele>117.8988</ele>
        <time>2009-02-01T09:24:32Z</time>
      </trkpt>
      <trkpt lat="48.32784" lon="2.64949">
        <ele>117.41821</ele>
        <time>2009-02-01T09:24:35Z</time>
      </trkpt>
      <trkpt lat="48.32784" lon="2.64912">
        <ele>116.9375</ele>
        <time>2009-02-01T09:24:40Z</time>
      </trkpt>
      <trkpt lat="48.32778" lon="2.64882">
        <ele>117.41821</ele>
        <time>2009-02-01T09:24:44Z</time>
      </trkpt>
      <trkpt lat="48.32766" lon="2.64834">
        <ele>117.41821</ele>
        <time>2009-02-01T09:24:51Z</time>
      </trkpt>
      <trkpt lat="48.32761" lon="2.64821">
        <ele>118.37939</ele>
        <time>2009-02-01T09:24:53Z</time>
      </trkpt>
      <trkpt lat="48.32749" lon="2.64776">
        <ele>117.8988</ele>
        <time>2009-02-01T09:25:00Z</time>
      </trkpt>
      <trkpt lat="48.3274" lon="2.64727">
        <ele>118.37939</ele>
        <time>2009-02-01T09:25:07Z</time>
      </trkpt>
      <trkpt lat="48.32732" lon="2.64679">
        <ele>119.34082</ele>
        <time>2009-02-01T09:25:14Z</time>
      </trkpt>
      <trkpt lat="48.32726" lon="2.64628">
        <ele>119.34082</ele>
        <time>2009-02-01T09:25:21Z</time>
      </trkpt>
      <trkpt lat="48.32722" lon="2.64566">
        <ele>119.34082</ele>
        <time>2009-02-01T09:25:29Z</time>
      </trkpt>
      <trkpt lat="48.32722" lon="2.64549">
        <ele>118.8601</ele>
        <time>2009-02-01T09:25:31Z</time>
      </trkpt>
      <trkpt lat="48.32719" lon="2.64522">
        <ele>119.82141</ele>
        <time>2009-02-01T09:25:35Z</time>
      </trkpt>
      <trkpt lat="48.3272" lon="2.64493">
        <ele>120.30212</ele>
        <time>2009-02-01T09:25:39Z</time>
      </trkpt>
      <trkpt lat="48.32724" lon="2.64455">
        <ele>120.78283</ele>
        <time>2009-02-01T09:25:45Z</time>
      </trkpt>
      <trkpt lat="48.32727" lon="2.64417">
        <ele>119.34082</ele>
        <time>2009-02-01T09:25:50Z</time>
      </trkpt>
      <trkpt lat="48.32732" lon="2.64365">
        <ele>117.8988</ele>
        <time>2009-02-01T09:25:56Z</time>
      </trkpt>
      <trkpt lat="48.32735" lon="2.64337">
        <ele>117.41821</ele>
        <time>2009-02-01T09:25:59Z</time>
      </trkpt>
      <trkpt lat="48.32727" lon="2.64289">
        <ele>117.41821</ele>
        <time>2009-02-01T09:26:05Z</time>
      </trkpt>
      <trkpt lat="48.32707" lon="2.64279">
        <ele>117.8988</ele>
        <time>2009-02-01T09:26:09Z</time>
      </trkpt>
      <trkpt lat="48.3269" lon="2.64277">
        <ele>117.41821</ele>
        <time>2009-02-01T09:26:12Z</time>
      </trkpt>
      <trkpt lat="48.3268" lon="2.64274">
        <ele>117.41821</ele>
        <time>2009-02-01T09:26:14Z</time>
      </trkpt>
      <trkpt lat="48.32662" lon="2.64265">
        <ele>116.9375</ele>
        <time>2009-02-01T09:26:19Z</time>
      </trkpt>
      <trkpt lat="48.32649" lon="2.64278">
        <ele>115.4956</ele>
        <time>2009-02-01T09:26:24Z</time>
      </trkpt>
      <trkpt lat="48.3264" lon="2.64285">
        <ele>112.61157</ele>
        <time>2009-02-01T09:26:26Z</time>
      </trkpt>
      <trkpt lat="48.32629" lon="2.64298">
        <ele>110.20825</ele>
        <time>2009-02-01T09:26:28Z</time>
      </trkpt>
      <trkpt lat="48.32605" lon="2.64339">
        <ele>105.40173</ele>
        <time>2009-02-01T09:26:32Z</time>
      </trkpt>
      <trkpt lat="48.3257" lon="2.64373">
        <ele>100.59509</ele>
        <time>2009-02-01T09:26:36Z</time>
      </trkpt>
      <trkpt lat="48.3253" lon="2.64392">
        <ele>96.269287</ele>
        <time>2009-02-01T09:26:40Z</time>
      </trkpt>
      <trkpt lat="48.3251" lon="2.64397">
        <ele>95.788452</ele>
        <time>2009-02-01T09:26:42Z</time>
      </trkpt>
      <trkpt lat="48.32468" lon="2.64401">
        <ele>93.385131</ele>
        <time>2009-02-01T09:26:46Z</time>
      </trkpt>
      <trkpt lat="48.3242" lon="2.64398">
        <ele>90.501342</ele>
        <time>2009-02-01T09:26:51Z</time>
      </trkpt>
      <trkpt lat="48.32392" lon="2.64391">
        <ele>88.098022</ele>
        <time>2009-02-01T09:26:54Z</time>
      </trkpt>
      <trkpt lat="48.32329" lon="2.64385">
        <ele>87.617187</ele>
        <time>2009-02-01T09:27:01Z</time>
      </trkpt>
      <trkpt lat="48.32278" lon="2.64373">
        <ele>86.175293</ele>
        <time>2009-02-01T09:27:07Z</time>
      </trkpt>
      <trkpt lat="48.32222" lon="2.6436">
        <ele>84.252685</ele>
        <time>2009-02-01T09:27:14Z</time>
      </trkpt>
      <trkpt lat="48.32171" lon="2.64362">
        <ele>83.771972</ele>
        <time>2009-02-01T09:27:21Z</time>
      </trkpt>
      <trkpt lat="48.32125" lon="2.64365">
        <ele>83.291381</ele>
        <time>2009-02-01T09:27:28Z</time>
      </trkpt>
      <trkpt lat="48.32086" lon="2.64365">
        <ele>84.252685</ele>
        <time>2009-02-01T09:27:35Z</time>
      </trkpt>
      <trkpt lat="48.32051" lon="2.64367">
        <ele>82.330078</ele>
        <time>2009-02-01T09:27:42Z</time>
      </trkpt>
      <trkpt lat="48.32028" lon="2.64368">
        <ele>83.291381</ele>
        <time>2009-02-01T09:27:46Z</time>
      </trkpt>
      <trkpt lat="48.31977" lon="2.64371">
        <ele>83.291381</ele>
        <time>2009-02-01T09:27:55Z</time>
      </trkpt>
      <trkpt lat="48.31933" lon="2.64373">
        <ele>83.291381</ele>
        <time>2009-02-01T09:28:03Z</time>
      </trkpt>
      <trkpt lat="48.31928" lon="2.64373">
        <ele>83.771972</ele>
        <time>2009-02-01T09:28:04Z</time>
      </trkpt>
      <trkpt lat="48.31916" lon="2.64393">
        <ele>84.252685</ele>
        <time>2009-02-01T09:28:08Z</time>
      </trkpt>
      <trkpt lat="48.31915" lon="2.64401">
        <ele>85.213989</ele>
        <time>2009-02-01T09:28:09Z</time>
      </trkpt>
      <trkpt lat="48.31918" lon="2.64456">
        <ele>80.888183</ele>
        <time>2009-02-01T09:28:16Z</time>
      </trkpt>
      <trkpt lat="48.31922" lon="2.64518">
        <ele>82.330078</ele>
        <time>2009-02-01T09:28:24Z</time>
      </trkpt>
      <trkpt lat="48.31925" lon="2.64577">
        <ele>81.849365</ele>
        <time>2009-02-01T09:28:32Z</time>
      </trkpt>
      <trkpt lat="48.31918" lon="2.64598">
        <ele>82.810791</ele>
        <time>2009-02-01T09:28:36Z</time>
      </trkpt>
      <trkpt lat="48.319" lon="2.64598">
        <ele>81.368774</ele>
        <time>2009-02-01T09:28:40Z</time>
      </trkpt>
      <trkpt lat="48.31864" lon="2.64582">
        <ele>82.330078</ele>
        <time>2009-02-01T09:28:48Z</time>
      </trkpt>
      <trkpt lat="48.31826" lon="2.64563">
        <ele>82.330078</ele>
        <time>2009-02-01T09:28:56Z</time>
      </trkpt>
      <trkpt lat="48.3179" lon="2.64544">
        <ele>82.810791</ele>
        <time>2009-02-01T09:29:04Z</time>
      </trkpt>
      <trkpt lat="48.31747" lon="2.64516">
        <ele>83.771972</ele>
        <time>2009-02-01T09:29:13Z</time>
      </trkpt>
      <trkpt lat="48.31711" lon="2.64495">
        <ele>83.291381</ele>
        <time>2009-02-01T09:29:20Z</time>
      </trkpt>
      <trkpt lat="48.31667" lon="2.64463">
        <ele>84.252685</ele>
        <time>2009-02-01T09:29:30Z</time>
      </trkpt>
      <trkpt lat="48.31636" lon="2.64427">
        <ele>85.213989</ele>
        <time>2009-02-01T09:29:38Z</time>
      </trkpt>
      <trkpt lat="48.31606" lon="2.64377">
        <ele>86.656005</ele>
        <time>2009-02-01T09:29:47Z</time>
      </trkpt>
      <trkpt lat="48.31569" lon="2.64317">
        <ele>86.175293</ele>
        <time>2009-02-01T09:29:58Z</time>
      </trkpt>
      <trkpt lat="48.31544" lon="2.64279">
        <ele>86.656005</ele>
        <time>2009-02-01T09:30:06Z</time>
      </trkpt>
      <trkpt lat="48.31519" lon="2.64239">
        <ele>88.578735</ele>
        <time>2009-02-01T09:30:14Z</time>
      </trkpt>
      <trkpt lat="48.31517" lon="2.64234">
        <ele>88.098022</ele>
        <time>2009-02-01T09:30:15Z</time>
      </trkpt>
      <trkpt lat="48.3151" lon="2.64219">
        <ele>88.098022</ele>
        <time>2009-02-01T09:30:18Z</time>
      </trkpt>
      <trkpt lat="48.31502" lon="2.64182">
        <ele>89.059326</ele>
        <time>2009-02-01T09:30:24Z</time>
      </trkpt>
      <trkpt lat="48.315" lon="2.64177">
        <ele>89.059326</ele>
        <time>2009-02-01T09:30:25Z</time>
      </trkpt>
      <trkpt lat="48.31494" lon="2.64168">
        <ele>90.020629</ele>
        <time>2009-02-01T09:30:27Z</time>
      </trkpt>
      <trkpt lat="48.31472" lon="2.64141">
        <ele>91.943237</ele>
        <time>2009-02-01T09:30:34Z</time>
      </trkpt>
      <trkpt lat="48.31446" lon="2.64112">
        <ele>92.42395</ele>
        <time>2009-02-01T09:30:42Z</time>
      </trkpt>
      <trkpt lat="48.31413" lon="2.64078">
        <ele>93.385131</ele>
        <time>2009-02-01T09:30:52Z</time>
      </trkpt>
      <trkpt lat="48.31399" lon="2.64067">
        <ele>93.385131</ele>
        <time>2009-02-01T09:30:56Z</time>
      </trkpt>
      <trkpt lat="48.31384" lon="2.64054">
        <ele>94.827148</ele>
        <time>2009-02-01T09:31:02Z</time>
      </trkpt>
      <trkpt lat="48.31371" lon="2.64043">
        <ele>96.269287</ele>
        <time>2009-02-01T09:31:08Z</time>
      </trkpt>
      <trkpt lat="48.31362" lon="2.64028">
        <ele>97.711181</ele>
        <time>2009-02-01T09:31:13Z</time>
      </trkpt>
      <trkpt lat="48.31351" lon="2.64003">
        <ele>97.230468</ele>
        <time>2009-02-01T09:31:19Z</time>
      </trkpt>
      <trkpt lat="48.31338" lon="2.63987">
        <ele>97.711181</ele>
        <time>2009-02-01T09:31:24Z</time>
      </trkpt>
      <trkpt lat="48.31325" lon="2.63973">
        <ele>99.153076</ele>
        <time>2009-02-01T09:31:30Z</time>
      </trkpt>
      <trkpt lat="48.31309" lon="2.63962">
        <ele>100.59509</ele>
        <time>2009-02-01T09:31:37Z</time>
      </trkpt>
      <trkpt lat="48.31296" lon="2.63954">
        <ele>101.55639</ele>
        <time>2009-02-01T09:31:43Z</time>
      </trkpt>
      <trkpt lat="48.31282" lon="2.63948">
        <ele>103.479</ele>
        <time>2009-02-01T09:31:49Z</time>
      </trkpt>
      <trkpt lat="48.31278" lon="2.63949">
        <ele>103.479</ele>
        <time>2009-02-01T09:31:53Z</time>
      </trkpt>
      <trkpt lat="48.31276" lon="2.63954">
        <ele>103.479</ele>
        <time>2009-02-01T09:31:56Z</time>
      </trkpt>
      <trkpt lat="48.31275" lon="2.63973">
        <ele>103.479</ele>
        <time>2009-02-01T09:31:57Z</time>
      </trkpt>
      <trkpt lat="48.31287" lon="2.63993">
        <ele>103.479</ele>
        <time>2009-02-01T09:32:02Z</time>
      </trkpt>
      <trkpt lat="48.31269" lon="2.63968">
        <ele>102.99829</ele>
        <time>2009-02-01T09:32:03Z</time>
      </trkpt>
      <trkpt lat="48.31236" lon="2.63918">
        <ele>103.479</ele>
        <time>2009-02-01T09:32:06Z</time>
      </trkpt>
      <trkpt lat="48.31213" lon="2.63875">
        <ele>102.99829</ele>
        <time>2009-02-01T09:32:16Z</time>
      </trkpt>
      <trkpt lat="48.31197" lon="2.63839">
        <ele>104.44042</ele>
        <time>2009-02-01T09:32:24Z</time>
      </trkpt>
      <trkpt lat="48.31184" lon="2.63813">
        <ele>102.99829</ele>
        <time>2009-02-01T09:32:30Z</time>
      </trkpt>
      <trkpt lat="48.3118" lon="2.63787">
        <ele>103.479</ele>
        <time>2009-02-01T09:32:34Z</time>
      </trkpt>
      <trkpt lat="48.31186" lon="2.63739">
        <ele>102.99829</ele>
        <time>2009-02-01T09:32:41Z</time>
      </trkpt>
      <trkpt lat="48.31192" lon="2.63713">
        <ele>103.479</ele>
        <time>2009-02-01T09:32:45Z</time>
      </trkpt>
      <trkpt lat="48.31198" lon="2.63677">
        <ele>103.95971</ele>
        <time>2009-02-01T09:32:51Z</time>
      </trkpt>
      <trkpt lat="48.312" lon="2.63665">
        <ele>103.95971</ele>
        <time>2009-02-01T09:32:53Z</time>
      </trkpt>
      <trkpt lat="48.31208" lon="2.63611">
        <ele>102.99829</ele>
        <time>2009-02-01T09:33:00Z</time>
      </trkpt>
      <trkpt lat="48.31211" lon="2.63594">
        <ele>102.5177</ele>
        <time>2009-02-01T09:33:02Z</time>
      </trkpt>
      <trkpt lat="48.31213" lon="2.63565">
        <ele>101.07568</ele>
        <time>2009-02-01T09:33:05Z</time>
      </trkpt>
      <trkpt lat="48.31214" lon="2.63544">
        <ele>100.1145</ele>
        <time>2009-02-01T09:33:07Z</time>
      </trkpt>
      <trkpt lat="48.31217" lon="2.63517">
        <ele>98.672485</ele>
        <time>2009-02-01T09:33:11Z</time>
      </trkpt>
      <trkpt lat="48.31209" lon="2.63496">
        <ele>95.307739</ele>
        <time>2009-02-01T09:33:14Z</time>
      </trkpt>
      <trkpt lat="48.31204" lon="2.63478">
        <ele>94.346557</ele>
        <time>2009-02-01T09:33:16Z</time>
      </trkpt>
      <trkpt lat="48.31199" lon="2.63457">
        <ele>92.904541</ele>
        <time>2009-02-01T09:33:18Z</time>
      </trkpt>
      <trkpt lat="48.31196" lon="2.63397">
        <ele>91.943237</ele>
        <time>2009-02-01T09:33:23Z</time>
      </trkpt>
      <trkpt lat="48.31195" lon="2.63352">
        <ele>90.981933</ele>
        <time>2009-02-01T09:33:27Z</time>
      </trkpt>
      <trkpt lat="48.31202" lon="2.63295">
        <ele>90.020629</ele>
        <time>2009-02-01T09:33:32Z</time>
      </trkpt>
      <trkpt lat="48.31208" lon="2.63276">
        <ele>90.501342</ele>
        <time>2009-02-01T09:33:34Z</time>
      </trkpt>
      <trkpt lat="48.31213" lon="2.6324">
        <ele>91.462524</ele>
        <time>2009-02-01T09:33:38Z</time>
      </trkpt>
      <trkpt lat="48.31214" lon="2.63215">
        <ele>91.462524</ele>
        <time>2009-02-01T09:33:41Z</time>
      </trkpt>
      <trkpt lat="48.31219" lon="2.63184">
        <ele>91.462524</ele>
        <time>2009-02-01T09:33:45Z</time>
      </trkpt>
      <trkpt lat="48.31229" lon="2.63152">
        <ele>91.943237</ele>
        <time>2009-02-01T09:33:50Z</time>
      </trkpt>
      <trkpt lat="48.31239" lon="2.63114">
        <ele>92.42395</ele>
        <time>2009-02-01T09:33:57Z</time>
      </trkpt>
      <trkpt lat="48.31241" lon="2.63093">
        <ele>93.385131</ele>
        <time>2009-02-01T09:34:01Z</time>
      </trkpt>
      <trkpt lat="48.31246" lon="2.63063">
        <ele>93.385131</ele>
        <time>2009-02-01T09:34:06Z</time>
      </trkpt>
      <trkpt lat="48.31243" lon="2.63026">
        <ele>92.904541</ele>
        <time>2009-02-01T09:34:12Z</time>
      </trkpt>
      <trkpt lat="48.31236" lon="2.62985">
        <ele>91.943237</ele>
        <time>2009-02-01T09:34:17Z</time>
      </trkpt>
      <trkpt lat="48.31242" lon="2.62939">
        <ele>91.943237</ele>
        <time>2009-02-01T09:34:23Z</time>
      </trkpt>
      <trkpt lat="48.31249" lon="2.62928">
        <ele>91.943237</ele>
        <time>2009-02-01T09:34:25Z</time>
      </trkpt>
      <trkpt lat="48.31264" lon="2.62885">
        <ele>90.981933</ele>
        <time>2009-02-01T09:34:31Z</time>
      </trkpt>
      <trkpt lat="48.31263" lon="2.62855">
        <ele>90.501342</ele>
        <time>2009-02-01T09:34:34Z</time>
      </trkpt>
      <trkpt lat="48.31257" lon="2.62799">
        <ele>88.578735</ele>
        <time>2009-02-01T09:34:40Z</time>
      </trkpt>
      <trkpt lat="48.31255" lon="2.62738">
        <ele>88.098022</ele>
        <time>2009-02-01T09:34:46Z</time>
      </trkpt>
      <trkpt lat="48.31254" lon="2.62712">
        <ele>87.617187</ele>
        <time>2009-02-01T09:34:49Z</time>
      </trkpt>
      <trkpt lat="48.31247" lon="2.62676">
        <ele>88.098022</ele>
        <time>2009-02-01T09:34:53Z</time>
      </trkpt>
      <trkpt lat="48.3124" lon="2.62631">
        <ele>86.656005</ele>
        <time>2009-02-01T09:34:58Z</time>
      </trkpt>
      <trkpt lat="48.31234" lon="2.62597">
        <ele>86.175293</ele>
        <time>2009-02-01T09:35:02Z</time>
      </trkpt>
      <trkpt lat="48.31231" lon="2.62578">
        <ele>86.175293</ele>
        <time>2009-02-01T09:35:05Z</time>
      </trkpt>
      <trkpt lat="48.31239" lon="2.62572">
        <ele>87.136596</ele>
        <time>2009-02-01T09:35:10Z</time>
      </trkpt>
      <trkpt lat="48.31254" lon="2.62571">
        <ele>90.501342</ele>
        <time>2009-02-01T09:35:18Z</time>
      </trkpt>
      <trkpt lat="48.31272" lon="2.62572">
        <ele>92.42395</ele>
        <time>2009-02-01T09:35:26Z</time>
      </trkpt>
      <trkpt lat="48.31281" lon="2.62572">
        <ele>93.385131</ele>
        <time>2009-02-01T09:35:31Z</time>
      </trkpt>
      <trkpt lat="48.31295" lon="2.62571">
        <ele>94.346557</ele>
        <time>2009-02-01T09:35:37Z</time>
      </trkpt>
      <trkpt lat="48.31314" lon="2.62569">
        <ele>95.307739</ele>
        <time>2009-02-01T09:35:45Z</time>
      </trkpt>
      <trkpt lat="48.31325" lon="2.62567">
        <ele>96.269287</ele>
        <time>2009-02-01T09:35:50Z</time>
      </trkpt>
      <trkpt lat="48.31344" lon="2.62568">
        <ele>96.749877</ele>
        <time>2009-02-01T09:35:58Z</time>
      </trkpt>
      <trkpt lat="48.31356" lon="2.62569">
        <ele>98.191894</ele>
        <time>2009-02-01T09:36:04Z</time>
      </trkpt>
      <trkpt lat="48.31369" lon="2.62568">
        <ele>99.153076</ele>
        <time>2009-02-01T09:36:10Z</time>
      </trkpt>
      <trkpt lat="48.31374" lon="2.62568">
        <ele>100.59509</ele>
        <time>2009-02-01T09:36:13Z</time>
      </trkpt>
      <trkpt lat="48.31385" lon="2.62566">
        <ele>101.07568</ele>
        <time>2009-02-01T09:36:20Z</time>
      </trkpt>
      <trkpt lat="48.31393" lon="2.62562">
        <ele>103.479</ele>
        <time>2009-02-01T09:36:27Z</time>
      </trkpt>
      <trkpt lat="48.31395" lon="2.62553">
        <ele>104.44042</ele>
        <time>2009-02-01T09:36:34Z</time>
      </trkpt>
      <trkpt lat="48.31397" lon="2.62543">
        <ele>105.40173</ele>
        <time>2009-02-01T09:36:41Z</time>
      </trkpt>
      <trkpt lat="48.31397" lon="2.62537">
        <ele>105.88244</ele>
        <time>2009-02-01T09:36:45Z</time>
      </trkpt>
      <trkpt lat="48.31396" lon="2.62526">
        <ele>108.28564</ele>
        <time>2009-02-01T09:36:51Z</time>
      </trkpt>
      <trkpt lat="48.31398" lon="2.62513">
        <ele>109.72766</ele>
        <time>2009-02-01T09:36:57Z</time>
      </trkpt>
      <trkpt lat="48.31397" lon="2.62503">
        <ele>110.20825</ele>
        <time>2009-02-01T09:37:02Z</time>
      </trkpt>
      <trkpt lat="48.31391" lon="2.62499">
        <ele>111.65026</ele>
        <time>2009-02-01T09:37:09Z</time>
      </trkpt>
      <trkpt lat="48.3139" lon="2.625">
        <ele>111.65026</ele>
        <time>2009-02-01T09:37:10Z</time>
      </trkpt>
      <trkpt lat="48.31386" lon="2.62502">
        <ele>112.13098</ele>
        <time>2009-02-01T09:37:14Z</time>
      </trkpt>
      <trkpt lat="48.31376" lon="2.62504">
        <ele>113.57299</ele>
        <time>2009-02-01T09:37:21Z</time>
      </trkpt>
      <trkpt lat="48.31365" lon="2.62504">
        <ele>114.53417</ele>
        <time>2009-02-01T09:37:27Z</time>
      </trkpt>
      <trkpt lat="48.31353" lon="2.62493">
        <ele>115.4956</ele>
        <time>2009-02-01T09:37:33Z</time>
      </trkpt>
      <trkpt lat="48.3135" lon="2.62479">
        <ele>116.45678</ele>
        <time>2009-02-01T09:37:38Z</time>
      </trkpt>
      <trkpt lat="48.31348" lon="2.62466">
        <ele>117.8988</ele>
        <time>2009-02-01T09:37:43Z</time>
      </trkpt>
      <trkpt lat="48.31349" lon="2.62457">
        <ele>118.37939</ele>
        <time>2009-02-01T09:37:47Z</time>
      </trkpt>
      <trkpt lat="48.31354" lon="2.62449">
        <ele>119.82141</ele>
        <time>2009-02-01T09:37:52Z</time>
      </trkpt>
      <trkpt lat="48.31363" lon="2.62445">
        <ele>121.26354</ele>
        <time>2009-02-01T09:38:00Z</time>
      </trkpt>
      <trkpt lat="48.31365" lon="2.62444">
        <ele>121.74414</ele>
        <time>2009-02-01T09:38:02Z</time>
      </trkpt>
      <trkpt lat="48.31373" lon="2.62434">
        <ele>123.18615</ele>
        <time>2009-02-01T09:38:11Z</time>
      </trkpt>
      <trkpt lat="48.3138" lon="2.62429">
        <ele>123.66674</ele>
        <time>2009-02-01T09:38:17Z</time>
      </trkpt>
      <trkpt lat="48.31387" lon="2.62423">
        <ele>125.58935</ele>
        <time>2009-02-01T09:38:22Z</time>
      </trkpt>
      <trkpt lat="48.31396" lon="2.62417">
        <ele>127.51196</ele>
        <time>2009-02-01T09:38:29Z</time>
      </trkpt>
      <trkpt lat="48.31398" lon="2.62416">
        <ele>127.51196</ele>
        <time>2009-02-01T09:38:30Z</time>
      </trkpt>
      <trkpt lat="48.31406" lon="2.62412">
        <ele>127.99255</ele>
        <time>2009-02-01T09:38:36Z</time>
      </trkpt>
      <trkpt lat="48.31415" lon="2.62406">
        <ele>128.47338</ele>
        <time>2009-02-01T09:38:41Z</time>
      </trkpt>
      <trkpt lat="48.31425" lon="2.62394">
        <ele>128.47338</ele>
        <time>2009-02-01T09:38:46Z</time>
      </trkpt>
      <trkpt lat="48.31434" lon="2.62373">
        <ele>129.43469</ele>
        <time>2009-02-01T09:38:54Z</time>
      </trkpt>
      <trkpt lat="48.31444" lon="2.62364">
        <ele>131.35729</ele>
        <time>2009-02-01T09:38:59Z</time>
      </trkpt>
      <trkpt lat="48.3145" lon="2.62359">
        <ele>131.35729</ele>
        <time>2009-02-01T09:39:02Z</time>
      </trkpt>
      <trkpt lat="48.31451" lon="2.62332">
        <ele>131.83789</ele>
        <time>2009-02-01T09:39:08Z</time>
      </trkpt>
      <trkpt lat="48.31448" lon="2.62299">
        <ele>131.83789</ele>
        <time>2009-02-01T09:39:14Z</time>
      </trkpt>
      <trkpt lat="48.31444" lon="2.62253">
        <ele>132.79931</ele>
        <time>2009-02-01T09:39:22Z</time>
      </trkpt>
      <trkpt lat="48.31442" lon="2.62223">
        <ele>132.79931</ele>
        <time>2009-02-01T09:39:27Z</time>
      </trkpt>
      <trkpt lat="48.31438" lon="2.62186">
        <ele>132.3186</ele>
        <time>2009-02-01T09:39:33Z</time>
      </trkpt>
      <trkpt lat="48.31437" lon="2.62152">
        <ele>132.79931</ele>
        <time>2009-02-01T09:39:39Z</time>
      </trkpt>
      <trkpt lat="48.31437" lon="2.62141">
        <ele>134.24121</ele>
        <time>2009-02-01T09:39:41Z</time>
      </trkpt>
      <trkpt lat="48.3144" lon="2.62102">
        <ele>132.79931</ele>
        <time>2009-02-01T09:39:47Z</time>
      </trkpt>
      <trkpt lat="48.31441" lon="2.62089">
        <ele>132.79931</ele>
        <time>2009-02-01T09:39:49Z</time>
      </trkpt>
      <trkpt lat="48.31446" lon="2.62043">
        <ele>134.24121</ele>
        <time>2009-02-01T09:39:57Z</time>
      </trkpt>
      <trkpt lat="48.31446" lon="2.62018">
        <ele>132.79931</ele>
        <time>2009-02-01T09:40:01Z</time>
      </trkpt>
      <trkpt lat="48.31446" lon="2.62004">
        <ele>132.79931</ele>
        <time>2009-02-01T09:40:03Z</time>
      </trkpt>
      <trkpt lat="48.31447" lon="2.61982">
        <ele>131.35729</ele>
        <time>2009-02-01T09:40:06Z</time>
      </trkpt>
      <trkpt lat="48.31453" lon="2.61977">
        <ele>132.3186</ele>
        <time>2009-02-01T09:40:08Z</time>
      </trkpt>
      <trkpt lat="48.31479" lon="2.61958">
        <ele>132.79931</ele>
        <time>2009-02-01T09:40:15Z</time>
      </trkpt>
      <trkpt lat="48.31483" lon="2.61954">
        <ele>132.79931</ele>
        <time>2009-02-01T09:40:16Z</time>
      </trkpt>
      <trkpt lat="48.31502" lon="2.61924">
        <ele>132.79931</ele>
        <time>2009-02-01T09:40:21Z</time>
      </trkpt>
      <trkpt lat="48.31505" lon="2.61897">
        <ele>132.79931</ele>
        <time>2009-02-01T09:40:25Z</time>
      </trkpt>
      <trkpt lat="48.31506" lon="2.6189">
        <ele>133.2799</ele>
        <time>2009-02-01T09:40:26Z</time>
      </trkpt>
      <trkpt lat="48.31506" lon="2.61877">
        <ele>132.79931</ele>
        <time>2009-02-01T09:40:28Z</time>
      </trkpt>
      <trkpt lat="48.31493" lon="2.61858">
        <ele>131.83789</ele>
        <time>2009-02-01T09:40:32Z</time>
      </trkpt>
      <trkpt lat="48.31452" lon="2.61822">
        <ele>129.43469</ele>
        <time>2009-02-01T09:40:40Z</time>
      </trkpt>
      <trkpt lat="48.3142" lon="2.61793">
        <ele>127.99255</ele>
        <time>2009-02-01T09:40:46Z</time>
      </trkpt>
      <trkpt lat="48.31379" lon="2.61752">
        <ele>127.99255</ele>
        <time>2009-02-01T09:40:54Z</time>
      </trkpt>
      <trkpt lat="48.31345" lon="2.61717">
        <ele>129.91528</ele>
        <time>2009-02-01T09:41:02Z</time>
      </trkpt>
      <trkpt lat="48.31311" lon="2.61683">
        <ele>127.99255</ele>
        <time>2009-02-01T09:41:10Z</time>
      </trkpt>
      <trkpt lat="48.31285" lon="2.61666">
        <ele>125.58935</ele>
        <time>2009-02-01T09:41:15Z</time>
      </trkpt>
      <trkpt lat="48.31257" lon="2.6165">
        <ele>124.62805</ele>
        <time>2009-02-01T09:41:20Z</time>
      </trkpt>
      <trkpt lat="48.31243" lon="2.61644">
        <ele>124.14733</ele>
        <time>2009-02-01T09:41:23Z</time>
      </trkpt>
      <trkpt lat="48.3123" lon="2.6165">
        <ele>122.70544</ele>
        <time>2009-02-01T09:41:27Z</time>
      </trkpt>
      <trkpt lat="48.31222" lon="2.61657">
        <ele>121.26354</ele>
        <time>2009-02-01T09:41:29Z</time>
      </trkpt>
      <trkpt lat="48.31213" lon="2.61684">
        <ele>118.37939</ele>
        <time>2009-02-01T09:41:33Z</time>
      </trkpt>
      <trkpt lat="48.31213" lon="2.617">
        <ele>115.97619</ele>
        <time>2009-02-01T09:41:35Z</time>
      </trkpt>
      <trkpt lat="48.31216" lon="2.61726">
        <ele>113.57299</ele>
        <time>2009-02-01T09:41:38Z</time>
      </trkpt>
      <trkpt lat="48.31213" lon="2.61768">
        <ele>108.28564</ele>
        <time>2009-02-01T09:41:42Z</time>
      </trkpt>
      <trkpt lat="48.31204" lon="2.61797">
        <ele>105.88244</ele>
        <time>2009-02-01T09:41:45Z</time>
      </trkpt>
      <trkpt lat="48.31188" lon="2.61839">
        <ele>102.0371</ele>
        <time>2009-02-01T09:41:49Z</time>
      </trkpt>
      <trkpt lat="48.31177" lon="2.61878">
        <ele>100.59509</ele>
        <time>2009-02-01T09:41:52Z</time>
      </trkpt>
      <trkpt lat="48.31177" lon="2.61927">
        <ele>96.749877</ele>
        <time>2009-02-01T09:41:56Z</time>
      </trkpt>
      <trkpt lat="48.31194" lon="2.61988">
        <ele>95.307739</ele>
        <time>2009-02-01T09:42:01Z</time>
      </trkpt>
      <trkpt lat="48.31207" lon="2.62031">
        <ele>94.346557</ele>
        <time>2009-02-01T09:42:05Z</time>
      </trkpt>
      <trkpt lat="48.31214" lon="2.62092">
        <ele>92.904541</ele>
        <time>2009-02-01T09:42:10Z</time>
      </trkpt>
      <trkpt lat="48.31201" lon="2.62181">
        <ele>90.020629</ele>
        <time>2009-02-01T09:42:17Z</time>
      </trkpt>
      <trkpt lat="48.31178" lon="2.62218">
        <ele>88.098022</ele>
        <time>2009-02-01T09:42:21Z</time>
      </trkpt>
      <trkpt lat="48.31142" lon="2.62285">
        <ele>85.213989</ele>
        <time>2009-02-01T09:42:28Z</time>
      </trkpt>
      <trkpt lat="48.31134" lon="2.62303">
        <ele>84.733398</ele>
        <time>2009-02-01T09:42:30Z</time>
      </trkpt>
      <trkpt lat="48.3112" lon="2.62326">
        <ele>83.291381</ele>
        <time>2009-02-01T09:42:33Z</time>
      </trkpt>
      <trkpt lat="48.31101" lon="2.62382">
        <ele>83.771972</ele>
        <time>2009-02-01T09:42:39Z</time>
      </trkpt>
      <trkpt lat="48.31088" lon="2.62427">
        <ele>83.771972</ele>
        <time>2009-02-01T09:42:44Z</time>
      </trkpt>
      <trkpt lat="48.31083" lon="2.62477">
        <ele>82.330078</ele>
        <time>2009-02-01T09:42:50Z</time>
      </trkpt>
      <trkpt lat="48.31077" lon="2.62492">
        <ele>82.330078</ele>
        <time>2009-02-01T09:42:53Z</time>
      </trkpt>
      <trkpt lat="48.31066" lon="2.62488">
        <ele>82.330078</ele>
        <time>2009-02-01T09:42:56Z</time>
      </trkpt>
      <trkpt lat="48.31049" lon="2.62467">
        <ele>83.291381</ele>
        <time>2009-02-01T09:43:01Z</time>
      </trkpt>
      <trkpt lat="48.31039" lon="2.62434">
        <ele>83.771972</ele>
        <time>2009-02-01T09:43:07Z</time>
      </trkpt>
      <trkpt lat="48.31038" lon="2.62415">
        <ele>83.771972</ele>
        <time>2009-02-01T09:43:11Z</time>
      </trkpt>
      <trkpt lat="48.31035" lon="2.62385">
        <ele>84.733398</ele>
        <time>2009-02-01T09:43:17Z</time>
      </trkpt>
      <trkpt lat="48.31031" lon="2.62359">
        <ele>85.69458</ele>
        <time>2009-02-01T09:43:22Z</time>
      </trkpt>
      <trkpt lat="48.31026" lon="2.62339">
        <ele>86.175293</ele>
        <time>2009-02-01T09:43:26Z</time>
      </trkpt>
      <trkpt lat="48.31015" lon="2.62307">
        <ele>88.098022</ele>
        <time>2009-02-01T09:43:33Z</time>
      </trkpt>
      <trkpt lat="48.31007" lon="2.62282">
        <ele>89.539917</ele>
        <time>2009-02-01T09:43:38Z</time>
      </trkpt>
      <trkpt lat="48.31001" lon="2.62259">
        <ele>90.501342</ele>
        <time>2009-02-01T09:43:43Z</time>
      </trkpt>
      <trkpt lat="48.30995" lon="2.62237">
        <ele>89.539917</ele>
        <time>2009-02-01T09:43:48Z</time>
      </trkpt>
      <trkpt lat="48.30988" lon="2.62213">
        <ele>90.981933</ele>
        <time>2009-02-01T09:43:53Z</time>
      </trkpt>
      <trkpt lat="48.30981" lon="2.62193">
        <ele>92.42395</ele>
        <time>2009-02-01T09:43:58Z</time>
      </trkpt>
      <trkpt lat="48.30973" lon="2.62173">
        <ele>93.865844</ele>
        <time>2009-02-01T09:44:03Z</time>
      </trkpt>
      <trkpt lat="48.30968" lon="2.62157">
        <ele>94.346557</ele>
        <time>2009-02-01T09:44:07Z</time>
      </trkpt>
      <trkpt lat="48.30964" lon="2.6214">
        <ele>94.827148</ele>
        <time>2009-02-01T09:44:12Z</time>
      </trkpt>
      <trkpt lat="48.30962" lon="2.6213">
        <ele>97.230468</ele>
        <time>2009-02-01T09:44:15Z</time>
      </trkpt>
      <trkpt lat="48.30959" lon="2.62115">
        <ele>97.711181</ele>
        <time>2009-02-01T09:44:20Z</time>
      </trkpt>
      <trkpt lat="48.30958" lon="2.62099">
        <ele>98.672485</ele>
        <time>2009-02-01T09:44:25Z</time>
      </trkpt>
      <trkpt lat="48.30949" lon="2.62091">
        <ele>100.1145</ele>
        <time>2009-02-01T09:44:32Z</time>
      </trkpt>
      <trkpt lat="48.30941" lon="2.62093">
        <ele>101.07568</ele>
        <time>2009-02-01T09:44:38Z</time>
      </trkpt>
      <trkpt lat="48.30931" lon="2.62091">
        <ele>102.0371</ele>
        <time>2009-02-01T09:44:44Z</time>
      </trkpt>
      <trkpt lat="48.30921" lon="2.62085">
        <ele>102.0371</ele>
        <time>2009-02-01T09:44:49Z</time>
      </trkpt>
      <trkpt lat="48.3091" lon="2.62065">
        <ele>102.99829</ele>
        <time>2009-02-01T09:44:55Z</time>
      </trkpt>
      <trkpt lat="48.30905" lon="2.62041">
        <ele>103.479</ele>
        <time>2009-02-01T09:45:01Z</time>
      </trkpt>
      <trkpt lat="48.309" lon="2.62017">
        <ele>104.44042</ele>
        <time>2009-02-01T09:45:08Z</time>
      </trkpt>
      <trkpt lat="48.30895" lon="2.62">
        <ele>105.40173</ele>
        <time>2009-02-01T09:45:14Z</time>
      </trkpt>
      <trkpt lat="48.30894" lon="2.61982">
        <ele>106.36303</ele>
        <time>2009-02-01T09:45:21Z</time>
      </trkpt>
      <trkpt lat="48.30892" lon="2.61964">
        <ele>107.80505</ele>
        <time>2009-02-01T09:45:28Z</time>
      </trkpt>
      <trkpt lat="48.30886" lon="2.61947">
        <ele>108.76623</ele>
        <time>2009-02-01T09:45:34Z</time>
      </trkpt>
      <trkpt lat="48.30881" lon="2.6193">
        <ele>110.20825</ele>
        <time>2009-02-01T09:45:41Z</time>
      </trkpt>
      <trkpt lat="48.30877" lon="2.61914">
        <ele>113.57299</ele>
        <time>2009-02-01T09:45:48Z</time>
      </trkpt>
      <trkpt lat="48.30875" lon="2.61897">
        <ele>114.53417</ele>
        <time>2009-02-01T09:45:55Z</time>
      </trkpt>
      <trkpt lat="48.30871" lon="2.61884">
        <ele>115.97619</ele>
        <time>2009-02-01T09:46:01Z</time>
      </trkpt>
      <trkpt lat="48.30867" lon="2.61873">
        <ele>115.97619</ele>
        <time>2009-02-01T09:46:06Z</time>
      </trkpt>
      <trkpt lat="48.3086" lon="2.61857">
        <ele>115.97619</ele>
        <time>2009-02-01T09:46:12Z</time>
      </trkpt>
      <trkpt lat="48.30859" lon="2.61852">
        <ele>116.45678</ele>
        <time>2009-02-01T09:46:16Z</time>
      </trkpt>
      <trkpt lat="48.30857" lon="2.61843">
        <ele>116.9375</ele>
        <time>2009-02-01T09:46:20Z</time>
      </trkpt>
      <trkpt lat="48.30846" lon="2.61827">
        <ele>119.34082</ele>
        <time>2009-02-01T09:46:28Z</time>
      </trkpt>
      <trkpt lat="48.30841" lon="2.61817">
        <ele>120.78283</ele>
        <time>2009-02-01T09:46:32Z</time>
      </trkpt>
      <trkpt lat="48.30839" lon="2.6181">
        <ele>121.26354</ele>
        <time>2009-02-01T09:46:35Z</time>
      </trkpt>
      <trkpt lat="48.30833" lon="2.61793">
        <ele>122.22473</ele>
        <time>2009-02-01T09:46:41Z</time>
      </trkpt>
      <trkpt lat="48.30826" lon="2.61774">
        <ele>122.22473</ele>
        <time>2009-02-01T09:46:45Z</time>
      </trkpt>
      <trkpt lat="48.30816" lon="2.61758">
        <ele>122.70544</ele>
        <time>2009-02-01T09:46:50Z</time>
      </trkpt>
      <trkpt lat="48.30805" lon="2.6174">
        <ele>122.70544</ele>
        <time>2009-02-01T09:46:55Z</time>
      </trkpt>
      <trkpt lat="48.308" lon="2.61713">
        <ele>122.70544</ele>
        <time>2009-02-01T09:47:00Z</time>
      </trkpt>
      <trkpt lat="48.30797" lon="2.61686">
        <ele>122.70544</ele>
        <time>2009-02-01T09:47:05Z</time>
      </trkpt>
      <trkpt lat="48.30794" lon="2.61656">
        <ele>122.70544</ele>
        <time>2009-02-01T09:47:10Z</time>
      </trkpt>
      <trkpt lat="48.30794" lon="2.61628">
        <ele>122.70544</ele>
        <time>2009-02-01T09:47:15Z</time>
      </trkpt>
      <trkpt lat="48.30795" lon="2.61594">
        <ele>122.70544</ele>
        <time>2009-02-01T09:47:21Z</time>
      </trkpt>
      <trkpt lat="48.30805" lon="2.61582">
        <ele>121.74414</ele>
        <time>2009-02-01T09:47:25Z</time>
      </trkpt>
      <trkpt lat="48.30827" lon="2.61571">
        <ele>122.70544</ele>
        <time>2009-02-01T09:47:31Z</time>
      </trkpt>
      <trkpt lat="48.30843" lon="2.61568">
        <ele>122.70544</ele>
        <time>2009-02-01T09:47:35Z</time>
      </trkpt>
      <trkpt lat="48.30868" lon="2.61571">
        <ele>123.18615</ele>
        <time>2009-02-01T09:47:40Z</time>
      </trkpt>
      <trkpt lat="48.30878" lon="2.61575">
        <ele>124.62805</ele>
        <time>2009-02-01T09:47:43Z</time>
      </trkpt>
      <trkpt lat="48.30894" lon="2.61574">
        <ele>125.58935</ele>
        <time>2009-02-01T09:47:48Z</time>
      </trkpt>
      <trkpt lat="48.30916" lon="2.61569">
        <ele>125.10876</ele>
        <time>2009-02-01T09:47:54Z</time>
      </trkpt>
      <trkpt lat="48.30935" lon="2.61564">
        <ele>126.06994</ele>
        <time>2009-02-01T09:47:59Z</time>
      </trkpt>
      <trkpt lat="48.30956" lon="2.61562">
        <ele>126.55065</ele>
        <time>2009-02-01T09:48:04Z</time>
      </trkpt>
      <trkpt lat="48.30975" lon="2.61565">
        <ele>126.55065</ele>
        <time>2009-02-01T09:48:09Z</time>
      </trkpt>
      <trkpt lat="48.30998" lon="2.61571">
        <ele>127.03137</ele>
        <time>2009-02-01T09:48:15Z</time>
      </trkpt>
      <trkpt lat="48.31009" lon="2.61578">
        <ele>127.03137</ele>
        <time>2009-02-01T09:48:19Z</time>
      </trkpt>
      <trkpt lat="48.31024" lon="2.61587">
        <ele>127.03137</ele>
        <time>2009-02-01T09:48:24Z</time>
      </trkpt>
      <trkpt lat="48.31036" lon="2.61595">
        <ele>125.58935</ele>
        <time>2009-02-01T09:48:29Z</time>
      </trkpt>
      <trkpt lat="48.31044" lon="2.61594">
        <ele>126.06994</ele>
        <time>2009-02-01T09:48:35Z</time>
      </trkpt>
      <trkpt lat="48.31046" lon="2.61594">
        <ele>125.58935</ele>
        <time>2009-02-01T09:48:38Z</time>
      </trkpt>
      <trkpt lat="48.31048" lon="2.61595">
        <ele>127.03137</ele>
        <time>2009-02-01T09:48:39Z</time>
      </trkpt>
      <trkpt lat="48.31051" lon="2.61595">
        <ele>127.03137</ele>
        <time>2009-02-01T09:48:48Z</time>
      </trkpt>
      <trkpt lat="48.31052" lon="2.61594">
        <ele>127.03137</ele>
        <time>2009-02-01T09:48:49Z</time>
      </trkpt>
      <trkpt lat="48.31053" lon="2.61592">
        <ele>126.55065</ele>
        <time>2009-02-01T09:48:52Z</time>
      </trkpt>
      <trkpt lat="48.31054" lon="2.61591">
        <ele>125.10876</ele>
        <time>2009-02-01T09:48:56Z</time>
      </trkpt>
      <trkpt lat="48.31057" lon="2.61577">
        <ele>125.10876</ele>
        <time>2009-02-01T09:49:01Z</time>
      </trkpt>
      <trkpt lat="48.31058" lon="2.6157">
        <ele>125.10876</ele>
        <time>2009-02-01T09:49:03Z</time>
      </trkpt>
      <trkpt lat="48.3106" lon="2.61542">
        <ele>124.14733</ele>
        <time>2009-02-01T09:49:08Z</time>
      </trkpt>
      <trkpt lat="48.31053" lon="2.61511">
        <ele>123.18615</ele>
        <time>2009-02-01T09:49:13Z</time>
      </trkpt>
      <trkpt lat="48.31045" lon="2.61496">
        <ele>121.74414</ele>
        <time>2009-02-01T09:49:15Z</time>
      </trkpt>
      <trkpt lat="48.31021" lon="2.61465">
        <ele>117.8988</ele>
        <time>2009-02-01T09:49:19Z</time>
      </trkpt>
      <trkpt lat="48.31002" lon="2.61439">
        <ele>115.01489</ele>
        <time>2009-02-01T09:49:22Z</time>
      </trkpt>
      <trkpt lat="48.3099" lon="2.61421">
        <ele>113.09228</ele>
        <time>2009-02-01T09:49:24Z</time>
      </trkpt>
      <trkpt lat="48.30975" lon="2.61395">
        <ele>110.68884</ele>
        <time>2009-02-01T09:49:28Z</time>
      </trkpt>
      <trkpt lat="48.30971" lon="2.61384">
        <ele>108.28564</ele>
        <time>2009-02-01T09:49:31Z</time>
      </trkpt>
      <trkpt lat="48.30967" lon="2.61371">
        <ele>104.44042</ele>
        <time>2009-02-01T09:49:35Z</time>
      </trkpt>
      <trkpt lat="48.30965" lon="2.61366">
        <ele>103.95971</ele>
        <time>2009-02-01T09:49:36Z</time>
      </trkpt>
      <trkpt lat="48.30962" lon="2.61361">
        <ele>103.479</ele>
        <time>2009-02-01T09:49:37Z</time>
      </trkpt>
      <trkpt lat="48.3095" lon="2.61342">
        <ele>99.633789</ele>
        <time>2009-02-01T09:49:42Z</time>
      </trkpt>
      <trkpt lat="48.30941" lon="2.61325">
        <ele>100.1145</ele>
        <time>2009-02-01T09:49:46Z</time>
      </trkpt>
      <trkpt lat="48.30933" lon="2.61325">
        <ele>99.153076</ele>
        <time>2009-02-01T09:49:48Z</time>
      </trkpt>
      <trkpt lat="48.30913" lon="2.61332">
        <ele>98.672485</ele>
        <time>2009-02-01T09:49:52Z</time>
      </trkpt>
      <trkpt lat="48.30895" lon="2.61332">
        <ele>97.230468</ele>
        <time>2009-02-01T09:49:55Z</time>
      </trkpt>
      <trkpt lat="48.30872" lon="2.61328">
        <ele>94.827148</ele>
        <time>2009-02-01T09:49:59Z</time>
      </trkpt>
      <trkpt lat="48.30861" lon="2.61327">
        <ele>93.865844</ele>
        <time>2009-02-01T09:50:01Z</time>
      </trkpt>
      <trkpt lat="48.30844" lon="2.61312">
        <ele>93.385131</ele>
        <time>2009-02-01T09:50:05Z</time>
      </trkpt>
      <trkpt lat="48.3083" lon="2.6129">
        <ele>92.42395</ele>
        <time>2009-02-01T09:50:08Z</time>
      </trkpt>
      <trkpt lat="48.30801" lon="2.61246">
        <ele>90.981933</ele>
        <time>2009-02-01T09:50:14Z</time>
      </trkpt>
      <trkpt lat="48.30779" lon="2.6122">
        <ele>90.501342</ele>
        <time>2009-02-01T09:50:18Z</time>
      </trkpt>
      <trkpt lat="48.30756" lon="2.61215">
        <ele>90.020629</ele>
        <time>2009-02-01T09:50:22Z</time>
      </trkpt>
      <trkpt lat="48.30749" lon="2.61216">
        <ele>89.539917</ele>
        <time>2009-02-01T09:50:23Z</time>
      </trkpt>
      <trkpt lat="48.30726" lon="2.61215">
        <ele>87.617187</ele>
        <time>2009-02-01T09:50:26Z</time>
      </trkpt>
      <trkpt lat="48.30696" lon="2.61202">
        <ele>85.69458</ele>
        <time>2009-02-01T09:50:31Z</time>
      </trkpt>
      <trkpt lat="48.30679" lon="2.61207">
        <ele>83.771972</ele>
        <time>2009-02-01T09:50:34Z</time>
      </trkpt>
      <trkpt lat="48.30673" lon="2.61202">
        <ele>82.810791</ele>
        <time>2009-02-01T09:50:35Z</time>
      </trkpt>
      <trkpt lat="48.30634" lon="2.61183">
        <ele>81.849365</ele>
        <time>2009-02-01T09:50:40Z</time>
      </trkpt>
      <trkpt lat="48.3061" lon="2.61179">
        <ele>79.926635</ele>
        <time>2009-02-01T09:50:43Z</time>
      </trkpt>
      <trkpt lat="48.30582" lon="2.61188">
        <ele>78.965454</ele>
        <time>2009-02-01T09:50:47Z</time>
      </trkpt>
      <trkpt lat="48.30574" lon="2.61208">
        <ele>78.484741</ele>
        <time>2009-02-01T09:50:49Z</time>
      </trkpt>
      <trkpt lat="48.30553" lon="2.61228">
        <ele>78.484741</ele>
        <time>2009-02-01T09:50:54Z</time>
      </trkpt>
      <trkpt lat="48.30547" lon="2.61226">
        <ele>78.484741</ele>
        <time>2009-02-01T09:50:55Z</time>
      </trkpt>
      <trkpt lat="48.30511" lon="2.61216">
        <ele>78.004028</ele>
        <time>2009-02-01T09:51:00Z</time>
      </trkpt>
      <trkpt lat="48.30477" lon="2.61211">
        <ele>77.523437</ele>
        <time>2009-02-01T09:51:05Z</time>
      </trkpt>
      <trkpt lat="48.3046" lon="2.61194">
        <ele>77.042846</ele>
        <time>2009-02-01T09:51:09Z</time>
      </trkpt>
      <trkpt lat="48.30469" lon="2.61173">
        <ele>77.042846</ele>
        <time>2009-02-01T09:51:14Z</time>
      </trkpt>
      <trkpt lat="48.30477" lon="2.61161">
        <ele>78.484741</ele>
        <time>2009-02-01T09:51:17Z</time>
      </trkpt>
      <trkpt lat="48.30479" lon="2.61158">
        <ele>78.484741</ele>
        <time>2009-02-01T09:51:18Z</time>
      </trkpt>
      <trkpt lat="48.30491" lon="2.61141">
        <ele>79.446044</ele>
        <time>2009-02-01T09:51:25Z</time>
      </trkpt>
      <trkpt lat="48.30502" lon="2.61124">
        <ele>80.40747</ele>
        <time>2009-02-01T09:51:33Z</time>
      </trkpt>
      <trkpt lat="48.3051" lon="2.61111">
        <ele>83.291381</ele>
        <time>2009-02-01T09:51:39Z</time>
      </trkpt>
      <trkpt lat="48.30512" lon="2.6111">
        <ele>82.810791</ele>
        <time>2009-02-01T09:51:40Z</time>
      </trkpt>
      <trkpt lat="48.3052" lon="2.61099">
        <ele>85.213989</ele>
        <time>2009-02-01T09:51:47Z</time>
      </trkpt>
      <trkpt lat="48.30521" lon="2.61097">
        <ele>85.213989</ele>
        <time>2009-02-01T09:51:48Z</time>
      </trkpt>
      <trkpt lat="48.30531" lon="2.61078">
        <ele>87.617187</ele>
        <time>2009-02-01T09:51:58Z</time>
      </trkpt>
      <trkpt lat="48.30543" lon="2.6106">
        <ele>90.501342</ele>
        <time>2009-02-01T09:52:08Z</time>
      </trkpt>
      <trkpt lat="48.30553" lon="2.61042">
        <ele>92.42395</ele>
        <time>2009-02-01T09:52:16Z</time>
      </trkpt>
      <trkpt lat="48.30555" lon="2.61038">
        <ele>93.385131</ele>
        <time>2009-02-01T09:52:18Z</time>
      </trkpt>
      <trkpt lat="48.30561" lon="2.61023">
        <ele>94.346557</ele>
        <time>2009-02-01T09:52:25Z</time>
      </trkpt>
      <trkpt lat="48.30566" lon="2.61011">
        <ele>95.788452</ele>
        <time>2009-02-01T09:52:31Z</time>
      </trkpt>
      <trkpt lat="48.3057" lon="2.60997">
        <ele>96.749877</ele>
        <time>2009-02-01T09:52:37Z</time>
      </trkpt>
      <trkpt lat="48.30573" lon="2.60983">
        <ele>97.711181</ele>
        <time>2009-02-01T09:52:42Z</time>
      </trkpt>
      <trkpt lat="48.30576" lon="2.60967">
        <ele>99.633789</ele>
        <time>2009-02-01T09:52:48Z</time>
      </trkpt>
      <trkpt lat="48.30577" lon="2.60958">
        <ele>99.633789</ele>
        <time>2009-02-01T09:52:51Z</time>
      </trkpt>
      <trkpt lat="48.30579" lon="2.60941">
        <ele>101.07568</ele>
        <time>2009-02-01T09:52:58Z</time>
      </trkpt>
      <trkpt lat="48.30581" lon="2.60927">
        <ele>102.0371</ele>
        <time>2009-02-01T09:53:05Z</time>
      </trkpt>
      <trkpt lat="48.30581" lon="2.60924">
        <ele>102.0371</ele>
        <time>2009-02-01T09:53:06Z</time>
      </trkpt>
      <trkpt lat="48.30579" lon="2.60907">
        <ele>104.44042</ele>
        <time>2009-02-01T09:53:13Z</time>
      </trkpt>
      <trkpt lat="48.30579" lon="2.60892">
        <ele>105.88244</ele>
        <time>2009-02-01T09:53:20Z</time>
      </trkpt>
      <trkpt lat="48.3058" lon="2.6088">
        <ele>107.32434</ele>
        <time>2009-02-01T09:53:26Z</time>
      </trkpt>
      <trkpt lat="48.30581" lon="2.60867">
        <ele>106.84362</ele>
        <time>2009-02-01T09:53:32Z</time>
      </trkpt>
      <trkpt lat="48.3058" lon="2.60852">
        <ele>107.80505</ele>
        <time>2009-02-01T09:53:38Z</time>
      </trkpt>
      <trkpt lat="48.30578" lon="2.60838">
        <ele>108.28564</ele>
        <time>2009-02-01T09:53:43Z</time>
      </trkpt>
      <trkpt lat="48.3058" lon="2.60824">
        <ele>109.24694</ele>
        <time>2009-02-01T09:53:47Z</time>
      </trkpt>
      <trkpt lat="48.30595" lon="2.6081">
        <ele>111.65026</ele>
        <time>2009-02-01T09:53:56Z</time>
      </trkpt>
      <trkpt lat="48.30608" lon="2.60803">
        <ele>111.65026</ele>
        <time>2009-02-01T09:54:02Z</time>
      </trkpt>
      <trkpt lat="48.30621" lon="2.60799">
        <ele>111.65026</ele>
        <time>2009-02-01T09:54:07Z</time>
      </trkpt>
      <trkpt lat="48.30637" lon="2.6079">
        <ele>113.57299</ele>
        <time>2009-02-01T09:54:15Z</time>
      </trkpt>
      <trkpt lat="48.30645" lon="2.60785">
        <ele>114.05358</ele>
        <time>2009-02-01T09:54:20Z</time>
      </trkpt>
      <trkpt lat="48.30659" lon="2.6078">
        <ele>114.53417</ele>
        <time>2009-02-01T09:54:25Z</time>
      </trkpt>
      <trkpt lat="48.30667" lon="2.60777">
        <ele>115.97619</ele>
        <time>2009-02-01T09:54:29Z</time>
      </trkpt>
      <trkpt lat="48.30674" lon="2.60772">
        <ele>117.41821</ele>
        <time>2009-02-01T09:54:34Z</time>
      </trkpt>
      <trkpt lat="48.30682" lon="2.60764">
        <ele>118.8601</ele>
        <time>2009-02-01T09:54:40Z</time>
      </trkpt>
      <trkpt lat="48.30691" lon="2.60758">
        <ele>120.30212</ele>
        <time>2009-02-01T09:54:46Z</time>
      </trkpt>
      <trkpt lat="48.30699" lon="2.60749">
        <ele>121.26354</ele>
        <time>2009-02-01T09:54:52Z</time>
      </trkpt>
      <trkpt lat="48.30702" lon="2.60741">
        <ele>121.26354</ele>
        <time>2009-02-01T09:54:55Z</time>
      </trkpt>
      <trkpt lat="48.30701" lon="2.60716">
        <ele>121.26354</ele>
        <time>2009-02-01T09:55:01Z</time>
      </trkpt>
      <trkpt lat="48.307" lon="2.60699">
        <ele>121.26354</ele>
        <time>2009-02-01T09:55:06Z</time>
      </trkpt>
      <trkpt lat="48.30698" lon="2.60679">
        <ele>122.70544</ele>
        <time>2009-02-01T09:55:11Z</time>
      </trkpt>
      <trkpt lat="48.30697" lon="2.60656">
        <ele>123.66674</ele>
        <time>2009-02-01T09:55:17Z</time>
      </trkpt>
      <trkpt lat="48.30698" lon="2.60637">
        <ele>124.62805</ele>
        <time>2009-02-01T09:55:23Z</time>
      </trkpt>
      <trkpt lat="48.307" lon="2.60628">
        <ele>125.10876</ele>
        <time>2009-02-01T09:55:27Z</time>
      </trkpt>
      <trkpt lat="48.3071" lon="2.60619">
        <ele>125.58935</ele>
        <time>2009-02-01T09:55:32Z</time>
      </trkpt>
      <trkpt lat="48.3073" lon="2.60604">
        <ele>126.06994</ele>
        <time>2009-02-01T09:55:40Z</time>
      </trkpt>
      <trkpt lat="48.30743" lon="2.60593">
        <ele>126.55065</ele>
        <time>2009-02-01T09:55:46Z</time>
      </trkpt>
      <trkpt lat="48.30761" lon="2.60586">
        <ele>128.9541</ele>
        <time>2009-02-01T09:55:53Z</time>
      </trkpt>
      <trkpt lat="48.30778" lon="2.60577">
        <ele>128.47338</ele>
        <time>2009-02-01T09:55:59Z</time>
      </trkpt>
      <trkpt lat="48.30798" lon="2.60562">
        <ele>127.51196</ele>
        <time>2009-02-01T09:56:05Z</time>
      </trkpt>
      <trkpt lat="48.30811" lon="2.60548">
        <ele>127.51196</ele>
        <time>2009-02-01T09:56:09Z</time>
      </trkpt>
      <trkpt lat="48.30819" lon="2.60539">
        <ele>127.51196</ele>
        <time>2009-02-01T09:56:12Z</time>
      </trkpt>
      <trkpt lat="48.30818" lon="2.60524">
        <ele>128.47338</ele>
        <time>2009-02-01T09:56:16Z</time>
      </trkpt>
      <trkpt lat="48.30813" lon="2.60513">
        <ele>127.99255</ele>
        <time>2009-02-01T09:56:19Z</time>
      </trkpt>
      <trkpt lat="48.30806" lon="2.60491">
        <ele>126.55065</ele>
        <time>2009-02-01T09:56:24Z</time>
      </trkpt>
      <trkpt lat="48.30788" lon="2.60468">
        <ele>125.58935</ele>
        <time>2009-02-01T09:56:29Z</time>
      </trkpt>
      <trkpt lat="48.30775" lon="2.6045">
        <ele>123.66674</ele>
        <time>2009-02-01T09:56:32Z</time>
      </trkpt>
      <trkpt lat="48.30766" lon="2.60439">
        <ele>123.18615</ele>
        <time>2009-02-01T09:56:34Z</time>
      </trkpt>
      <trkpt lat="48.30753" lon="2.60417">
        <ele>119.82141</ele>
        <time>2009-02-01T09:56:38Z</time>
      </trkpt>
      <trkpt lat="48.3074" lon="2.60386">
        <ele>115.4956</ele>
        <time>2009-02-01T09:56:42Z</time>
      </trkpt>
      <trkpt lat="48.30737" lon="2.60378">
        <ele>114.05358</ele>
        <time>2009-02-01T09:56:43Z</time>
      </trkpt>
      <trkpt lat="48.30733" lon="2.60361">
        <ele>112.13098</ele>
        <time>2009-02-01T09:56:45Z</time>
      </trkpt>
      <trkpt lat="48.30731" lon="2.60341">
        <ele>110.68884</ele>
        <time>2009-02-01T09:56:47Z</time>
      </trkpt>
      <trkpt lat="48.30726" lon="2.60287">
        <ele>106.36303</ele>
        <time>2009-02-01T09:56:52Z</time>
      </trkpt>
      <trkpt lat="48.30724" lon="2.60234">
        <ele>104.44042</ele>
        <time>2009-02-01T09:56:57Z</time>
      </trkpt>
      <trkpt lat="48.30724" lon="2.60215">
        <ele>103.479</ele>
        <time>2009-02-01T09:56:59Z</time>
      </trkpt>
      <trkpt lat="48.30712" lon="2.60174">
        <ele>102.0371</ele>
        <time>2009-02-01T09:57:04Z</time>
      </trkpt>
      <trkpt lat="48.30704" lon="2.60155">
        <ele>100.59509</ele>
        <time>2009-02-01T09:57:07Z</time>
      </trkpt>
      <trkpt lat="48.30693" lon="2.60141">
        <ele>100.1145</ele>
        <time>2009-02-01T09:57:11Z</time>
      </trkpt>
      <trkpt lat="48.30678" lon="2.60119">
        <ele>98.191894</ele>
        <time>2009-02-01T09:57:16Z</time>
      </trkpt>
      <trkpt lat="48.30666" lon="2.60103">
        <ele>96.749877</ele>
        <time>2009-02-01T09:57:21Z</time>
      </trkpt>
      <trkpt lat="48.30653" lon="2.60092">
        <ele>96.269287</ele>
        <time>2009-02-01T09:57:24Z</time>
      </trkpt>
      <trkpt lat="48.30634" lon="2.60088">
        <ele>97.711181</ele>
        <time>2009-02-01T09:57:30Z</time>
      </trkpt>
      <trkpt lat="48.30623" lon="2.60083">
        <ele>98.672485</ele>
        <time>2009-02-01T09:57:35Z</time>
      </trkpt>
      <trkpt lat="48.30611" lon="2.60075">
        <ele>101.55639</ele>
        <time>2009-02-01T09:57:42Z</time>
      </trkpt>
      <trkpt lat="48.30596" lon="2.60064">
        <ele>101.07568</ele>
        <time>2009-02-01T09:57:47Z</time>
      </trkpt>
      <trkpt lat="48.3058" lon="2.60051">
        <ele>99.633789</ele>
        <time>2009-02-01T09:57:52Z</time>
      </trkpt>
      <trkpt lat="48.30568" lon="2.60041">
        <ele>99.153076</ele>
        <time>2009-02-01T09:57:56Z</time>
      </trkpt>
      <trkpt lat="48.30554" lon="2.60033">
        <ele>99.153076</ele>
        <time>2009-02-01T09:58:01Z</time>
      </trkpt>
      <trkpt lat="48.30553" lon="2.60033">
        <ele>99.633789</ele>
        <time>2009-02-01T09:58:03Z</time>
      </trkpt>
      <trkpt lat="48.3055" lon="2.60031">
        <ele>99.153076</ele>
        <time>2009-02-01T09:58:11Z</time>
      </trkpt>
      <trkpt lat="48.30543" lon="2.60026">
        <ele>99.153076</ele>
        <time>2009-02-01T09:58:15Z</time>
      </trkpt>
      <trkpt lat="48.30535" lon="2.6003">
        <ele>97.711181</ele>
        <time>2009-02-01T09:58:18Z</time>
      </trkpt>
      <trkpt lat="48.30532" lon="2.60029">
        <ele>97.711181</ele>
        <time>2009-02-01T09:58:19Z</time>
      </trkpt>
      <trkpt lat="48.30518" lon="2.60022">
        <ele>95.788452</ele>
        <time>2009-02-01T09:58:24Z</time>
      </trkpt>
      <trkpt lat="48.30511" lon="2.60015">
        <ele>92.42395</ele>
        <time>2009-02-01T09:58:28Z</time>
      </trkpt>
      <trkpt lat="48.3051" lon="2.60013">
        <ele>91.462524</ele>
        <time>2009-02-01T09:58:29Z</time>
      </trkpt>
      <trkpt lat="48.30506" lon="2.60004">
        <ele>89.539917</ele>
        <time>2009-02-01T09:58:33Z</time>
      </trkpt>
      <trkpt lat="48.30499" lon="2.59997">
        <ele>86.175293</ele>
        <time>2009-02-01T09:58:37Z</time>
      </trkpt>
      <trkpt lat="48.3049" lon="2.59995">
        <ele>84.252685</ele>
        <time>2009-02-01T09:58:40Z</time>
      </trkpt>
      <trkpt lat="48.30484" lon="2.59989">
        <ele>83.291381</ele>
        <time>2009-02-01T09:58:42Z</time>
      </trkpt>
      <trkpt lat="48.30476" lon="2.59969">
        <ele>83.771972</ele>
        <time>2009-02-01T09:58:46Z</time>
      </trkpt>
      <trkpt lat="48.30473" lon="2.5996">
        <ele>83.771972</ele>
        <time>2009-02-01T09:58:48Z</time>
      </trkpt>
      <trkpt lat="48.30462" lon="2.5993">
        <ele>81.849365</ele>
        <time>2009-02-01T09:58:53Z</time>
      </trkpt>
      <trkpt lat="48.30459" lon="2.59919">
        <ele>82.330078</ele>
        <time>2009-02-01T09:58:56Z</time>
      </trkpt>
      <trkpt lat="48.30458" lon="2.59918">
        <ele>81.368774</ele>
        <time>2009-02-01T09:58:57Z</time>
      </trkpt>
      <trkpt lat="48.30459" lon="2.5992">
        <ele>83.771972</ele>
        <time>2009-02-01T09:59:08Z</time>
      </trkpt>
      <trkpt lat="48.3046" lon="2.5992">
        <ele>82.810791</ele>
        <time>2009-02-01T09:59:09Z</time>
      </trkpt>
      <trkpt lat="48.3046" lon="2.5992">
        <ele>83.291381</ele>
        <time>2009-02-01T09:59:10Z</time>
      </trkpt>
      <trkpt lat="48.30461" lon="2.59919">
        <ele>83.291381</ele>
        <time>2009-02-01T09:59:19Z</time>
      </trkpt>
      <trkpt lat="48.30461" lon="2.59919">
        <ele>83.771972</ele>
        <time>2009-02-01T09:59:22Z</time>
      </trkpt>
      <trkpt lat="48.30455" lon="2.59918">
        <ele>83.291381</ele>
        <time>2009-02-01T10:05:03Z</time>
      </trkpt>
      <trkpt lat="48.30455" lon="2.59918">
        <ele>83.291381</ele>
        <time>2009-02-01T10:05:04Z</time>
      </trkpt>
      <trkpt lat="48.30457" lon="2.59915">
        <ele>84.252685</ele>
        <time>2009-02-01T10:05:08Z</time>
      </trkpt>
      <trkpt lat="48.30459" lon="2.59915">
        <ele>84.252685</ele>
        <time>2009-02-01T10:05:11Z</time>
      </trkpt>
      <trkpt lat="48.30462" lon="2.59914">
        <ele>83.771972</ele>
        <time>2009-02-01T10:05:19Z</time>
      </trkpt>
      <trkpt lat="48.30465" lon="2.59912">
        <ele>84.252685</ele>
        <time>2009-02-01T10:05:21Z</time>
      </trkpt>
      <trkpt lat="48.30474" lon="2.59908">
        <ele>83.291381</ele>
        <time>2009-02-01T10:05:25Z</time>
      </trkpt>
      <trkpt lat="48.30495" lon="2.59901">
        <ele>84.733398</ele>
        <time>2009-02-01T10:05:32Z</time>
      </trkpt>
      <trkpt lat="48.30513" lon="2.59894">
        <ele>86.175293</ele>
        <time>2009-02-01T10:05:38Z</time>
      </trkpt>
      <trkpt lat="48.30522" lon="2.59884">
        <ele>85.69458</ele>
        <time>2009-02-01T10:05:42Z</time>
      </trkpt>
      <trkpt lat="48.30542" lon="2.59869">
        <ele>86.656005</ele>
        <time>2009-02-01T10:05:49Z</time>
      </trkpt>
      <trkpt lat="48.30554" lon="2.5986">
        <ele>87.136596</ele>
        <time>2009-02-01T10:05:54Z</time>
      </trkpt>
      <trkpt lat="48.30563" lon="2.5985">
        <ele>88.098022</ele>
        <time>2009-02-01T10:05:59Z</time>
      </trkpt>
      <trkpt lat="48.30569" lon="2.59837">
        <ele>89.539917</ele>
        <time>2009-02-01T10:06:04Z</time>
      </trkpt>
      <trkpt lat="48.30573" lon="2.59818">
        <ele>90.501342</ele>
        <time>2009-02-01T10:06:10Z</time>
      </trkpt>
      <trkpt lat="48.30579" lon="2.59799">
        <ele>91.943237</ele>
        <time>2009-02-01T10:06:16Z</time>
      </trkpt>
      <trkpt lat="48.30582" lon="2.59786">
        <ele>92.42395</ele>
        <time>2009-02-01T10:06:22Z</time>
      </trkpt>
      <trkpt lat="48.30583" lon="2.59782">
        <ele>92.904541</ele>
        <time>2009-02-01T10:06:23Z</time>
      </trkpt>
      <trkpt lat="48.30588" lon="2.59765">
        <ele>94.346557</ele>
        <time>2009-02-01T10:06:30Z</time>
      </trkpt>
      <trkpt lat="48.3059" lon="2.5975">
        <ele>95.788452</ele>
        <time>2009-02-01T10:06:35Z</time>
      </trkpt>
      <trkpt lat="48.30593" lon="2.59738">
        <ele>95.788452</ele>
        <time>2009-02-01T10:06:40Z</time>
      </trkpt>
      <trkpt lat="48.30595" lon="2.59715">
        <ele>96.269287</ele>
        <time>2009-02-01T10:06:48Z</time>
      </trkpt>
      <trkpt lat="48.30597" lon="2.59692">
        <ele>98.191894</ele>
        <time>2009-02-01T10:06:56Z</time>
      </trkpt>
      <trkpt lat="48.30601" lon="2.59673">
        <ele>100.1145</ele>
        <time>2009-02-01T10:07:03Z</time>
      </trkpt>
      <trkpt lat="48.30604" lon="2.59659">
        <ele>101.55639</ele>
        <time>2009-02-01T10:07:08Z</time>
      </trkpt>
      <trkpt lat="48.30605" lon="2.59641">
        <ele>102.99829</ele>
        <time>2009-02-01T10:07:15Z</time>
      </trkpt>
      <trkpt lat="48.30608" lon="2.59622">
        <ele>104.44042</ele>
        <time>2009-02-01T10:07:22Z</time>
      </trkpt>
      <trkpt lat="48.30614" lon="2.59603">
        <ele>106.36303</ele>
        <time>2009-02-01T10:07:29Z</time>
      </trkpt>
      <trkpt lat="48.30625" lon="2.59596">
        <ele>106.36303</ele>
        <time>2009-02-01T10:07:35Z</time>
      </trkpt>
      <trkpt lat="48.30633" lon="2.59586">
        <ele>107.80505</ele>
        <time>2009-02-01T10:07:41Z</time>
      </trkpt>
      <trkpt lat="48.30638" lon="2.59568">
        <ele>108.28564</ele>
        <time>2009-02-01T10:07:48Z</time>
      </trkpt>
      <trkpt lat="48.30643" lon="2.59546">
        <ele>111.65026</ele>
        <time>2009-02-01T10:07:57Z</time>
      </trkpt>
      <trkpt lat="48.30647" lon="2.5953">
        <ele>112.61157</ele>
        <time>2009-02-01T10:08:04Z</time>
      </trkpt>
      <trkpt lat="48.30648" lon="2.59526">
        <ele>112.61157</ele>
        <time>2009-02-01T10:08:06Z</time>
      </trkpt>
      <trkpt lat="48.30653" lon="2.59513">
        <ele>113.09228</ele>
        <time>2009-02-01T10:08:13Z</time>
      </trkpt>
      <trkpt lat="48.30658" lon="2.59497">
        <ele>114.05358</ele>
        <time>2009-02-01T10:08:20Z</time>
      </trkpt>
      <trkpt lat="48.30663" lon="2.59479">
        <ele>115.4956</ele>
        <time>2009-02-01T10:08:28Z</time>
      </trkpt>
      <trkpt lat="48.30668" lon="2.59468">
        <ele>117.8988</ele>
        <time>2009-02-01T10:08:33Z</time>
      </trkpt>
      <trkpt lat="48.30669" lon="2.59466">
        <ele>118.8601</ele>
        <time>2009-02-01T10:08:34Z</time>
      </trkpt>
      <trkpt lat="48.30674" lon="2.59456">
        <ele>120.78283</ele>
        <time>2009-02-01T10:08:40Z</time>
      </trkpt>
      <trkpt lat="48.30683" lon="2.59445">
        <ele>122.22473</ele>
        <time>2009-02-01T10:08:49Z</time>
      </trkpt>
      <trkpt lat="48.30683" lon="2.59445">
        <ele>121.74414</ele>
        <time>2009-02-01T10:08:50Z</time>
      </trkpt>
      <trkpt lat="48.30684" lon="2.59444">
        <ele>121.74414</ele>
        <time>2009-02-01T10:08:53Z</time>
      </trkpt>
      <trkpt lat="48.30684" lon="2.59439">
        <ele>122.22473</ele>
        <time>2009-02-01T10:08:55Z</time>
      </trkpt>
      <trkpt lat="48.30683" lon="2.59437">
        <ele>121.74414</ele>
        <time>2009-02-01T10:08:58Z</time>
      </trkpt>
      <trkpt lat="48.30683" lon="2.59436">
        <ele>121.74414</ele>
        <time>2009-02-01T10:09:01Z</time>
      </trkpt>
      <trkpt lat="48.30683" lon="2.59435">
        <ele>122.70544</ele>
        <time>2009-02-01T10:09:02Z</time>
      </trkpt>
      <trkpt lat="48.30683" lon="2.59434">
        <ele>123.18615</ele>
        <time>2009-02-01T10:09:05Z</time>
      </trkpt>
      <trkpt lat="48.30684" lon="2.59431">
        <ele>123.18615</ele>
        <time>2009-02-01T10:09:07Z</time>
      </trkpt>
      <trkpt lat="48.30684" lon="2.59424">
        <ele>123.66674</ele>
        <time>2009-02-01T10:09:11Z</time>
      </trkpt>
      <trkpt lat="48.30688" lon="2.59409">
        <ele>125.58935</ele>
        <time>2009-02-01T10:09:18Z</time>
      </trkpt>
      <trkpt lat="48.30687" lon="2.59387">
        <ele>125.10876</ele>
        <time>2009-02-01T10:09:25Z</time>
      </trkpt>
      <trkpt lat="48.30685" lon="2.59364">
        <ele>125.58935</ele>
        <time>2009-02-01T10:09:30Z</time>
      </trkpt>
      <trkpt lat="48.30675" lon="2.59351">
        <ele>124.62805</ele>
        <time>2009-02-01T10:09:34Z</time>
      </trkpt>
      <trkpt lat="48.30667" lon="2.59348">
        <ele>124.62805</ele>
        <time>2009-02-01T10:09:36Z</time>
      </trkpt>
      <trkpt lat="48.30653" lon="2.59344">
        <ele>123.66674</ele>
        <time>2009-02-01T10:09:39Z</time>
      </trkpt>
      <trkpt lat="48.30633" lon="2.59345">
        <ele>122.22473</ele>
        <time>2009-02-01T10:09:44Z</time>
      </trkpt>
      <trkpt lat="48.30624" lon="2.59341">
        <ele>121.26354</ele>
        <time>2009-02-01T10:09:47Z</time>
      </trkpt>
      <trkpt lat="48.3062" lon="2.59319">
        <ele>120.78283</ele>
        <time>2009-02-01T10:09:52Z</time>
      </trkpt>
      <trkpt lat="48.3062" lon="2.59309">
        <ele>122.22473</ele>
        <time>2009-02-01T10:09:54Z</time>
      </trkpt>
      <trkpt lat="48.30618" lon="2.59299">
        <ele>122.70544</ele>
        <time>2009-02-01T10:09:56Z</time>
      </trkpt>
      <trkpt lat="48.30613" lon="2.59265">
        <ele>123.18615</ele>
        <time>2009-02-01T10:10:02Z</time>
      </trkpt>
      <trkpt lat="48.30607" lon="2.59245">
        <ele>122.70544</ele>
        <time>2009-02-01T10:10:06Z</time>
      </trkpt>
      <trkpt lat="48.30597" lon="2.59215">
        <ele>121.74414</ele>
        <time>2009-02-01T10:10:11Z</time>
      </trkpt>
      <trkpt lat="48.30593" lon="2.59194">
        <ele>122.70544</ele>
        <time>2009-02-01T10:10:15Z</time>
      </trkpt>
      <trkpt lat="48.30593" lon="2.59182">
        <ele>122.22473</ele>
        <time>2009-02-01T10:10:17Z</time>
      </trkpt>
      <trkpt lat="48.30583" lon="2.59151">
        <ele>122.22473</ele>
        <time>2009-02-01T10:10:22Z</time>
      </trkpt>
      <trkpt lat="48.30585" lon="2.59134">
        <ele>122.70544</ele>
        <time>2009-02-01T10:10:25Z</time>
      </trkpt>
      <trkpt lat="48.30587" lon="2.59131">
        <ele>123.18615</ele>
        <time>2009-02-01T10:10:26Z</time>
      </trkpt>
      <trkpt lat="48.30603" lon="2.5911">
        <ele>123.66674</ele>
        <time>2009-02-01T10:10:32Z</time>
      </trkpt>
      <trkpt lat="48.30614" lon="2.59097">
        <ele>124.14733</ele>
        <time>2009-02-01T10:10:36Z</time>
      </trkpt>
      <trkpt lat="48.30624" lon="2.59074">
        <ele>123.18615</ele>
        <time>2009-02-01T10:10:41Z</time>
      </trkpt>
      <trkpt lat="48.30632" lon="2.59058">
        <ele>120.78283</ele>
        <time>2009-02-01T10:10:45Z</time>
      </trkpt>
      <trkpt lat="48.30639" lon="2.59035">
        <ele>116.45678</ele>
        <time>2009-02-01T10:10:51Z</time>
      </trkpt>
      <trkpt lat="48.30638" lon="2.5903">
        <ele>115.97619</ele>
        <time>2009-02-01T10:10:52Z</time>
      </trkpt>
      <trkpt lat="48.30632" lon="2.59018">
        <ele>112.13098</ele>
        <time>2009-02-01T10:10:55Z</time>
      </trkpt>
      <trkpt lat="48.30616" lon="2.58999">
        <ele>108.28564</ele>
        <time>2009-02-01T10:11:00Z</time>
      </trkpt>
      <trkpt lat="48.3061" lon="2.58993">
        <ele>107.80505</ele>
        <time>2009-02-01T10:11:02Z</time>
      </trkpt>
      <trkpt lat="48.306" lon="2.59">
        <ele>106.84362</ele>
        <time>2009-02-01T10:11:05Z</time>
      </trkpt>
      <trkpt lat="48.30586" lon="2.59002">
        <ele>106.36303</ele>
        <time>2009-02-01T10:11:09Z</time>
      </trkpt>
      <trkpt lat="48.30579" lon="2.58993">
        <ele>104.44042</ele>
        <time>2009-02-01T10:11:11Z</time>
      </trkpt>
      <trkpt lat="48.30562" lon="2.58966">
        <ele>102.5177</ele>
        <time>2009-02-01T10:11:15Z</time>
      </trkpt>
      <trkpt lat="48.30541" lon="2.58941">
        <ele>97.711181</ele>
        <time>2009-02-01T10:11:19Z</time>
      </trkpt>
      <trkpt lat="48.30536" lon="2.58937">
        <ele>97.711181</ele>
        <time>2009-02-01T10:11:20Z</time>
      </trkpt>
      <trkpt lat="48.30518" lon="2.58919">
        <ele>95.307739</ele>
        <time>2009-02-01T10:11:24Z</time>
      </trkpt>
      <trkpt lat="48.30516" lon="2.58912">
        <ele>95.307739</ele>
        <time>2009-02-01T10:11:25Z</time>
      </trkpt>
      <trkpt lat="48.30515" lon="2.58905">
        <ele>94.827148</ele>
        <time>2009-02-01T10:11:26Z</time>
      </trkpt>
      <trkpt lat="48.30511" lon="2.58889">
        <ele>93.865844</ele>
        <time>2009-02-01T10:11:30Z</time>
      </trkpt>
      <trkpt lat="48.30508" lon="2.58885">
        <ele>94.346557</ele>
        <time>2009-02-01T10:11:32Z</time>
      </trkpt>
      <trkpt lat="48.30494" lon="2.5887">
        <ele>91.943237</ele>
        <time>2009-02-01T10:11:37Z</time>
      </trkpt>
      <trkpt lat="48.30485" lon="2.58854">
        <ele>90.981933</ele>
        <time>2009-02-01T10:11:41Z</time>
      </trkpt>
      <trkpt lat="48.30486" lon="2.58848">
        <ele>90.981933</ele>
        <time>2009-02-01T10:11:42Z</time>
      </trkpt>
      <trkpt lat="48.30489" lon="2.58829">
        <ele>91.943237</ele>
        <time>2009-02-01T10:11:45Z</time>
      </trkpt>
      <trkpt lat="48.3049" lon="2.58815">
        <ele>91.462524</ele>
        <time>2009-02-01T10:11:47Z</time>
      </trkpt>
      <trkpt lat="48.30499" lon="2.58771">
        <ele>91.943237</ele>
        <time>2009-02-01T10:11:54Z</time>
      </trkpt>
      <trkpt lat="48.30509" lon="2.58731">
        <ele>91.943237</ele>
        <time>2009-02-01T10:12:01Z</time>
      </trkpt>
      <trkpt lat="48.30501" lon="2.58722">
        <ele>91.943237</ele>
        <time>2009-02-01T10:12:05Z</time>
      </trkpt>
      <trkpt lat="48.3049" lon="2.58715">
        <ele>91.462524</ele>
        <time>2009-02-01T10:12:08Z</time>
      </trkpt>
      <trkpt lat="48.30478" lon="2.58712">
        <ele>91.943237</ele>
        <time>2009-02-01T10:12:12Z</time>
      </trkpt>
      <trkpt lat="48.30476" lon="2.58702">
        <ele>91.943237</ele>
        <time>2009-02-01T10:12:16Z</time>
      </trkpt>
      <trkpt lat="48.30481" lon="2.58687">
        <ele>92.42395</ele>
        <time>2009-02-01T10:12:21Z</time>
      </trkpt>
      <trkpt lat="48.30486" lon="2.58672">
        <ele>92.904541</ele>
        <time>2009-02-01T10:12:25Z</time>
      </trkpt>
      <trkpt lat="48.30486" lon="2.58663">
        <ele>93.385131</ele>
        <time>2009-02-01T10:12:28Z</time>
      </trkpt>
      <trkpt lat="48.30484" lon="2.58643">
        <ele>93.865844</ele>
        <time>2009-02-01T10:12:34Z</time>
      </trkpt>
      <trkpt lat="48.30483" lon="2.58639">
        <ele>94.346557</ele>
        <time>2009-02-01T10:12:35Z</time>
      </trkpt>
      <trkpt lat="48.30484" lon="2.58633">
        <ele>95.307739</ele>
        <time>2009-02-01T10:12:37Z</time>
      </trkpt>
      <trkpt lat="48.30491" lon="2.58626">
        <ele>94.827148</ele>
        <time>2009-02-01T10:12:40Z</time>
      </trkpt>
      <trkpt lat="48.30496" lon="2.58605">
        <ele>95.788452</ele>
        <time>2009-02-01T10:12:46Z</time>
      </trkpt>
      <trkpt lat="48.30502" lon="2.58588">
        <ele>96.749877</ele>
        <time>2009-02-01T10:12:51Z</time>
      </trkpt>
      <trkpt lat="48.30508" lon="2.58584">
        <ele>96.749877</ele>
        <time>2009-02-01T10:12:55Z</time>
      </trkpt>
      <trkpt lat="48.3052" lon="2.58587">
        <ele>96.749877</ele>
        <time>2009-02-01T10:13:00Z</time>
      </trkpt>
      <trkpt lat="48.30526" lon="2.5858">
        <ele>97.711181</ele>
        <time>2009-02-01T10:13:04Z</time>
      </trkpt>
      <trkpt lat="48.30527" lon="2.58574">
        <ele>98.191894</ele>
        <time>2009-02-01T10:13:06Z</time>
      </trkpt>
      <trkpt lat="48.30539" lon="2.58567">
        <ele>99.153076</ele>
        <time>2009-02-01T10:13:12Z</time>
      </trkpt>
      <trkpt lat="48.30546" lon="2.58562">
        <ele>99.153076</ele>
        <time>2009-02-01T10:13:16Z</time>
      </trkpt>
      <trkpt lat="48.3055" lon="2.58549">
        <ele>100.1145</ele>
        <time>2009-02-01T10:13:22Z</time>
      </trkpt>
      <trkpt lat="48.30553" lon="2.58545">
        <ele>100.1145</ele>
        <time>2009-02-01T10:13:24Z</time>
      </trkpt>
      <trkpt lat="48.30556" lon="2.58542">
        <ele>100.59509</ele>
        <time>2009-02-01T10:13:26Z</time>
      </trkpt>
      <trkpt lat="48.30563" lon="2.5853">
        <ele>102.0371</ele>
        <time>2009-02-01T10:13:31Z</time>
      </trkpt>
      <trkpt lat="48.30563" lon="2.58525">
        <ele>103.479</ele>
        <time>2009-02-01T10:13:33Z</time>
      </trkpt>
      <trkpt lat="48.30566" lon="2.58519">
        <ele>102.5177</ele>
        <time>2009-02-01T10:13:36Z</time>
      </trkpt>
      <trkpt lat="48.30574" lon="2.58504">
        <ele>105.40173</ele>
        <time>2009-02-01T10:13:44Z</time>
      </trkpt>
      <trkpt lat="48.30575" lon="2.58499">
        <ele>105.40173</ele>
        <time>2009-02-01T10:13:46Z</time>
      </trkpt>
      <trkpt lat="48.30573" lon="2.5849">
        <ele>105.88244</ele>
        <time>2009-02-01T10:13:51Z</time>
      </trkpt>
      <trkpt lat="48.30574" lon="2.58481">
        <ele>107.32434</ele>
        <time>2009-02-01T10:13:55Z</time>
      </trkpt>
      <trkpt lat="48.30577" lon="2.58463">
        <ele>108.28564</ele>
        <time>2009-02-01T10:14:02Z</time>
      </trkpt>
      <trkpt lat="48.30578" lon="2.58456">
        <ele>108.76623</ele>
        <time>2009-02-01T10:14:06Z</time>
      </trkpt>
      <trkpt lat="48.3057" lon="2.58453">
        <ele>108.76623</ele>
        <time>2009-02-01T10:14:11Z</time>
      </trkpt>
      <trkpt lat="48.30563" lon="2.58452">
        <ele>109.24694</ele>
        <time>2009-02-01T10:14:15Z</time>
      </trkpt>
      <trkpt lat="48.30557" lon="2.58445">
        <ele>109.72766</ele>
        <time>2009-02-01T10:14:19Z</time>
      </trkpt>
      <trkpt lat="48.30554" lon="2.58444">
        <ele>110.20825</ele>
        <time>2009-02-01T10:14:22Z</time>
      </trkpt>
      <trkpt lat="48.30547" lon="2.58455">
        <ele>109.24694</ele>
        <time>2009-02-01T10:14:28Z</time>
      </trkpt>
      <trkpt lat="48.30545" lon="2.58467">
        <ele>108.76623</ele>
        <time>2009-02-01T10:14:31Z</time>
      </trkpt>
      <trkpt lat="48.30541" lon="2.58482">
        <ele>106.36303</ele>
        <time>2009-02-01T10:14:35Z</time>
      </trkpt>
      <trkpt lat="48.30534" lon="2.58504">
        <ele>103.479</ele>
        <time>2009-02-01T10:14:40Z</time>
      </trkpt>
      <trkpt lat="48.30527" lon="2.58518">
        <ele>102.99829</ele>
        <time>2009-02-01T10:14:44Z</time>
      </trkpt>
      <trkpt lat="48.30524" lon="2.58518">
        <ele>103.479</ele>
        <time>2009-02-01T10:14:47Z</time>
      </trkpt>
      <trkpt lat="48.30511" lon="2.58525">
        <ele>103.479</ele>
        <time>2009-02-01T10:14:53Z</time>
      </trkpt>
      <trkpt lat="48.30504" lon="2.58524">
        <ele>102.99829</ele>
        <time>2009-02-01T10:14:57Z</time>
      </trkpt>
      <trkpt lat="48.30494" lon="2.58533">
        <ele>103.479</ele>
        <time>2009-02-01T10:15:02Z</time>
      </trkpt>
      <trkpt lat="48.30493" lon="2.58547">
        <ele>102.5177</ele>
        <time>2009-02-01T10:15:06Z</time>
      </trkpt>
      <trkpt lat="48.30487" lon="2.58556">
        <ele>102.0371</ele>
        <time>2009-02-01T10:15:10Z</time>
      </trkpt>
      <trkpt lat="48.30483" lon="2.58568">
        <ele>101.55639</ele>
        <time>2009-02-01T10:15:14Z</time>
      </trkpt>
      <trkpt lat="48.30476" lon="2.58577">
        <ele>100.59509</ele>
        <time>2009-02-01T10:15:19Z</time>
      </trkpt>
      <trkpt lat="48.30471" lon="2.58578">
        <ele>100.59509</ele>
        <time>2009-02-01T10:15:24Z</time>
      </trkpt>
      <trkpt lat="48.30467" lon="2.58578">
        <ele>100.59509</ele>
        <time>2009-02-01T10:15:48Z</time>
      </trkpt>
      <trkpt lat="48.30467" lon="2.58579">
        <ele>100.59509</ele>
        <time>2009-02-01T10:15:49Z</time>
      </trkpt>
      <trkpt lat="48.3047" lon="2.58578">
        <ele>101.07568</ele>
        <time>2009-02-01T10:15:51Z</time>
      </trkpt>
      <trkpt lat="48.30473" lon="2.58577">
        <ele>99.633789</ele>
        <time>2009-02-01T10:15:54Z</time>
      </trkpt>
      <trkpt lat="48.30473" lon="2.58576">
        <ele>100.1145</ele>
        <time>2009-02-01T10:15:57Z</time>
      </trkpt>
      <trkpt lat="48.30474" lon="2.58575">
        <ele>100.59509</ele>
        <time>2009-02-01T10:15:58Z</time>
      </trkpt>
      <trkpt lat="48.30472" lon="2.58576">
        <ele>100.59509</ele>
        <time>2009-02-01T10:16:03Z</time>
      </trkpt>
      <trkpt lat="48.30472" lon="2.58576">
        <ele>100.59509</ele>
        <time>2009-02-01T10:16:04Z</time>
      </trkpt>
      <trkpt lat="48.30473" lon="2.58575">
        <ele>100.59509</ele>
        <time>2009-02-01T10:16:08Z</time>
      </trkpt>
      <trkpt lat="48.30462" lon="2.5858">
        <ele>97.711181</ele>
        <time>2009-02-01T10:16:14Z</time>
      </trkpt>
      <trkpt lat="48.3046" lon="2.58583">
        <ele>97.230468</ele>
        <time>2009-02-01T10:16:15Z</time>
      </trkpt>
      <trkpt lat="48.3045" lon="2.58605">
        <ele>95.788452</ele>
        <time>2009-02-01T10:16:21Z</time>
      </trkpt>
      <trkpt lat="48.30446" lon="2.58604">
        <ele>96.269287</ele>
        <time>2009-02-01T10:16:24Z</time>
      </trkpt>
      <trkpt lat="48.30444" lon="2.58603">
        <ele>96.269287</ele>
        <time>2009-02-01T10:16:26Z</time>
      </trkpt>
      <trkpt lat="48.3043" lon="2.58614">
        <ele>95.307739</ele>
        <time>2009-02-01T10:16:31Z</time>
      </trkpt>
      <trkpt lat="48.30419" lon="2.5862">
        <ele>94.346557</ele>
        <time>2009-02-01T10:16:34Z</time>
      </trkpt>
      <trkpt lat="48.30413" lon="2.58643">
        <ele>93.385131</ele>
        <time>2009-02-01T10:16:38Z</time>
      </trkpt>
      <trkpt lat="48.30406" lon="2.58661">
        <ele>92.904541</ele>
        <time>2009-02-01T10:16:43Z</time>
      </trkpt>
      <trkpt lat="48.30402" lon="2.5867">
        <ele>91.943237</ele>
        <time>2009-02-01T10:16:45Z</time>
      </trkpt>
      <trkpt lat="48.30391" lon="2.58697">
        <ele>88.578735</ele>
        <time>2009-02-01T10:16:50Z</time>
      </trkpt>
      <trkpt lat="48.30387" lon="2.58704">
        <ele>89.059326</ele>
        <time>2009-02-01T10:16:52Z</time>
      </trkpt>
      <trkpt lat="48.3038" lon="2.58704">
        <ele>87.617187</ele>
        <time>2009-02-01T10:16:55Z</time>
      </trkpt>
      <trkpt lat="48.30377" lon="2.58702">
        <ele>87.136596</ele>
        <time>2009-02-01T10:16:56Z</time>
      </trkpt>
      <trkpt lat="48.30366" lon="2.58685">
        <ele>86.656005</ele>
        <time>2009-02-01T10:17:00Z</time>
      </trkpt>
      <trkpt lat="48.30357" lon="2.58667">
        <ele>86.656005</ele>
        <time>2009-02-01T10:17:04Z</time>
      </trkpt>
      <trkpt lat="48.30351" lon="2.58639">
        <ele>86.175293</ele>
        <time>2009-02-01T10:17:09Z</time>
      </trkpt>
      <trkpt lat="48.30341" lon="2.58597">
        <ele>86.175293</ele>
        <time>2009-02-01T10:17:15Z</time>
      </trkpt>
      <trkpt lat="48.30336" lon="2.58575">
        <ele>86.656005</ele>
        <time>2009-02-01T10:17:19Z</time>
      </trkpt>
      <trkpt lat="48.30332" lon="2.58555">
        <ele>87.617187</ele>
        <time>2009-02-01T10:17:23Z</time>
      </trkpt>
      <trkpt lat="48.30329" lon="2.58544">
        <ele>87.617187</ele>
        <time>2009-02-01T10:17:25Z</time>
      </trkpt>
      <trkpt lat="48.30314" lon="2.5852">
        <ele>87.136596</ele>
        <time>2009-02-01T10:17:30Z</time>
      </trkpt>
      <trkpt lat="48.3031" lon="2.58501">
        <ele>88.098022</ele>
        <time>2009-02-01T10:17:34Z</time>
      </trkpt>
      <trkpt lat="48.30306" lon="2.58484">
        <ele>89.539917</ele>
        <time>2009-02-01T10:17:39Z</time>
      </trkpt>
      <trkpt lat="48.30302" lon="2.58474">
        <ele>90.501342</ele>
        <time>2009-02-01T10:17:43Z</time>
      </trkpt>
      <trkpt lat="48.30291" lon="2.58458">
        <ele>88.578735</ele>
        <time>2009-02-01T10:17:48Z</time>
      </trkpt>
      <trkpt lat="48.30281" lon="2.58445">
        <ele>88.098022</ele>
        <time>2009-02-01T10:17:52Z</time>
      </trkpt>
      <trkpt lat="48.30255" lon="2.58431">
        <ele>85.69458</ele>
        <time>2009-02-01T10:17:59Z</time>
      </trkpt>
      <trkpt lat="48.30248" lon="2.58428">
        <ele>85.69458</ele>
        <time>2009-02-01T10:18:01Z</time>
      </trkpt>
      <trkpt lat="48.30245" lon="2.58428">
        <ele>85.69458</ele>
        <time>2009-02-01T10:18:03Z</time>
      </trkpt>
      <trkpt lat="48.30237" lon="2.58444">
        <ele>84.252685</ele>
        <time>2009-02-01T10:18:09Z</time>
      </trkpt>
      <trkpt lat="48.30221" lon="2.58462">
        <ele>80.888183</ele>
        <time>2009-02-01T10:18:13Z</time>
      </trkpt>
      <trkpt lat="48.30201" lon="2.58476">
        <ele>78.965454</ele>
        <time>2009-02-01T10:18:17Z</time>
      </trkpt>
      <trkpt lat="48.30194" lon="2.58483">
        <ele>79.446044</ele>
        <time>2009-02-01T10:18:19Z</time>
      </trkpt>
      <trkpt lat="48.30178" lon="2.58476">
        <ele>78.004028</ele>
        <time>2009-02-01T10:18:24Z</time>
      </trkpt>
      <trkpt lat="48.30169" lon="2.58469">
        <ele>78.004028</ele>
        <time>2009-02-01T10:18:26Z</time>
      </trkpt>
      <trkpt lat="48.30149" lon="2.58443">
        <ele>78.484741</ele>
        <time>2009-02-01T10:18:31Z</time>
      </trkpt>
      <trkpt lat="48.30129" lon="2.58403">
        <ele>79.446044</ele>
        <time>2009-02-01T10:18:38Z</time>
      </trkpt>
      <trkpt lat="48.30108" lon="2.58391">
        <ele>80.40747</ele>
        <time>2009-02-01T10:18:43Z</time>
      </trkpt>
      <trkpt lat="48.30083" lon="2.58398">
        <ele>79.446044</ele>
        <time>2009-02-01T10:18:48Z</time>
      </trkpt>
      <trkpt lat="48.3006" lon="2.58412">
        <ele>78.004028</ele>
        <time>2009-02-01T10:18:53Z</time>
      </trkpt>
      <trkpt lat="48.3005" lon="2.58414">
        <ele>78.965454</ele>
        <time>2009-02-01T10:18:55Z</time>
      </trkpt>
      <trkpt lat="48.30018" lon="2.58407">
        <ele>78.484741</ele>
        <time>2009-02-01T10:19:01Z</time>
      </trkpt>
      <trkpt lat="48.29981" lon="2.58388">
        <ele>77.042846</ele>
        <time>2009-02-01T10:19:09Z</time>
      </trkpt>
      <trkpt lat="48.29954" lon="2.58371">
        <ele>78.484741</ele>
        <time>2009-02-01T10:19:15Z</time>
      </trkpt>
      <trkpt lat="48.29942" lon="2.58346">
        <ele>80.40747</ele>
        <time>2009-02-01T10:19:20Z</time>
      </trkpt>
      <trkpt lat="48.29938" lon="2.58329">
        <ele>80.888183</ele>
        <time>2009-02-01T10:19:23Z</time>
      </trkpt>
      <trkpt lat="48.29933" lon="2.58293">
        <ele>82.330078</ele>
        <time>2009-02-01T10:19:30Z</time>
      </trkpt>
      <trkpt lat="48.29932" lon="2.5826">
        <ele>83.291381</ele>
        <time>2009-02-01T10:19:38Z</time>
      </trkpt>
      <trkpt lat="48.29933" lon="2.58239">
        <ele>85.213989</ele>
        <time>2009-02-01T10:19:44Z</time>
      </trkpt>
      <trkpt lat="48.29934" lon="2.58212">
        <ele>87.136596</ele>
        <time>2009-02-01T10:19:51Z</time>
      </trkpt>
      <trkpt lat="48.29939" lon="2.58184">
        <ele>86.656005</ele>
        <time>2009-02-01T10:19:56Z</time>
      </trkpt>
      <trkpt lat="48.2995" lon="2.5815">
        <ele>86.656005</ele>
        <time>2009-02-01T10:20:02Z</time>
      </trkpt>
      <trkpt lat="48.29964" lon="2.58132">
        <ele>86.656005</ele>
        <time>2009-02-01T10:20:07Z</time>
      </trkpt>
      <trkpt lat="48.29981" lon="2.58113">
        <ele>87.136596</ele>
        <time>2009-02-01T10:20:12Z</time>
      </trkpt>
      <trkpt lat="48.29994" lon="2.58096">
        <ele>86.656005</ele>
        <time>2009-02-01T10:20:16Z</time>
      </trkpt>
      <trkpt lat="48.3" lon="2.58087">
        <ele>87.617187</ele>
        <time>2009-02-01T10:20:18Z</time>
      </trkpt>
      <trkpt lat="48.30011" lon="2.58073">
        <ele>86.656005</ele>
        <time>2009-02-01T10:20:21Z</time>
      </trkpt>
      <trkpt lat="48.30019" lon="2.58057">
        <ele>87.136596</ele>
        <time>2009-02-01T10:20:24Z</time>
      </trkpt>
      <trkpt lat="48.30026" lon="2.58025">
        <ele>87.136596</ele>
        <time>2009-02-01T10:20:29Z</time>
      </trkpt>
      <trkpt lat="48.30023" lon="2.57994">
        <ele>89.059326</ele>
        <time>2009-02-01T10:20:35Z</time>
      </trkpt>
      <trkpt lat="48.30023" lon="2.57991">
        <ele>89.539917</ele>
        <time>2009-02-01T10:20:36Z</time>
      </trkpt>
      <trkpt lat="48.30021" lon="2.57972">
        <ele>89.539917</ele>
        <time>2009-02-01T10:20:42Z</time>
      </trkpt>
      <trkpt lat="48.30017" lon="2.57945">
        <ele>91.462524</ele>
        <time>2009-02-01T10:20:51Z</time>
      </trkpt>
      <trkpt lat="48.30012" lon="2.57925">
        <ele>92.904541</ele>
        <time>2009-02-01T10:20:58Z</time>
      </trkpt>
      <trkpt lat="48.30003" lon="2.579">
        <ele>94.346557</ele>
        <time>2009-02-01T10:21:06Z</time>
      </trkpt>
      <trkpt lat="48.29994" lon="2.57885">
        <ele>95.307739</ele>
        <time>2009-02-01T10:21:13Z</time>
      </trkpt>
      <trkpt lat="48.29973" lon="2.57862">
        <ele>96.269287</ele>
        <time>2009-02-01T10:21:23Z</time>
      </trkpt>
      <trkpt lat="48.29969" lon="2.57857">
        <ele>97.230468</ele>
        <time>2009-02-01T10:21:25Z</time>
      </trkpt>
      <trkpt lat="48.29948" lon="2.57834">
        <ele>100.1145</ele>
        <time>2009-02-01T10:21:37Z</time>
      </trkpt>
      <trkpt lat="48.29937" lon="2.57832">
        <ele>101.55639</ele>
        <time>2009-02-01T10:21:43Z</time>
      </trkpt>
      <trkpt lat="48.29929" lon="2.57845">
        <ele>102.5177</ele>
        <time>2009-02-01T10:21:49Z</time>
      </trkpt>
      <trkpt lat="48.29923" lon="2.57862">
        <ele>103.479</ele>
        <time>2009-02-01T10:21:56Z</time>
      </trkpt>
      <trkpt lat="48.29917" lon="2.57883">
        <ele>105.40173</ele>
        <time>2009-02-01T10:22:04Z</time>
      </trkpt>
      <trkpt lat="48.2991" lon="2.57909">
        <ele>106.84362</ele>
        <time>2009-02-01T10:22:15Z</time>
      </trkpt>
      <trkpt lat="48.29905" lon="2.57922">
        <ele>107.80505</ele>
        <time>2009-02-01T10:22:21Z</time>
      </trkpt>
      <trkpt lat="48.29893" lon="2.57923">
        <ele>108.28564</ele>
        <time>2009-02-01T10:22:28Z</time>
      </trkpt>
      <trkpt lat="48.29892" lon="2.57921">
        <ele>108.28564</ele>
        <time>2009-02-01T10:22:29Z</time>
      </trkpt>
      <trkpt lat="48.29893" lon="2.57905">
        <ele>107.80505</ele>
        <time>2009-02-01T10:22:35Z</time>
      </trkpt>
      <trkpt lat="48.29895" lon="2.579">
        <ele>108.28564</ele>
        <time>2009-02-01T10:22:37Z</time>
      </trkpt>
      <trkpt lat="48.29901" lon="2.57878">
        <ele>108.76623</ele>
        <time>2009-02-01T10:22:46Z</time>
      </trkpt>
      <trkpt lat="48.29902" lon="2.57873">
        <ele>112.13098</ele>
        <time>2009-02-01T10:22:48Z</time>
      </trkpt>
      <trkpt lat="48.29903" lon="2.57868">
        <ele>115.4956</ele>
        <time>2009-02-01T10:22:50Z</time>
      </trkpt>
      <trkpt lat="48.29904" lon="2.57866">
        <ele>115.4956</ele>
        <time>2009-02-01T10:22:51Z</time>
      </trkpt>
      <trkpt lat="48.29906" lon="2.57848">
        <ele>114.53417</ele>
        <time>2009-02-01T10:22:58Z</time>
      </trkpt>
      <trkpt lat="48.29906" lon="2.57829">
        <ele>116.9375</ele>
        <time>2009-02-01T10:23:05Z</time>
      </trkpt>
      <trkpt lat="48.29899" lon="2.57808">
        <ele>117.8988</ele>
        <time>2009-02-01T10:23:14Z</time>
      </trkpt>
      <trkpt lat="48.29886" lon="2.57797">
        <ele>119.82141</ele>
        <time>2009-02-01T10:23:22Z</time>
      </trkpt>
      <trkpt lat="48.29871" lon="2.5779">
        <ele>119.82141</ele>
        <time>2009-02-01T10:23:29Z</time>
      </trkpt>
      <trkpt lat="48.29856" lon="2.57782">
        <ele>120.30212</ele>
        <time>2009-02-01T10:23:35Z</time>
      </trkpt>
      <trkpt lat="48.29843" lon="2.57781">
        <ele>121.74414</ele>
        <time>2009-02-01T10:23:40Z</time>
      </trkpt>
      <trkpt lat="48.29841" lon="2.57781">
        <ele>122.22473</ele>
        <time>2009-02-01T10:23:41Z</time>
      </trkpt>
      <trkpt lat="48.29832" lon="2.57784">
        <ele>124.14733</ele>
        <time>2009-02-01T10:23:46Z</time>
      </trkpt>
      <trkpt lat="48.29832" lon="2.57791">
        <ele>124.14733</ele>
        <time>2009-02-01T10:23:50Z</time>
      </trkpt>
      <trkpt lat="48.29837" lon="2.57821">
        <ele>123.18615</ele>
        <time>2009-02-01T10:23:57Z</time>
      </trkpt>
      <trkpt lat="48.29837" lon="2.57835">
        <ele>119.34082</ele>
        <time>2009-02-01T10:24:00Z</time>
      </trkpt>
      <trkpt lat="48.29836" lon="2.57844">
        <ele>115.97619</ele>
        <time>2009-02-01T10:24:02Z</time>
      </trkpt>
      <trkpt lat="48.29836" lon="2.57848">
        <ele>115.4956</ele>
        <time>2009-02-01T10:24:03Z</time>
      </trkpt>
      <trkpt lat="48.29837" lon="2.57863">
        <ele>111.16955</ele>
        <time>2009-02-01T10:24:06Z</time>
      </trkpt>
      <trkpt lat="48.29835" lon="2.57879">
        <ele>108.28564</ele>
        <time>2009-02-01T10:24:09Z</time>
      </trkpt>
      <trkpt lat="48.29833" lon="2.57883">
        <ele>107.32434</ele>
        <time>2009-02-01T10:24:10Z</time>
      </trkpt>
      <trkpt lat="48.29828" lon="2.57891">
        <ele>105.88244</ele>
        <time>2009-02-01T10:24:12Z</time>
      </trkpt>
      <trkpt lat="48.29823" lon="2.57917">
        <ele>100.59509</ele>
        <time>2009-02-01T10:24:15Z</time>
      </trkpt>
      <trkpt lat="48.29819" lon="2.57939">
        <ele>98.672485</ele>
        <time>2009-02-01T10:24:17Z</time>
      </trkpt>
      <trkpt lat="48.29811" lon="2.57968">
        <ele>95.788452</ele>
        <time>2009-02-01T10:24:21Z</time>
      </trkpt>
      <trkpt lat="48.29802" lon="2.57982">
        <ele>95.307739</ele>
        <time>2009-02-01T10:24:24Z</time>
      </trkpt>
      <trkpt lat="48.29795" lon="2.57997">
        <ele>95.307739</ele>
        <time>2009-02-01T10:24:27Z</time>
      </trkpt>
      <trkpt lat="48.29791" lon="2.57997">
        <ele>94.827148</ele>
        <time>2009-02-01T10:24:28Z</time>
      </trkpt>
      <trkpt lat="48.29779" lon="2.57995">
        <ele>94.827148</ele>
        <time>2009-02-01T10:24:31Z</time>
      </trkpt>
      <trkpt lat="48.29761" lon="2.58013">
        <ele>94.346557</ele>
        <time>2009-02-01T10:24:37Z</time>
      </trkpt>
      <trkpt lat="48.29758" lon="2.58018">
        <ele>93.385131</ele>
        <time>2009-02-01T10:24:39Z</time>
      </trkpt>
      <trkpt lat="48.29749" lon="2.58027">
        <ele>88.098022</ele>
        <time>2009-02-01T10:24:43Z</time>
      </trkpt>
      <trkpt lat="48.29739" lon="2.58023">
        <ele>87.617187</ele>
        <time>2009-02-01T10:24:47Z</time>
      </trkpt>
      <trkpt lat="48.2972" lon="2.58005">
        <ele>86.175293</ele>
        <time>2009-02-01T10:24:51Z</time>
      </trkpt>
      <trkpt lat="48.29711" lon="2.58003">
        <ele>84.733398</ele>
        <time>2009-02-01T10:24:53Z</time>
      </trkpt>
      <trkpt lat="48.29701" lon="2.58009">
        <ele>82.810791</ele>
        <time>2009-02-01T10:24:55Z</time>
      </trkpt>
      <trkpt lat="48.29674" lon="2.58048">
        <ele>82.330078</ele>
        <time>2009-02-01T10:25:01Z</time>
      </trkpt>
      <trkpt lat="48.29675" lon="2.58056">
        <ele>82.330078</ele>
        <time>2009-02-01T10:25:02Z</time>
      </trkpt>
      <trkpt lat="48.29676" lon="2.58074">
        <ele>82.330078</ele>
        <time>2009-02-01T10:25:04Z</time>
      </trkpt>
      <trkpt lat="48.29678" lon="2.58091">
        <ele>82.330078</ele>
        <time>2009-02-01T10:25:06Z</time>
      </trkpt>
      <trkpt lat="48.29684" lon="2.58124">
        <ele>82.330078</ele>
        <time>2009-02-01T10:25:10Z</time>
      </trkpt>
      <trkpt lat="48.29696" lon="2.5817">
        <ele>81.849365</ele>
        <time>2009-02-01T10:25:16Z</time>
      </trkpt>
      <trkpt lat="48.29699" lon="2.58212">
        <ele>81.368774</ele>
        <time>2009-02-01T10:25:21Z</time>
      </trkpt>
      <trkpt lat="48.29699" lon="2.58221">
        <ele>80.888183</ele>
        <time>2009-02-01T10:25:22Z</time>
      </trkpt>
      <trkpt lat="48.29686" lon="2.58235">
        <ele>80.888183</ele>
        <time>2009-02-01T10:25:26Z</time>
      </trkpt>
      <trkpt lat="48.29667" lon="2.58242">
        <ele>78.965454</ele>
        <time>2009-02-01T10:25:30Z</time>
      </trkpt>
      <trkpt lat="48.29639" lon="2.58268">
        <ele>78.004028</ele>
        <time>2009-02-01T10:25:36Z</time>
      </trkpt>
      <trkpt lat="48.29637" lon="2.58276">
        <ele>78.484741</ele>
        <time>2009-02-01T10:25:37Z</time>
      </trkpt>
      <trkpt lat="48.29619" lon="2.58323">
        <ele>77.042846</ele>
        <time>2009-02-01T10:25:43Z</time>
      </trkpt>
      <trkpt lat="48.2961" lon="2.5836">
        <ele>76.562133</ele>
        <time>2009-02-01T10:25:47Z</time>
      </trkpt>
      <trkpt lat="48.29605" lon="2.5842">
        <ele>74.639526</ele>
        <time>2009-02-01T10:25:53Z</time>
      </trkpt>
      <trkpt lat="48.29605" lon="2.5843">
        <ele>74.639526</ele>
        <time>2009-02-01T10:25:54Z</time>
      </trkpt>
      <trkpt lat="48.29605" lon="2.58441">
        <ele>74.639526</ele>
        <time>2009-02-01T10:25:55Z</time>
      </trkpt>
      <trkpt lat="48.29609" lon="2.58481">
        <ele>74.158813</ele>
        <time>2009-02-01T10:25:59Z</time>
      </trkpt>
      <trkpt lat="48.2961" lon="2.58499">
        <ele>74.158813</ele>
        <time>2009-02-01T10:26:01Z</time>
      </trkpt>
      <trkpt lat="48.29604" lon="2.5851">
        <ele>74.158813</ele>
        <time>2009-02-01T10:26:04Z</time>
      </trkpt>
      <trkpt lat="48.29598" lon="2.58501">
        <ele>74.639526</ele>
        <time>2009-02-01T10:26:06Z</time>
      </trkpt>
      <trkpt lat="48.2959" lon="2.58477">
        <ele>74.639526</ele>
        <time>2009-02-01T10:26:11Z</time>
      </trkpt>
      <trkpt lat="48.29579" lon="2.58451">
        <ele>75.120239</ele>
        <time>2009-02-01T10:26:16Z</time>
      </trkpt>
      <trkpt lat="48.29566" lon="2.58427">
        <ele>75.120239</ele>
        <time>2009-02-01T10:26:22Z</time>
      </trkpt>
      <trkpt lat="48.29555" lon="2.58404">
        <ele>76.08142</ele>
        <time>2009-02-01T10:26:28Z</time>
      </trkpt>
      <trkpt lat="48.29542" lon="2.58373">
        <ele>76.08142</ele>
        <time>2009-02-01T10:26:34Z</time>
      </trkpt>
      <trkpt lat="48.29531" lon="2.58349">
        <ele>78.484741</ele>
        <time>2009-02-01T10:26:40Z</time>
      </trkpt>
      <trkpt lat="48.29525" lon="2.58332">
        <ele>79.926635</ele>
        <time>2009-02-01T10:26:45Z</time>
      </trkpt>
      <trkpt lat="48.29516" lon="2.58315">
        <ele>80.40747</ele>
        <time>2009-02-01T10:26:51Z</time>
      </trkpt>
      <trkpt lat="48.29504" lon="2.58295">
        <ele>80.888183</ele>
        <time>2009-02-01T10:26:57Z</time>
      </trkpt>
      <trkpt lat="48.2949" lon="2.58276">
        <ele>81.368774</ele>
        <time>2009-02-01T10:27:03Z</time>
      </trkpt>
      <trkpt lat="48.29481" lon="2.58263">
        <ele>81.849365</ele>
        <time>2009-02-01T10:27:08Z</time>
      </trkpt>
      <trkpt lat="48.2947" lon="2.58247">
        <ele>81.849365</ele>
        <time>2009-02-01T10:27:14Z</time>
      </trkpt>
      <trkpt lat="48.29452" lon="2.58232">
        <ele>82.810791</ele>
        <time>2009-02-01T10:27:21Z</time>
      </trkpt>
      <trkpt lat="48.29435" lon="2.58229">
        <ele>81.849365</ele>
        <time>2009-02-01T10:27:26Z</time>
      </trkpt>
      <trkpt lat="48.29419" lon="2.58229">
        <ele>82.330078</ele>
        <time>2009-02-01T10:27:33Z</time>
      </trkpt>
      <trkpt lat="48.29417" lon="2.58228">
        <ele>82.810791</ele>
        <time>2009-02-01T10:27:34Z</time>
      </trkpt>
      <trkpt lat="48.29406" lon="2.58228">
        <ele>82.810791</ele>
        <time>2009-02-01T10:27:39Z</time>
      </trkpt>
      <trkpt lat="48.29392" lon="2.58224">
        <ele>82.330078</ele>
        <time>2009-02-01T10:27:44Z</time>
      </trkpt>
      <trkpt lat="48.29371" lon="2.58222">
        <ele>83.291381</ele>
        <time>2009-02-01T10:27:50Z</time>
      </trkpt>
      <trkpt lat="48.29345" lon="2.58215">
        <ele>83.771972</ele>
        <time>2009-02-01T10:27:58Z</time>
      </trkpt>
      <trkpt lat="48.29324" lon="2.58213">
        <ele>85.213989</ele>
        <time>2009-02-01T10:28:05Z</time>
      </trkpt>
      <trkpt lat="48.29308" lon="2.58217">
        <ele>85.69458</ele>
        <time>2009-02-01T10:28:11Z</time>
      </trkpt>
      <trkpt lat="48.29292" lon="2.58227">
        <ele>86.175293</ele>
        <time>2009-02-01T10:28:19Z</time>
      </trkpt>
      <trkpt lat="48.29279" lon="2.58239">
        <ele>89.539917</ele>
        <time>2009-02-01T10:28:25Z</time>
      </trkpt>
      <trkpt lat="48.29267" lon="2.5825">
        <ele>90.020629</ele>
        <time>2009-02-01T10:28:32Z</time>
      </trkpt>
      <trkpt lat="48.29256" lon="2.58261">
        <ele>90.501342</ele>
        <time>2009-02-01T10:28:39Z</time>
      </trkpt>
      <trkpt lat="48.29251" lon="2.58263">
        <ele>90.981933</ele>
        <time>2009-02-01T10:28:42Z</time>
      </trkpt>
      <trkpt lat="48.29237" lon="2.58253">
        <ele>91.943237</ele>
        <time>2009-02-01T10:28:49Z</time>
      </trkpt>
      <trkpt lat="48.29228" lon="2.58243">
        <ele>91.943237</ele>
        <time>2009-02-01T10:28:55Z</time>
      </trkpt>
      <trkpt lat="48.29221" lon="2.58232">
        <ele>94.346557</ele>
        <time>2009-02-01T10:29:00Z</time>
      </trkpt>
      <trkpt lat="48.29212" lon="2.58217">
        <ele>93.865844</ele>
        <time>2009-02-01T10:29:06Z</time>
      </trkpt>
      <trkpt lat="48.29205" lon="2.58204">
        <ele>95.788452</ele>
        <time>2009-02-01T10:29:12Z</time>
      </trkpt>
      <trkpt lat="48.29199" lon="2.5819">
        <ele>96.749877</ele>
        <time>2009-02-01T10:29:19Z</time>
      </trkpt>
      <trkpt lat="48.29199" lon="2.58188">
        <ele>96.749877</ele>
        <time>2009-02-01T10:29:20Z</time>
      </trkpt>
      <trkpt lat="48.29198" lon="2.58184">
        <ele>97.230468</ele>
        <time>2009-02-01T10:29:22Z</time>
      </trkpt>
      <trkpt lat="48.29202" lon="2.58169">
        <ele>97.711181</ele>
        <time>2009-02-01T10:29:28Z</time>
      </trkpt>
      <trkpt lat="48.29202" lon="2.58166">
        <ele>98.672485</ele>
        <time>2009-02-01T10:29:29Z</time>
      </trkpt>
      <trkpt lat="48.29195" lon="2.58153">
        <ele>99.633789</ele>
        <time>2009-02-01T10:29:36Z</time>
      </trkpt>
      <trkpt lat="48.29181" lon="2.58151">
        <ele>100.59509</ele>
        <time>2009-02-01T10:29:43Z</time>
      </trkpt>
      <trkpt lat="48.29173" lon="2.58157">
        <ele>101.07568</ele>
        <time>2009-02-01T10:29:48Z</time>
      </trkpt>
      <trkpt lat="48.29166" lon="2.58177">
        <ele>102.0371</ele>
        <time>2009-02-01T10:29:54Z</time>
      </trkpt>
      <trkpt lat="48.29164" lon="2.58202">
        <ele>102.0371</ele>
        <time>2009-02-01T10:30:00Z</time>
      </trkpt>
      <trkpt lat="48.29167" lon="2.58226">
        <ele>101.07568</ele>
        <time>2009-02-01T10:30:05Z</time>
      </trkpt>
      <trkpt lat="48.29169" lon="2.58238">
        <ele>100.1145</ele>
        <time>2009-02-01T10:30:07Z</time>
      </trkpt>
      <trkpt lat="48.29172" lon="2.58267">
        <ele>99.153076</ele>
        <time>2009-02-01T10:30:11Z</time>
      </trkpt>
      <trkpt lat="48.29171" lon="2.58299">
        <ele>99.153076</ele>
        <time>2009-02-01T10:30:16Z</time>
      </trkpt>
      <trkpt lat="48.29157" lon="2.58336">
        <ele>97.230468</ele>
        <time>2009-02-01T10:30:21Z</time>
      </trkpt>
      <trkpt lat="48.29153" lon="2.58342">
        <ele>97.230468</ele>
        <time>2009-02-01T10:30:22Z</time>
      </trkpt>
      <trkpt lat="48.29116" lon="2.58373">
        <ele>95.788452</ele>
        <time>2009-02-01T10:30:29Z</time>
      </trkpt>
      <trkpt lat="48.29101" lon="2.5838">
        <ele>96.269287</ele>
        <time>2009-02-01T10:30:32Z</time>
      </trkpt>
      <trkpt lat="48.29084" lon="2.58386">
        <ele>97.711181</ele>
        <time>2009-02-01T10:30:37Z</time>
      </trkpt>
      <trkpt lat="48.2908" lon="2.58385">
        <ele>97.711181</ele>
        <time>2009-02-01T10:30:38Z</time>
      </trkpt>
      <trkpt lat="48.29065" lon="2.58379">
        <ele>99.153076</ele>
        <time>2009-02-01T10:30:45Z</time>
      </trkpt>
      <trkpt lat="48.29063" lon="2.58379">
        <ele>99.153076</ele>
        <time>2009-02-01T10:30:46Z</time>
      </trkpt>
      <trkpt lat="48.2905" lon="2.58373">
        <ele>100.1145</ele>
        <time>2009-02-01T10:30:54Z</time>
      </trkpt>
      <trkpt lat="48.2904" lon="2.58367">
        <ele>101.55639</ele>
        <time>2009-02-01T10:31:01Z</time>
      </trkpt>
      <trkpt lat="48.29033" lon="2.58363">
        <ele>103.479</ele>
        <time>2009-02-01T10:31:07Z</time>
      </trkpt>
      <trkpt lat="48.29027" lon="2.58359">
        <ele>104.44042</ele>
        <time>2009-02-01T10:31:12Z</time>
      </trkpt>
      <trkpt lat="48.29017" lon="2.58353">
        <ele>105.40173</ele>
        <time>2009-02-01T10:31:18Z</time>
      </trkpt>
      <trkpt lat="48.29008" lon="2.58349">
        <ele>107.80505</ele>
        <time>2009-02-01T10:31:24Z</time>
      </trkpt>
      <trkpt lat="48.28999" lon="2.58346">
        <ele>108.28564</ele>
        <time>2009-02-01T10:31:31Z</time>
      </trkpt>
      <trkpt lat="48.28986" lon="2.58347">
        <ele>110.20825</ele>
        <time>2009-02-01T10:31:40Z</time>
      </trkpt>
      <trkpt lat="48.28976" lon="2.58349">
        <ele>113.57299</ele>
        <time>2009-02-01T10:31:46Z</time>
      </trkpt>
      <trkpt lat="48.28975" lon="2.58349">
        <ele>113.09228</ele>
        <time>2009-02-01T10:31:47Z</time>
      </trkpt>
      <trkpt lat="48.2897" lon="2.5835">
        <ele>114.53417</ele>
        <time>2009-02-01T10:31:51Z</time>
      </trkpt>
      <trkpt lat="48.2896" lon="2.5835">
        <ele>116.45678</ele>
        <time>2009-02-01T10:31:58Z</time>
      </trkpt>
      <trkpt lat="48.28953" lon="2.58351">
        <ele>117.41821</ele>
        <time>2009-02-01T10:32:04Z</time>
      </trkpt>
      <trkpt lat="48.28941" lon="2.58351">
        <ele>118.37939</ele>
        <time>2009-02-01T10:32:12Z</time>
      </trkpt>
      <trkpt lat="48.28929" lon="2.58351">
        <ele>120.78283</ele>
        <time>2009-02-01T10:32:22Z</time>
      </trkpt>
      <trkpt lat="48.2892" lon="2.58349">
        <ele>123.18615</ele>
        <time>2009-02-01T10:32:29Z</time>
      </trkpt>
      <trkpt lat="48.28915" lon="2.5835">
        <ele>124.14733</ele>
        <time>2009-02-01T10:32:32Z</time>
      </trkpt>
      <trkpt lat="48.28905" lon="2.58336">
        <ele>124.62805</ele>
        <time>2009-02-01T10:32:41Z</time>
      </trkpt>
      <trkpt lat="48.28899" lon="2.58327">
        <ele>125.58935</ele>
        <time>2009-02-01T10:32:48Z</time>
      </trkpt>
      <trkpt lat="48.28893" lon="2.58319">
        <ele>127.51196</ele>
        <time>2009-02-01T10:32:54Z</time>
      </trkpt>
      <trkpt lat="48.28889" lon="2.58305">
        <ele>127.99255</ele>
        <time>2009-02-01T10:33:00Z</time>
      </trkpt>
      <trkpt lat="48.28889" lon="2.58296">
        <ele>127.51196</ele>
        <time>2009-02-01T10:33:04Z</time>
      </trkpt>
      <trkpt lat="48.28887" lon="2.58295">
        <ele>127.99255</ele>
        <time>2009-02-01T10:33:06Z</time>
      </trkpt>
      <trkpt lat="48.28885" lon="2.58307">
        <ele>128.47338</ele>
        <time>2009-02-01T10:33:11Z</time>
      </trkpt>
      <trkpt lat="48.28888" lon="2.58339">
        <ele>127.51196</ele>
        <time>2009-02-01T10:33:21Z</time>
      </trkpt>
      <trkpt lat="48.28889" lon="2.58373">
        <ele>128.9541</ele>
        <time>2009-02-01T10:33:32Z</time>
      </trkpt>
      <trkpt lat="48.28889" lon="2.58399">
        <ele>128.9541</ele>
        <time>2009-02-01T10:33:41Z</time>
      </trkpt>
      <trkpt lat="48.28888" lon="2.58426">
        <ele>129.91528</ele>
        <time>2009-02-01T10:33:50Z</time>
      </trkpt>
      <trkpt lat="48.28887" lon="2.58446">
        <ele>129.43469</ele>
        <time>2009-02-01T10:33:56Z</time>
      </trkpt>
      <trkpt lat="48.28893" lon="2.58454">
        <ele>129.91528</ele>
        <time>2009-02-01T10:34:00Z</time>
      </trkpt>
      <trkpt lat="48.28904" lon="2.58457">
        <ele>129.91528</ele>
        <time>2009-02-01T10:34:06Z</time>
      </trkpt>
      <trkpt lat="48.28913" lon="2.58461">
        <ele>130.39599</ele>
        <time>2009-02-01T10:34:11Z</time>
      </trkpt>
      <trkpt lat="48.28928" lon="2.58473">
        <ele>130.39599</ele>
        <time>2009-02-01T10:34:17Z</time>
      </trkpt>
      <trkpt lat="48.28942" lon="2.58484">
        <ele>129.43469</ele>
        <time>2009-02-01T10:34:23Z</time>
      </trkpt>
      <trkpt lat="48.28964" lon="2.58506">
        <ele>128.47338</ele>
        <time>2009-02-01T10:34:31Z</time>
      </trkpt>
      <trkpt lat="48.28977" lon="2.58518">
        <ele>127.03137</ele>
        <time>2009-02-01T10:34:36Z</time>
      </trkpt>
      <trkpt lat="48.28988" lon="2.58533">
        <ele>127.03137</ele>
        <time>2009-02-01T10:34:41Z</time>
      </trkpt>
      <trkpt lat="48.28992" lon="2.58536">
        <ele>125.58935</ele>
        <time>2009-02-01T10:34:44Z</time>
      </trkpt>
      <trkpt lat="48.29001" lon="2.58544">
        <ele>124.62805</ele>
        <time>2009-02-01T10:34:48Z</time>
      </trkpt>
      <trkpt lat="48.29009" lon="2.58552">
        <ele>125.58935</ele>
        <time>2009-02-01T10:34:51Z</time>
      </trkpt>
      <trkpt lat="48.29019" lon="2.58562">
        <ele>126.06994</ele>
        <time>2009-02-01T10:34:56Z</time>
      </trkpt>
      <trkpt lat="48.29024" lon="2.58575">
        <ele>126.06994</ele>
        <time>2009-02-01T10:35:00Z</time>
      </trkpt>
      <trkpt lat="48.29033" lon="2.58605">
        <ele>124.62805</ele>
        <time>2009-02-01T10:35:06Z</time>
      </trkpt>
      <trkpt lat="48.29035" lon="2.58625">
        <ele>126.06994</ele>
        <time>2009-02-01T10:35:11Z</time>
      </trkpt>
      <trkpt lat="48.29035" lon="2.58629">
        <ele>127.03137</ele>
        <time>2009-02-01T10:35:12Z</time>
      </trkpt>
      <trkpt lat="48.29042" lon="2.58641">
        <ele>126.06994</ele>
        <time>2009-02-01T10:35:17Z</time>
      </trkpt>
      <trkpt lat="48.29049" lon="2.58643">
        <ele>123.18615</ele>
        <time>2009-02-01T10:35:19Z</time>
      </trkpt>
      <trkpt lat="48.29058" lon="2.58644">
        <ele>120.78283</ele>
        <time>2009-02-01T10:35:21Z</time>
      </trkpt>
      <trkpt lat="48.29081" lon="2.58645">
        <ele>120.78283</ele>
        <time>2009-02-01T10:35:26Z</time>
      </trkpt>
      <trkpt lat="48.29089" lon="2.58649">
        <ele>120.78283</ele>
        <time>2009-02-01T10:35:28Z</time>
      </trkpt>
      <trkpt lat="48.29106" lon="2.5866">
        <ele>121.26354</ele>
        <time>2009-02-01T10:35:33Z</time>
      </trkpt>
      <trkpt lat="48.29105" lon="2.58682">
        <ele>120.30212</ele>
        <time>2009-02-01T10:35:37Z</time>
      </trkpt>
      <trkpt lat="48.29104" lon="2.58687">
        <ele>120.78283</ele>
        <time>2009-02-01T10:35:38Z</time>
      </trkpt>
      <trkpt lat="48.29102" lon="2.58705">
        <ele>121.26354</ele>
        <time>2009-02-01T10:35:43Z</time>
      </trkpt>
      <trkpt lat="48.29108" lon="2.58711">
        <ele>121.26354</ele>
        <time>2009-02-01T10:35:46Z</time>
      </trkpt>
      <trkpt lat="48.29113" lon="2.58725">
        <ele>120.78283</ele>
        <time>2009-02-01T10:35:49Z</time>
      </trkpt>
      <trkpt lat="48.2913" lon="2.58747">
        <ele>120.30212</ele>
        <time>2009-02-01T10:35:54Z</time>
      </trkpt>
      <trkpt lat="48.29134" lon="2.58751">
        <ele>120.78283</ele>
        <time>2009-02-01T10:35:55Z</time>
      </trkpt>
      <trkpt lat="48.2914" lon="2.58767">
        <ele>119.82141</ele>
        <time>2009-02-01T10:35:59Z</time>
      </trkpt>
      <trkpt lat="48.29143" lon="2.58769">
        <ele>119.34082</ele>
        <time>2009-02-01T10:36:02Z</time>
      </trkpt>
      <trkpt lat="48.29144" lon="2.58769">
        <ele>119.34082</ele>
        <time>2009-02-01T10:36:05Z</time>
      </trkpt>
      <trkpt lat="48.29147" lon="2.58769">
        <ele>118.37939</ele>
        <time>2009-02-01T10:36:06Z</time>
      </trkpt>
      <trkpt lat="48.29154" lon="2.58765">
        <ele>114.53417</ele>
        <time>2009-02-01T10:36:10Z</time>
      </trkpt>
      <trkpt lat="48.29156" lon="2.58766">
        <ele>114.53417</ele>
        <time>2009-02-01T10:36:11Z</time>
      </trkpt>
      <trkpt lat="48.29167" lon="2.58786">
        <ele>109.24694</ele>
        <time>2009-02-01T10:36:17Z</time>
      </trkpt>
      <trkpt lat="48.29168" lon="2.58791">
        <ele>108.28564</ele>
        <time>2009-02-01T10:36:18Z</time>
      </trkpt>
      <trkpt lat="48.29168" lon="2.58798">
        <ele>107.32434</ele>
        <time>2009-02-01T10:36:20Z</time>
      </trkpt>
      <trkpt lat="48.29171" lon="2.58805">
        <ele>105.40173</ele>
        <time>2009-02-01T10:36:23Z</time>
      </trkpt>
      <trkpt lat="48.29172" lon="2.58806">
        <ele>104.92102</ele>
        <time>2009-02-01T10:36:25Z</time>
      </trkpt>
      <trkpt lat="48.29172" lon="2.58808">
        <ele>105.40173</ele>
        <time>2009-02-01T10:36:29Z</time>
      </trkpt>
      <trkpt lat="48.29172" lon="2.58809">
        <ele>104.92102</ele>
        <time>2009-02-01T10:36:30Z</time>
      </trkpt>
      <trkpt lat="48.29172" lon="2.58814">
        <ele>102.99829</ele>
        <time>2009-02-01T10:36:32Z</time>
      </trkpt>
      <trkpt lat="48.29174" lon="2.58816">
        <ele>100.59509</ele>
        <time>2009-02-01T10:36:34Z</time>
      </trkpt>
      <trkpt lat="48.29178" lon="2.5882">
        <ele>100.1145</ele>
        <time>2009-02-01T10:36:36Z</time>
      </trkpt>
      <trkpt lat="48.29189" lon="2.58834">
        <ele>96.749877</ele>
        <time>2009-02-01T10:36:41Z</time>
      </trkpt>
      <trkpt lat="48.29195" lon="2.58845">
        <ele>94.827148</ele>
        <time>2009-02-01T10:36:44Z</time>
      </trkpt>
      <trkpt lat="48.29204" lon="2.58856">
        <ele>91.943237</ele>
        <time>2009-02-01T10:36:47Z</time>
      </trkpt>
      <trkpt lat="48.29208" lon="2.58858">
        <ele>91.462524</ele>
        <time>2009-02-01T10:36:50Z</time>
      </trkpt>
      <trkpt lat="48.29206" lon="2.58859">
        <ele>90.501342</ele>
        <time>2009-02-01T10:37:10Z</time>
      </trkpt>
      <trkpt lat="48.29207" lon="2.5886">
        <ele>90.501342</ele>
        <time>2009-02-01T10:37:11Z</time>
      </trkpt>
      <trkpt lat="48.29213" lon="2.5886">
        <ele>86.175293</ele>
        <time>2009-02-01T10:37:14Z</time>
      </trkpt>
      <trkpt lat="48.29218" lon="2.58866">
        <ele>85.213989</ele>
        <time>2009-02-01T10:37:17Z</time>
      </trkpt>
      <trkpt lat="48.29218" lon="2.5887">
        <ele>84.733398</ele>
        <time>2009-02-01T10:37:18Z</time>
      </trkpt>
      <trkpt lat="48.29217" lon="2.58892">
        <ele>84.733398</ele>
        <time>2009-02-01T10:37:24Z</time>
      </trkpt>
      <trkpt lat="48.29217" lon="2.5891">
        <ele>84.733398</ele>
        <time>2009-02-01T10:37:27Z</time>
      </trkpt>
      <trkpt lat="48.29212" lon="2.58937">
        <ele>85.213989</ele>
        <time>2009-02-01T10:37:32Z</time>
      </trkpt>
      <trkpt lat="48.29209" lon="2.58941">
        <ele>85.69458</ele>
        <time>2009-02-01T10:37:33Z</time>
      </trkpt>
      <trkpt lat="48.292" lon="2.5895">
        <ele>86.656005</ele>
        <time>2009-02-01T10:37:36Z</time>
      </trkpt>
      <trkpt lat="48.29191" lon="2.58942">
        <ele>87.136596</ele>
        <time>2009-02-01T10:37:41Z</time>
      </trkpt>
      <trkpt lat="48.2919" lon="2.5894">
        <ele>87.136596</ele>
        <time>2009-02-01T10:37:43Z</time>
      </trkpt>
      <trkpt lat="48.29194" lon="2.58945">
        <ele>87.136596</ele>
        <time>2009-02-01T10:38:11Z</time>
      </trkpt>
      <trkpt lat="48.29194" lon="2.58944">
        <ele>87.136596</ele>
        <time>2009-02-01T10:38:12Z</time>
      </trkpt>
      <trkpt lat="48.29189" lon="2.58933">
        <ele>87.617187</ele>
        <time>2009-02-01T10:38:16Z</time>
      </trkpt>
      <trkpt lat="48.29185" lon="2.58922">
        <ele>88.098022</ele>
        <time>2009-02-01T10:38:21Z</time>
      </trkpt>
      <trkpt lat="48.29182" lon="2.58916">
        <ele>88.098022</ele>
        <time>2009-02-01T10:38:24Z</time>
      </trkpt>
      <trkpt lat="48.29181" lon="2.58915">
        <ele>88.098022</ele>
        <time>2009-02-01T10:38:27Z</time>
      </trkpt>
      <trkpt lat="48.29172" lon="2.58896">
        <ele>89.539917</ele>
        <time>2009-02-01T10:38:33Z</time>
      </trkpt>
      <trkpt lat="48.29168" lon="2.58888">
        <ele>89.539917</ele>
        <time>2009-02-01T10:38:37Z</time>
      </trkpt>
      <trkpt lat="48.29167" lon="2.58886">
        <ele>89.539917</ele>
        <time>2009-02-01T10:38:40Z</time>
      </trkpt>
      <trkpt lat="48.29164" lon="2.58881">
        <ele>90.020629</ele>
        <time>2009-02-01T10:38:41Z</time>
      </trkpt>
      <trkpt lat="48.29163" lon="2.58879">
        <ele>89.539917</ele>
        <time>2009-02-01T10:38:44Z</time>
      </trkpt>
      <trkpt lat="48.29162" lon="2.58877">
        <ele>90.020629</ele>
        <time>2009-02-01T10:38:45Z</time>
      </trkpt>
      <trkpt lat="48.29158" lon="2.5887">
        <ele>90.501342</ele>
        <time>2009-02-01T10:38:48Z</time>
      </trkpt>
      <trkpt lat="48.29157" lon="2.58861">
        <ele>90.981933</ele>
        <time>2009-02-01T10:38:53Z</time>
      </trkpt>
      <trkpt lat="48.29154" lon="2.58852">
        <ele>93.385131</ele>
        <time>2009-02-01T10:38:57Z</time>
      </trkpt>
      <trkpt lat="48.29152" lon="2.5885">
        <ele>92.42395</ele>
        <time>2009-02-01T10:38:59Z</time>
      </trkpt>
      <trkpt lat="48.29142" lon="2.58845">
        <ele>94.346557</ele>
        <time>2009-02-01T10:39:06Z</time>
      </trkpt>
      <trkpt lat="48.29141" lon="2.58843">
        <ele>94.827148</ele>
        <time>2009-02-01T10:39:09Z</time>
      </trkpt>
      <trkpt lat="48.29137" lon="2.58838">
        <ele>96.749877</ele>
        <time>2009-02-01T10:39:12Z</time>
      </trkpt>
      <trkpt lat="48.29135" lon="2.58831">
        <ele>97.711181</ele>
        <time>2009-02-01T10:39:16Z</time>
      </trkpt>
      <trkpt lat="48.29134" lon="2.5883">
        <ele>98.191894</ele>
        <time>2009-02-01T10:39:17Z</time>
      </trkpt>
      <trkpt lat="48.29134" lon="2.58828">
        <ele>98.191894</ele>
        <time>2009-02-01T10:39:20Z</time>
      </trkpt>
      <trkpt lat="48.29131" lon="2.58819">
        <ele>99.153076</ele>
        <time>2009-02-01T10:39:23Z</time>
      </trkpt>
      <trkpt lat="48.29127" lon="2.58811">
        <ele>101.55639</ele>
        <time>2009-02-01T10:39:30Z</time>
      </trkpt>
      <trkpt lat="48.29122" lon="2.58808">
        <ele>102.99829</ele>
        <time>2009-02-01T10:39:35Z</time>
      </trkpt>
      <trkpt lat="48.29113" lon="2.58803">
        <ele>104.44042</ele>
        <time>2009-02-01T10:39:43Z</time>
      </trkpt>
      <trkpt lat="48.29112" lon="2.58801">
        <ele>104.44042</ele>
        <time>2009-02-01T10:39:45Z</time>
      </trkpt>
      <trkpt lat="48.29111" lon="2.58799">
        <ele>105.40173</ele>
        <time>2009-02-01T10:39:48Z</time>
      </trkpt>
      <trkpt lat="48.29111" lon="2.58798">
        <ele>104.44042</ele>
        <time>2009-02-01T10:39:49Z</time>
      </trkpt>
      <trkpt lat="48.29106" lon="2.58791">
        <ele>105.40173</ele>
        <time>2009-02-01T10:39:52Z</time>
      </trkpt>
      <trkpt lat="48.291" lon="2.58778">
        <ele>106.36303</ele>
        <time>2009-02-01T10:39:58Z</time>
      </trkpt>
      <trkpt lat="48.29097" lon="2.58779">
        <ele>107.32434</ele>
        <time>2009-02-01T10:40:03Z</time>
      </trkpt>
      <trkpt lat="48.2909" lon="2.58777">
        <ele>110.20825</ele>
        <time>2009-02-01T10:40:10Z</time>
      </trkpt>
      <trkpt lat="48.29083" lon="2.58771">
        <ele>112.61157</ele>
        <time>2009-02-01T10:40:17Z</time>
      </trkpt>
      <trkpt lat="48.2908" lon="2.58767">
        <ele>114.53417</ele>
        <time>2009-02-01T10:40:21Z</time>
      </trkpt>
      <trkpt lat="48.29079" lon="2.58766">
        <ele>114.53417</ele>
        <time>2009-02-01T10:40:24Z</time>
      </trkpt>
      <trkpt lat="48.29076" lon="2.5876">
        <ele>115.4956</ele>
        <time>2009-02-01T10:40:26Z</time>
      </trkpt>
      <trkpt lat="48.29075" lon="2.58755">
        <ele>115.97619</ele>
        <time>2009-02-01T10:40:29Z</time>
      </trkpt>
      <trkpt lat="48.29065" lon="2.58754">
        <ele>116.45678</ele>
        <time>2009-02-01T10:40:35Z</time>
      </trkpt>
      <trkpt lat="48.29056" lon="2.5875">
        <ele>117.8988</ele>
        <time>2009-02-01T10:40:41Z</time>
      </trkpt>
      <trkpt lat="48.2905" lon="2.58741">
        <ele>119.82141</ele>
        <time>2009-02-01T10:40:48Z</time>
      </trkpt>
      <trkpt lat="48.29036" lon="2.58736">
        <ele>120.30212</ele>
        <time>2009-02-01T10:40:56Z</time>
      </trkpt>
      <trkpt lat="48.29026" lon="2.58727">
        <ele>121.74414</ele>
        <time>2009-02-01T10:41:03Z</time>
      </trkpt>
      <trkpt lat="48.29018" lon="2.5873">
        <ele>122.70544</ele>
        <time>2009-02-01T10:41:09Z</time>
      </trkpt>
      <trkpt lat="48.29008" lon="2.58735">
        <ele>123.18615</ele>
        <time>2009-02-01T10:41:15Z</time>
      </trkpt>
      <trkpt lat="48.29002" lon="2.58749">
        <ele>123.66674</ele>
        <time>2009-02-01T10:41:21Z</time>
      </trkpt>
      <trkpt lat="48.28996" lon="2.58765">
        <ele>123.66674</ele>
        <time>2009-02-01T10:41:28Z</time>
      </trkpt>
      <trkpt lat="48.28995" lon="2.58768">
        <ele>123.18615</ele>
        <time>2009-02-01T10:41:31Z</time>
      </trkpt>
      <trkpt lat="48.28993" lon="2.58767">
        <ele>123.18615</ele>
        <time>2009-02-01T10:41:53Z</time>
      </trkpt>
      <trkpt lat="48.28992" lon="2.58769">
        <ele>124.14733</ele>
        <time>2009-02-01T10:41:54Z</time>
      </trkpt>
      <trkpt lat="48.28986" lon="2.58784">
        <ele>124.14733</ele>
        <time>2009-02-01T10:41:59Z</time>
      </trkpt>
      <trkpt lat="48.28975" lon="2.58813">
        <ele>126.55065</ele>
        <time>2009-02-01T10:42:07Z</time>
      </trkpt>
      <trkpt lat="48.28962" lon="2.58848">
        <ele>127.51196</ele>
        <time>2009-02-01T10:42:17Z</time>
      </trkpt>
      <trkpt lat="48.28955" lon="2.58864">
        <ele>127.51196</ele>
        <time>2009-02-01T10:42:23Z</time>
      </trkpt>
      <trkpt lat="48.28951" lon="2.58876">
        <ele>127.99255</ele>
        <time>2009-02-01T10:42:27Z</time>
      </trkpt>
      <trkpt lat="48.28949" lon="2.58881">
        <ele>127.99255</ele>
        <time>2009-02-01T10:42:30Z</time>
      </trkpt>
      <trkpt lat="48.28965" lon="2.58892">
        <ele>127.03137</ele>
        <time>2009-02-01T10:42:36Z</time>
      </trkpt>
      <trkpt lat="48.28971" lon="2.58897">
        <ele>127.03137</ele>
        <time>2009-02-01T10:42:38Z</time>
      </trkpt>
      <trkpt lat="48.2898" lon="2.58899">
        <ele>125.58935</ele>
        <time>2009-02-01T10:42:40Z</time>
      </trkpt>
      <trkpt lat="48.28988" lon="2.58893">
        <ele>126.06994</ele>
        <time>2009-02-01T10:42:42Z</time>
      </trkpt>
      <trkpt lat="48.29" lon="2.58898">
        <ele>125.58935</ele>
        <time>2009-02-01T10:42:46Z</time>
      </trkpt>
      <trkpt lat="48.29004" lon="2.5892">
        <ele>125.58935</ele>
        <time>2009-02-01T10:42:50Z</time>
      </trkpt>
      <trkpt lat="48.29" lon="2.58942">
        <ele>125.10876</ele>
        <time>2009-02-01T10:42:54Z</time>
      </trkpt>
      <trkpt lat="48.29009" lon="2.58973">
        <ele>124.62805</ele>
        <time>2009-02-01T10:42:59Z</time>
      </trkpt>
      <trkpt lat="48.29003" lon="2.58991">
        <ele>124.62805</ele>
        <time>2009-02-01T10:43:03Z</time>
      </trkpt>
      <trkpt lat="48.29" lon="2.58995">
        <ele>125.10876</ele>
        <time>2009-02-01T10:43:04Z</time>
      </trkpt>
      <trkpt lat="48.28979" lon="2.59007">
        <ele>125.10876</ele>
        <time>2009-02-01T10:43:09Z</time>
      </trkpt>
      <trkpt lat="48.28972" lon="2.5902">
        <ele>123.18615</ele>
        <time>2009-02-01T10:43:12Z</time>
      </trkpt>
      <trkpt lat="48.28971" lon="2.59025">
        <ele>122.70544</ele>
        <time>2009-02-01T10:43:13Z</time>
      </trkpt>
      <trkpt lat="48.28966" lon="2.59046">
        <ele>122.22473</ele>
        <time>2009-02-01T10:43:16Z</time>
      </trkpt>
      <trkpt lat="48.28967" lon="2.59071">
        <ele>122.22473</ele>
        <time>2009-02-01T10:43:19Z</time>
      </trkpt>
      <trkpt lat="48.2896" lon="2.59102">
        <ele>122.70544</ele>
        <time>2009-02-01T10:43:23Z</time>
      </trkpt>
      <trkpt lat="48.2896" lon="2.59115">
        <ele>123.66674</ele>
        <time>2009-02-01T10:43:25Z</time>
      </trkpt>
      <trkpt lat="48.28969" lon="2.59134">
        <ele>125.10876</ele>
        <time>2009-02-01T10:43:29Z</time>
      </trkpt>
      <trkpt lat="48.2898" lon="2.59151">
        <ele>125.10876</ele>
        <time>2009-02-01T10:43:34Z</time>
      </trkpt>
      <trkpt lat="48.28991" lon="2.59185">
        <ele>125.10876</ele>
        <time>2009-02-01T10:43:40Z</time>
      </trkpt>
      <trkpt lat="48.28995" lon="2.59204">
        <ele>124.62805</ele>
        <time>2009-02-01T10:43:43Z</time>
      </trkpt>
      <trkpt lat="48.28996" lon="2.59235">
        <ele>123.18615</ele>
        <time>2009-02-01T10:43:48Z</time>
      </trkpt>
      <trkpt lat="48.28996" lon="2.5924">
        <ele>123.66674</ele>
        <time>2009-02-01T10:43:49Z</time>
      </trkpt>
      <trkpt lat="48.29002" lon="2.59262">
        <ele>123.66674</ele>
        <time>2009-02-01T10:43:53Z</time>
      </trkpt>
      <trkpt lat="48.2901" lon="2.59276">
        <ele>121.74414</ele>
        <time>2009-02-01T10:43:56Z</time>
      </trkpt>
      <trkpt lat="48.29018" lon="2.5929">
        <ele>123.18615</ele>
        <time>2009-02-01T10:43:59Z</time>
      </trkpt>
      <trkpt lat="48.2902" lon="2.59296">
        <ele>123.18615</ele>
        <time>2009-02-01T10:44:00Z</time>
      </trkpt>
      <trkpt lat="48.29023" lon="2.59323">
        <ele>121.74414</ele>
        <time>2009-02-01T10:44:06Z</time>
      </trkpt>
      <trkpt lat="48.29025" lon="2.59335">
        <ele>121.74414</ele>
        <time>2009-02-01T10:44:09Z</time>
      </trkpt>
      <trkpt lat="48.29037" lon="2.59345">
        <ele>117.8988</ele>
        <time>2009-02-01T10:44:13Z</time>
      </trkpt>
      <trkpt lat="48.29043" lon="2.59352">
        <ele>116.45678</ele>
        <time>2009-02-01T10:44:15Z</time>
      </trkpt>
      <trkpt lat="48.29057" lon="2.59383">
        <ele>113.09228</ele>
        <time>2009-02-01T10:44:20Z</time>
      </trkpt>
      <trkpt lat="48.29063" lon="2.5942">
        <ele>112.13098</ele>
        <time>2009-02-01T10:44:26Z</time>
      </trkpt>
      <trkpt lat="48.29066" lon="2.59451">
        <ele>114.05358</ele>
        <time>2009-02-01T10:44:31Z</time>
      </trkpt>
      <trkpt lat="48.29067" lon="2.59457">
        <ele>114.05358</ele>
        <time>2009-02-01T10:44:32Z</time>
      </trkpt>
      <trkpt lat="48.29069" lon="2.59479">
        <ele>114.53417</ele>
        <time>2009-02-01T10:44:37Z</time>
      </trkpt>
      <trkpt lat="48.2907" lon="2.59483">
        <ele>115.01489</ele>
        <time>2009-02-01T10:44:38Z</time>
      </trkpt>
      <trkpt lat="48.29073" lon="2.59489">
        <ele>115.97619</ele>
        <time>2009-02-01T10:44:42Z</time>
      </trkpt>
      <trkpt lat="48.29077" lon="2.59504">
        <ele>116.45678</ele>
        <time>2009-02-01T10:44:48Z</time>
      </trkpt>
      <trkpt lat="48.29083" lon="2.59509">
        <ele>115.4956</ele>
        <time>2009-02-01T10:44:52Z</time>
      </trkpt>
      <trkpt lat="48.29086" lon="2.59514">
        <ele>111.65026</ele>
        <time>2009-02-01T10:44:54Z</time>
      </trkpt>
      <trkpt lat="48.29091" lon="2.59522">
        <ele>108.28564</ele>
        <time>2009-02-01T10:44:56Z</time>
      </trkpt>
      <trkpt lat="48.29096" lon="2.59532">
        <ele>106.84362</ele>
        <time>2009-02-01T10:44:58Z</time>
      </trkpt>
      <trkpt lat="48.29104" lon="2.59547">
        <ele>103.95971</ele>
        <time>2009-02-01T10:45:01Z</time>
      </trkpt>
      <trkpt lat="48.29111" lon="2.59555">
        <ele>100.59509</ele>
        <time>2009-02-01T10:45:04Z</time>
      </trkpt>
      <trkpt lat="48.29117" lon="2.59561">
        <ele>97.711181</ele>
        <time>2009-02-01T10:45:06Z</time>
      </trkpt>
      <trkpt lat="48.29123" lon="2.59568">
        <ele>93.865844</ele>
        <time>2009-02-01T10:45:08Z</time>
      </trkpt>
      <trkpt lat="48.29126" lon="2.5957">
        <ele>93.385131</ele>
        <time>2009-02-01T10:45:09Z</time>
      </trkpt>
      <trkpt lat="48.29129" lon="2.59571">
        <ele>92.42395</ele>
        <time>2009-02-01T10:45:11Z</time>
      </trkpt>
      <trkpt lat="48.29131" lon="2.59573">
        <ele>90.020629</ele>
        <time>2009-02-01T10:45:14Z</time>
      </trkpt>
      <trkpt lat="48.29138" lon="2.59582">
        <ele>85.69458</ele>
        <time>2009-02-01T10:45:19Z</time>
      </trkpt>
      <trkpt lat="48.2914" lon="2.59593">
        <ele>84.252685</ele>
        <time>2009-02-01T10:45:22Z</time>
      </trkpt>
      <trkpt lat="48.29139" lon="2.59598">
        <ele>84.252685</ele>
        <time>2009-02-01T10:45:23Z</time>
      </trkpt>
      <trkpt lat="48.29132" lon="2.59626">
        <ele>82.810791</ele>
        <time>2009-02-01T10:45:28Z</time>
      </trkpt>
      <trkpt lat="48.29124" lon="2.59649">
        <ele>81.368774</ele>
        <time>2009-02-01T10:45:33Z</time>
      </trkpt>
      <trkpt lat="48.29117" lon="2.59666">
        <ele>80.40747</ele>
        <time>2009-02-01T10:45:39Z</time>
      </trkpt>
      <trkpt lat="48.29108" lon="2.59675">
        <ele>81.368774</ele>
        <time>2009-02-01T10:45:45Z</time>
      </trkpt>
      <trkpt lat="48.29097" lon="2.5968">
        <ele>80.888183</ele>
        <time>2009-02-01T10:45:49Z</time>
      </trkpt>
      <trkpt lat="48.2909" lon="2.59683">
        <ele>80.888183</ele>
        <time>2009-02-01T10:45:54Z</time>
      </trkpt>
      <trkpt lat="48.29089" lon="2.59684">
        <ele>79.926635</ele>
        <time>2009-02-01T10:45:56Z</time>
      </trkpt>
      <trkpt lat="48.29078" lon="2.59688">
        <ele>79.926635</ele>
        <time>2009-02-01T10:46:01Z</time>
      </trkpt>
      <trkpt lat="48.29063" lon="2.59688">
        <ele>80.888183</ele>
        <time>2009-02-01T10:46:07Z</time>
      </trkpt>
      <trkpt lat="48.29056" lon="2.59686">
        <ele>82.330078</ele>
        <time>2009-02-01T10:46:11Z</time>
      </trkpt>
      <trkpt lat="48.2905" lon="2.59685">
        <ele>83.771972</ele>
        <time>2009-02-01T10:46:16Z</time>
      </trkpt>
      <trkpt lat="48.29049" lon="2.59684">
        <ele>83.771972</ele>
        <time>2009-02-01T10:46:19Z</time>
      </trkpt>
      <trkpt lat="48.29048" lon="2.59683">
        <ele>84.733398</ele>
        <time>2009-02-01T10:46:22Z</time>
      </trkpt>
      <trkpt lat="48.29046" lon="2.59681">
        <ele>85.213989</ele>
        <time>2009-02-01T10:46:24Z</time>
      </trkpt>
      <trkpt lat="48.29044" lon="2.59679">
        <ele>86.175293</ele>
        <time>2009-02-01T10:46:28Z</time>
      </trkpt>
      <trkpt lat="48.29043" lon="2.59679">
        <ele>87.136596</ele>
        <time>2009-02-01T10:46:31Z</time>
      </trkpt>
      <trkpt lat="48.2904" lon="2.59677">
        <ele>87.617187</ele>
        <time>2009-02-01T10:46:33Z</time>
      </trkpt>
      <trkpt lat="48.29034" lon="2.59677">
        <ele>89.059326</ele>
        <time>2009-02-01T10:46:40Z</time>
      </trkpt>
      <trkpt lat="48.2903" lon="2.59675">
        <ele>90.020629</ele>
        <time>2009-02-01T10:46:46Z</time>
      </trkpt>
      <trkpt lat="48.29027" lon="2.59668">
        <ele>90.981933</ele>
        <time>2009-02-01T10:46:54Z</time>
      </trkpt>
      <trkpt lat="48.29026" lon="2.59667">
        <ele>91.462524</ele>
        <time>2009-02-01T10:46:57Z</time>
      </trkpt>
      <trkpt lat="48.29026" lon="2.59667">
        <ele>91.462524</ele>
        <time>2009-02-01T10:46:58Z</time>
      </trkpt>
      <trkpt lat="48.29026" lon="2.59667">
        <ele>90.981933</ele>
        <time>2009-02-01T10:46:59Z</time>
      </trkpt>
      <trkpt lat="48.29024" lon="2.59662">
        <ele>90.501342</ele>
        <time>2009-02-01T10:47:13Z</time>
      </trkpt>
      <trkpt lat="48.29019" lon="2.59659">
        <ele>91.462524</ele>
        <time>2009-02-01T10:47:19Z</time>
      </trkpt>
      <trkpt lat="48.29016" lon="2.59659">
        <ele>91.462524</ele>
        <time>2009-02-01T10:47:24Z</time>
      </trkpt>
      <trkpt lat="48.29015" lon="2.59659">
        <ele>91.943237</ele>
        <time>2009-02-01T10:47:30Z</time>
      </trkpt>
      <trkpt lat="48.29014" lon="2.59659">
        <ele>91.943237</ele>
        <time>2009-02-01T10:47:31Z</time>
      </trkpt>
      <trkpt lat="48.29012" lon="2.59656">
        <ele>92.42395</ele>
        <time>2009-02-01T10:47:53Z</time>
      </trkpt>
      <trkpt lat="48.29011" lon="2.59656">
        <ele>92.42395</ele>
        <time>2009-02-01T10:47:55Z</time>
      </trkpt>
      <trkpt lat="48.29011" lon="2.59657">
        <ele>92.42395</ele>
        <time>2009-02-01T10:47:58Z</time>
      </trkpt>
      <trkpt lat="48.29011" lon="2.59657">
        <ele>92.42395</ele>
        <time>2009-02-01T10:47:59Z</time>
      </trkpt>
      <trkpt lat="48.29001" lon="2.59656">
        <ele>92.42395</ele>
        <time>2009-02-01T10:48:05Z</time>
      </trkpt>
      <trkpt lat="48.28991" lon="2.59655">
        <ele>91.943237</ele>
        <time>2009-02-01T10:48:10Z</time>
      </trkpt>
      <trkpt lat="48.28985" lon="2.59651">
        <ele>91.943237</ele>
        <time>2009-02-01T10:48:14Z</time>
      </trkpt>
      <trkpt lat="48.28977" lon="2.59642">
        <ele>91.943237</ele>
        <time>2009-02-01T10:48:19Z</time>
      </trkpt>
      <trkpt lat="48.28975" lon="2.59638">
        <ele>92.42395</ele>
        <time>2009-02-01T10:48:21Z</time>
      </trkpt>
      <trkpt lat="48.28967" lon="2.59636">
        <ele>93.385131</ele>
        <time>2009-02-01T10:48:28Z</time>
      </trkpt>
      <trkpt lat="48.28965" lon="2.59633">
        <ele>93.865844</ele>
        <time>2009-02-01T10:48:38Z</time>
      </trkpt>
      <trkpt lat="48.2896" lon="2.59626">
        <ele>96.749877</ele>
        <time>2009-02-01T10:48:46Z</time>
      </trkpt>
      <trkpt lat="48.28959" lon="2.59622">
        <ele>96.269287</ele>
        <time>2009-02-01T10:48:53Z</time>
      </trkpt>
      <trkpt lat="48.28958" lon="2.59622">
        <ele>96.269287</ele>
        <time>2009-02-01T10:48:54Z</time>
      </trkpt>
      <trkpt lat="48.28958" lon="2.59619">
        <ele>95.788452</ele>
        <time>2009-02-01T10:49:00Z</time>
      </trkpt>
      <trkpt lat="48.28954" lon="2.5961">
        <ele>95.307739</ele>
        <time>2009-02-01T10:49:06Z</time>
      </trkpt>
      <trkpt lat="48.28954" lon="2.59609">
        <ele>95.788452</ele>
        <time>2009-02-01T10:49:09Z</time>
      </trkpt>
      <trkpt lat="48.2895" lon="2.59605">
        <ele>94.827148</ele>
        <time>2009-02-01T10:49:12Z</time>
      </trkpt>
      <trkpt lat="48.28949" lon="2.596">
        <ele>96.269287</ele>
        <time>2009-02-01T10:49:16Z</time>
      </trkpt>
      <trkpt lat="48.28949" lon="2.59598">
        <ele>96.749877</ele>
        <time>2009-02-01T10:49:17Z</time>
      </trkpt>
      <trkpt lat="48.28946" lon="2.59589">
        <ele>98.191894</ele>
        <time>2009-02-01T10:49:23Z</time>
      </trkpt>
      <trkpt lat="48.28942" lon="2.59583">
        <ele>97.230468</ele>
        <time>2009-02-01T10:49:27Z</time>
      </trkpt>
      <trkpt lat="48.2894" lon="2.59579">
        <ele>97.711181</ele>
        <time>2009-02-01T10:49:29Z</time>
      </trkpt>
      <trkpt lat="48.28939" lon="2.59569">
        <ele>97.711181</ele>
        <time>2009-02-01T10:49:34Z</time>
      </trkpt>
      <trkpt lat="48.2894" lon="2.59567">
        <ele>98.672485</ele>
        <time>2009-02-01T10:49:37Z</time>
      </trkpt>
      <trkpt lat="48.28943" lon="2.5956">
        <ele>99.633789</ele>
        <time>2009-02-01T10:49:41Z</time>
      </trkpt>
      <trkpt lat="48.28945" lon="2.59558">
        <ele>100.1145</ele>
        <time>2009-02-01T10:49:44Z</time>
      </trkpt>
      <trkpt lat="48.28946" lon="2.59556">
        <ele>99.633789</ele>
        <time>2009-02-01T10:49:48Z</time>
      </trkpt>
      <trkpt lat="48.28946" lon="2.59555">
        <ele>100.1145</ele>
        <time>2009-02-01T10:49:49Z</time>
      </trkpt>
      <trkpt lat="48.28953" lon="2.59554">
        <ele>102.99829</ele>
        <time>2009-02-01T10:49:56Z</time>
      </trkpt>
      <trkpt lat="48.28956" lon="2.59553">
        <ele>103.479</ele>
        <time>2009-02-01T10:49:59Z</time>
      </trkpt>
      <trkpt lat="48.28964" lon="2.5955">
        <ele>102.99829</ele>
        <time>2009-02-01T10:50:07Z</time>
      </trkpt>
      <trkpt lat="48.28964" lon="2.5955">
        <ele>103.479</ele>
        <time>2009-02-01T10:50:08Z</time>
      </trkpt>
      <trkpt lat="48.28964" lon="2.59549">
        <ele>102.99829</ele>
        <time>2009-02-01T10:50:11Z</time>
      </trkpt>
      <trkpt lat="48.28964" lon="2.59548">
        <ele>102.99829</ele>
        <time>2009-02-01T10:50:12Z</time>
      </trkpt>
      <trkpt lat="48.28968" lon="2.59537">
        <ele>103.95971</ele>
        <time>2009-02-01T10:50:16Z</time>
      </trkpt>
      <trkpt lat="48.28969" lon="2.59527">
        <ele>104.44042</ele>
        <time>2009-02-01T10:50:22Z</time>
      </trkpt>
      <trkpt lat="48.28972" lon="2.59515">
        <ele>105.88244</ele>
        <time>2009-02-01T10:50:29Z</time>
      </trkpt>
      <trkpt lat="48.28978" lon="2.59506">
        <ele>106.84362</ele>
        <time>2009-02-01T10:50:36Z</time>
      </trkpt>
      <trkpt lat="48.28979" lon="2.59505">
        <ele>107.32434</ele>
        <time>2009-02-01T10:50:37Z</time>
      </trkpt>
      <trkpt lat="48.28985" lon="2.59501">
        <ele>108.28564</ele>
        <time>2009-02-01T10:50:42Z</time>
      </trkpt>
      <trkpt lat="48.2899" lon="2.59493">
        <ele>107.80505</ele>
        <time>2009-02-01T10:50:50Z</time>
      </trkpt>
      <trkpt lat="48.2899" lon="2.59492">
        <ele>108.76623</ele>
        <time>2009-02-01T10:50:51Z</time>
      </trkpt>
      <trkpt lat="48.28991" lon="2.59484">
        <ele>109.72766</ele>
        <time>2009-02-01T10:50:56Z</time>
      </trkpt>
      <trkpt lat="48.28992" lon="2.59483">
        <ele>109.72766</ele>
        <time>2009-02-01T10:50:59Z</time>
      </trkpt>
      <trkpt lat="48.28993" lon="2.5948">
        <ele>110.20825</ele>
        <time>2009-02-01T10:51:00Z</time>
      </trkpt>
      <trkpt lat="48.28992" lon="2.59471">
        <ele>110.68884</ele>
        <time>2009-02-01T10:51:05Z</time>
      </trkpt>
      <trkpt lat="48.28991" lon="2.59469">
        <ele>111.16955</ele>
        <time>2009-02-01T10:51:08Z</time>
      </trkpt>
      <trkpt lat="48.28985" lon="2.59456">
        <ele>110.68884</ele>
        <time>2009-02-01T10:51:15Z</time>
      </trkpt>
      <trkpt lat="48.28982" lon="2.59447">
        <ele>111.16955</ele>
        <time>2009-02-01T10:51:21Z</time>
      </trkpt>
      <trkpt lat="48.28984" lon="2.59438">
        <ele>112.61157</ele>
        <time>2009-02-01T10:51:27Z</time>
      </trkpt>
      <trkpt lat="48.28984" lon="2.59437">
        <ele>112.61157</ele>
        <time>2009-02-01T10:51:30Z</time>
      </trkpt>
      <trkpt lat="48.28985" lon="2.5943">
        <ele>113.09228</ele>
        <time>2009-02-01T10:51:32Z</time>
      </trkpt>
      <trkpt lat="48.28984" lon="2.59427">
        <ele>113.57299</ele>
        <time>2009-02-01T10:51:35Z</time>
      </trkpt>
      <trkpt lat="48.28983" lon="2.59421">
        <ele>114.05358</ele>
        <time>2009-02-01T10:51:39Z</time>
      </trkpt>
      <trkpt lat="48.28983" lon="2.59419">
        <ele>114.53417</ele>
        <time>2009-02-01T10:51:42Z</time>
      </trkpt>
      <trkpt lat="48.28984" lon="2.59407">
        <ele>116.45678</ele>
        <time>2009-02-01T10:51:47Z</time>
      </trkpt>
      <trkpt lat="48.28984" lon="2.59404">
        <ele>116.45678</ele>
        <time>2009-02-01T10:51:49Z</time>
      </trkpt>
      <trkpt lat="48.28982" lon="2.59392">
        <ele>117.8988</ele>
        <time>2009-02-01T10:51:58Z</time>
      </trkpt>
      <trkpt lat="48.28982" lon="2.5939">
        <ele>117.8988</ele>
        <time>2009-02-01T10:51:59Z</time>
      </trkpt>
      <trkpt lat="48.28985" lon="2.59378">
        <ele>118.8601</ele>
        <time>2009-02-01T10:52:07Z</time>
      </trkpt>
      <trkpt lat="48.28985" lon="2.59377">
        <ele>119.34082</ele>
        <time>2009-02-01T10:52:08Z</time>
      </trkpt>
      <trkpt lat="48.28986" lon="2.59374">
        <ele>119.82141</ele>
        <time>2009-02-01T10:52:13Z</time>
      </trkpt>
      <trkpt lat="48.28988" lon="2.59371">
        <ele>121.26354</ele>
        <time>2009-02-01T10:52:15Z</time>
      </trkpt>
      <trkpt lat="48.28989" lon="2.59369">
        <ele>121.26354</ele>
        <time>2009-02-01T10:52:19Z</time>
      </trkpt>
      <trkpt lat="48.2899" lon="2.59368">
        <ele>121.74414</ele>
        <time>2009-02-01T10:52:20Z</time>
      </trkpt>
      <trkpt lat="48.2899" lon="2.59367">
        <ele>121.74414</ele>
        <time>2009-02-01T10:52:21Z</time>
      </trkpt>
      <trkpt lat="48.28991" lon="2.59364">
        <ele>121.26354</ele>
        <time>2009-02-01T10:52:25Z</time>
      </trkpt>
      <trkpt lat="48.28992" lon="2.5936">
        <ele>122.22473</ele>
        <time>2009-02-01T10:52:28Z</time>
      </trkpt>
      <trkpt lat="48.28992" lon="2.59358">
        <ele>121.74414</ele>
        <time>2009-02-01T10:52:32Z</time>
      </trkpt>
      <trkpt lat="48.28989" lon="2.59349">
        <ele>123.18615</ele>
        <time>2009-02-01T10:52:38Z</time>
      </trkpt>
      <trkpt lat="48.2899" lon="2.59346">
        <ele>123.66674</ele>
        <time>2009-02-01T10:52:41Z</time>
      </trkpt>
      <trkpt lat="48.28991" lon="2.59345">
        <ele>124.14733</ele>
        <time>2009-02-01T10:52:42Z</time>
      </trkpt>
      <trkpt lat="48.28991" lon="2.59343">
        <ele>124.14733</ele>
        <time>2009-02-01T10:52:45Z</time>
      </trkpt>
      <trkpt lat="48.28991" lon="2.59341">
        <ele>124.62805</ele>
        <time>2009-02-01T10:52:46Z</time>
      </trkpt>
      <trkpt lat="48.28991" lon="2.5934">
        <ele>124.62805</ele>
        <time>2009-02-01T10:52:47Z</time>
      </trkpt>
      <trkpt lat="48.28992" lon="2.59338">
        <ele>125.10876</ele>
        <time>2009-02-01T10:52:50Z</time>
      </trkpt>
      <trkpt lat="48.28992" lon="2.59337">
        <ele>125.10876</ele>
        <time>2009-02-01T10:52:51Z</time>
      </trkpt>
      <trkpt lat="48.28994" lon="2.59334">
        <ele>125.10876</ele>
        <time>2009-02-01T10:52:58Z</time>
      </trkpt>
      <trkpt lat="48.28994" lon="2.59333">
        <ele>125.10876</ele>
        <time>2009-02-01T10:52:59Z</time>
      </trkpt>
      <trkpt lat="48.28995" lon="2.59332">
        <ele>125.10876</ele>
        <time>2009-02-01T10:53:03Z</time>
      </trkpt>
      <trkpt lat="48.28995" lon="2.59331">
        <ele>125.58935</ele>
        <time>2009-02-01T10:53:04Z</time>
      </trkpt>
      <trkpt lat="48.2899" lon="2.59325">
        <ele>123.18615</ele>
        <time>2009-02-01T10:53:08Z</time>
      </trkpt>
      <trkpt lat="48.28987" lon="2.59315">
        <ele>122.70544</ele>
        <time>2009-02-01T10:53:12Z</time>
      </trkpt>
      <trkpt lat="48.28984" lon="2.59305">
        <ele>123.66674</ele>
        <time>2009-02-01T10:53:18Z</time>
      </trkpt>
      <trkpt lat="48.28982" lon="2.59297">
        <ele>124.14733</ele>
        <time>2009-02-01T10:53:24Z</time>
      </trkpt>
      <trkpt lat="48.28982" lon="2.59295">
        <ele>124.14733</ele>
        <time>2009-02-01T10:53:25Z</time>
      </trkpt>
      <trkpt lat="48.28977" lon="2.59284">
        <ele>125.10876</ele>
        <time>2009-02-01T10:53:32Z</time>
      </trkpt>
      <trkpt lat="48.28971" lon="2.59271">
        <ele>124.14733</ele>
        <time>2009-02-01T10:53:38Z</time>
      </trkpt>
      <trkpt lat="48.2897" lon="2.59269">
        <ele>124.14733</ele>
        <time>2009-02-01T10:53:39Z</time>
      </trkpt>
      <trkpt lat="48.28957" lon="2.5927">
        <ele>123.66674</ele>
        <time>2009-02-01T10:53:44Z</time>
      </trkpt>
      <trkpt lat="48.28953" lon="2.59279">
        <ele>123.18615</ele>
        <time>2009-02-01T10:53:47Z</time>
      </trkpt>
      <trkpt lat="48.28949" lon="2.59305">
        <ele>121.26354</ele>
        <time>2009-02-01T10:53:52Z</time>
      </trkpt>
      <trkpt lat="48.28942" lon="2.59318">
        <ele>117.8988</ele>
        <time>2009-02-01T10:53:55Z</time>
      </trkpt>
      <trkpt lat="48.28926" lon="2.59324">
        <ele>116.9375</ele>
        <time>2009-02-01T10:54:00Z</time>
      </trkpt>
      <trkpt lat="48.28905" lon="2.59339">
        <ele>115.4956</ele>
        <time>2009-02-01T10:54:06Z</time>
      </trkpt>
      <trkpt lat="48.28891" lon="2.5934">
        <ele>115.01489</ele>
        <time>2009-02-01T10:54:10Z</time>
      </trkpt>
      <trkpt lat="48.28877" lon="2.59345">
        <ele>113.09228</ele>
        <time>2009-02-01T10:54:15Z</time>
      </trkpt>
      <trkpt lat="48.28874" lon="2.59344">
        <ele>112.61157</ele>
        <time>2009-02-01T10:54:16Z</time>
      </trkpt>
      <trkpt lat="48.28863" lon="2.5934">
        <ele>110.68884</ele>
        <time>2009-02-01T10:54:20Z</time>
      </trkpt>
      <trkpt lat="48.28859" lon="2.59341">
        <ele>108.76623</ele>
        <time>2009-02-01T10:54:21Z</time>
      </trkpt>
      <trkpt lat="48.28841" lon="2.5934">
        <ele>104.92102</ele>
        <time>2009-02-01T10:54:26Z</time>
      </trkpt>
      <trkpt lat="48.28838" lon="2.59341">
        <ele>104.44042</ele>
        <time>2009-02-01T10:54:27Z</time>
      </trkpt>
      <trkpt lat="48.28831" lon="2.59337">
        <ele>103.479</ele>
        <time>2009-02-01T10:54:31Z</time>
      </trkpt>
      <trkpt lat="48.28826" lon="2.59336">
        <ele>103.479</ele>
        <time>2009-02-01T10:54:43Z</time>
      </trkpt>
      <trkpt lat="48.28821" lon="2.59335">
        <ele>102.5177</ele>
        <time>2009-02-01T10:54:48Z</time>
      </trkpt>
      <trkpt lat="48.28818" lon="2.59336">
        <ele>99.633789</ele>
        <time>2009-02-01T10:54:52Z</time>
      </trkpt>
      <trkpt lat="48.28815" lon="2.59337">
        <ele>98.672485</ele>
        <time>2009-02-01T10:54:56Z</time>
      </trkpt>
      <trkpt lat="48.28813" lon="2.59337">
        <ele>98.191894</ele>
        <time>2009-02-01T10:55:31Z</time>
      </trkpt>
      <trkpt lat="48.28813" lon="2.59337">
        <ele>97.230468</ele>
        <time>2009-02-01T10:55:32Z</time>
      </trkpt>
      <trkpt lat="48.28813" lon="2.59337">
        <ele>97.711181</ele>
        <time>2009-02-01T10:55:33Z</time>
      </trkpt>
      <trkpt lat="48.28812" lon="2.5934">
        <ele>97.711181</ele>
        <time>2009-02-01T10:55:47Z</time>
      </trkpt>
      <trkpt lat="48.28812" lon="2.59341">
        <ele>98.191894</ele>
        <time>2009-02-01T10:55:48Z</time>
      </trkpt>
      <trkpt lat="48.28812" lon="2.59349">
        <ele>97.230468</ele>
        <time>2009-02-01T10:55:53Z</time>
      </trkpt>
      <trkpt lat="48.28814" lon="2.5936">
        <ele>97.230468</ele>
        <time>2009-02-01T10:55:57Z</time>
      </trkpt>
      <trkpt lat="48.28819" lon="2.5938">
        <ele>96.269287</ele>
        <time>2009-02-01T10:56:04Z</time>
      </trkpt>
      <trkpt lat="48.28821" lon="2.59388">
        <ele>96.749877</ele>
        <time>2009-02-01T10:56:07Z</time>
      </trkpt>
      <trkpt lat="48.28823" lon="2.59399">
        <ele>96.749877</ele>
        <time>2009-02-01T10:56:12Z</time>
      </trkpt>
      <trkpt lat="48.28828" lon="2.59413">
        <ele>95.788452</ele>
        <time>2009-02-01T10:56:17Z</time>
      </trkpt>
      <trkpt lat="48.28834" lon="2.59428">
        <ele>95.788452</ele>
        <time>2009-02-01T10:56:21Z</time>
      </trkpt>
      <trkpt lat="48.28836" lon="2.59432">
        <ele>94.827148</ele>
        <time>2009-02-01T10:56:23Z</time>
      </trkpt>
      <trkpt lat="48.28837" lon="2.59438">
        <ele>92.42395</ele>
        <time>2009-02-01T10:56:25Z</time>
      </trkpt>
      <trkpt lat="48.28842" lon="2.59454">
        <ele>91.943237</ele>
        <time>2009-02-01T10:56:29Z</time>
      </trkpt>
      <trkpt lat="48.28849" lon="2.59467">
        <ele>92.904541</ele>
        <time>2009-02-01T10:56:33Z</time>
      </trkpt>
      <trkpt lat="48.28851" lon="2.59477">
        <ele>93.385131</ele>
        <time>2009-02-01T10:56:38Z</time>
      </trkpt>
      <trkpt lat="48.28852" lon="2.59479">
        <ele>92.904541</ele>
        <time>2009-02-01T10:56:39Z</time>
      </trkpt>
      <trkpt lat="48.28851" lon="2.59491">
        <ele>89.059326</ele>
        <time>2009-02-01T10:56:43Z</time>
      </trkpt>
      <trkpt lat="48.28848" lon="2.59496">
        <ele>89.059326</ele>
        <time>2009-02-01T10:56:44Z</time>
      </trkpt>
      <trkpt lat="48.28845" lon="2.59503">
        <ele>87.617187</ele>
        <time>2009-02-01T10:56:46Z</time>
      </trkpt>
      <trkpt lat="48.28842" lon="2.59505">
        <ele>87.617187</ele>
        <time>2009-02-01T10:56:50Z</time>
      </trkpt>
      <trkpt lat="48.28847" lon="2.59514">
        <ele>87.617187</ele>
        <time>2009-02-01T10:58:33Z</time>
      </trkpt>
      <trkpt lat="48.28838" lon="2.59522">
        <ele>87.617187</ele>
        <time>2009-02-01T10:58:37Z</time>
      </trkpt>
      <trkpt lat="48.28819" lon="2.59536">
        <ele>85.213989</ele>
        <time>2009-02-01T10:58:44Z</time>
      </trkpt>
      <trkpt lat="48.28802" lon="2.59549">
        <ele>84.733398</ele>
        <time>2009-02-01T10:58:50Z</time>
      </trkpt>
      <trkpt lat="48.28776" lon="2.59568">
        <ele>83.291381</ele>
        <time>2009-02-01T10:58:58Z</time>
      </trkpt>
      <trkpt lat="48.28763" lon="2.59575">
        <ele>82.810791</ele>
        <time>2009-02-01T10:59:03Z</time>
      </trkpt>
      <trkpt lat="48.28757" lon="2.59557">
        <ele>83.291381</ele>
        <time>2009-02-01T10:59:08Z</time>
      </trkpt>
      <trkpt lat="48.28752" lon="2.59518">
        <ele>82.810791</ele>
        <time>2009-02-01T10:59:15Z</time>
      </trkpt>
      <trkpt lat="48.28747" lon="2.59499">
        <ele>83.771972</ele>
        <time>2009-02-01T10:59:19Z</time>
      </trkpt>
      <trkpt lat="48.28739" lon="2.59465">
        <ele>84.733398</ele>
        <time>2009-02-01T10:59:27Z</time>
      </trkpt>
      <trkpt lat="48.28732" lon="2.59438">
        <ele>85.69458</ele>
        <time>2009-02-01T10:59:34Z</time>
      </trkpt>
      <trkpt lat="48.28718" lon="2.59397">
        <ele>86.656005</ele>
        <time>2009-02-01T10:59:43Z</time>
      </trkpt>
      <trkpt lat="48.28707" lon="2.59362">
        <ele>87.136596</ele>
        <time>2009-02-01T10:59:51Z</time>
      </trkpt>
      <trkpt lat="48.28692" lon="2.5932">
        <ele>87.617187</ele>
        <time>2009-02-01T11:00:01Z</time>
      </trkpt>
      <trkpt lat="48.28676" lon="2.59282">
        <ele>87.617187</ele>
        <time>2009-02-01T11:00:10Z</time>
      </trkpt>
      <trkpt lat="48.28658" lon="2.59242">
        <ele>89.059326</ele>
        <time>2009-02-01T11:00:20Z</time>
      </trkpt>
      <trkpt lat="48.28649" lon="2.59221">
        <ele>90.020629</ele>
        <time>2009-02-01T11:00:26Z</time>
      </trkpt>
      <trkpt lat="48.28637" lon="2.59205">
        <ele>90.020629</ele>
        <time>2009-02-01T11:00:32Z</time>
      </trkpt>
      <trkpt lat="48.2863" lon="2.59189">
        <ele>89.539917</ele>
        <time>2009-02-01T11:00:36Z</time>
      </trkpt>
      <trkpt lat="48.28616" lon="2.59161">
        <ele>90.020629</ele>
        <time>2009-02-01T11:00:44Z</time>
      </trkpt>
      <trkpt lat="48.28602" lon="2.59137">
        <ele>90.981933</ele>
        <time>2009-02-01T11:00:52Z</time>
      </trkpt>
      <trkpt lat="48.28589" lon="2.59107">
        <ele>91.943237</ele>
        <time>2009-02-01T11:01:01Z</time>
      </trkpt>
      <trkpt lat="48.28574" lon="2.59076">
        <ele>91.943237</ele>
        <time>2009-02-01T11:01:11Z</time>
      </trkpt>
      <trkpt lat="48.28561" lon="2.59052">
        <ele>91.462524</ele>
        <time>2009-02-01T11:01:19Z</time>
      </trkpt>
      <trkpt lat="48.2855" lon="2.59036">
        <ele>92.42395</ele>
        <time>2009-02-01T11:01:25Z</time>
      </trkpt>
      <trkpt lat="48.2854" lon="2.59018">
        <ele>93.865844</ele>
        <time>2009-02-01T11:01:32Z</time>
      </trkpt>
      <trkpt lat="48.28534" lon="2.58998">
        <ele>94.346557</ele>
        <time>2009-02-01T11:01:39Z</time>
      </trkpt>
      <trkpt lat="48.28528" lon="2.5898">
        <ele>95.788452</ele>
        <time>2009-02-01T11:01:45Z</time>
      </trkpt>
      <trkpt lat="48.28525" lon="2.58971">
        <ele>96.269287</ele>
        <time>2009-02-01T11:01:49Z</time>
      </trkpt>
      <trkpt lat="48.2853" lon="2.58955">
        <ele>97.711181</ele>
        <time>2009-02-01T11:01:56Z</time>
      </trkpt>
      <trkpt lat="48.28535" lon="2.5894">
        <ele>99.153076</ele>
        <time>2009-02-01T11:02:02Z</time>
      </trkpt>
      <trkpt lat="48.28542" lon="2.58922">
        <ele>100.1145</ele>
        <time>2009-02-01T11:02:08Z</time>
      </trkpt>
      <trkpt lat="48.28547" lon="2.58907">
        <ele>99.633789</ele>
        <time>2009-02-01T11:02:13Z</time>
      </trkpt>
      <trkpt lat="48.28553" lon="2.58887">
        <ele>101.55639</ele>
        <time>2009-02-01T11:02:19Z</time>
      </trkpt>
      <trkpt lat="48.28554" lon="2.58884">
        <ele>101.55639</ele>
        <time>2009-02-01T11:02:20Z</time>
      </trkpt>
      <trkpt lat="48.28556" lon="2.58874">
        <ele>102.0371</ele>
        <time>2009-02-01T11:02:25Z</time>
      </trkpt>
      <trkpt lat="48.28559" lon="2.58862">
        <ele>103.95971</ele>
        <time>2009-02-01T11:02:30Z</time>
      </trkpt>
      <trkpt lat="48.28562" lon="2.58849">
        <ele>104.92102</ele>
        <time>2009-02-01T11:02:36Z</time>
      </trkpt>
      <trkpt lat="48.28562" lon="2.58839">
        <ele>106.36303</ele>
        <time>2009-02-01T11:02:42Z</time>
      </trkpt>
      <trkpt lat="48.28559" lon="2.5882">
        <ele>106.84362</ele>
        <time>2009-02-01T11:02:51Z</time>
      </trkpt>
      <trkpt lat="48.28559" lon="2.58808">
        <ele>108.76623</ele>
        <time>2009-02-01T11:02:59Z</time>
      </trkpt>
      <trkpt lat="48.28558" lon="2.58799">
        <ele>109.72766</ele>
        <time>2009-02-01T11:03:05Z</time>
      </trkpt>
      <trkpt lat="48.28556" lon="2.58788">
        <ele>111.65026</ele>
        <time>2009-02-01T11:03:12Z</time>
      </trkpt>
      <trkpt lat="48.28555" lon="2.58778">
        <ele>112.13098</ele>
        <time>2009-02-01T11:03:17Z</time>
      </trkpt>
      <trkpt lat="48.28555" lon="2.58771">
        <ele>113.09228</ele>
        <time>2009-02-01T11:03:20Z</time>
      </trkpt>
      <trkpt lat="48.28554" lon="2.58764">
        <ele>113.57299</ele>
        <time>2009-02-01T11:03:24Z</time>
      </trkpt>
      <trkpt lat="48.28556" lon="2.58755">
        <ele>113.57299</ele>
        <time>2009-02-01T11:03:42Z</time>
      </trkpt>
      <trkpt lat="48.28555" lon="2.58747">
        <ele>115.4956</ele>
        <time>2009-02-01T11:03:50Z</time>
      </trkpt>
      <trkpt lat="48.28554" lon="2.58746">
        <ele>115.97619</ele>
        <time>2009-02-01T11:03:54Z</time>
      </trkpt>
      <trkpt lat="48.28555" lon="2.58747">
        <ele>116.45678</ele>
        <time>2009-02-01T11:04:10Z</time>
      </trkpt>
      <trkpt lat="48.28555" lon="2.58746">
        <ele>116.45678</ele>
        <time>2009-02-01T11:04:11Z</time>
      </trkpt>
      <trkpt lat="48.28555" lon="2.58739">
        <ele>117.41821</ele>
        <time>2009-02-01T11:04:16Z</time>
      </trkpt>
      <trkpt lat="48.28555" lon="2.58731">
        <ele>118.8601</ele>
        <time>2009-02-01T11:04:26Z</time>
      </trkpt>
      <trkpt lat="48.28555" lon="2.5873">
        <ele>119.34082</ele>
        <time>2009-02-01T11:04:29Z</time>
      </trkpt>
      <trkpt lat="48.28555" lon="2.58729">
        <ele>119.82141</ele>
        <time>2009-02-01T11:04:30Z</time>
      </trkpt>
      <trkpt lat="48.28555" lon="2.58728">
        <ele>119.82141</ele>
        <time>2009-02-01T11:04:33Z</time>
      </trkpt>
      <trkpt lat="48.28555" lon="2.58724">
        <ele>120.78283</ele>
        <time>2009-02-01T11:04:34Z</time>
      </trkpt>
      <trkpt lat="48.28555" lon="2.58723">
        <ele>120.78283</ele>
        <time>2009-02-01T11:04:37Z</time>
      </trkpt>
      <trkpt lat="48.28555" lon="2.58722">
        <ele>122.22473</ele>
        <time>2009-02-01T11:04:38Z</time>
      </trkpt>
      <trkpt lat="48.28554" lon="2.58719">
        <ele>122.22473</ele>
        <time>2009-02-01T11:04:43Z</time>
      </trkpt>
      <trkpt lat="48.28554" lon="2.58716">
        <ele>123.18615</ele>
        <time>2009-02-01T11:04:46Z</time>
      </trkpt>
      <trkpt lat="48.28553" lon="2.58715">
        <ele>124.14733</ele>
        <time>2009-02-01T11:04:48Z</time>
      </trkpt>
      <trkpt lat="48.28553" lon="2.58714">
        <ele>124.62805</ele>
        <time>2009-02-01T11:04:50Z</time>
      </trkpt>
      <trkpt lat="48.28552" lon="2.58713">
        <ele>124.14733</ele>
        <time>2009-02-01T11:04:53Z</time>
      </trkpt>
      <trkpt lat="48.2855" lon="2.58708">
        <ele>126.55065</ele>
        <time>2009-02-01T11:04:57Z</time>
      </trkpt>
      <trkpt lat="48.28544" lon="2.58703">
        <ele>127.51196</ele>
        <time>2009-02-01T11:05:07Z</time>
      </trkpt>
      <trkpt lat="48.28537" lon="2.58701">
        <ele>129.91528</ele>
        <time>2009-02-01T11:05:16Z</time>
      </trkpt>
      <trkpt lat="48.28533" lon="2.587">
        <ele>130.39599</ele>
        <time>2009-02-01T11:05:20Z</time>
      </trkpt>
      <trkpt lat="48.2853" lon="2.587">
        <ele>130.39599</ele>
        <time>2009-02-01T11:05:24Z</time>
      </trkpt>
      <trkpt lat="48.28528" lon="2.58701">
        <ele>130.39599</ele>
        <time>2009-02-01T11:05:27Z</time>
      </trkpt>
      <trkpt lat="48.28527" lon="2.58702">
        <ele>131.35729</ele>
        <time>2009-02-01T11:05:33Z</time>
      </trkpt>
      <trkpt lat="48.28527" lon="2.58703">
        <ele>130.8767</ele>
        <time>2009-02-01T11:05:34Z</time>
      </trkpt>
      <trkpt lat="48.28527" lon="2.58707">
        <ele>129.43469</ele>
        <time>2009-02-01T11:05:35Z</time>
      </trkpt>
      <trkpt lat="48.28527" lon="2.58717">
        <ele>126.06994</ele>
        <time>2009-02-01T11:05:38Z</time>
      </trkpt>
      <trkpt lat="48.28527" lon="2.5872">
        <ele>125.10876</ele>
        <time>2009-02-01T11:05:39Z</time>
      </trkpt>
      <trkpt lat="48.2852" lon="2.58732">
        <ele>122.70544</ele>
        <time>2009-02-01T11:05:43Z</time>
      </trkpt>
      <trkpt lat="48.28517" lon="2.58734">
        <ele>122.70544</ele>
        <time>2009-02-01T11:05:44Z</time>
      </trkpt>
      <trkpt lat="48.28511" lon="2.58736">
        <ele>122.70544</ele>
        <time>2009-02-01T11:05:48Z</time>
      </trkpt>
      <trkpt lat="48.28504" lon="2.58743">
        <ele>120.78283</ele>
        <time>2009-02-01T11:05:55Z</time>
      </trkpt>
      <trkpt lat="48.28503" lon="2.58746">
        <ele>118.8601</ele>
        <time>2009-02-01T11:05:57Z</time>
      </trkpt>
      <trkpt lat="48.28499" lon="2.58751">
        <ele>114.53417</ele>
        <time>2009-02-01T11:06:00Z</time>
      </trkpt>
      <trkpt lat="48.28494" lon="2.5876">
        <ele>111.16955</ele>
        <time>2009-02-01T11:06:02Z</time>
      </trkpt>
      <trkpt lat="48.28486" lon="2.5879">
        <ele>109.24694</ele>
        <time>2009-02-01T11:06:07Z</time>
      </trkpt>
      <trkpt lat="48.28482" lon="2.5881">
        <ele>110.20825</ele>
        <time>2009-02-01T11:06:11Z</time>
      </trkpt>
      <trkpt lat="48.28487" lon="2.58828">
        <ele>109.24694</ele>
        <time>2009-02-01T11:06:16Z</time>
      </trkpt>
      <trkpt lat="48.28489" lon="2.58837">
        <ele>107.80505</ele>
        <time>2009-02-01T11:06:18Z</time>
      </trkpt>
      <trkpt lat="48.2849" lon="2.5886">
        <ele>103.95971</ele>
        <time>2009-02-01T11:06:21Z</time>
      </trkpt>
      <trkpt lat="48.28489" lon="2.5888">
        <ele>102.5177</ele>
        <time>2009-02-01T11:06:23Z</time>
      </trkpt>
      <trkpt lat="48.28485" lon="2.58892">
        <ele>102.99829</ele>
        <time>2009-02-01T11:06:26Z</time>
      </trkpt>
      <trkpt lat="48.28479" lon="2.58902">
        <ele>102.5177</ele>
        <time>2009-02-01T11:06:31Z</time>
      </trkpt>
      <trkpt lat="48.28475" lon="2.58907">
        <ele>100.1145</ele>
        <time>2009-02-01T11:06:33Z</time>
      </trkpt>
      <trkpt lat="48.28467" lon="2.58907">
        <ele>99.633789</ele>
        <time>2009-02-01T11:06:37Z</time>
      </trkpt>
      <trkpt lat="48.28463" lon="2.58902">
        <ele>100.1145</ele>
        <time>2009-02-01T11:06:39Z</time>
      </trkpt>
      <trkpt lat="48.28457" lon="2.58888">
        <ele>101.07568</ele>
        <time>2009-02-01T11:06:45Z</time>
      </trkpt>
      <trkpt lat="48.28457" lon="2.58886">
        <ele>101.55639</ele>
        <time>2009-02-01T11:06:46Z</time>
      </trkpt>
      <trkpt lat="48.28452" lon="2.58877">
        <ele>101.55639</ele>
        <time>2009-02-01T11:06:51Z</time>
      </trkpt>
      <trkpt lat="48.28444" lon="2.58865">
        <ele>103.479</ele>
        <time>2009-02-01T11:06:58Z</time>
      </trkpt>
      <trkpt lat="48.28439" lon="2.5886">
        <ele>102.99829</ele>
        <time>2009-02-01T11:07:02Z</time>
      </trkpt>
      <trkpt lat="48.28429" lon="2.58864">
        <ele>102.0371</ele>
        <time>2009-02-01T11:07:07Z</time>
      </trkpt>
      <trkpt lat="48.2841" lon="2.5889">
        <ele>99.153076</ele>
        <time>2009-02-01T11:07:13Z</time>
      </trkpt>
      <trkpt lat="48.28383" lon="2.58927">
        <ele>97.230468</ele>
        <time>2009-02-01T11:07:19Z</time>
      </trkpt>
      <trkpt lat="48.28374" lon="2.5894">
        <ele>96.269287</ele>
        <time>2009-02-01T11:07:21Z</time>
      </trkpt>
      <trkpt lat="48.28341" lon="2.58991">
        <ele>94.346557</ele>
        <time>2009-02-01T11:07:29Z</time>
      </trkpt>
      <trkpt lat="48.28315" lon="2.59033">
        <ele>92.904541</ele>
        <time>2009-02-01T11:07:36Z</time>
      </trkpt>
      <trkpt lat="48.28308" lon="2.59042">
        <ele>93.865844</ele>
        <time>2009-02-01T11:07:38Z</time>
      </trkpt>
      <trkpt lat="48.28282" lon="2.59078">
        <ele>92.904541</ele>
        <time>2009-02-01T11:07:47Z</time>
      </trkpt>
      <trkpt lat="48.2826" lon="2.59111">
        <ele>94.827148</ele>
        <time>2009-02-01T11:07:57Z</time>
      </trkpt>
      <trkpt lat="48.28251" lon="2.59126">
        <ele>96.749877</ele>
        <time>2009-02-01T11:08:02Z</time>
      </trkpt>
      <trkpt lat="48.28235" lon="2.5915">
        <ele>99.633789</ele>
        <time>2009-02-01T11:08:11Z</time>
      </trkpt>
      <trkpt lat="48.28233" lon="2.59153">
        <ele>99.633789</ele>
        <time>2009-02-01T11:08:12Z</time>
      </trkpt>
      <trkpt lat="48.28223" lon="2.59168">
        <ele>100.59509</ele>
        <time>2009-02-01T11:08:18Z</time>
      </trkpt>
      <trkpt lat="48.28215" lon="2.59181">
        <ele>101.07568</ele>
        <time>2009-02-01T11:08:25Z</time>
      </trkpt>
      <trkpt lat="48.28215" lon="2.59181">
        <ele>101.07568</ele>
        <time>2009-02-01T11:08:26Z</time>
      </trkpt>
      <trkpt lat="48.28216" lon="2.59183">
        <ele>102.0371</ele>
        <time>2009-02-01T11:08:52Z</time>
      </trkpt>
      <trkpt lat="48.28215" lon="2.59184">
        <ele>101.55639</ele>
        <time>2009-02-01T11:08:53Z</time>
      </trkpt>
      <trkpt lat="48.2821" lon="2.59191">
        <ele>101.55639</ele>
        <time>2009-02-01T11:08:56Z</time>
      </trkpt>
      <trkpt lat="48.28202" lon="2.59187">
        <ele>101.07568</ele>
        <time>2009-02-01T11:09:00Z</time>
      </trkpt>
      <trkpt lat="48.28197" lon="2.59174">
        <ele>102.5177</ele>
        <time>2009-02-01T11:09:04Z</time>
      </trkpt>
      <trkpt lat="48.28184" lon="2.59155">
        <ele>102.99829</ele>
        <time>2009-02-01T11:09:12Z</time>
      </trkpt>
      <trkpt lat="48.28177" lon="2.5914">
        <ele>103.95971</ele>
        <time>2009-02-01T11:09:18Z</time>
      </trkpt>
      <trkpt lat="48.28173" lon="2.59133">
        <ele>105.88244</ele>
        <time>2009-02-01T11:09:21Z</time>
      </trkpt>
      <trkpt lat="48.28168" lon="2.59124">
        <ele>106.84362</ele>
        <time>2009-02-01T11:09:26Z</time>
      </trkpt>
      <trkpt lat="48.2816" lon="2.5911">
        <ele>107.80505</ele>
        <time>2009-02-01T11:09:33Z</time>
      </trkpt>
      <trkpt lat="48.28153" lon="2.59099">
        <ele>108.76623</ele>
        <time>2009-02-01T11:09:40Z</time>
      </trkpt>
      <trkpt lat="48.28148" lon="2.59089">
        <ele>109.24694</ele>
        <time>2009-02-01T11:09:45Z</time>
      </trkpt>
      <trkpt lat="48.28142" lon="2.59074">
        <ele>110.68884</ele>
        <time>2009-02-01T11:09:51Z</time>
      </trkpt>
      <trkpt lat="48.28134" lon="2.59056">
        <ele>112.13098</ele>
        <time>2009-02-01T11:09:59Z</time>
      </trkpt>
      <trkpt lat="48.28127" lon="2.59043">
        <ele>114.53417</ele>
        <time>2009-02-01T11:10:07Z</time>
      </trkpt>
      <trkpt lat="48.28122" lon="2.59033">
        <ele>115.4956</ele>
        <time>2009-02-01T11:10:14Z</time>
      </trkpt>
      <trkpt lat="48.2812" lon="2.59016">
        <ele>117.8988</ele>
        <time>2009-02-01T11:10:21Z</time>
      </trkpt>
      <trkpt lat="48.28115" lon="2.59005">
        <ele>120.30212</ele>
        <time>2009-02-01T11:10:27Z</time>
      </trkpt>
      <trkpt lat="48.28112" lon="2.59003">
        <ele>120.30212</ele>
        <time>2009-02-01T11:10:30Z</time>
      </trkpt>
      <trkpt lat="48.2811" lon="2.59013">
        <ele>119.34082</ele>
        <time>2009-02-01T11:10:34Z</time>
      </trkpt>
      <trkpt lat="48.2811" lon="2.5905">
        <ele>116.9375</ele>
        <time>2009-02-01T11:10:40Z</time>
      </trkpt>
      <trkpt lat="48.2811" lon="2.59058">
        <ele>116.9375</ele>
        <time>2009-02-01T11:10:41Z</time>
      </trkpt>
      <trkpt lat="48.2811" lon="2.59083">
        <ele>115.4956</ele>
        <time>2009-02-01T11:10:44Z</time>
      </trkpt>
      <trkpt lat="48.2811" lon="2.591">
        <ele>115.01489</ele>
        <time>2009-02-01T11:10:46Z</time>
      </trkpt>
      <trkpt lat="48.28101" lon="2.5914">
        <ele>114.05358</ele>
        <time>2009-02-01T11:10:51Z</time>
      </trkpt>
      <trkpt lat="48.28098" lon="2.59164">
        <ele>115.4956</ele>
        <time>2009-02-01T11:10:56Z</time>
      </trkpt>
      <trkpt lat="48.281" lon="2.59199">
        <ele>116.9375</ele>
        <time>2009-02-01T11:11:04Z</time>
      </trkpt>
      <trkpt lat="48.28111" lon="2.59238">
        <ele>119.34082</ele>
        <time>2009-02-01T11:11:14Z</time>
      </trkpt>
      <trkpt lat="48.28108" lon="2.5926">
        <ele>120.30212</ele>
        <time>2009-02-01T11:11:20Z</time>
      </trkpt>
      <trkpt lat="48.28096" lon="2.5928">
        <ele>121.74414</ele>
        <time>2009-02-01T11:11:27Z</time>
      </trkpt>
      <trkpt lat="48.28094" lon="2.59282">
        <ele>121.74414</ele>
        <time>2009-02-01T11:11:28Z</time>
      </trkpt>
      <trkpt lat="48.2809" lon="2.59286">
        <ele>122.70544</ele>
        <time>2009-02-01T11:11:30Z</time>
      </trkpt>
      <trkpt lat="48.2808" lon="2.593">
        <ele>124.62805</ele>
        <time>2009-02-01T11:11:37Z</time>
      </trkpt>
      <trkpt lat="48.28073" lon="2.59315">
        <ele>127.03137</ele>
        <time>2009-02-01T11:11:44Z</time>
      </trkpt>
      <trkpt lat="48.28065" lon="2.59332">
        <ele>127.03137</ele>
        <time>2009-02-01T11:11:52Z</time>
      </trkpt>
      <trkpt lat="48.28053" lon="2.59348">
        <ele>129.43469</ele>
        <time>2009-02-01T11:12:00Z</time>
      </trkpt>
      <trkpt lat="48.28039" lon="2.5936">
        <ele>129.91528</ele>
        <time>2009-02-01T11:12:08Z</time>
      </trkpt>
      <trkpt lat="48.28015" lon="2.59372">
        <ele>131.35729</ele>
        <time>2009-02-01T11:12:18Z</time>
      </trkpt>
      <trkpt lat="48.27992" lon="2.5938">
        <ele>130.8767</ele>
        <time>2009-02-01T11:12:25Z</time>
      </trkpt>
      <trkpt lat="48.27981" lon="2.59389">
        <ele>129.91528</ele>
        <time>2009-02-01T11:12:29Z</time>
      </trkpt>
      <trkpt lat="48.27984" lon="2.59414">
        <ele>130.39599</ele>
        <time>2009-02-01T11:12:34Z</time>
      </trkpt>
      <trkpt lat="48.27993" lon="2.59442">
        <ele>130.39599</ele>
        <time>2009-02-01T11:12:40Z</time>
      </trkpt>
      <trkpt lat="48.27998" lon="2.59485">
        <ele>129.43469</ele>
        <time>2009-02-01T11:12:47Z</time>
      </trkpt>
      <trkpt lat="48.28001" lon="2.59524">
        <ele>128.47338</ele>
        <time>2009-02-01T11:12:53Z</time>
      </trkpt>
      <trkpt lat="48.2801" lon="2.59548">
        <ele>127.99255</ele>
        <time>2009-02-01T11:12:58Z</time>
      </trkpt>
      <trkpt lat="48.28011" lon="2.59558">
        <ele>127.51196</ele>
        <time>2009-02-01T11:13:01Z</time>
      </trkpt>
      <trkpt lat="48.28011" lon="2.59568">
        <ele>123.66674</ele>
        <time>2009-02-01T11:13:04Z</time>
      </trkpt>
      <trkpt lat="48.28013" lon="2.59571">
        <ele>123.18615</ele>
        <time>2009-02-01T11:13:05Z</time>
      </trkpt>
      <trkpt lat="48.28023" lon="2.59587">
        <ele>116.9375</ele>
        <time>2009-02-01T11:13:08Z</time>
      </trkpt>
      <trkpt lat="48.28026" lon="2.59593">
        <ele>115.4956</ele>
        <time>2009-02-01T11:13:09Z</time>
      </trkpt>
      <trkpt lat="48.28047" lon="2.5961">
        <ele>114.05358</ele>
        <time>2009-02-01T11:13:13Z</time>
      </trkpt>
      <trkpt lat="48.28068" lon="2.5963">
        <ele>109.72766</ele>
        <time>2009-02-01T11:13:17Z</time>
      </trkpt>
      <trkpt lat="48.28084" lon="2.59643">
        <ele>104.92102</ele>
        <time>2009-02-01T11:13:20Z</time>
      </trkpt>
      <trkpt lat="48.28091" lon="2.59646">
        <ele>103.95971</ele>
        <time>2009-02-01T11:13:21Z</time>
      </trkpt>
      <trkpt lat="48.28103" lon="2.5965">
        <ele>101.55639</ele>
        <time>2009-02-01T11:13:23Z</time>
      </trkpt>
      <trkpt lat="48.28117" lon="2.59653">
        <ele>100.59509</ele>
        <time>2009-02-01T11:13:25Z</time>
      </trkpt>
      <trkpt lat="48.28122" lon="2.59653">
        <ele>100.1145</ele>
        <time>2009-02-01T11:13:26Z</time>
      </trkpt>
      <trkpt lat="48.2813" lon="2.59642">
        <ele>99.153076</ele>
        <time>2009-02-01T11:13:30Z</time>
      </trkpt>
      <trkpt lat="48.28131" lon="2.59638">
        <ele>99.633789</ele>
        <time>2009-02-01T11:13:31Z</time>
      </trkpt>
      <trkpt lat="48.28135" lon="2.59609">
        <ele>98.672485</ele>
        <time>2009-02-01T11:13:37Z</time>
      </trkpt>
      <trkpt lat="48.28139" lon="2.59583">
        <ele>98.191894</ele>
        <time>2009-02-01T11:13:43Z</time>
      </trkpt>
      <trkpt lat="48.28146" lon="2.5957">
        <ele>97.711181</ele>
        <time>2009-02-01T11:13:47Z</time>
      </trkpt>
      <trkpt lat="48.28156" lon="2.59556">
        <ele>97.711181</ele>
        <time>2009-02-01T11:13:52Z</time>
      </trkpt>
      <trkpt lat="48.28163" lon="2.59558">
        <ele>95.788452</ele>
        <time>2009-02-01T11:13:55Z</time>
      </trkpt>
      <trkpt lat="48.28166" lon="2.59561">
        <ele>95.307739</ele>
        <time>2009-02-01T11:13:56Z</time>
      </trkpt>
      <trkpt lat="48.28193" lon="2.59592">
        <ele>92.42395</ele>
        <time>2009-02-01T11:14:04Z</time>
      </trkpt>
      <trkpt lat="48.28208" lon="2.59612">
        <ele>90.020629</ele>
        <time>2009-02-01T11:14:08Z</time>
      </trkpt>
      <trkpt lat="48.28237" lon="2.59645">
        <ele>87.136596</ele>
        <time>2009-02-01T11:14:14Z</time>
      </trkpt>
      <trkpt lat="48.2827" lon="2.59683">
        <ele>85.213989</ele>
        <time>2009-02-01T11:14:21Z</time>
      </trkpt>
      <trkpt lat="48.28294" lon="2.5971">
        <ele>83.291381</ele>
        <time>2009-02-01T11:14:27Z</time>
      </trkpt>
      <trkpt lat="48.2831" lon="2.59729">
        <ele>84.252685</ele>
        <time>2009-02-01T11:14:32Z</time>
      </trkpt>
      <trkpt lat="48.28314" lon="2.59737">
        <ele>83.771972</ele>
        <time>2009-02-01T11:14:34Z</time>
      </trkpt>
      <trkpt lat="48.28329" lon="2.59769">
        <ele>81.849365</ele>
        <time>2009-02-01T11:14:41Z</time>
      </trkpt>
      <trkpt lat="48.28331" lon="2.59775">
        <ele>81.368774</ele>
        <time>2009-02-01T11:14:43Z</time>
      </trkpt>
      <trkpt lat="48.28327" lon="2.59783">
        <ele>81.368774</ele>
        <time>2009-02-01T11:14:48Z</time>
      </trkpt>
      <trkpt lat="48.28326" lon="2.59784">
        <ele>80.888183</ele>
        <time>2009-02-01T11:14:50Z</time>
      </trkpt>
    </trkseg>
  </trk>
</gpx>